# Wetter Temperatur Luftdruck Luftfeuchtigkeit Sichtweite Windgeschwindigkeit Windrichtung Zeit
1 Rain 13 1016 92 10000 3.6 200 05:18 02.10.2022
2 Clear 13 1014 91 10000 4.12 210 00:56 02.10.2022
3 Clear 13 1014 91 10000 4.12 210 00:36 02.10.2022
4 Clear 13 1013 85 10000 3.09 220 23:24 01.10.2022
5 Clear 14 1012 87 10000 5.14 210 21:38 01.10.2022
6 Clouds 15 1010 82 10000 6.69 220 18:54 01.10.2022
7 Clouds 16 1009 77 10000 8.23 220 17:25 01.10.2022
8 Clouds 14 1007 90 10000 5.66 210 14:44 01.10.2022
9 Mist 12 1007 93 9000 5.14 190 13:44 01.10.2022
10 Clouds 11 1006 94 10000 6.17 190 12:34 01.10.2022
11 Drizzle 11 1006 94 10000 5.14 220 11:22 01.10.2022
12 Rain 10 1006 94 10000 7.72 190 10:47 01.10.2022
13 Rain 10 1006 94 10000 6.17 180 10:26 01.10.2022
14 Rain 10 1006 95 10000 6.17 190 09:21 01.10.2022
15 Rain 10 1006 93 10000 5.14 180 08:26 01.10.2022
16 Clear 9 1009 89 10000 2.57 230 03:42 01.10.2022
17 Clear 9 1009 89 10000 1.54 200 02:37 01.10.2022
18 Clear 9 1012 89 10000 2.06 230 23:21 30.09.2022
19 Clear 10 1012 81 10000 2.57 160 21:58 30.09.2022
20 Clear 11 1012 77 10000 3.09 180 20:53 30.09.2022
21 Clear 11 1012 77 10000 2.57 170 20:20 30.09.2022
22 Clear 16 1009 55 10000 3.6 190 18:28 30.09.2022
23 Clouds 17 1012 52 10000 3.09 240 16:54 30.09.2022
24 Clouds 16 1012 54 10000 2.06 280 14:24 30.09.2022
25 Clear 14 1012 67 10000 1.03 0 12:50 30.09.2022
26 Clear 12 1010 76 10000 2.06 60 11:56 30.09.2022
27 Clear 7 1009 89 10000 1.54 30 09:25 30.09.2022
28 Clear 5 1008 92 10000 0.51 0 07:58 30.09.2022
29 Clear 6 1008 97 10000 2.06 60 03:35 30.09.2022
30 Clear 6 1008 94 10000 0.51 0 01:45 30.09.2022
31 Clear 9 1006 92 10000 1.03 0 21:53 29.09.2022
32 Clear 9 1005 89 10000 1.03 0 21:24 29.09.2022
33 Clear 11 1005 79 10000 1.03 230 19:58 29.09.2022
34 Clear 14 1004 63 10000 1.54 170 18:30 29.09.2022
35 Clear 14 1003 64 10000 1.54 200 16:29 29.09.2022
36 Clear 14 1003 67 10000 1.03 0 15:37 29.09.2022
37 Clear 16 1001 61 10000 1.03 0 14:59 29.09.2022
38 Clouds 13 1001 71 10000 1.54 130 12:45 29.09.2022
39 Fog 7 1002 97 450 1.03 0 08:51 29.09.2022
40 Clouds 6 1001 94 10000 1.03 0 05:35 29.09.2022
41 Clear 7 1001 95 10000 1.03 240 02:37 29.09.2022
42 Clouds 9 1000 87 10000 2.57 180 23:29 28.09.2022
43 Clear 10 1000 87 10000 0.51 0 22:24 28.09.2022
44 Clear 11 1000 86 10000 1.54 250 21:28 28.09.2022
45 Clear 12 999 80 10000 1.54 130 19:58 28.09.2022
46 Clouds 14 997 65 10000 4.12 320 17:42 28.09.2022
47 Clouds 13 996 65 10000 4.12 260 14:45 28.09.2022
48 Clouds 12 996 71 10000 3.6 260 12:40 28.09.2022
49 Clouds 10 995 82 10000 4.12 250 10:24 28.09.2022
50 Clouds 8 996 89 10000 3.09 230 08:25 28.09.2022
51 Clear 8 995 91 10000 2.57 230 06:42 28.09.2022
52 Rain 9 996 90 10000 3.09 180 01:51 28.09.2022
53 Rain 9 996 89 10000 2.57 170 01:27 28.09.2022
54 Clear 9 1000 87 10000 3.6 210 22:54 27.09.2022
55 Clouds 9 1000 88 10000 5.66 220 21:24 27.09.2022
56 Clouds 10 1000 86 10000 4.12 250 20:37 27.09.2022
57 Clouds 10 1000 85 10000 2.57 240 19:47 27.09.2022
58 Rain 11 998 79 10000 5.66 220 18:31 27.09.2022
59 Rain 12 997 73 10000 6.69 230 17:43 27.09.2022
60 Clouds 13 997 66 10000 5.66 250 15:27 27.09.2022
61 Clouds 13 1000 67 10000 7.2 240 14:41 27.09.2022
62 Clouds 13 998 70 10000 8.23 230 12:40 27.09.2022
63 Clouds 11 998 79 10000 6.17 240 10:53 27.09.2022
64 Clouds 10 999 91 10000 4.63 210 08:46 27.09.2022
65 Rain 10 997 92 10000 5.66 260 06:31 27.09.2022
66 Clouds 10 997 94 10000 5.66 190 01:56 27.09.2022
67 Clouds 10 997 94 10000 6.17 190 01:27 27.09.2022
68 Rain 11 999 91 10000 5.66 190 23:25 26.09.2022
69 Rain 11 997 89 10000 4.63 180 22:31 26.09.2022
70 Rain 13 998 84 10000 5.14 230 20:40 26.09.2022
71 Rain 14 998 73 10000 5.66 190 19:30 26.09.2022
72 Clouds 14 999 73 10000 4.63 190 18:31 26.09.2022
73 Rain 15 1001 68 10000 6.17 210 16:29 26.09.2022
74 Clouds 15 1003 63 10000 7.2 220 14:28 26.09.2022
75 Clouds 13 1005 82 10000 4.12 190 11:29 26.09.2022
76 Clouds 11 1005 90 10000 4.12 200 10:38 26.09.2022
77 Clouds 11 1005 93 10000 4.12 200 10:20 26.09.2022
78 Clouds 10 1005 94 10000 4.12 210 09:54 26.09.2022
79 Clouds 10 1006 95 10000 3.09 200 09:24 26.09.2022
80 Clouds 8 1008 96 10000 2.06 200 07:56 26.09.2022
81 Mist 8 1011 97 10000 2.06 190 02:54 26.09.2022
82 Clear 10 1012 97 10000 2.57 200 23:50 25.09.2022
83 Clear 11 1012 93 10000 1.54 230 22:45 25.09.2022
84 Clear 12 1012 90 10000 2.06 220 21:35 25.09.2022
85 Clear 12 1012 88 10000 1.54 210 20:48 25.09.2022
86 Clear 13 1012 84 10000 2.57 290 19:43 25.09.2022
87 Clouds 14 1012 80 10000 2.57 300 18:43 25.09.2022
88 Clouds 14 1012 82 10000 2.57 10 18:20 25.09.2022
89 Clouds 14 1010 82 10000 2.06 350 16:45 25.09.2022
90 Clouds 13 1011 82 10000 4.12 350 15:45 25.09.2022
91 Drizzle 14 1011 85 8000 5.14 360 14:29 25.09.2022
92 Clouds 14 1011 87 10000 4.12 10 12:57 25.09.2022
93 Clouds 13 1013 94 10000 4.12 30 10:36 25.09.2022
94 Clouds 12 1012 99 10000 1.54 350 08:25 25.09.2022
95 Mist 12 1012 99 8000 1.03 300 06:23 25.09.2022
96 Rain 12 1012 99 8000 1.03 300 06:23 25.09.2022
97 Rain 13 1013 98 7000 1.03 220 02:57 25.09.2022
98 Rain 13 1013 94 10000 3.09 360 22:50 24.09.2022
99 Thunderstorm 14 1013 88 8000 3.09 250 21:19 24.09.2022
100 Clouds 17 1010 69 10000 2.06 240 19:23 24.09.2022
101 Clouds 18 1009 62 10000 1.54 160 18:18 24.09.2022
102 Clouds 19 1010 55 10000 2.57 200 16:36 24.09.2022
103 Clear 19 1010 55 10000 2.06 190 15:22 24.09.2022
104 Clear 19 1011 60 10000 2.06 150 13:50 24.09.2022
105 Clouds 18 1011 60 10000 1.03 0 12:58 24.09.2022
106 Clear 15 1011 73 10000 1.03 0 11:42 24.09.2022
107 Rain 12 1011 82 10000 2.57 10 09:54 24.09.2022
108 Clear 10 1011 87 10000 1.54 80 08:47 24.09.2022
109 Clear 8 1012 90 10000 0.51 0 07:39 24.09.2022
110 Clear 9 1013 89 10000 1.54 340 04:50 24.09.2022
111 Clear 10 1013 88 10000 1.03 0 03:43 24.09.2022
112 Clear 12 1014 85 10000 1.03 0 22:39 23.09.2022
113 Clear 14 1015 78 10000 1.03 0 21:31 23.09.2022
114 Clear 14 1015 80 10000 1.03 160 20:57 23.09.2022
115 Clear 14 1015 76 10000 0.51 140 20:20 23.09.2022
116 Clear 17 1015 62 10000 1.54 210 18:51 23.09.2022
117 Clear 19 1016 52 10000 2.06 0 15:23 23.09.2022
118 Clear 14 1016 66 10000 1.03 0 11:28 23.09.2022
119 Clear 10 1016 79 10000 3.09 20 09:35 23.09.2022
120 Clear 8 1016 83 10000 1.54 50 05:59 23.09.2022
121 Clear 10 1020 81 10000 2.57 360 00:36 23.09.2022
122 Clear 10 1020 77 10000 2.57 50 23:22 22.09.2022
123 Clear 10 1021 77 10000 1.54 80 22:27 22.09.2022
124 Clear 12 1021 64 10000 2.06 100 21:18 22.09.2022
125 Clear 14 1021 60 10000 2.57 110 19:58 22.09.2022
126 Clear 19 1021 42 10000 4.12 120 17:28 22.09.2022
127 Clear 17 1024 55 10000 2.06 0 12:52 22.09.2022
128 Clear 13 1022 73 10000 3.09 70 10:36 22.09.2022
129 Clear 9 1022 83 10000 2.57 70 08:58 22.09.2022
130 Clear 7 1022 87 10000 2.57 70 07:27 22.09.2022
131 Clear 7 1024 90 10000 1.54 30 04:36 22.09.2022
132 Clear 9 1025 87 10000 2.06 20 23:32 21.09.2022
133 Clear 11 1025 78 10000 1.03 0 21:52 21.09.2022
134 Clear 11 1025 80 10000 1.54 120 20:53 21.09.2022
135 Clear 17 1024 50 10000 4.12 80 17:55 21.09.2022
136 Clear 18 1025 51 10000 3.6 90 17:21 21.09.2022
137 Clouds 17 1026 52 10000 2.57 80 14:52 21.09.2022
138 Clear 16 1026 59 10000 3.09 50 13:38 21.09.2022
139 Clear 14 1025 73 10000 2.57 90 11:34 21.09.2022
140 Clear 12 1025 80 10000 3.09 80 10:34 21.09.2022
141 Clear 10 1025 83 10000 1.54 50 09:38 21.09.2022
142 Clouds 7 1026 91 10000 1.03 0 08:23 21.09.2022
143 Clear 8 1025 91 10000 0.51 0 02:51 21.09.2022
144 Clear 8 1025 91 10000 0.51 0 02:51 21.09.2022
145 Clear 8 1025 91 10000 0.51 0 02:32 21.09.2022
146 Clear 8 1025 91 10000 0.51 170 01:49 21.09.2022
147 Clear 10 1025 86 10000 1.03 0 23:19 20.09.2022
148 Clouds 12 1024 80 10000 3.6 0 21:33 20.09.2022
149 Clear 12 1023 76 10000 3.6 330 20:23 20.09.2022
150 Clear 15 1023 61 10000 4.12 290 17:41 20.09.2022
151 Clouds 16 1023 55 10000 2.57 260 15:18 20.09.2022
152 Clouds 15 1023 63 10000 5.66 270 13:59 20.09.2022
153 Clouds 14 1021 68 10000 3.6 330 11:24 20.09.2022
154 Clear 9 1022 90 10000 2.06 230 08:29 20.09.2022
155 Clear 9 1022 90 10000 2.06 230 08:29 20.09.2022
156 Clouds 8 1022 89 10000 3.6 270 07:32 20.09.2022
157 Clear 9 1021 87 10000 2.06 260 04:33 20.09.2022
158 Clear 10 1021 83 10000 4.12 270 01:29 20.09.2022
159 Clouds 12 1019 76 10000 4.12 260 22:33 19.09.2022
160 Clear 12 1021 78 10000 2.06 290 21:28 19.09.2022
161 Clear 13 1021 74 10000 2.57 290 20:39 19.09.2022
162 Clouds 15 1017 66 10000 6.17 330 18:43 19.09.2022
163 Clouds 15 1017 66 10000 6.17 330 18:43 19.09.2022
164 Rain 17 1017 61 10000 5.66 290 16:37 19.09.2022
165 Clouds 16 1017 65 10000 4.63 260 13:45 19.09.2022
166 Clouds 14 1017 78 10000 5.14 270 11:57 19.09.2022
167 Clouds 11 1017 82 10000 4.63 220 09:38 19.09.2022
168 Clouds 10 1018 86 10000 4.63 210 08:32 19.09.2022
169 Clouds 9 1016 85 10000 5.14 240 03:37 19.09.2022
170 Clear 8 1015 87 10000 5.14 250 00:44 19.09.2022
171 Rain 9 1015 87 10000 3.09 360 22:32 18.09.2022
172 Rain 11 1012 86 10000 5.66 260 20:47 18.09.2022
173 Drizzle 12 1012 82 10000 4.63 260 19:33 18.09.2022
174 Rain 14 1012 67 10000 5.14 290 17:52 18.09.2022
175 Rain 14 1012 67 10000 5.14 260 16:47 18.09.2022
176 Clouds 14 1015 68 10000 8.75 250 14:51 18.09.2022
177 Clouds 14 1013 72 10000 7.2 260 13:35 18.09.2022
178 Clouds 14 1013 74 10000 8.75 250 12:20 18.09.2022
179 Rain 12 1014 80 10000 6.69 250 09:44 18.09.2022
180 Clouds 10 1016 84 10000 5.14 240 01:44 18.09.2022
181 Clouds 10 1016 84 10000 5.66 230 01:20 18.09.2022
182 Clouds 10 1016 82 10000 5.14 230 23:36 17.09.2022
183 Clear 11 1015 78 10000 4.12 250 20:56 17.09.2022
184 Clouds 12 1014 72 10000 8.75 310 19:40 17.09.2022
185 Rain 13 1014 72 10000 3.6 0 18:30 17.09.2022
186 Clouds 15 1014 64 10000 7.72 280 14:27 17.09.2022
187 Clouds 15 1012 65 10000 7.2 280 13:38 17.09.2022
188 Clouds 13 1012 73 10000 5.66 280 10:50 17.09.2022
189 Clouds 10 1013 90 10000 4.12 260 08:30 17.09.2022
190 Drizzle 9 1013 91 10000 3.09 210 06:21 17.09.2022
191 Clear 10 1012 80 10000 3.6 260 23:56 16.09.2022
192 Clear 10 1012 84 10000 4.12 240 22:42 16.09.2022
193 Clear 12 1011 79 10000 3.09 270 20:54 16.09.2022
194 Clear 13 1010 77 10000 5.14 260 19:41 16.09.2022
195 Rain 17 1010 66 10000 2.57 260 16:26 16.09.2022
196 Clouds 18 1006 62 10000 1.34 181 14:53 16.09.2022
197 Clouds 17 1010 59 10000 5.66 290 13:26 16.09.2022
198 Clouds 16 1009 64 10000 6.17 270 10:46 16.09.2022
199 Clear 13 1010 80 10000 3.09 260 08:19 16.09.2022
200 Clear 14 1008 77 10000 2.06 250 06:48 16.09.2022
201 Clear 14 1011 75 10000 4.12 270 05:58 16.09.2022
202 Clear 15 1011 72 10000 3.6 260 02:35 16.09.2022
203 Clouds 17 1008 67 10000 2.06 280 22:20 15.09.2022
204 Clouds 17 1009 67 10000 3.6 300 20:39 15.09.2022
205 Clear 18 1009 66 10000 3.6 280 19:45 15.09.2022
206 Clouds 19 1008 58 10000 3.6 270 18:26 15.09.2022
207 Clouds 19 1008 56 10000 4.63 270 17:29 15.09.2022
208 Clouds 19 1009 60 10000 5.66 310 15:50 15.09.2022
209 Clouds 19 1008 68 10000 3.09 320 13:19 15.09.2022
210 Clear 18 1006 77 10000 4.12 310 11:48 15.09.2022
211 Clouds 16 1007 92 10000 1.54 310 09:46 15.09.2022
212 Clouds 15 1006 95 10000 3.6 10 07:45 15.09.2022
213 Rain 17 1002 96 7000 2.06 230 03:49 15.09.2022
214 Drizzle 17 1005 99 10000 2.06 220 23:32 14.09.2022
215 Clouds 18 1004 96 10000 4.12 240 21:26 14.09.2022
216 Rain 20 1001 91 10000 3.09 200 19:33 14.09.2022
217 Clouds 20 997 90 10000 1.03 0 18:30 14.09.2022
218 Rain 21 998 88 10000 2.06 160 16:40 14.09.2022
219 Rain 21 998 84 10000 3.09 290 15:29 14.09.2022
220 Clouds 20 999 87 10000 3.09 220 13:36 14.09.2022
221 Clouds 18 1004 91 10000 1.54 170 10:47 14.09.2022
222 Rain 18 1004 93 10000 0.51 0 09:27 14.09.2022
223 Rain 17 1006 99 5000 2.57 30 06:51 14.09.2022
224 Rain 17 1006 99 4300 0.51 350 06:33 14.09.2022
225 Rain 18 1007 96 6000 1.03 20 03:55 14.09.2022
226 Rain 18 1006 92 10000 2.06 30 01:43 14.09.2022
227 Rain 18 1008 95 10000 2.06 20 01:20 14.09.2022
228 Rain 18 1009 95 10000 0.51 0 23:55 13.09.2022
229 Rain 18 1009 95 10000 0.51 0 23:37 13.09.2022
230 Rain 18 1007 91 10000 0.51 0 23:19 13.09.2022
231 Rain 18 1008 95 10000 0.98 79 22:44 13.09.2022
232 Rain 19 1007 89 10000 1.03 0 21:44 13.09.2022
233 Rain 20 1007 81 10000 1.54 220 19:32 13.09.2022
234 Rain 21 1010 71 10000 1.54 190 17:33 13.09.2022
235 Clear 22 1009 70 10000 2.57 240 15:54 13.09.2022
236 Clear 22 1009 70 10000 2.57 240 15:54 13.09.2022
237 Clouds 21 1009 66 10000 1.54 180 14:31 13.09.2022
238 Rain 18 1010 83 10000 2.06 200 12:30 13.09.2022
239 Rain 16 1006 80 10000 1.03 0 08:43 13.09.2022
240 Clear 14 1010 88 10000 1.03 220 05:22 13.09.2022
241 Clear 16 1013 78 10000 2.57 70 23:37 12.09.2022
242 Clear 17 1013 78 10000 2.57 70 22:49 12.09.2022
243 Clear 18 1013 69 10000 0.51 0 21:37 12.09.2022
244 Clear 20 1013 68 10000 1.54 230 20:25 12.09.2022
245 Clear 24 1013 45 10000 1.03 0 18:44 12.09.2022
246 Clear 25 1014 45 10000 1.54 0 16:32 12.09.2022
247 Clear 25 1014 45 10000 1.54 0 16:32 12.09.2022
248 Clear 25 1015 45 10000 2.57 120 16:32 12.09.2022
249 Clear 23 1016 55 10000 2.57 100 13:57 12.09.2022
250 Clear 20 1015 71 10000 2.57 90 11:29 12.09.2022
251 Clear 17 1015 80 10000 3.6 60 09:46 12.09.2022
252 Mist 12 1017 92 10000 2.06 60 04:50 12.09.2022
253 Fog 12 1017 95 10000 2.06 60 04:24 12.09.2022
254 Clouds 15 1018 89 10000 2.57 20 23:34 11.09.2022
255 Clear 16 1018 87 10000 2.06 350 22:18 11.09.2022
256 Clear 17 1018 82 10000 1.54 140 20:48 11.09.2022
257 Clear 19 1018 74 10000 2.57 100 19:56 11.09.2022
258 Clouds 22 1018 61 10000 1.03 0 19:23 11.09.2022
259 Clouds 23 1018 54 10000 2.57 250 18:21 11.09.2022
260 Clouds 22 1018 59 10000 3.09 260 16:46 11.09.2022
261 Clear 21 1017 68 10000 1.54 0 14:39 11.09.2022
262 Clouds 20 1017 68 10000 1.79 161 12:42 11.09.2022
263 Clear 16 1016 90 10000 1.54 200 08:59 11.09.2022
264 Clouds 15 1017 93 10000 3.6 260 07:19 11.09.2022
265 Clouds 16 1013 92 10000 4.63 220 00:54 11.09.2022
266 Rain 16 1014 91 10000 4.63 220 23:20 10.09.2022
267 Clear 16 1014 92 10000 5.66 220 21:33 10.09.2022
268 Clouds 17 1014 90 10000 3.09 210 19:49 10.09.2022
269 Rain 17 1012 89 10000 3.09 240 19:29 10.09.2022
270 Rain 17 1011 87 10000 2.57 230 18:58 10.09.2022
271 Clouds 20 1011 70 10000 7.72 220 16:57 10.09.2022
272 Clouds 19 1013 77 10000 6.17 210 14:45 10.09.2022
273 Clouds 17 1012 85 10000 5.66 220 12:53 10.09.2022
274 Clouds 17 1012 87 10000 4.12 190 11:36 10.09.2022
275 Clouds 16 1012 92 10000 4.12 200 10:24 10.09.2022
276 Rain 15 1013 96 10000 4.12 180 08:37 10.09.2022
277 Rain 15 1013 93 10000 3.6 180 07:57 10.09.2022
278 Clouds 14 1013 96 10000 1.54 180 02:47 10.09.2022
279 Clear 15 1011 88 10000 3.09 220 23:35 09.09.2022
280 Rain 16 1011 83 10000 3.6 180 22:21 09.09.2022
281 Rain 17 1012 83 10000 4.12 200 20:48 09.09.2022
282 Clouds 18 1012 75 10000 4.63 220 19:25 09.09.2022
283 Clear 19 1011 76 10000 4.12 190 18:55 09.09.2022
284 Clear 20 1010 65 10000 5.14 210 16:34 09.09.2022
285 Clouds 21 1010 61 10000 7.2 230 14:27 09.09.2022
286 Rain 20 1010 75 10000 3.09 190 12:59 09.09.2022
287 Clouds 18 1010 77 10000 4.12 180 10:23 09.09.2022
288 Clouds 15 1011 88 10000 2.57 188 07:18 09.09.2022
289 Clear 15 1011 87 10000 0.51 200 03:28 09.09.2022
290 Clear 17 1011 80 10000 2.57 190 22:19 08.09.2022
291 Clear 17 1011 78 10000 3.09 190 21:47 08.09.2022
292 Clear 18 1011 72 10000 4.12 210 20:46 08.09.2022
293 Clear 19 1011 70 10000 3.6 210 20:21 08.09.2022
294 Clouds 22 1011 56 10000 7.72 220 18:34 08.09.2022
295 Clouds 22 1011 54 10000 8.75 220 16:47 08.09.2022
296 Clouds 22 1009 58 10000 7.2 230 14:42 08.09.2022
297 Clouds 21 1009 67 10000 8.75 230 13:27 08.09.2022
298 Clouds 20 1008 75 10000 7.2 220 12:33 08.09.2022
299 Clouds 18 1008 92 10000 5.14 220 10:58 08.09.2022
300 Clouds 17 1010 99 10000 2.57 200 09:20 08.09.2022
301 Rain 17 1009 97 10000 0.51 0 06:43 08.09.2022
302 Rain 18 1010 84 10000 4.63 180 03:18 08.09.2022
303 Rain 18 1011 88 10000 3.09 190 02:36 08.09.2022
304 Clouds 18 1010 88 10000 1.03 0 02:18 08.09.2022
305 Clear 20 1011 73 10000 2.06 140 22:55 07.09.2022
306 Clear 21 1012 73 10000 2.06 230 21:44 07.09.2022
307 Clouds 22 1012 69 10000 2.57 240 21:20 07.09.2022
308 Clouds 23 1012 60 10000 3.09 220 20:19 07.09.2022
309 Clear 26 1010 51 10000 4.63 220 18:41 07.09.2022
310 Clouds 27 1011 53 10000 6.69 240 15:41 07.09.2022
311 Clouds 22 1012 79 10000 3.09 220 10:51 07.09.2022
312 Clouds 21 1012 80 10000 3.09 220 10:32 07.09.2022
313 Clear 17 1014 95 10000 1.54 210 07:45 07.09.2022
314 Rain 18 1014 93 10000 1.03 0 04:59 07.09.2022
315 Clear 19 1012 89 10000 3.09 360 00:26 07.09.2022
316 Clear 21 1012 81 10000 2.57 330 21:48 06.09.2022
317 Clouds 21 1012 78 10000 4.63 70 21:27 06.09.2022
318 Rain 26 1012 56 10000 0.89 16 19:27 06.09.2022
319 Clear 29 1014 42 10000 2.57 230 18:29 06.09.2022
320 Clear 30 1014 38 10000 2.06 210 17:23 06.09.2022
321 Clear 30 1015 38 10000 3.6 170 16:41 06.09.2022
322 Clear 30 1016 39 10000 3.6 220 15:26 06.09.2022
323 Clear 29 1014 44 10000 2.57 0 13:47 06.09.2022
324 Clear 28 1015 46 10000 2.06 0 13:27 06.09.2022
325 Clear 27 1015 49 10000 3.09 200 12:40 06.09.2022
326 Clear 23 1016 61 10000 2.57 200 10:54 06.09.2022
327 Clear 21 1015 69 10000 1.54 290 08:58 06.09.2022
328 Clear 19 1017 74 10000 0.51 0 07:52 06.09.2022
329 Rain 19 1016 76 10000 2.57 80 06:18 06.09.2022
330 Clear 18 1017 64 10000 1.54 20 00:45 06.09.2022
331 Clear 20 1017 52 10000 0.51 0 22:44 05.09.2022
332 Clear 22 1017 49 10000 1.03 0 21:38 05.09.2022
333 Clear 25 1017 44 10000 1.03 210 20:18 05.09.2022
334 Clear 29 1017 32 10000 2.06 210 18:53 05.09.2022
335 Clear 30 1017 32 10000 3.09 240 18:24 05.09.2022
336 Clear 30 1018 33 10000 3.6 210 17:47 05.09.2022
337 Clear 30 1019 35 10000 3.6 0 15:53 05.09.2022
338 Clear 29 1019 41 10000 2.57 140 14:34 05.09.2022
339 Clear 28 1019 45 10000 1.54 280 12:50 05.09.2022
340 Clear 23 1019 60 10000 2.06 40 10:35 05.09.2022
341 Clear 17 1019 74 10000 2.06 20 08:36 05.09.2022
342 Clear 17 1018 78 10000 2.57 70 03:47 05.09.2022
343 Clear 17 1018 78 10000 2.57 70 03:47 05.09.2022
344 Clear 17 1020 75 10000 1.54 360 00:18 05.09.2022
345 Clear 19 1020 68 10000 1.03 0 22:28 04.09.2022
346 Clear 20 1020 66 10000 0.51 170 21:55 04.09.2022
347 Clear 24 1019 58 10000 1.54 190 20:21 04.09.2022
348 Clear 26 1019 43 10000 2.06 150 18:34 04.09.2022
349 Clear 27 1019 44 10000 2.57 0 17:26 04.09.2022
350 Clear 26 1019 49 10000 2.57 230 15:43 04.09.2022
351 Clear 25 1020 59 10000 2.57 220 14:25 04.09.2022
352 Clouds 23 1018 64 10000 3.09 170 12:34 04.09.2022
353 Clouds 21 1018 73 10000 1.54 250 10:59 04.09.2022
354 Mist 18 1017 86 8000 1.54 200 09:34 04.09.2022
355 Fog 15 1017 92 1000 1.03 0 06:34 04.09.2022
356 Clear 15 1016 90 10000 0.51 180 02:51 04.09.2022
357 Clouds 18 1015 74 10000 0.87 147 22:34 03.09.2022
358 Clear 18 1014 81 10000 1.54 190 21:26 03.09.2022
359 Clear 18 1014 85 10000 2.06 210 20:55 03.09.2022
360 Clouds 23 1013 60 10000 1.54 180 18:41 03.09.2022
361 Clouds 24 1011 53 10000 2.57 220 17:19 03.09.2022
362 Clouds 24 1013 58 10000 2.57 90 15:49 03.09.2022
363 Clouds 22 1013 61 10000 2.06 0 14:42 03.09.2022
364 Clouds 22 1012 57 10000 2.06 130 13:50 03.09.2022
365 Clear 19 1012 67 10000 3.6 90 11:32 03.09.2022
366 Rain 17 1013 60 10000 2.57 110 09:36 03.09.2022
367 Clear 17 1012 57 10000 4.12 60 07:53 03.09.2022
368 Clear 17 1013 57 10000 3.6 40 04:51 03.09.2022
369 Clear 17 1013 53 10000 4.63 30 02:49 03.09.2022
370 Clear 18 1013 47 10000 3.6 70 23:46 02.09.2022
371 Clear 19 1013 43 10000 5.14 80 22:23 02.09.2022
372 Clear 22 1013 37 10000 4.12 80 20:42 02.09.2022
373 Clouds 22 1013 42 10000 3.09 103 20:22 02.09.2022
374 Clear 25 1013 29 10000 3.6 100 18:51 02.09.2022
375 Clear 25 1013 29 10000 5.66 90 18:26 02.09.2022
376 Clear 25 1013 30 10000 6.69 90 17:28 02.09.2022
377 Clear 25 1014 30 10000 5.66 100 16:32 02.09.2022
378 Clear 24 1016 34 10000 6.69 90 13:50 02.09.2022
379 Clear 23 1015 43 10000 5.66 90 11:36 02.09.2022
380 Clear 19 1015 53 10000 3.6 60 09:46 02.09.2022
381 Clear 17 1017 59 10000 4.12 60 08:49 02.09.2022
382 Clear 16 1017 60 10000 3.6 50 06:50 02.09.2022
383 Clear 16 1017 59 10000 3.6 60 06:24 02.09.2022
384 Clear 18 1018 56 10000 3.09 30 01:41 02.09.2022
385 Clear 20 1018 49 10000 3.6 100 22:24 01.09.2022
386 Clear 21 1018 43 10000 3.09 90 21:39 01.09.2022
387 Clear 21 1018 46 10000 3.09 90 21:20 01.09.2022
388 Clear 22 1017 41 10000 5.14 60 20:31 01.09.2022
389 Clear 25 1017 34 10000 5.66 60 18:38 01.09.2022
390 Clouds 25 1018 38 10000 3.43 74 16:58 01.09.2022
391 Clear 25 1018 40 10000 5.14 60 15:29 01.09.2022
392 Clear 24 1019 43 10000 6.69 110 13:48 01.09.2022
393 Clear 23 1020 49 10000 4.63 70 12:57 01.09.2022
394 Clear 22 1018 53 10000 3.6 30 11:52 01.09.2022
395 Clear 21 1018 55 10000 3.6 40 11:29 01.09.2022
396 Clouds 18 1020 65 10000 4.12 30 09:49 01.09.2022
397 Clear 16 1020 71 10000 4.63 40 07:50 01.09.2022
398 Clear 15 1019 72 10000 4.63 30 05:58 01.09.2022
399 Clear 17 1020 64 10000 4.63 20 01:31 01.09.2022
400 Clear 17 1020 64 10000 4.63 20 01:31 01.09.2022
401 Clear 17 1020 64 10000 4.63 20 01:31 01.09.2022
402 Clear 19 1020 59 10000 4.63 30 23:19 31.08.2022
403 Clear 21 1020 57 10000 5.66 50 21:20 31.08.2022
404 Clear 24 1019 45 10000 6.17 50 19:23 31.08.2022
405 Clear 25 1019 45 10000 4.12 60 17:25 31.08.2022
406 Clear 24 1020 51 10000 3.09 350 15:39 31.08.2022
407 Clear 23 1019 55 10000 2.57 10 13:56 31.08.2022
408 Drizzle 20 1019 68 10000 2.06 70 12:19 31.08.2022
409 Drizzle 18 1020 73 10000 3.09 30 09:39 31.08.2022
410 Rain 19 1020 69 10000 4.12 30 08:32 31.08.2022
411 Clear 20 1018 58 10000 5.14 20 03:46 31.08.2022
412 Clear 23 1018 45 10000 5.66 40 22:44 30.08.2022
413 Clouds 24 1018 47 10000 2.83 59 21:33 30.08.2022
414 Clear 26 1017 39 10000 5.14 20 20:38 30.08.2022
415 Clear 30 1017 29 10000 4.12 30 17:25 30.08.2022
416 Clear 29 1018 30 10000 2.57 0 14:41 30.08.2022
417 Clear 27 1017 36 10000 4.63 50 12:54 30.08.2022
418 Clear 24 1018 46 10000 3.6 30 11:21 30.08.2022
419 Clear 22 1018 51 10000 4.12 50 10:35 30.08.2022
420 Clear 16 1017 67 10000 2.57 70 06:49 30.08.2022
421 Clear 18 1019 54 10000 2.57 70 01:45 30.08.2022
422 Clear 18 1019 54 10000 2.57 70 01:45 30.08.2022
423 Clear 20 1019 35 10000 5.66 30 22:47 29.08.2022
424 Clear 21 1019 44 10000 5.14 20 22:18 29.08.2022
425 Clear 22 1018 40 10000 4.12 20 21:23 29.08.2022
426 Clear 25 1018 36 10000 4.12 30 19:48 29.08.2022
427 Clear 27 1018 33 10000 3.09 40 17:43 29.08.2022
428 Clear 27 1019 33 10000 3.09 40 17:24 29.08.2022
429 Clear 27 1019 35 10000 2.06 0 15:42 29.08.2022
430 Clear 26 1020 38 10000 2.57 0 14:43 29.08.2022
431 Clear 24 1021 43 10000 3.6 30 12:52 29.08.2022
432 Clear 21 1019 52 10000 4.12 50 10:56 29.08.2022
433 Clear 19 1019 56 10000 4.63 30 09:45 29.08.2022
434 Clear 16 1020 65 10000 4.63 30 08:28 29.08.2022
435 Clear 16 1019 62 10000 4.63 30 02:49 29.08.2022
436 Clear 19 1019 55 10000 4.63 30 23:55 28.08.2022
437 Clear 20 1019 49 10000 5.14 30 22:36 28.08.2022
438 Clear 21 1018 47 10000 4.63 20 21:40 28.08.2022
439 Clear 23 1017 45 10000 4.12 20 20:43 28.08.2022
440 Clear 26 1017 38 10000 2.57 30 19:20 28.08.2022
441 Clear 26 1017 37 10000 3.09 30 18:20 28.08.2022
442 Clear 27 1017 38 10000 3.6 40 16:57 28.08.2022
443 Clear 26 1017 41 10000 2.06 0 15:55 28.08.2022
444 Clear 25 1018 45 10000 3.6 60 14:36 28.08.2022
445 Clear 23 1018 54 10000 3.6 30 12:32 28.08.2022
446 Clear 21 1018 63 10000 5.14 20 10:43 28.08.2022
447 Clear 20 1018 69 10000 6.17 20 09:42 28.08.2022
448 Clear 19 1015 70 10000 6.17 20 08:37 28.08.2022
449 Clear 18 1017 74 10000 4.12 20 07:43 28.08.2022
450 Clear 19 1016 76 10000 3.09 20 02:39 28.08.2022
451 Clouds 20 1014 71 10000 4.63 20 00:26 28.08.2022
452 Clouds 21 1016 69 10000 5.14 30 22:36 27.08.2022
453 Clouds 21 1015 76 10000 4.63 30 21:31 27.08.2022
454 Mist 23 1014 78 10000 2.57 340 19:44 27.08.2022
455 Clouds 25 1014 58 10000 2.57 310 17:43 27.08.2022
456 Clouds 25 1014 60 10000 3.09 330 15:53 27.08.2022
457 Clouds 25 1014 60 10000 3.09 350 15:24 27.08.2022
458 Clouds 23 1015 65 10000 4.12 20 12:28 27.08.2022
459 Clouds 23 1015 68 10000 3.6 0 11:32 27.08.2022
460 Clouds 23 1015 68 10000 3.6 0 11:32 27.08.2022
461 Clouds 21 1014 75 10000 4.12 360 09:49 27.08.2022
462 Clouds 21 1014 78 10000 4.12 360 08:22 27.08.2022
463 Clouds 21 1014 77 10000 3.6 300 03:40 27.08.2022
464 Clear 21 1014 74 10000 3.6 320 23:57 26.08.2022
465 Clear 22 1013 70 10000 4.63 320 22:50 26.08.2022
466 Clear 23 1013 67 10000 5.66 320 21:30 26.08.2022
467 Clouds 25 1012 58 10000 5.14 290 19:23 26.08.2022
468 Rain 28 1010 50 10000 9.26 20 16:50 26.08.2022
469 Clear 30 1011 35 10000 2.06 0 15:35 26.08.2022
470 Clear 29 1010 47 10000 4.63 300 14:34 26.08.2022
471 Clouds 28 1011 50 10000 4.12 230 12:53 26.08.2022
472 Clear 28 1011 49 10000 2.57 280 11:35 26.08.2022
473 Clear 26 1011 53 10000 1.03 0 10:46 26.08.2022
474 Clear 21 1013 63 10000 2.06 360 07:32 26.08.2022
475 Clear 22 1013 58 10000 2.57 10 02:31 26.08.2022
476 Clear 23 1013 56 10000 2.06 360 23:44 25.08.2022
477 Clear 25 1013 52 10000 3.09 20 21:40 25.08.2022
478 Clear 28 1013 40 10000 2.06 80 20:51 25.08.2022
479 Clear 31 1013 36 10000 4.12 80 19:24 25.08.2022
480 Clear 31 1013 35 10000 3.6 60 18:18 25.08.2022
481 Clear 31 1013 36 10000 4.12 90 17:31 25.08.2022
482 Clear 31 1014 35 10000 3.6 80 16:25 25.08.2022
483 Clear 31 1015 38 10000 3.09 120 15:27 25.08.2022
484 Clouds 29 1014 43 10000 5.66 100 12:47 25.08.2022
485 Clear 27 1015 54 10000 4.12 80 10:49 25.08.2022
486 Clear 24 1015 61 10000 3.6 60 09:21 25.08.2022
487 Clear 20 1015 64 10000 3.09 80 06:45 25.08.2022
488 Clear 22 1018 53 10000 3.6 40 01:57 25.08.2022
489 Clear 24 1017 40 10000 3.6 30 23:28 24.08.2022
490 Clear 24 1017 49 10000 2.06 60 22:43 24.08.2022
491 Clear 26 1017 44 10000 2.06 100 21:37 24.08.2022
492 Clear 28 1017 36 10000 3.6 90 20:56 24.08.2022
493 Clear 30 1017 31 10000 4.12 70 19:34 24.08.2022
494 Clear 32 1017 28 10000 4.63 90 16:49 24.08.2022
495 Clear 32 1018 29 10000 3.6 110 15:52 24.08.2022
496 Clear 31 1016 33 10000 2.57 0 13:49 24.08.2022
497 Clear 29 1017 39 10000 2.57 100 12:24 24.08.2022
498 Clear 27 1017 46 10000 3.09 60 11:18 24.08.2022
499 Clear 21 1018 61 10000 3.6 40 08:28 24.08.2022
500 Clear 20 1018 60 10000 3.6 40 03:44 24.08.2022
501 Clear 22 1017 48 10000 0.51 0 23:53 23.08.2022
502 Clear 23 1017 45 10000 0.51 220 22:35 23.08.2022
503 Clear 24 1016 45 10000 1.03 0 21:49 23.08.2022
504 Clear 26 1016 42 10000 1.54 210 20:40 23.08.2022
505 Clear 31 1015 27 10000 2.06 200 18:55 23.08.2022
506 Clear 31 1015 26 10000 3.09 190 17:53 23.08.2022
507 Clear 31 1015 27 10000 2.06 0 17:21 23.08.2022
508 Clear 32 1016 28 10000 1.54 0 15:52 23.08.2022
509 Clear 30 1014 32 10000 3.09 190 13:54 23.08.2022
510 Clear 29 1015 36 10000 2.57 200 12:46 23.08.2022
511 Clear 25 1015 46 10000 1.03 0 10:57 23.08.2022
512 Clear 24 1015 47 10000 2.06 90 10:33 23.08.2022
513 Clear 21 1015 55 10000 2.06 60 08:58 23.08.2022
514 Clear 20 1015 58 10000 2.06 60 08:38 23.08.2022
515 Clear 19 1014 60 10000 2.57 60 08:18 23.08.2022
516 Clear 18 1016 65 10000 3.09 50 07:25 23.08.2022
517 Clear 18 1015 66 10000 3.09 60 06:22 23.08.2022
518 Clear 21 1015 51 10000 1.54 10 01:44 23.08.2022
519 Clear 22 1014 44 10000 3.09 100 00:26 23.08.2022
520 Clear 23 1013 45 10000 2.57 110 23:32 22.08.2022
521 Clear 23 1013 39 10000 2.57 120 22:24 22.08.2022
522 Clear 27 1013 36 10000 2.57 110 20:29 22.08.2022
523 Clear 28 1013 33 10000 3.6 120 19:41 22.08.2022
524 Clear 29 1013 30 10000 2.57 170 18:37 22.08.2022
525 Clear 30 1013 28 10000 3.09 130 15:46 22.08.2022
526 Clear 29 1014 30 10000 2.57 0 15:18 22.08.2022
527 Clear 26 1013 45 10000 2.57 100 11:39 22.08.2022
528 Clear 21 1013 53 10000 3.6 60 09:24 22.08.2022
529 Clear 18 1015 62 10000 2.57 70 05:51 22.08.2022
530 Clear 20 1015 51 10000 4.63 10 00:57 22.08.2022
531 Clear 20 1015 51 10000 4.63 10 00:36 22.08.2022
532 Clear 21 1015 45 10000 4.12 30 23:32 21.08.2022
533 Clear 22 1014 43 10000 3.6 10 21:55 21.08.2022
534 Clear 23 1014 41 10000 3.09 10 21:19 21.08.2022
535 Clear 25 1014 37 10000 2.06 300 20:20 21.08.2022
536 Clear 28 1014 31 10000 3.09 280 18:48 21.08.2022
537 Clear 28 1015 32 10000 2.06 130 16:50 21.08.2022
538 Clear 28 1013 33 10000 1.54 0 15:52 21.08.2022
539 Clear 27 1015 36 10000 2.57 0 14:51 21.08.2022
540 Clear 27 1014 38 10000 3.09 0 13:50 21.08.2022
541 Clear 26 1014 41 10000 2.06 0 12:56 21.08.2022
542 Clear 23 1015 56 10000 1.03 0 10:40 21.08.2022
543 Clear 19 1015 64 10000 0.51 0 09:21 21.08.2022
544 Clear 19 1015 69 10000 1.03 0 08:46 21.08.2022
545 Clear 17 1017 77 10000 1.54 150 08:28 21.08.2022
546 Clear 14 1018 87 10000 0.67 18 06:37 21.08.2022
547 Clear 18 1017 68 10000 0.56 26 01:50 21.08.2022
548 Clear 20 1017 59 10000 1.54 290 23:34 20.08.2022
549 Clear 22 1017 50 10000 3.09 320 21:57 20.08.2022
550 Clear 24 1016 44 10000 4.63 330 20:56 20.08.2022
551 Clear 26 1016 39 10000 5.66 330 19:49 20.08.2022
552 Clear 28 1015 36 10000 7.2 330 18:50 20.08.2022
553 Clear 28 1015 35 10000 7.2 0 18:26 20.08.2022
554 Clear 29 1015 29 10000 4.63 270 17:21 20.08.2022
555 Clear 29 1015 36 10000 5.14 240 16:20 20.08.2022
556 Clear 28 1014 42 10000 5.66 240 14:26 20.08.2022
557 Clouds 25 1016 64 10000 4.63 230 12:19 20.08.2022
558 Clouds 23 1016 70 10000 4.63 240 11:42 20.08.2022
559 Clouds 20 1016 86 10000 3.09 230 09:20 20.08.2022
560 Clear 20 1015 76 10000 3.6 280 07:31 20.08.2022
561 Clear 21 1015 72 10000 3.6 250 05:22 20.08.2022
562 Clear 22 1015 58 10000 3.09 260 00:58 20.08.2022
563 Clear 23 1014 53 10000 3.6 300 23:51 19.08.2022
564 Clear 24 1014 50 10000 4.12 310 22:45 19.08.2022
565 Clear 25 1013 43 10000 4.12 310 21:30 19.08.2022
566 Clear 29 1012 36 10000 7.2 320 19:22 19.08.2022
567 Clear 29 1012 35 10000 5.14 320 16:28 19.08.2022
568 Clear 29 1010 41 10000 5.66 300 14:22 19.08.2022
569 Clouds 26 1011 51 10000 5.14 330 12:19 19.08.2022
570 Clouds 25 1011 57 10000 4.12 310 10:39 19.08.2022
571 Clouds 22 1013 70 10000 4.12 330 08:48 19.08.2022
572 Clouds 21 1012 70 10000 2.57 340 04:56 19.08.2022
573 Clear 21 1012 70 10000 2.06 10 00:43 19.08.2022
574 Clear 22 1012 67 10000 3.6 360 00:19 19.08.2022
575 Clouds 23 1012 63 10000 4.12 20 22:58 18.08.2022
576 Clear 23 1012 65 10000 4.63 350 22:26 18.08.2022
577 Clear 23 1011 67 10000 6.17 360 21:51 18.08.2022
578 Clouds 24 1011 60 10000 4.12 330 20:56 18.08.2022
579 Clear 25 1011 56 10000 4.63 330 19:40 18.08.2022
580 Clear 25 1011 54 10000 5.14 310 19:20 18.08.2022
581 Clear 27 1011 50 10000 1.54 0 17:41 18.08.2022
582 Clouds 26 1012 52 10000 1.03 0 16:19 18.08.2022
583 Clear 24 1012 64 10000 3.09 350 14:22 18.08.2022
584 Clear 24 1012 64 10000 3.09 350 14:22 18.08.2022
585 Clouds 23 1013 72 10000 2.06 140 13:44 18.08.2022
586 Rain 21 1013 85 10000 1.54 250 12:30 18.08.2022
587 Rain 21 1013 84 10000 2.06 180 11:21 18.08.2022
588 Rain 20 1013 85 10000 2.57 160 09:43 18.08.2022
589 Rain 20 1012 79 10000 1.54 200 07:57 18.08.2022
590 Clear 20 1012 77 10000 1.03 250 06:43 18.08.2022
591 Clear 21 1012 69 10000 0.51 230 02:32 18.08.2022
592 Clear 23 1011 56 10000 1.03 250 22:51 17.08.2022
593 Clear 25 1010 50 10000 1.54 200 21:26 17.08.2022
594 Clear 29 1010 39 10000 4.12 180 19:59 17.08.2022
595 Clear 30 1010 35 10000 5.14 160 18:39 17.08.2022
596 Clear 30 1010 37 10000 3.09 200 17:27 17.08.2022
597 Clear 30 1009 39 10000 4.12 180 16:20 17.08.2022
598 Clear 30 1010 35 10000 5.14 140 14:48 17.08.2022
599 Clear 26 1010 49 10000 3.6 210 12:50 17.08.2022
600 Rain 24 1007 58 10000 0.6 113 11:36 17.08.2022
601 Clear 23 1008 56 10000 2.57 90 09:30 17.08.2022
602 Clear 19 1010 68 10000 3.09 20 07:28 17.08.2022
603 Clear 20 1010 63 10000 1.54 60 01:45 17.08.2022
604 Clear 21 1010 60 10000 1.54 330 23:45 16.08.2022
605 Clear 24 1009 55 10000 1.54 180 21:52 16.08.2022
606 Clear 28 1009 40 10000 2.57 190 20:26 16.08.2022
607 Clear 28 1009 40 10000 2.57 190 19:50 16.08.2022
608 Clear 30 1009 35 10000 2.57 0 18:23 16.08.2022
609 Clear 30 1009 38 10000 2.06 0 17:40 16.08.2022
610 Clear 29 1010 41 10000 2.06 0 15:46 16.08.2022
611 Clear 29 1010 44 10000 1.54 0 14:55 16.08.2022
612 Clear 29 1010 45 10000 1.54 0 14:37 16.08.2022
613 Clouds 26 1008 53 10000 3.09 190 12:43 16.08.2022
614 Clouds 23 1008 66 10000 1.54 0 10:35 16.08.2022
615 Clouds 21 1008 73 10000 2.57 210 09:43 16.08.2022
616 Clouds 20 1007 76 10000 2.06 180 08:43 16.08.2022
617 Clouds 16 1009 92 10000 1.54 190 07:23 16.08.2022
618 Clear 19 1008 80 10000 3.09 200 01:41 16.08.2022
619 Clear 22 1007 66 10000 3.6 190 22:29 15.08.2022
620 Clouds 22 1007 66 10000 2.06 190 21:53 15.08.2022
621 Clouds 23 1006 66 10000 4.63 180 20:48 15.08.2022
622 Clouds 25 1006 51 10000 5.66 210 20:19 15.08.2022
623 Clear 27 1006 45 10000 4.12 240 18:36 15.08.2022
624 Clouds 27 1005 48 10000 4.12 240 17:23 15.08.2022
625 Clouds 27 1004 48 10000 3.6 250 16:21 15.08.2022
626 Clouds 27 1004 45 10000 5.66 240 13:56 15.08.2022
627 Clouds 25 1004 57 10000 6.17 240 12:37 15.08.2022
628 Clear 23 1003 63 10000 4.12 230 10:18 15.08.2022
629 Clouds 22 1005 65 10000 4.63 220 08:27 15.08.2022
630 Clear 22 1005 63 10000 3.09 220 06:27 15.08.2022
631 Clear 23 1004 52 10000 3.6 210 02:40 15.08.2022
632 Clear 25 1005 45 10000 2.06 0 22:40 14.08.2022
633 Clear 27 1005 42 10000 1.54 200 21:42 14.08.2022
634 Clear 30 1004 35 10000 1.54 170 20:29 14.08.2022
635 Clear 32 1005 30 10000 1.03 0 19:32 14.08.2022
636 Clear 33 1005 29 10000 1.54 0 18:20 14.08.2022
637 Clear 33 1005 28 10000 2.57 0 17:22 14.08.2022
638 Clear 33 1006 28 10000 3.6 80 16:21 14.08.2022
639 Clear 32 1007 31 10000 4.12 110 14:39 14.08.2022
640 Clear 31 1006 34 10000 1.54 0 13:50 14.08.2022
641 Clear 30 1009 36 10000 3.6 120 13:26 14.08.2022
642 Clear 30 1007 40 10000 2.06 0 12:34 14.08.2022
643 Clear 27 1008 49 10000 3.6 70 11:20 14.08.2022
644 Clear 23 1009 64 10000 4.63 60 08:56 14.08.2022
645 Clear 19 1011 75 10000 3.6 10 06:27 14.08.2022
646 Clear 20 1011 68 10000 4.12 20 04:47 14.08.2022
647 Clear 23 1014 56 10000 3.6 10 01:35 14.08.2022
648 Clear 24 1013 41 10000 3.6 70 22:56 13.08.2022
649 Clear 24 1013 33 10000 1.54 210 21:59 13.08.2022
650 Clear 27 1012 32 10000 2.57 70 20:49 13.08.2022
651 Clear 30 1012 24 10000 3.09 80 19:48 13.08.2022
652 Clear 31 1013 25 10000 2.57 90 19:18 13.08.2022
653 Clear 32 1014 24 10000 3.6 360 17:21 13.08.2022
654 Clear 30 1015 28 10000 3.6 60 14:42 13.08.2022
655 Clear 30 1016 30 10000 4.63 50 13:49 13.08.2022
656 Clear 30 1016 30 10000 5.66 90 13:28 13.08.2022
657 Clear 28 1015 35 10000 4.63 50 11:29 13.08.2022
658 Clear 24 1015 45 10000 3.09 40 09:23 13.08.2022
659 Clear 17 1017 57 10000 1.54 60 06:54 13.08.2022
660 Clear 20 1017 42 10000 1.54 50 01:51 13.08.2022
661 Clear 22 1017 39 10000 3.6 60 23:32 12.08.2022
662 Clear 24 1016 36 10000 3.09 70 21:39 12.08.2022
663 Clear 29 1016 26 10000 5.14 100 19:48 12.08.2022
664 Clear 30 1016 25 10000 6.17 90 19:23 12.08.2022
665 Clear 30 1016 24 10000 4.63 90 18:26 12.08.2022
666 Clear 31 1016 23 10000 6.17 50 16:27 12.08.2022
667 Clear 30 1017 25 10000 6.17 50 15:21 12.08.2022
668 Clear 29 1018 26 10000 3.09 0 13:47 12.08.2022
669 Clear 29 1016 27 10000 4.63 50 12:38 12.08.2022
670 Clear 23 1018 44 10000 4.12 40 08:57 12.08.2022
671 Clear 20 1019 50 10000 4.12 20 07:46 12.08.2022
672 Clear 18 1019 52 10000 3.09 20 06:24 12.08.2022
673 Clear 22 1019 40 10000 4.12 10 00:49 12.08.2022
674 Clear 23 1019 40 10000 4.63 50 00:18 12.08.2022
675 Clear 24 1019 38 10000 5.14 40 23:27 11.08.2022
676 Clear 27 1018 26 10000 3.09 80 21:55 11.08.2022
677 Clear 27 1018 23 10000 2.57 130 21:28 11.08.2022
678 Clear 30 1017 27 10000 5.14 60 20:31 11.08.2022
679 Clear 30 1017 25 10000 4.12 30 19:41 11.08.2022
680 Clear 31 1018 24 10000 4.63 40 19:21 11.08.2022
681 Clear 32 1019 22 10000 5.66 80 17:23 11.08.2022
682 Clear 31 1020 24 10000 6.17 100 15:51 11.08.2022
683 Clear 31 1020 26 10000 4.63 40 15:20 11.08.2022
684 Clear 29 1020 32 10000 4.12 100 12:35 11.08.2022
685 Clear 24 1020 43 10000 3.6 20 09:24 11.08.2022
686 Clear 18 1022 53 10000 3.09 50 06:58 11.08.2022
687 Clear 20 1022 49 10000 3.09 10 03:25 11.08.2022
688 Clear 23 1022 35 10000 4.63 20 00:28 11.08.2022
689 Clear 25 1021 29 10000 3.6 20 22:18 10.08.2022
690 Clear 26 1021 32 10000 3.6 110 21:20 10.08.2022
691 Clear 28 1021 27 10000 3.6 120 20:43 10.08.2022
692 Clear 28 1021 27 10000 3.6 120 20:43 10.08.2022
693 Clear 31 1021 23 10000 5.66 70 18:53 10.08.2022
694 Clear 31 1021 23 10000 6.17 70 17:31 10.08.2022
695 Clear 31 1023 25 10000 5.14 50 15:53 10.08.2022
696 Clear 29 1024 28 10000 4.63 30 13:34 10.08.2022
697 Clear 29 1023 30 10000 4.63 60 12:27 10.08.2022
698 Clear 23 1023 46 10000 3.6 30 08:55 10.08.2022
699 Clear 21 1023 50 10000 4.63 30 08:31 10.08.2022
700 Clear 18 1024 58 10000 4.63 30 06:22 10.08.2022
701 Clear 20 1024 50 10000 5.66 20 03:24 10.08.2022
702 Clear 23 1024 39 10000 6.17 20 23:34 09.08.2022
703 Clear 25 1024 35 10000 5.66 20 22:56 09.08.2022
704 Clear 26 1024 32 10000 6.17 20 21:35 09.08.2022
705 Clear 30 1023 27 10000 5.14 30 19:35 09.08.2022
706 Clear 31 1023 26 10000 5.14 10 18:29 09.08.2022
707 Clear 31 1023 25 10000 4.63 10 17:27 09.08.2022
708 Clear 31 1023 24 10000 4.12 0 16:40 09.08.2022
709 Clear 31 1023 24 10000 4.12 0 16:40 09.08.2022
710 Clear 31 1024 26 10000 5.14 20 15:46 09.08.2022
711 Clear 29 1023 31 10000 3.09 100 12:48 09.08.2022
712 Clear 23 1023 46 10000 5.14 40 09:36 09.08.2022
713 Clear 21 1023 52 10000 5.66 30 08:39 09.08.2022
714 Clear 18 1024 58 10000 4.63 30 07:52 09.08.2022
715 Clear 19 1023 51 10000 7.2 30 04:22 09.08.2022
716 Clear 24 1023 38 10000 6.17 30 23:27 08.08.2022
717 Clear 24 1023 38 10000 5.14 20 22:55 08.08.2022
718 Clear 24 1022 36 10000 5.14 20 22:18 08.08.2022
719 Clear 26 1022 31 10000 5.14 30 21:18 08.08.2022
720 Clear 29 1021 27 10000 4.63 10 19:51 08.08.2022
721 Clear 30 1021 24 10000 4.12 360 18:50 08.08.2022
722 Clear 30 1022 24 10000 3.09 0 16:44 08.08.2022
723 Clear 30 1022 25 10000 2.57 300 15:40 08.08.2022
724 Clear 29 1022 27 10000 3.09 0 14:29 08.08.2022
725 Clear 27 1021 30 10000 5.14 20 12:27 08.08.2022
726 Clear 22 1021 41 10000 4.63 50 09:48 08.08.2022
727 Clear 16 1022 56 10000 5.66 30 06:51 08.08.2022
728 Clear 17 1021 50 10000 6.17 30 03:31 08.08.2022
729 Clear 22 1021 36 10000 4.12 10 22:42 07.08.2022
730 Clear 23 1021 34 10000 3.6 360 21:40 07.08.2022
731 Clear 25 1020 29 10000 5.14 10 20:42 07.08.2022
732 Clear 26 1020 29 10000 4.12 10 20:18 07.08.2022
733 Clear 27 1020 26 10000 3.6 360 19:41 07.08.2022
734 Clear 27 1020 26 10000 2.57 0 18:36 07.08.2022
735 Clear 27 1021 28 10000 6.17 330 16:55 07.08.2022
736 Clear 27 1021 27 10000 6.17 330 16:35 07.08.2022
737 Clear 27 1021 29 10000 2.57 0 15:24 07.08.2022
738 Clear 26 1020 31 10000 4.12 40 13:37 07.08.2022
739 Clear 25 1021 38 10000 3.09 0 12:18 07.08.2022
740 Clear 22 1022 41 10000 4.12 50 10:35 07.08.2022
741 Clear 17 1024 52 10000 6.69 20 08:26 07.08.2022
742 Clear 15 1024 55 10000 6.17 30 04:26 07.08.2022
743 Clear 16 1025 53 10000 6.69 20 01:50 07.08.2022
744 Clear 20 1024 41 10000 4.63 20 22:28 06.08.2022
745 Clear 21 1024 40 10000 5.14 360 21:28 06.08.2022
746 Clear 24 1024 32 10000 6.17 20 19:42 06.08.2022
747 Clear 24 1024 31 10000 5.14 40 18:33 06.08.2022
748 Clear 25 1024 30 10000 4.63 20 17:39 06.08.2022
749 Clear 24 1025 33 10000 5.14 50 15:21 06.08.2022
750 Clear 24 1024 38 10000 5.14 30 13:50 06.08.2022
751 Clouds 22 1024 44 10000 5.66 40 12:21 06.08.2022
752 Clouds 20 1024 52 10000 3.6 30 10:40 06.08.2022
753 Clear 18 1026 60 10000 5.14 30 09:23 06.08.2022
754 Clear 16 1024 66 10000 2.57 10 03:56 06.08.2022
755 Clouds 18 1022 76 10000 2.6 4 00:27 06.08.2022
756 Clear 20 1021 65 10000 3.6 20 22:34 05.08.2022
757 Clouds 22 1019 63 10000 4.12 20 20:37 05.08.2022
758 Clouds 23 1016 65 10000 5.14 330 18:55 05.08.2022
759 Clouds 23 1016 65 10000 5.14 330 18:36 05.08.2022
760 Rain 25 1015 65 10000 6.17 320 16:52 05.08.2022
761 Clouds 28 1014 52 10000 2.57 0 15:24 05.08.2022
762 Clouds 28 1014 53 10000 3.6 280 14:35 05.08.2022
763 Rain 28 1014 51 10000 4.63 230 13:36 05.08.2022
764 Clouds 28 1014 51 10000 4.63 230 13:18 05.08.2022
765 Rain 26 1013 60 10000 4.12 200 11:29 05.08.2022
766 Rain 24 1012 79 10000 2.06 130 09:18 05.08.2022
767 Clouds 22 1015 89 10000 4.63 270 07:53 05.08.2022
768 Rain 23 1011 64 10000 4.63 80 04:48 05.08.2022
769 Clear 29 1011 42 10000 3.6 20 23:36 04.08.2022
770 Clear 31 1011 35 10000 3.6 350 21:37 04.08.2022
771 Clear 32 1011 34 10000 5.14 320 21:18 04.08.2022
772 Clear 33 1010 33 10000 5.14 310 20:38 04.08.2022
773 Clear 37 1010 25 10000 1.54 0 18:59 04.08.2022
774 Clear 37 1010 24 10000 1.54 0 18:34 04.08.2022
775 Clear 37 1012 23 10000 2.06 0 15:59 04.08.2022
776 Clear 36 1010 27 10000 2.06 0 13:32 04.08.2022
777 Clear 32 1011 37 10000 3.09 220 11:40 04.08.2022
778 Clear 30 1011 41 10000 1.03 0 10:24 04.08.2022
779 Clear 24 1011 49 10000 2.57 10 07:49 04.08.2022
780 Clear 23 1013 54 10000 3.09 20 03:29 04.08.2022
781 Clear 23 1013 55 10000 3.09 10 01:42 04.08.2022
782 Clear 25 1013 51 10000 2.57 360 23:41 03.08.2022
783 Clear 29 1013 45 10000 1.03 0 21:34 03.08.2022
784 Clear 33 1013 31 10000 1.54 140 20:22 03.08.2022
785 Clear 34 1013 27 10000 2.06 190 19:28 03.08.2022
786 Clear 35 1014 26 10000 2.06 280 17:20 03.08.2022
787 Clear 34 1015 28 10000 2.57 210 16:23 03.08.2022
788 Clear 33 1015 29 10000 2.57 0 14:25 03.08.2022
789 Clear 30 1014 35 10000 2.06 0 11:47 03.08.2022
790 Clear 21 1014 57 10000 2.06 50 07:55 03.08.2022
791 Clear 18 1016 73 10000 1.54 70 04:46 03.08.2022
792 Clear 18 1016 70 10000 2.06 70 03:27 03.08.2022
793 Clear 20 1016 63 10000 0.51 320 01:18 03.08.2022
794 Clear 20 1016 63 10000 0.51 320 01:18 03.08.2022
795 Clear 23 1016 48 10000 1.03 0 22:59 02.08.2022
796 Clear 24 1016 52 10000 2.06 150 21:53 02.08.2022
797 Clear 27 1016 42 10000 2.57 180 20:58 02.08.2022
798 Clear 30 1016 31 10000 2.57 160 18:52 02.08.2022
799 Clear 31 1017 30 10000 2.06 0 16:24 02.08.2022
800 Clear 28 1017 39 10000 2.06 0 12:34 02.08.2022
801 Clear 23 1017 64 10000 1.03 0 09:40 02.08.2022
802 Clear 18 1017 83 10000 1.03 0 07:56 02.08.2022
803 Clear 17 1018 89 10000 1.03 0 06:43 02.08.2022
804 Clear 17 1018 84 10000 1.03 270 04:55 02.08.2022
805 Clear 17 1018 84 10000 1.03 270 04:55 02.08.2022
806 Clear 22 1018 63 10000 4.63 20 23:52 01.08.2022
807 Clear 22 1018 64 10000 3.09 330 22:50 01.08.2022
808 Clear 25 1016 55 10000 5.14 320 20:53 01.08.2022
809 Clouds 25 1016 56 10000 4.63 320 19:34 01.08.2022
810 Clouds 25 1016 63 10000 2.57 180 18:43 01.08.2022
811 Clouds 28 1016 46 10000 6.17 320 16:54 01.08.2022
812 Rain 28 1014 44 10000 4.63 300 16:28 01.08.2022
813 Clear 28 1016 44 10000 4.12 300 15:31 01.08.2022
814 Clear 28 1016 45 10000 2.57 0 14:43 01.08.2022
815 Clear 28 1016 45 10000 2.57 0 14:43 01.08.2022
816 Clouds 26 1015 53 10000 2.06 270 12:52 01.08.2022
817 Clouds 24 1015 64 10000 2.06 200 10:30 01.08.2022
818 Clouds 22 1015 71 10000 1.54 200 08:41 01.08.2022
819 Clouds 19 1017 82 10000 1.4 258 06:50 01.08.2022
820 Clear 20 1016 75 10000 3.09 280 04:29 01.08.2022
821 Clear 22 1015 66 10000 1.03 0 00:56 01.08.2022
822 Clear 25 1015 54 10000 3.09 320 22:42 31.07.2022
823 Clear 26 1014 49 10000 2.57 310 21:46 31.07.2022
824 Clear 29 1014 41 10000 3.6 300 20:18 31.07.2022
825 Clear 30 1014 36 10000 3.09 330 18:38 31.07.2022
826 Clear 31 1012 33 10000 2.57 310 16:22 31.07.2022
827 Clear 28 1016 40 10000 2.57 210 13:59 31.07.2022
828 Clear 27 1015 42 10000 3.09 200 12:43 31.07.2022
829 Clear 23 1016 53 10000 1.03 0 10:22 31.07.2022
830 Clear 19 1018 68 10000 1.03 190 08:29 31.07.2022
831 Clear 18 1018 72 10000 1.03 210 04:46 31.07.2022
832 Clear 20 1019 58 10000 1.03 200 00:56 31.07.2022
833 Clear 22 1018 48 10000 3.09 320 22:20 30.07.2022
834 Clear 24 1018 38 10000 3.09 330 21:50 30.07.2022
835 Clear 24 1018 41 10000 3.6 330 21:24 30.07.2022
836 Clear 26 1017 36 10000 5.14 330 20:24 30.07.2022
837 Clear 27 1017 34 10000 5.66 320 19:42 30.07.2022
838 Clear 29 1017 30 10000 5.14 290 17:52 30.07.2022
839 Clear 28 1017 32 10000 5.14 280 16:38 30.07.2022
840 Clear 28 1017 34 10000 4.12 280 15:30 30.07.2022
841 Clear 27 1016 42 10000 3.6 280 13:23 30.07.2022
842 Clouds 25 1016 49 10000 4.12 240 12:22 30.07.2022
843 Clouds 25 1016 52 10000 2.57 0 11:51 30.07.2022
844 Clouds 22 1016 64 10000 3.6 280 10:19 30.07.2022
845 Clear 20 1016 78 10000 1.54 230 08:54 30.07.2022
846 Clear 15 1017 94 10000 1.03 0 06:58 30.07.2022
847 Clear 18 1017 90 10000 2.06 310 02:33 30.07.2022
848 Rain 19 1016 90 10000 1.54 50 23:57 29.07.2022
849 Rain 20 1015 79 10000 2.06 60 21:37 29.07.2022
850 Thunderstorm 20 1015 87 9000 3.09 180 20:50 29.07.2022
851 Clouds 23 1014 59 10000 5.66 120 19:46 29.07.2022
852 Clouds 27 1014 54 10000 8.23 320 17:25 29.07.2022
853 Clouds 30 1014 37 10000 2.57 130 14:48 29.07.2022
854 Clear 28 1012 39 10000 2.06 0 12:52 29.07.2022
855 Clear 21 1012 55 10000 4.12 20 08:52 29.07.2022
856 Clear 19 1014 56 10000 4.12 20 08:24 29.07.2022
857 Clouds 18 1014 67 10000 1.61 49 05:22 29.07.2022
858 Clouds 22 1015 46 10000 5.14 30 01:19 29.07.2022
859 Clouds 22 1015 46 10000 5.14 30 01:19 29.07.2022
860 Clear 24 1013 43 10000 4.63 30 21:45 28.07.2022
861 Clear 26 1013 39 10000 5.14 30 20:54 28.07.2022
862 Clear 27 1013 37 10000 5.66 40 20:20 28.07.2022
863 Clear 27 1013 36 10000 5.66 60 19:40 28.07.2022
864 Rain 27 1014 36 10000 4.63 90 18:25 28.07.2022
865 Rain 27 1014 35 10000 5.66 50 17:42 28.07.2022
866 Clear 28 1014 34 10000 4.12 60 16:41 28.07.2022
867 Clear 27 1015 37 10000 5.14 90 14:50 28.07.2022
868 Clear 25 1014 40 10000 4.12 50 12:41 28.07.2022
869 Clear 19 1015 51 10000 5.14 30 09:34 28.07.2022
870 Clear 15 1017 61 10000 5.14 40 05:45 28.07.2022
871 Clear 15 1017 61 10000 5.14 30 05:24 28.07.2022
872 Clear 18 1018 51 10000 6.17 20 00:44 28.07.2022
873 Clear 19 1017 48 10000 5.14 20 22:26 27.07.2022
874 Clear 23 1016 39 10000 5.14 30 20:25 27.07.2022
875 Clear 24 1016 37 10000 2.57 20 19:34 27.07.2022
876 Clear 24 1017 38 10000 5.14 20 16:54 27.07.2022
877 Clear 24 1017 39 10000 4.12 20 15:51 27.07.2022
878 Clear 25 1016 39 10000 3.6 20 14:48 27.07.2022
879 Clear 24 1018 43 10000 5.14 10 14:30 27.07.2022
880 Clouds 23 1018 45 10000 3.6 20 12:48 27.07.2022
881 Clouds 18 1017 72 10000 4.63 10 07:53 27.07.2022
882 Clouds 18 1017 73 10000 5.14 10 06:18 27.07.2022
883 Clouds 20 1017 61 10000 4.63 360 00:46 27.07.2022
884 Clear 22 1016 54 10000 3.6 350 22:25 26.07.2022
885 Clear 22 1015 53 10000 4.63 330 21:20 26.07.2022
886 Clear 23 1015 52 10000 4.63 330 21:20 26.07.2022
887 Clouds 24 1015 51 10000 3.25 318 19:59 26.07.2022
888 Clear 26 1015 42 10000 2.06 310 18:41 26.07.2022
889 Clear 26 1015 40 10000 5.14 330 17:57 26.07.2022
890 Clear 26 1015 43 10000 6.17 310 15:58 26.07.2022
891 Clear 25 1016 45 10000 5.66 310 14:57 26.07.2022
892 Clear 25 1014 45 10000 4.63 0 12:59 26.07.2022
893 Clouds 23 1013 53 10000 2.57 0 10:59 26.07.2022
894 Clouds 21 1013 61 10000 4.12 270 08:46 26.07.2022
895 Clouds 18 1015 77 10000 1.54 220 05:49 26.07.2022
896 Clear 23 1013 64 10000 2.06 330 00:28 26.07.2022
897 Clear 24 1012 60 10000 3.09 330 22:53 25.07.2022
898 Clear 25 1010 55 10000 3.6 300 22:25 25.07.2022
899 Clear 26 1011 55 10000 4.63 310 21:41 25.07.2022
900 Clear 28 1010 50 10000 6.17 310 20:41 25.07.2022
901 Clouds 31 1008 37 10000 9.26 230 19:33 25.07.2022
902 Clouds 33 1008 36 10000 7.2 240 18:18 25.07.2022
903 Clouds 33 1008 42 10000 5.14 190 17:27 25.07.2022
904 Clear 34 1007 31 10000 9.26 230 14:59 25.07.2022
905 Clear 31 1008 40 10000 4.12 170 12:22 25.07.2022
906 Clear 27 1009 51 10000 3.09 210 09:58 25.07.2022
907 Clear 20 1012 67 10000 2.57 10 04:38 25.07.2022
908 Clear 23 1014 57 10000 0.51 0 23:54 24.07.2022
909 Clear 23 1014 55 10000 0.51 0 23:18 24.07.2022
910 Clear 25 1015 48 10000 1.03 190 22:34 24.07.2022
911 Clear 27 1015 44 10000 1.03 0 21:25 24.07.2022
912 Clear 30 1015 34 10000 2.06 200 20:51 24.07.2022
913 Clear 31 1015 32 10000 2.06 230 20:27 24.07.2022
914 Clear 32 1015 31 10000 2.57 210 18:56 24.07.2022
915 Clear 32 1017 30 10000 3.09 0 16:48 24.07.2022
916 Clear 32 1017 31 10000 1.54 0 15:51 24.07.2022
917 Clear 31 1018 33 10000 2.57 210 14:40 24.07.2022
918 Clear 30 1017 37 10000 2.06 0 12:55 24.07.2022
919 Clear 29 1017 38 10000 2.57 0 12:18 24.07.2022
920 Clear 28 1018 41 10000 2.06 100 11:26 24.07.2022
921 Clear 23 1018 56 10000 2.57 40 09:23 24.07.2022
922 Clear 21 1018 63 10000 3.6 30 07:53 24.07.2022
923 Clear 18 1020 72 10000 4.12 30 06:34 24.07.2022
924 Clear 21 1020 63 10000 3.6 10 01:50 24.07.2022
925 Clear 24 1019 50 10000 3.6 360 22:25 23.07.2022
926 Clear 27 1018 41 10000 4.63 320 20:41 23.07.2022
927 Clear 29 1017 36 10000 3.09 340 18:52 23.07.2022
928 Clear 29 1017 37 10000 5.14 310 17:48 23.07.2022
929 Clear 29 1017 38 10000 2.57 290 17:24 23.07.2022
930 Clear 29 1018 40 10000 2.06 290 15:51 23.07.2022
931 Clear 28 1018 41 10000 2.06 0 15:20 23.07.2022
932 Clear 29 1017 38 10000 3.6 310 14:47 23.07.2022
933 Clouds 27 1018 46 10000 3.09 350 13:53 23.07.2022
934 Clouds 25 1016 54 10000 1.54 0 11:46 23.07.2022
935 Clouds 23 1016 59 10000 3.09 350 10:28 23.07.2022
936 Clouds 21 1017 68 10000 4.63 30 09:26 23.07.2022
937 Clouds 19 1016 85 10000 3.09 10 05:58 23.07.2022
938 Rain 20 1016 77 10000 1.54 0 03:37 23.07.2022
939 Clouds 23 1016 69 10000 1.82 338 23:59 22.07.2022
940 Clear 27 1015 46 10000 2.06 130 21:28 22.07.2022
941 Clear 28 1015 40 10000 1.54 160 20:29 22.07.2022
942 Clouds 30 1015 39 10000 0.7 16 18:41 22.07.2022
943 Clear 30 1016 36 10000 3.09 200 17:38 22.07.2022
944 Clear 29 1017 39 10000 2.57 0 15:35 22.07.2022
945 Clouds 26 1017 50 10000 2.06 0 12:41 22.07.2022
946 Clouds 21 1018 67 10000 1.54 120 09:56 22.07.2022
947 Clouds 20 1018 70 10000 2.06 0 09:21 22.07.2022
948 Clouds 18 1020 80 10000 1.03 0 07:51 22.07.2022
949 Clear 17 1020 85 10000 3.6 290 04:22 22.07.2022
950 Clear 20 1020 79 10000 2.06 320 23:36 21.07.2022
951 Clear 23 1019 65 10000 4.63 330 21:41 21.07.2022
952 Clear 26 1019 51 10000 5.14 300 19:42 21.07.2022
953 Clear 27 1018 44 10000 4.63 250 18:36 21.07.2022
954 Clear 28 1019 42 10000 5.14 240 17:21 21.07.2022
955 Clear 28 1019 43 10000 7.2 250 16:23 21.07.2022
956 Clouds 27 1019 47 10000 5.66 250 14:46 21.07.2022
957 Clouds 26 1019 51 10000 6.69 240 13:58 21.07.2022
958 Clouds 25 1018 59 10000 4.63 230 11:58 21.07.2022
959 Clouds 23 1018 68 10000 4.12 230 10:21 21.07.2022
960 Clouds 21 1018 77 10000 3.6 230 08:53 21.07.2022
961 Clouds 21 1018 80 10000 3.09 220 08:18 21.07.2022
962 Clouds 19 1019 89 10000 3.09 210 06:45 21.07.2022
963 Clouds 20 1018 95 10000 2.57 210 03:25 21.07.2022
964 Rain 22 1018 91 9000 4.12 110 22:51 20.07.2022
965 Thunderstorm 22 1019 88 8000 2.57 120 22:20 20.07.2022
966 Clouds 31 1015 41 10000 6.17 300 20:46 20.07.2022
967 Clear 32 1012 39 10000 6.17 310 19:47 20.07.2022
968 Clear 32 1012 39 10000 6.17 310 19:47 20.07.2022
969 Clear 34 1012 32 10000 9.26 310 18:56 20.07.2022
970 Clear 34 1014 32 10000 7.72 300 18:33 20.07.2022
971 Clear 36 1012 27 10000 7.72 290 17:42 20.07.2022
972 Clear 38 1015 22 10000 3.6 200 15:43 20.07.2022
973 Clear 37 1015 22 10000 2.57 290 14:54 20.07.2022
974 Clear 36 1013 23 10000 1.54 0 13:44 20.07.2022
975 Clear 33 1014 29 10000 1.54 0 11:31 20.07.2022
976 Clear 25 1014 42 10000 3.6 60 07:36 20.07.2022
977 Clear 23 1016 44 10000 3.6 10 02:44 20.07.2022
978 Clear 25 1015 34 10000 3.6 50 00:44 20.07.2022
979 Clear 29 1015 29 10000 2.57 90 22:41 19.07.2022
980 Clear 29 1015 29 10000 2.57 90 22:21 19.07.2022
981 Clear 35 1014 21 10000 4.63 90 20:54 19.07.2022
982 Clear 36 1014 20 10000 5.14 110 20:23 19.07.2022
983 Clear 37 1015 18 10000 3.6 110 18:43 19.07.2022
984 Clear 37 1015 17 10000 3.6 70 17:57 19.07.2022
985 Clear 37 1017 18 10000 4.12 110 16:31 19.07.2022
986 Clear 36 1017 19 10000 3.09 0 14:36 19.07.2022
987 Clear 33 1019 28 10000 1.54 90 11:38 19.07.2022
988 Clear 31 1020 29 10000 2.06 90 10:47 19.07.2022
989 Clear 26 1018 38 10000 3.6 60 09:21 19.07.2022
990 Clear 22 1018 49 10000 3.09 30 08:32 19.07.2022
991 Clear 19 1020 55 10000 3.09 10 07:19 19.07.2022
992 Clear 19 1020 49 10000 3.09 10 05:28 19.07.2022
993 Clear 18 1020 62 10000 3.09 360 04:53 19.07.2022
994 Clear 22 1020 49 10000 1.54 360 00:38 19.07.2022
995 Clear 23 1020 45 10000 1.54 20 23:47 18.07.2022
996 Clear 23 1020 43 10000 0.51 0 23:18 18.07.2022
997 Clear 27 1020 35 10000 1.54 200 21:58 18.07.2022
998 Clear 33 1020 22 10000 2.06 210 20:51 18.07.2022
999 Clear 34 1020 20 10000 1.03 0 19:33 18.07.2022
1000 Clear 34 1021 19 10000 2.57 260 17:38 18.07.2022
1001 Clear 34 1022 19 10000 3.09 0 15:55 18.07.2022
1002 Clear 34 1022 19 10000 1.54 0 15:18 18.07.2022
1003 Clear 31 1021 22 10000 2.06 0 13:24 18.07.2022
1004 Clear 28 1022 27 10000 2.06 80 11:31 18.07.2022
1005 Clear 24 1022 34 10000 3.6 60 09:43 18.07.2022
1006 Clear 18 1022 53 10000 1.54 60 07:45 18.07.2022
1007 Clear 17 1024 56 10000 3.6 10 02:34 18.07.2022
1008 Clear 21 1024 39 10000 3.09 30 22:52 17.07.2022
1009 Clear 22 1024 36 10000 3.09 20 22:28 17.07.2022
1010 Clear 26 1024 21 10000 3.09 20 21:26 17.07.2022
1011 Clear 28 1024 22 10000 4.12 20 20:44 17.07.2022
1012 Clear 29 1023 22 10000 3.09 50 19:49 17.07.2022
1013 Clear 29 1024 21 10000 3.6 30 19:20 17.07.2022
1014 Clear 29 1024 20 10000 2.06 10 17:42 17.07.2022
1015 Clear 29 1025 21 10000 3.09 360 17:22 17.07.2022
1016 Clear 29 1025 21 10000 3.09 350 16:28 17.07.2022
1017 Clear 28 1026 22 10000 3.6 40 15:37 17.07.2022
1018 Clear 27 1024 26 10000 2.57 0 13:51 17.07.2022
1019 Clear 26 1024 31 10000 2.57 0 12:42 17.07.2022
1020 Clear 22 1025 42 10000 3.09 60 10:19 17.07.2022
1021 Clear 13 1026 65 10000 3.09 40 06:59 17.07.2022
1022 Clear 15 1026 57 10000 3.6 20 02:34 17.07.2022
1023 Clear 15 1026 57 10000 3.6 20 02:34 17.07.2022
1024 Clear 19 1025 42 10000 3.09 340 23:23 16.07.2022
1025 Clear 20 1024 40 10000 4.12 0 22:20 16.07.2022
1026 Clear 25 1023 34 10000 4.63 320 20:30 16.07.2022
1027 Clear 26 1023 33 10000 6.69 320 18:54 16.07.2022
1028 Clear 26 1022 35 10000 5.66 310 17:38 16.07.2022
1029 Clear 26 1022 40 10000 5.14 300 15:54 16.07.2022
1030 Clear 25 1020 39 10000 4.63 310 12:26 16.07.2022
1031 Clear 22 1020 47 10000 2.06 0 10:28 16.07.2022
1032 Clear 20 1020 51 10000 2.06 200 09:25 16.07.2022
1033 Clear 18 1020 51 10000 1.03 0 08:41 16.07.2022
1034 Clear 12 1022 75 10000 1.03 210 06:59 16.07.2022
1035 Clear 12 1021 74 10000 1.54 220 03:35 16.07.2022
1036 Clear 16 1021 58 10000 1.54 360 00:45 16.07.2022
1037 Clear 18 1021 42 10000 3.6 320 22:56 15.07.2022
1038 Clear 19 1021 47 10000 4.12 0 22:26 15.07.2022
1039 Clear 23 1020 33 10000 5.14 310 20:41 15.07.2022
1040 Clear 24 1020 32 10000 4.12 320 19:34 15.07.2022
1041 Clear 24 1020 32 10000 4.63 320 18:23 15.07.2022
1042 Clear 25 1021 33 10000 3.09 0 17:19 15.07.2022
1043 Clear 24 1019 39 10000 4.12 290 14:19 15.07.2022
1044 Clouds 21 1022 48 10000 2.57 0 12:38 15.07.2022
1045 Clouds 20 1020 52 10000 3.09 10 10:52 15.07.2022
1046 Clear 16 1021 67 10000 3.6 30 07:55 15.07.2022
1047 Clear 13 1021 76 10000 2.57 360 05:54 15.07.2022
1048 Clear 19 1020 42 10000 4.12 10 00:47 15.07.2022
1049 Clear 20 1019 48 10000 3.6 340 23:25 14.07.2022
1050 Clear 21 1019 47 10000 4.63 320 22:42 14.07.2022
1051 Clear 23 1018 43 10000 7.72 330 21:42 14.07.2022
1052 Clear 23 1018 41 10000 6.17 330 21:24 14.07.2022
1053 Clear 25 1017 36 10000 5.66 330 20:43 14.07.2022
1054 Clear 24 1017 38 10000 6.69 340 20:43 14.07.2022
1055 Clear 25 1017 36 10000 5.66 330 20:19 14.07.2022
1056 Clear 27 1017 36 10000 7.72 330 18:38 14.07.2022
1057 Clear 27 1015 38 10000 7.72 330 16:21 14.07.2022
1058 Clear 28 1015 37 10000 6.69 300 15:26 14.07.2022
1059 Clear 29 1014 43 10000 4.63 310 13:52 14.07.2022
1060 Clear 29 1015 40 10000 3.6 300 12:40 14.07.2022
1061 Clear 27 1015 48 10000 2.57 270 11:41 14.07.2022
1062 Clear 27 1016 48 10000 2.06 0 11:21 14.07.2022
1063 Clear 24 1016 55 10000 2.57 360 09:49 14.07.2022
1064 Clear 24 1016 55 10000 2.57 360 09:49 14.07.2022
1065 Clear 21 1018 63 10000 1.54 310 05:25 14.07.2022
1066 Clear 24 1019 57 10000 1.03 0 01:22 14.07.2022
1067 Clear 24 1019 58 10000 0.51 0 00:52 14.07.2022
1068 Clear 27 1019 46 10000 3.09 330 22:32 13.07.2022
1069 Clear 28 1018 42 10000 5.66 340 21:55 13.07.2022
1070 Clear 32 1017 29 10000 6.17 320 20:45 13.07.2022
1071 Clear 33 1017 23 10000 4.63 170 19:21 13.07.2022
1072 Clear 33 1018 24 10000 6.69 190 17:42 13.07.2022
1073 Clear 33 1019 24 10000 4.12 190 16:29 13.07.2022
1074 Clear 32 1020 27 10000 5.14 220 15:24 13.07.2022
1075 Clear 29 1019 39 10000 4.12 180 12:55 13.07.2022
1076 Clear 25 1020 49 10000 2.57 190 10:45 13.07.2022
1077 Clear 25 1020 50 10000 2.57 180 10:24 13.07.2022
1078 Clear 23 1020 59 10000 1.03 0 09:24 13.07.2022
1079 Clear 17 1022 77 10000 1.03 270 06:20 13.07.2022
1080 Clear 18 1023 69 10000 0.51 0 02:21 13.07.2022
1081 Clear 20 1023 61 10000 2.06 260 23:51 12.07.2022
1082 Clear 24 1023 49 10000 1.54 140 21:58 12.07.2022
1083 Clear 25 1023 44 10000 2.06 230 21:32 12.07.2022
1084 Clear 28 1023 38 10000 1.54 0 20:41 12.07.2022
1085 Clear 30 1023 32 10000 1.54 260 19:28 12.07.2022
1086 Clear 30 1023 30 10000 2.57 350 17:54 12.07.2022
1087 Clear 29 1024 33 10000 3.6 260 16:20 12.07.2022
1088 Clear 29 1024 33 10000 3.6 260 16:20 12.07.2022
1089 Clouds 27 1025 41 10000 2.57 290 14:31 12.07.2022
1090 Clouds 26 1023 45 10000 2.57 0 13:20 12.07.2022
1091 Clouds 24 1023 54 10000 3.09 60 11:37 12.07.2022
1092 Clouds 22 1023 61 10000 3.09 30 10:18 12.07.2022
1093 Clear 19 1023 74 10000 2.06 360 08:26 12.07.2022
1094 Clear 17 1023 79 10000 1.54 360 07:38 12.07.2022
1095 Clear 13 1024 92 10000 1.03 0 05:42 12.07.2022
1096 Clear 15 1024 88 10000 1.03 0 03:50 12.07.2022
1097 Clear 18 1024 71 10000 3.6 60 23:43 11.07.2022
1098 Clear 20 1023 63 10000 4.12 30 22:36 11.07.2022
1099 Clear 22 1022 58 10000 5.14 10 20:54 11.07.2022
1100 Clouds 23 1022 57 10000 5.66 20 20:29 11.07.2022
1101 Clear 24 1022 51 10000 3.6 20 18:39 11.07.2022
1102 Clear 25 1022 49 10000 2.57 330 17:57 11.07.2022
1103 Clouds 24 1022 51 10000 2.57 280 16:22 11.07.2022
1104 Clouds 23 1023 53 10000 1.54 0 14:52 11.07.2022
1105 Clouds 22 1023 54 10000 2.06 340 12:38 11.07.2022
1106 Clouds 21 1023 63 10000 2.06 0 10:56 11.07.2022
1107 Clouds 20 1021 65 10000 1.03 0 09:54 11.07.2022
1108 Clouds 20 1023 67 10000 2.06 0 09:21 11.07.2022
1109 Clouds 18 1021 76 10000 1.03 0 07:52 11.07.2022
1110 Clouds 17 1024 76 10000 1.03 240 00:54 11.07.2022
1111 Clouds 17 1024 76 10000 2.57 330 23:53 10.07.2022
1112 Clouds 18 1024 71 10000 3.6 300 22:37 10.07.2022
1113 Clouds 19 1024 64 10000 4.63 320 20:55 10.07.2022
1114 Clouds 19 1024 63 10000 5.66 310 20:34 10.07.2022
1115 Clouds 20 1024 57 10000 5.14 300 19:28 10.07.2022
1116 Clouds 20 1024 54 10000 5.14 310 18:23 10.07.2022
1117 Clouds 20 1024 53 10000 5.14 320 17:20 10.07.2022
1118 Clouds 21 1024 47 10000 6.17 320 16:21 10.07.2022
1119 Clouds 21 1024 47 10000 3.6 260 14:44 10.07.2022
1120 Clouds 20 1025 49 10000 5.14 320 13:30 10.07.2022
1121 Clouds 19 1023 53 10000 3.6 330 11:44 10.07.2022
1122 Clouds 17 1023 55 10000 3.6 10 09:45 10.07.2022
1123 Clouds 16 1023 62 10000 4.63 320 08:43 10.07.2022
1124 Clouds 14 1025 79 10000 4.12 310 07:19 10.07.2022
1125 Clear 17 1024 82 10000 3.09 290 23:53 09.07.2022
1126 Clear 18 1024 76 10000 3.09 300 22:26 09.07.2022
1127 Clear 19 1024 76 10000 2.57 270 21:47 09.07.2022
1128 Clouds 21 1022 68 10000 5.66 320 19:50 09.07.2022
1129 Rain 24 1023 45 10000 5.14 330 18:32 09.07.2022
1130 Clear 26 1023 41 10000 5.14 270 17:32 09.07.2022
1131 Clear 26 1024 42 10000 4.63 290 16:39 09.07.2022
1132 Clear 26 1022 39 10000 5.14 290 15:39 09.07.2022
1133 Clear 26 1023 43 10000 4.63 310 14:24 09.07.2022
1134 Clouds 26 1023 43 10000 5.14 280 13:48 09.07.2022
1135 Clouds 25 1024 47 10000 6.17 280 12:43 09.07.2022
1136 Clouds 23 1025 55 10000 3.09 300 11:19 09.07.2022
1137 Clouds 22 1025 59 10000 4.12 310 10:22 09.07.2022
1138 Clear 16 1027 81 10000 2.57 250 07:45 09.07.2022
1139 Clear 14 1027 87 10000 1.54 240 04:53 09.07.2022
1140 Clear 17 1028 78 10000 0.51 0 00:59 09.07.2022
1141 Clear 20 1029 65 10000 3.09 320 22:53 08.07.2022
1142 Clear 22 1028 54 10000 3.6 310 21:34 08.07.2022
1143 Clear 24 1028 47 10000 5.66 310 20:40 08.07.2022
1144 Clear 24 1028 45 10000 5.66 300 19:52 08.07.2022
1145 Clear 25 1028 41 10000 2.06 0 18:24 08.07.2022
1146 Clear 25 1029 38 10000 1.54 0 16:40 08.07.2022
1147 Clear 24 1030 41 10000 2.57 0 14:51 08.07.2022
1148 Clear 24 1030 41 10000 2.57 0 14:51 08.07.2022
1149 Clouds 21 1028 44 10000 2.57 0 13:29 08.07.2022
1150 Clouds 20 1029 48 10000 2.06 0 11:42 08.07.2022
1151 Clouds 18 1029 52 10000 3.09 0 10:29 08.07.2022
1152 Clouds 15 1030 70 10000 3.09 310 08:33 08.07.2022
1153 Clouds 12 1029 78 10000 3.09 310 06:50 08.07.2022
1154 Clouds 15 1028 66 10000 4.12 310 01:31 08.07.2022
1155 Clouds 17 1026 66 10000 5.66 320 23:22 07.07.2022
1156 Clouds 18 1025 70 10000 5.66 290 22:35 07.07.2022
1157 Clouds 19 1024 67 10000 8.23 290 20:36 07.07.2022
1158 Clouds 20 1021 66 10000 6.69 290 18:20 07.07.2022
1159 Clouds 21 1021 63 10000 8.23 300 16:53 07.07.2022
1160 Clouds 20 1019 62 10000 6.69 300 14:35 07.07.2022
1161 Clouds 19 1021 70 10000 6.17 330 13:18 07.07.2022
1162 Clouds 18 1020 80 10000 6.69 280 12:24 07.07.2022
1163 Clouds 18 1020 80 10000 6.69 280 12:24 07.07.2022
1164 Clouds 19 1020 71 10000 7.2 250 11:45 07.07.2022
1165 Rain 20 1019 67 10000 6.17 240 11:27 07.07.2022
1166 Clouds 19 1020 65 10000 6.17 240 10:42 07.07.2022
1167 Clouds 19 1020 65 10000 5.66 250 10:24 07.07.2022
1168 Clouds 17 1021 66 10000 3.02 236 06:58 07.07.2022
1169 Clear 16 1023 63 10000 1.54 230 01:51 07.07.2022
1170 Rain 16 1023 61 10000 1.31 237 23:36 06.07.2022
1171 Clear 16 1023 56 10000 3.09 0 23:18 06.07.2022
1172 Clear 17 1023 59 10000 3.09 0 22:53 06.07.2022
1173 Clear 17 1023 58 10000 3.09 0 22:34 06.07.2022
1174 Clear 20 1023 46 10000 4.63 300 20:54 06.07.2022
1175 Clear 21 1023 43 10000 5.14 0 19:35 06.07.2022
1176 Clear 22 1023 40 10000 4.12 0 17:32 06.07.2022
1177 Clear 24 1024 39 10000 4.63 300 15:59 06.07.2022
1178 Clear 23 1024 38 10000 3.6 0 14:33 06.07.2022
1179 Clouds 22 1022 44 10000 3.6 0 12:31 06.07.2022
1180 Clouds 21 1023 49 10000 3.09 330 11:48 06.07.2022
1181 Clouds 19 1023 57 10000 4.63 320 10:18 06.07.2022
1182 Clouds 16 1024 70 10000 4.12 320 07:44 06.07.2022
1183 Clouds 16 1024 70 10000 4.12 320 07:44 06.07.2022
1184 Clouds 15 1024 72 10000 4.12 330 07:20 06.07.2022
1185 Clear 18 1023 60 10000 2.57 360 01:42 06.07.2022
1186 Clear 21 1021 46 10000 4.12 340 22:45 05.07.2022
1187 Clear 23 1021 43 10000 5.66 330 21:36 05.07.2022
1188 Clear 24 1020 40 10000 6.17 320 20:38 05.07.2022
1189 Clear 26 1020 39 10000 6.17 320 19:41 05.07.2022
1190 Clear 26 1020 38 10000 6.17 310 19:21 05.07.2022
1191 Clear 27 1020 33 10000 4.12 320 17:46 05.07.2022
1192 Clear 28 1020 29 10000 3.6 320 16:39 05.07.2022
1193 Clear 28 1020 32 10000 3.09 310 15:25 05.07.2022
1194 Clear 27 1019 32 10000 4.63 310 13:53 05.07.2022
1195 Clear 26 1019 36 10000 3.6 240 12:42 05.07.2022
1196 Clear 25 1019 40 10000 2.57 0 11:24 05.07.2022
1197 Clear 24 1019 44 10000 2.06 280 10:31 05.07.2022
1198 Clear 19 1021 61 10000 1.54 180 08:25 05.07.2022
1199 Clear 16 1020 68 10000 1.03 0 07:31 05.07.2022
1200 Clear 15 1020 74 10000 0.51 0 04:47 05.07.2022
1201 Clear 15 1020 69 10000 1.03 260 04:21 05.07.2022
1202 Clear 19 1019 54 10000 3.09 330 23:45 04.07.2022
1203 Clear 19 1019 53 10000 2.57 330 23:25 04.07.2022
1204 Clear 21 1019 48 10000 4.12 10 22:21 04.07.2022
1205 Clear 23 1018 41 10000 4.12 320 21:20 04.07.2022
1206 Clear 24 1018 39 10000 4.63 320 20:52 04.07.2022
1207 Clear 25 1018 37 10000 4.12 320 20:33 04.07.2022
1208 Clear 26 1018 34 10000 5.14 330 19:52 04.07.2022
1209 Clear 26 1017 33 10000 5.66 320 19:34 04.07.2022
1210 Clear 27 1018 32 10000 4.12 0 17:57 04.07.2022
1211 Clear 27 1019 33 10000 5.14 270 15:50 04.07.2022
1212 Clear 26 1019 35 10000 4.12 280 14:54 04.07.2022
1213 Clear 26 1018 37 10000 4.12 280 13:29 04.07.2022
1214 Clouds 24 1017 41 10000 3.6 0 12:20 04.07.2022
1215 Clouds 22 1018 49 10000 2.06 0 10:34 04.07.2022
1216 Clouds 21 1019 54 10000 2.57 260 09:40 04.07.2022
1217 Clouds 17 1020 76 10000 1.54 220 07:33 04.07.2022
1218 Clear 18 1018 67 10000 4.12 320 03:36 04.07.2022
1219 Clear 21 1018 60 10000 3.09 320 00:35 04.07.2022
1220 Clear 23 1017 55 10000 5.14 330 22:58 03.07.2022
1221 Clear 27 1015 34 10000 4.12 240 20:58 03.07.2022
1222 Clear 28 1015 30 10000 5.14 250 20:26 03.07.2022
1223 Clear 30 1015 27 10000 6.69 220 19:27 03.07.2022
1224 Clear 30 1016 28 10000 5.14 230 18:43 03.07.2022
1225 Clear 30 1016 28 10000 4.63 250 17:43 03.07.2022
1226 Clear 31 1016 31 10000 3.09 220 15:51 03.07.2022
1227 Clear 30 1017 32 10000 4.12 200 14:59 03.07.2022
1228 Clear 29 1017 32 10000 6.17 240 14:18 03.07.2022
1229 Clear 29 1017 35 10000 5.66 240 13:48 03.07.2022
1230 Clear 28 1018 40 10000 4.63 260 12:33 03.07.2022
1231 Clear 26 1018 47 10000 4.12 220 11:28 03.07.2022
1232 Clear 25 1018 50 10000 2.57 200 10:38 03.07.2022
1233 Clear 23 1018 56 10000 3.09 210 09:42 03.07.2022
1234 Clear 17 1018 77 10000 1.03 0 07:35 03.07.2022
1235 Clear 16 1017 74 10000 2.06 10 03:46 03.07.2022
1236 Clear 18 1018 64 10000 0.51 0 00:21 03.07.2022
1237 Clear 22 1018 55 10000 1.54 180 22:33 02.07.2022
1238 Clear 27 1018 32 10000 3.6 120 20:58 02.07.2022
1239 Clear 28 1018 33 10000 4.12 120 19:52 02.07.2022
1240 Clear 28 1018 32 10000 3.09 130 19:20 02.07.2022
1241 Clear 28 1019 33 10000 2.57 0 17:41 02.07.2022
1242 Clear 28 1020 34 10000 2.57 0 16:53 02.07.2022
1243 Clear 26 1021 38 10000 3.6 80 14:40 02.07.2022
1244 Clear 25 1021 40 10000 3.09 110 12:22 02.07.2022
1245 Clouds 23 1021 47 10000 2.57 70 11:27 02.07.2022
1246 Clouds 22 1021 54 10000 1.54 0 10:43 02.07.2022
1247 Clear 19 1022 69 10000 2.06 360 09:25 02.07.2022
1248 Clear 17 1021 76 10000 2.06 80 08:20 02.07.2022
1249 Clear 16 1021 79 10000 1.54 80 07:48 02.07.2022
1250 Clear 13 1023 89 10000 1.03 0 02:51 02.07.2022
1251 Clouds 15 1022 81 10000 1.03 0 00:26 02.07.2022
1252 Clouds 17 1021 70 10000 3.09 0 22:58 01.07.2022
1253 Clouds 19 1020 67 10000 2.06 170 21:56 01.07.2022
1254 Clouds 19 1020 61 10000 2.06 170 21:37 01.07.2022
1255 Clouds 21 1020 60 10000 3.09 170 20:56 01.07.2022
1256 Clouds 21 1020 56 10000 3.09 180 19:47 01.07.2022
1257 Clouds 21 1019 52 10000 5.66 200 17:58 01.07.2022
1258 Clouds 21 1019 61 10000 4.12 190 16:35 01.07.2022
1259 Clouds 20 1020 60 10000 2.57 0 13:55 01.07.2022
1260 Clouds 17 1019 73 10000 3.09 250 12:59 01.07.2022
1261 Rain 16 1019 81 10000 1.54 230 10:46 01.07.2022
1262 Rain 16 1019 79 10000 2.57 240 10:18 01.07.2022
1263 Clouds 15 1016 90 10000 3.09 240 05:58 01.07.2022
1264 Clouds 18 1015 72 10000 5.14 280 01:30 01.07.2022
1265 Clouds 19 1012 77 10000 9.26 290 23:28 30.06.2022
1266 Rain 22 1011 71 10000 8.23 280 22:45 30.06.2022
1267 Rain 23 1011 64 10000 8.23 280 22:45 30.06.2022
1268 Rain 23 1010 68 10000 6.69 240 22:27 30.06.2022
1269 Thunderstorm 24 1010 67 10000 5.66 210 21:50 30.06.2022
1270 Clouds 29 1009 37 10000 2.57 200 20:41 30.06.2022
1271 Clear 30 1008 36 10000 3.09 200 19:55 30.06.2022
1272 Clear 31 1008 33 10000 4.12 200 19:35 30.06.2022
1273 Clear 32 1008 31 10000 3.6 160 18:43 30.06.2022
1274 Clear 32 1008 31 10000 3.09 210 17:49 30.06.2022
1275 Clear 32 1009 33 10000 2.06 80 16:56 30.06.2022
1276 Clear 32 1009 37 10000 2.06 0 15:52 30.06.2022
1277 Clear 31 1010 44 10000 3.09 150 13:51 30.06.2022
1278 Clear 30 1009 44 10000 2.57 200 13:18 30.06.2022
1279 Clouds 29 1009 49 10000 1.03 0 12:32 30.06.2022
1280 Clouds 26 1010 61 10000 1.54 0 10:21 30.06.2022
1281 Clouds 25 1010 65 10000 1.54 0 09:41 30.06.2022
1282 Clear 23 1010 74 10000 3.09 70 08:26 30.06.2022
1283 Clear 22 1010 80 10000 3.6 70 07:41 30.06.2022
1284 Clear 20 1012 87 10000 3.09 30 03:53 30.06.2022
1285 Clear 22 1012 76 10000 3.09 360 23:39 29.06.2022
1286 Clear 24 1011 70 10000 3.09 20 22:41 29.06.2022
1287 Clear 25 1011 62 10000 3.09 30 22:19 29.06.2022
1288 Clear 27 1011 51 10000 2.57 310 20:35 29.06.2022
1289 Clear 28 1011 50 10000 3.09 290 19:57 29.06.2022
1290 Clear 28 1011 52 10000 3.09 300 18:46 29.06.2022
1291 Clear 29 1012 45 10000 4.12 240 17:38 29.06.2022
1292 Clear 29 1012 42 10000 2.57 0 16:24 29.06.2022
1293 Clouds 27 1013 50 10000 2.06 0 13:52 29.06.2022
1294 Clouds 27 1014 44 10000 1.54 0 12:38 29.06.2022
1295 Clear 24 1014 50 10000 2.57 70 10:18 29.06.2022
1296 Clear 22 1014 52 10000 3.09 40 09:27 29.06.2022
1297 Clear 19 1014 61 10000 4.63 30 06:32 29.06.2022
1298 Clear 19 1015 58 10000 3.6 20 04:46 29.06.2022
1299 Clear 20 1016 55 10000 5.66 20 00:54 29.06.2022
1300 Clear 20 1016 54 10000 5.66 20 00:35 29.06.2022
1301 Clear 21 1017 54 10000 3.09 10 22:52 28.06.2022
1302 Clouds 21 1017 62 10000 2.19 9 22:18 28.06.2022
1303 Clear 23 1016 48 10000 4.63 360 21:49 28.06.2022
1304 Clouds 22 1017 55 10000 2.18 3 21:29 28.06.2022
1305 Clear 26 1017 34 10000 3.09 30 19:56 28.06.2022
1306 Clear 27 1017 34 10000 3.6 50 19:31 28.06.2022
1307 Clear 27 1017 34 10000 3.6 50 18:40 28.06.2022
1308 Clear 27 1018 32 10000 2.57 100 17:36 28.06.2022
1309 Clear 26 1019 34 10000 4.63 40 15:55 28.06.2022
1310 Clear 26 1020 34 10000 3.6 0 14:59 28.06.2022
1311 Clear 25 1020 35 10000 4.63 10 14:19 28.06.2022
1312 Clear 24 1021 37 10000 4.12 10 13:47 28.06.2022
1313 Clear 24 1019 40 10000 3.09 20 12:47 28.06.2022
1314 Clouds 21 1020 52 10000 1.54 0 10:44 28.06.2022
1315 Clouds 18 1021 73 10000 1.54 10 08:56 28.06.2022
1316 Clouds 17 1023 76 10000 1.54 80 08:38 28.06.2022
1317 Clouds 15 1023 89 10000 1.54 60 07:20 28.06.2022
1318 Clear 13 1022 94 10000 0.51 0 04:56 28.06.2022
1319 Clear 18 1021 73 10000 4.12 300 23:56 27.06.2022
1320 Clouds 18 1020 72 10000 4.63 300 23:28 27.06.2022
1321 Clouds 18 1020 72 10000 4.63 310 22:50 27.06.2022
1322 Rain 21 1019 63 10000 3.6 230 21:30 27.06.2022
1323 Rain 22 1019 56 10000 3.6 240 20:38 27.06.2022
1324 Clouds 23 1018 57 10000 6.17 270 18:55 27.06.2022
1325 Clouds 23 1017 62 10000 6.17 220 17:46 27.06.2022
1326 Clouds 23 1017 60 10000 4.63 250 16:18 27.06.2022
1327 Clouds 22 1016 67 10000 7.2 260 14:44 27.06.2022
1328 Clouds 23 1014 65 10000 5.66 220 13:24 27.06.2022
1329 Clouds 23 1016 69 10000 4.12 240 12:49 27.06.2022
1330 Clouds 20 1015 84 10000 3.6 220 10:22 27.06.2022
1331 Clouds 19 1015 94 10000 3.09 210 08:47 27.06.2022
1332 Clouds 18 1014 95 10000 3.6 250 07:59 27.06.2022
1333 Clouds 18 1014 96 10000 4.63 270 06:38 27.06.2022
1334 Rain 18 1015 92 7000 4.12 260 02:23 27.06.2022
1335 Rain 21 1012 74 10000 3.6 310 23:49 26.06.2022
1336 Clouds 22 1013 72 10000 2.57 320 21:58 26.06.2022
1337 Clouds 24 1013 63 10000 2.57 320 20:43 26.06.2022
1338 Clouds 25 1013 60 10000 4.63 300 19:27 26.06.2022
1339 Clouds 25 1013 56 10000 4.63 310 18:28 26.06.2022
1340 Clear 27 1015 46 10000 2.57 0 16:21 26.06.2022
1341 Clear 28 1013 43 10000 2.57 240 14:34 26.06.2022
1342 Clouds 27 1013 45 10000 2.57 0 13:38 26.06.2022
1343 Clouds 27 1013 45 10000 3.6 250 13:18 26.06.2022
1344 Clouds 25 1013 54 10000 3.09 220 11:26 26.06.2022
1345 Clouds 24 1013 63 10000 3.09 230 10:23 26.06.2022
1346 Clouds 22 1013 68 10000 3.09 250 09:19 26.06.2022
1347 Clear 19 1014 86 10000 2.06 180 07:30 26.06.2022
1348 Clear 19 1012 85 10000 3.09 360 01:53 26.06.2022
1349 Clear 20 1012 73 10000 2.57 50 00:20 26.06.2022
1350 Clear 20 1012 73 10000 1.03 0 23:41 25.06.2022
1351 Clear 21 1012 71 10000 1.54 140 22:57 25.06.2022
1352 Clear 22 1012 66 10000 1.03 0 22:27 25.06.2022
1353 Clear 24 1011 62 10000 1.54 140 21:40 25.06.2022
1354 Clear 24 1011 59 10000 1.03 200 21:18 25.06.2022
1355 Clear 27 1011 41 10000 2.57 180 20:27 25.06.2022
1356 Clear 28 1011 39 10000 3.6 140 19:21 25.06.2022
1357 Clear 28 1012 41 10000 3.09 180 17:56 25.06.2022
1358 Clear 28 1012 41 10000 3.6 200 17:22 25.06.2022
1359 Clouds 27 1013 46 10000 3.09 220 15:26 25.06.2022
1360 Clouds 25 1011 52 10000 2.06 0 13:34 25.06.2022
1361 Clouds 23 1012 63 10000 2.57 150 12:38 25.06.2022
1362 Clouds 21 1012 78 10000 2.57 250 10:35 25.06.2022
1363 Clouds 19 1012 87 10000 2.06 190 08:59 25.06.2022
1364 Clouds 18 1012 89 10000 2.57 190 08:37 25.06.2022
1365 Clouds 18 1012 90 10000 2.57 190 08:18 25.06.2022
1366 Clouds 16 1013 95 10000 3.09 190 03:34 25.06.2022
1367 Clouds 17 1011 95 10000 3.6 200 00:35 25.06.2022
1368 Rain 18 1011 95 10000 3.09 200 22:55 24.06.2022
1369 Rain 18 1011 96 10000 4.12 210 21:42 24.06.2022
1370 Rain 18 1010 94 10000 4.12 190 20:48 24.06.2022
1371 Rain 18 1010 94 10000 3.09 200 20:19 24.06.2022
1372 Rain 22 1007 71 8000 3.6 270 19:21 24.06.2022
1373 Thunderstorm 23 1006 69 5000 7.72 260 18:49 24.06.2022
1374 Thunderstorm 24 1006 55 10000 7.2 210 18:30 24.06.2022
1375 Clouds 27 1007 45 10000 2.57 190 17:21 24.06.2022
1376 Clouds 27 1007 46 10000 2.57 240 15:47 24.06.2022
1377 Clouds 27 1006 49 10000 3.09 240 14:28 24.06.2022
1378 Clouds 26 1006 54 10000 4.63 230 13:55 24.06.2022
1379 Clouds 22 1007 73 10000 4.12 200 11:44 24.06.2022
1380 Clouds 21 1007 72 10000 5.66 200 11:18 24.06.2022
1381 Clouds 21 1007 74 10000 4.63 190 10:19 24.06.2022
1382 Clouds 20 1007 86 10000 4.12 180 09:40 24.06.2022
1383 Clouds 20 1007 89 10000 3.6 180 08:52 24.06.2022
1384 Clouds 18 1009 94 10000 2.57 150 06:49 24.06.2022
1385 Rain 18 1009 94 10000 1.54 150 06:31 24.06.2022
1386 Clouds 18 1009 94 10000 2.06 190 05:55 24.06.2022
1387 Clear 23 1009 64 10000 3.17 208 01:36 24.06.2022
1388 Clear 24 1008 63 10000 1.54 70 22:55 23.06.2022
1389 Clear 24 1008 64 10000 1.54 70 22:33 23.06.2022
1390 Clouds 29 1008 41 10000 3.09 120 20:56 23.06.2022
1391 Clouds 30 1008 43 10000 3.6 130 20:32 23.06.2022
1392 Clouds 31 1008 38 10000 4.63 130 19:24 23.06.2022
1393 Clear 32 1009 39 10000 3.09 130 17:50 23.06.2022
1394 Clouds 32 1009 39 10000 3.6 150 16:58 23.06.2022
1395 Clear 31 1010 41 10000 4.63 110 15:49 23.06.2022
1396 Clouds 31 1010 42 10000 3.6 0 15:24 23.06.2022
1397 Clouds 30 1010 48 10000 2.57 0 13:32 23.06.2022
1398 Clouds 27 1011 56 10000 2.57 0 11:27 23.06.2022
1399 Clouds 25 1011 60 10000 2.57 70 10:31 23.06.2022
1400 Clear 22 1012 72 10000 3.09 80 08:49 23.06.2022
1401 Clear 18 1013 89 10000 0.51 0 02:46 23.06.2022
1402 Clear 19 1012 84 10000 2.06 170 00:26 23.06.2022
1403 Clear 20 1012 81 10000 2.57 190 23:30 22.06.2022
1404 Clear 21 1011 75 10000 1.54 200 22:39 22.06.2022
1405 Clear 23 1011 67 10000 2.57 170 21:22 22.06.2022
1406 Clear 23 1011 68 10000 3.6 200 20:42 22.06.2022
1407 Clear 25 1010 58 10000 4.12 190 19:56 22.06.2022
1408 Clear 26 1010 51 10000 5.66 200 18:47 22.06.2022
1409 Clear 26 1010 52 10000 5.66 200 18:47 22.06.2022
1410 Clear 28 1010 37 10000 5.66 190 17:28 22.06.2022
1411 Clear 29 1010 33 10000 4.12 180 16:29 22.06.2022
1412 Clear 29 1011 31 10000 2.57 0 15:26 22.06.2022
1413 Clear 29 1011 32 10000 2.06 0 14:20 22.06.2022
1414 Clear 29 1009 31 10000 2.06 0 13:39 22.06.2022
1415 Clear 28 1009 33 10000 3.09 80 13:21 22.06.2022
1416 Clear 27 1009 37 10000 3.6 70 11:50 22.06.2022
1417 Clear 25 1009 42 10000 2.06 50 10:57 22.06.2022
1418 Clear 23 1009 47 10000 3.09 20 10:19 22.06.2022
1419 Clear 20 1009 56 10000 3.09 30 08:37 22.06.2022
1420 Clear 15 1011 72 10000 3.09 40 05:38 22.06.2022
1421 Clear 18 1011 58 10000 3.09 10 01:39 22.06.2022
1422 Clear 19 1011 57 10000 3.6 10 00:36 22.06.2022
1423 Clear 21 1011 55 10000 2.09 35 22:37 21.06.2022
1424 Clear 27 1010 33 10000 2.06 0 19:57 21.06.2022
1425 Clear 27 1011 30 10000 2.57 100 18:36 21.06.2022
1426 Clear 27 1011 32 10000 3.09 60 17:39 21.06.2022
1427 Clear 25 1013 36 10000 3.6 60 14:42 21.06.2022
1428 Clouds 22 1013 49 10000 5.66 70 11:52 21.06.2022
1429 Clouds 19 1014 62 10000 2.57 70 10:19 21.06.2022
1430 Clear 16 1014 76 10000 3.09 40 08:50 21.06.2022
1431 Clear 13 1014 82 10000 4.12 70 07:35 21.06.2022
1432 Clear 11 1016 93 10000 0.51 0 02:27 21.06.2022
1433 Clouds 13 1016 83 10000 2.06 200 23:27 20.06.2022
1434 Clouds 16 1016 72 10000 2.06 230 21:58 20.06.2022
1435 Clouds 17 1016 67 10000 2.57 270 21:31 20.06.2022
1436 Clouds 19 1016 59 10000 2.06 310 19:57 20.06.2022
1437 Clouds 19 1016 59 10000 3.09 40 18:54 20.06.2022
1438 Clouds 18 1016 59 10000 3.6 30 18:24 20.06.2022
1439 Rain 18 1016 59 10000 3.6 10 17:40 20.06.2022
1440 Clouds 18 1014 66 10000 3.6 310 16:20 20.06.2022
1441 Clouds 17 1013 77 10000 4.63 330 14:29 20.06.2022
1442 Clouds 18 1013 83 10000 5.66 320 11:46 20.06.2022
1443 Rain 18 1012 80 10000 1.54 0 09:48 20.06.2022
1444 Rain 19 1012 73 10000 2.06 270 08:45 20.06.2022
1445 Clouds 18 1011 70 10000 3.09 10 07:35 20.06.2022
1446 Clear 19 1009 66 10000 5.66 20 03:51 20.06.2022
1447 Clear 22 1009 63 10000 4.63 10 00:52 20.06.2022
1448 Clear 23 1009 60 10000 5.14 20 23:48 19.06.2022
1449 Clear 25 1009 56 10000 5.14 10 22:19 19.06.2022
1450 Clear 26 1009 57 10000 5.14 20 21:42 19.06.2022
1451 Clear 27 1008 55 10000 4.12 320 20:49 19.06.2022
1452 Clear 30 1008 47 10000 8.75 330 19:49 19.06.2022
1453 Clear 32 1005 43 10000 9.26 330 19:24 19.06.2022
1454 Clouds 33 1007 42 10000 9.77 320 18:32 19.06.2022
1455 Clouds 36 1006 32 10000 5.14 240 17:43 19.06.2022
1456 Clear 35 1006 33 10000 5.66 230 17:20 19.06.2022
1457 Clear 35 1007 34 10000 3.09 210 16:28 19.06.2022
1458 Clear 34 1007 35 10000 2.57 300 15:35 19.06.2022
1459 Clear 34 1006 35 10000 5.66 0 14:42 19.06.2022
1460 Clear 34 1006 34 10000 6.17 0 13:52 19.06.2022
1461 Clear 33 1006 35 10000 6.17 240 12:22 19.06.2022
1462 Clear 32 1006 38 10000 5.14 200 10:53 19.06.2022
1463 Clear 28 1006 46 10000 4.12 200 09:21 19.06.2022
1464 Clear 27 1006 48 10000 3.09 210 08:32 19.06.2022
1465 Clear 23 1006 59 10000 1.03 0 07:30 19.06.2022
1466 Clear 22 1007 59 10000 2.06 40 04:27 19.06.2022
1467 Clear 25 1008 49 10000 2.57 50 01:28 19.06.2022
1468 Clear 24 1011 50 10000 1.54 120 00:23 19.06.2022
1469 Clear 26 1012 41 10000 1.03 0 23:35 18.06.2022
1470 Clear 27 1012 45 10000 3.09 150 22:33 18.06.2022
1471 Clear 32 1013 34 10000 2.57 160 20:55 18.06.2022
1472 Clear 33 1013 30 10000 2.57 180 20:26 18.06.2022
1473 Clear 35 1014 24 10000 3.6 190 19:25 18.06.2022
1474 Clear 35 1014 23 10000 4.12 200 18:44 18.06.2022
1475 Clear 36 1015 22 10000 5.14 220 17:30 18.06.2022
1476 Clear 36 1016 22 10000 5.66 200 16:23 18.06.2022
1477 Clear 35 1016 25 10000 4.12 180 15:22 18.06.2022
1478 Clear 35 1015 27 10000 5.14 210 14:42 18.06.2022
1479 Clear 33 1016 32 10000 4.63 180 13:21 18.06.2022
1480 Clear 29 1017 39 10000 3.6 210 11:34 18.06.2022
1481 Clear 27 1018 44 10000 2.57 200 10:26 18.06.2022
1482 Clear 25 1018 46 10000 3.6 200 09:20 18.06.2022
1483 Clear 24 1018 47 10000 3.6 200 09:20 18.06.2022
1484 Clear 22 1018 50 10000 1.03 0 08:19 18.06.2022
1485 Clouds 19 1017 60 10000 1.59 187 06:43 18.06.2022
1486 Clear 17 1021 69 10000 1.54 250 03:24 18.06.2022
1487 Clear 19 1021 61 10000 1.03 0 01:24 18.06.2022
1488 Clear 20 1022 56 10000 1.54 270 00:45 18.06.2022
1489 Clear 21 1021 49 10000 1.03 0 23:52 17.06.2022
1490 Clear 22 1021 49 10000 1.03 0 23:19 17.06.2022
1491 Clear 27 1021 36 10000 2.57 160 20:42 17.06.2022
1492 Clear 30 1022 24 10000 3.09 200 19:30 17.06.2022
1493 Clear 30 1022 23 10000 3.6 190 18:37 17.06.2022
1494 Clear 31 1022 22 10000 3.09 190 17:43 17.06.2022
1495 Clear 31 1023 23 10000 3.09 0 16:43 17.06.2022
1496 Clear 30 1023 26 10000 2.57 210 15:43 17.06.2022
1497 Clear 29 1023 26 10000 3.6 0 15:20 17.06.2022
1498 Clear 28 1024 27 10000 2.06 0 14:20 17.06.2022
1499 Clear 28 1022 28 10000 2.57 0 13:46 17.06.2022
1500 Clear 27 1023 33 10000 1.54 0 12:57 17.06.2022
1501 Clear 25 1023 38 10000 2.57 140 11:57 17.06.2022
1502 Clear 25 1023 39 10000 2.06 0 11:36 17.06.2022
1503 Clear 24 1023 41 10000 2.06 0 10:51 17.06.2022
1504 Clear 19 1025 56 10000 2.57 50 08:30 17.06.2022
1505 Clear 17 1025 61 10000 3.09 50 07:48 17.06.2022
1506 Clear 14 1024 71 10000 1.54 20 06:22 17.06.2022
1507 Clear 16 1024 64 10000 3.6 40 03:19 17.06.2022
1508 Clear 19 1023 52 10000 4.63 30 00:42 17.06.2022
1509 Clear 21 1022 42 10000 4.63 360 22:45 16.06.2022
1510 Clear 22 1022 39 10000 5.66 30 22:26 16.06.2022
1511 Clear 23 1021 36 10000 4.12 360 21:19 16.06.2022
1512 Clear 24 1020 34 10000 5.14 320 20:50 16.06.2022
1513 Clear 26 1020 30 10000 5.14 310 19:58 16.06.2022
1514 Clear 27 1020 27 10000 6.69 320 18:44 16.06.2022
1515 Clear 29 1020 28 10000 6.69 320 17:44 16.06.2022
1516 Clear 29 1020 28 10000 6.17 310 17:20 16.06.2022
1517 Clear 29 1020 26 10000 6.69 280 15:58 16.06.2022
1518 Clear 29 1019 29 10000 5.14 0 15:21 16.06.2022
1519 Clear 28 1019 34 10000 4.63 320 13:55 16.06.2022
1520 Clear 27 1017 39 10000 3.6 0 12:47 16.06.2022
1521 Clear 27 1017 39 10000 5.14 40 12:20 16.06.2022
1522 Clear 25 1016 43 10000 3.6 30 11:21 16.06.2022
1523 Clear 25 1016 45 10000 2.06 0 10:35 16.06.2022
1524 Clear 23 1016 50 10000 2.06 50 09:43 16.06.2022
1525 Clear 22 1015 54 10000 2.06 360 08:56 16.06.2022
1526 Clear 20 1015 59 10000 2.57 10 07:41 16.06.2022
1527 Clear 17 1016 68 10000 0.51 0 05:51 16.06.2022
1528 Clear 19 1015 55 10000 2.57 360 03:56 16.06.2022
1529 Clouds 20 1016 64 10000 1.9 10 01:52 16.06.2022
1530 Clear 21 1016 43 10000 4.63 10 01:22 16.06.2022
1531 Clear 22 1015 52 10000 2.57 20 00:22 16.06.2022
1532 Clear 24 1015 52 10000 3.09 20 22:53 15.06.2022
1533 Clear 25 1015 46 10000 4.12 360 21:48 15.06.2022
1534 Clear 27 1015 41 10000 3.6 340 21:19 15.06.2022
1535 Clear 29 1015 30 10000 2.57 270 20:37 15.06.2022
1536 Clear 30 1015 28 10000 2.57 270 20:18 15.06.2022
1537 Clear 31 1015 27 10000 1.54 0 18:47 15.06.2022
1538 Clear 31 1015 26 10000 3.09 340 17:53 15.06.2022
1539 Clear 31 1016 26 10000 3.09 330 16:34 15.06.2022
1540 Clear 30 1016 27 10000 3.09 0 15:22 15.06.2022
1541 Clear 29 1017 33 10000 2.06 0 13:29 15.06.2022
1542 Clear 28 1015 35 10000 2.57 340 12:51 15.06.2022
1543 Clear 26 1015 40 10000 2.57 20 11:37 15.06.2022
1544 Clear 23 1015 45 10000 3.6 40 10:22 15.06.2022
1545 Clear 21 1015 48 10000 3.6 60 09:34 15.06.2022
1546 Clear 19 1015 56 10000 4.12 40 08:27 15.06.2022
1547 Clear 14 1017 66 10000 3.6 20 06:33 15.06.2022
1548 Clear 15 1017 61 10000 3.09 60 03:28 15.06.2022
1549 Clear 17 1018 53 10000 4.12 30 01:37 15.06.2022
1550 Clear 18 1018 46 10000 4.12 30 00:41 15.06.2022
1551 Clear 19 1018 44 10000 4.12 30 23:39 14.06.2022
1552 Clear 21 1018 38 10000 4.12 30 22:52 14.06.2022
1553 Clear 22 1018 35 10000 3.6 20 21:53 14.06.2022
1554 Clear 23 1018 35 10000 4.63 20 21:27 14.06.2022
1555 Clear 24 1018 31 10000 4.63 20 20:48 14.06.2022
1556 Clear 25 1018 31 10000 4.63 20 20:28 14.06.2022
1557 Clear 26 1018 28 10000 3.09 90 18:45 14.06.2022
1558 Clear 27 1019 25 10000 4.12 80 17:29 14.06.2022
1559 Clear 26 1019 26 10000 4.63 150 16:43 14.06.2022
1560 Clear 26 1020 29 10000 2.57 0 15:50 14.06.2022
1561 Clear 26 1020 29 10000 2.57 0 15:50 14.06.2022
1562 Clear 25 1021 29 10000 2.06 0 14:57 14.06.2022
1563 Clear 25 1021 29 10000 2.06 0 14:57 14.06.2022
1564 Clear 24 1021 29 10000 3.09 110 14:23 14.06.2022
1565 Clear 24 1021 31 10000 2.57 240 13:40 14.06.2022
1566 Clear 23 1020 36 10000 2.06 0 12:30 14.06.2022
1567 Clear 21 1020 41 10000 2.06 0 11:28 14.06.2022
1568 Clear 20 1021 47 10000 1.54 0 10:44 14.06.2022
1569 Clouds 19 1021 52 10000 2.57 80 09:48 14.06.2022
1570 Clear 16 1021 61 10000 2.57 60 08:45 14.06.2022
1571 Clear 12 1023 78 10000 1.54 0 07:31 14.06.2022
1572 Clear 9 1023 85 10000 1.03 0 05:19 14.06.2022
1573 Clear 11 1023 81 10000 2.06 10 02:49 14.06.2022
1574 Clear 14 1023 62 10000 2.57 340 00:28 14.06.2022
1575 Clear 15 1023 60 10000 3.09 310 23:22 13.06.2022
1576 Clear 17 1022 53 10000 4.12 330 22:25 13.06.2022
1577 Clear 18 1022 49 10000 4.12 340 21:49 13.06.2022
1578 Clear 21 1021 42 10000 5.66 320 20:31 13.06.2022
1579 Clear 22 1021 39 10000 5.66 320 19:34 13.06.2022
1580 Clear 23 1021 37 10000 5.14 340 17:58 13.06.2022
1581 Clear 23 1021 39 10000 4.63 320 17:38 13.06.2022
1582 Clear 23 1021 40 10000 4.63 340 16:52 13.06.2022
1583 Clear 23 1021 43 10000 5.14 320 15:38 13.06.2022
1584 Clear 22 1021 44 10000 5.66 310 14:43 13.06.2022
1585 Clear 22 1021 44 10000 5.14 270 13:53 13.06.2022
1586 Clear 22 1019 43 10000 4.63 300 12:48 13.06.2022
1587 Clear 22 1019 43 10000 4.63 300 12:48 13.06.2022
1588 Clear 21 1019 44 10000 5.66 290 11:26 13.06.2022
1589 Clear 20 1019 46 10000 5.66 340 10:27 13.06.2022
1590 Clear 19 1019 51 10000 5.14 310 09:39 13.06.2022
1591 Clear 17 1020 64 10000 2.57 270 07:53 13.06.2022
1592 Clear 15 1020 70 10000 4.12 300 06:28 13.06.2022
1593 Clear 16 1019 66 10000 3.6 320 03:18 13.06.2022
1594 Clear 16 1019 68 10000 3.09 340 01:38 13.06.2022
1595 Rain 19 1018 56 10000 3.09 350 00:22 13.06.2022
1596 Clear 20 1018 54 10000 4.63 350 23:29 12.06.2022
1597 Clear 21 1018 49 10000 4.12 320 22:23 12.06.2022
1598 Clear 23 1018 48 10000 5.66 330 21:28 12.06.2022
1599 Clear 25 1018 45 10000 5.14 330 20:39 12.06.2022
1600 Clear 27 1018 33 10000 5.66 290 19:38 12.06.2022
1601 Clear 28 1018 30 10000 5.66 270 18:43 12.06.2022
1602 Clear 29 1019 36 10000 4.63 270 16:42 12.06.2022
1603 Clear 28 1020 38 10000 5.14 280 15:30 12.06.2022
1604 Clear 28 1018 38 10000 6.17 260 14:32 12.06.2022
1605 Clear 28 1019 40 10000 5.14 270 13:57 12.06.2022
1606 Clear 27 1019 41 10000 5.14 270 13:38 12.06.2022
1607 Clouds 25 1020 51 10000 2.06 0 11:48 12.06.2022
1608 Clouds 24 1020 54 10000 1.54 220 10:45 12.06.2022
1609 Clouds 23 1020 59 10000 1.03 0 09:36 12.06.2022
1610 Clouds 21 1020 66 10000 1.03 0 08:49 12.06.2022
1611 Clear 19 1020 73 10000 1.03 0 07:47 12.06.2022
1612 Clear 15 1022 93 10000 1.03 220 05:51 12.06.2022
1613 Clear 16 1022 88 10000 1.54 180 03:38 12.06.2022
1614 Clear 16 1022 88 10000 1.54 220 03:38 12.06.2022
1615 Clear 17 1021 78 10000 2.06 220 01:44 12.06.2022
1616 Clear 18 1021 78 10000 1.03 0 01:22 12.06.2022
1617 Clear 18 1021 74 10000 1.54 250 00:36 12.06.2022
1618 Clear 19 1021 73 10000 2.06 220 00:18 12.06.2022
1619 Clear 20 1021 69 10000 2.57 210 22:53 11.06.2022
1620 Clear 21 1021 64 10000 2.57 200 22:29 11.06.2022
1621 Clear 25 1021 51 10000 2.57 190 21:18 11.06.2022
1622 Clear 27 1021 36 10000 3.09 180 20:26 11.06.2022
1623 Clear 28 1021 34 10000 4.12 190 19:33 11.06.2022
1624 Clear 28 1021 34 10000 3.09 180 18:42 11.06.2022
1625 Clear 27 1021 39 10000 2.06 200 18:24 11.06.2022
1626 Clear 27 1021 40 10000 4.12 190 17:38 11.06.2022
1627 Clear 28 1021 39 10000 2.57 180 17:19 11.06.2022
1628 Clear 28 1021 39 10000 3.6 230 16:42 11.06.2022
1629 Clear 27 1022 40 10000 1.54 0 15:57 11.06.2022
1630 Clear 27 1022 42 10000 3.09 0 14:43 11.06.2022
1631 Clear 26 1023 43 10000 3.09 230 13:50 11.06.2022
1632 Clouds 25 1021 48 10000 3.09 220 11:46 11.06.2022
1633 Clouds 23 1021 57 10000 2.06 220 10:30 11.06.2022
1634 Clouds 21 1021 61 10000 1.54 210 09:41 11.06.2022
1635 Clear 18 1021 74 10000 1.54 270 08:37 11.06.2022
1636 Clear 14 1023 92 10000 0.51 120 06:33 11.06.2022
1637 Clear 13 1022 94 10000 1.03 0 05:26 11.06.2022
1638 Clear 14 1022 90 10000 1.54 250 02:55 11.06.2022
1639 Clear 15 1022 86 10000 1.03 0 01:41 11.06.2022
1640 Clear 16 1022 82 10000 0.51 220 00:55 11.06.2022
1641 Clear 18 1022 74 10000 2.06 10 23:25 10.06.2022
1642 Clear 19 1022 66 10000 2.06 330 22:20 10.06.2022
1643 Clear 21 1022 62 10000 1.54 210 21:27 10.06.2022
1644 Clear 23 1022 48 10000 2.06 210 20:37 10.06.2022
1645 Clear 24 1022 47 10000 2.06 210 20:19 10.06.2022
1646 Clear 24 1022 44 10000 2.57 190 19:19 10.06.2022
1647 Clear 25 1022 41 10000 2.57 250 18:30 10.06.2022
1648 Clear 25 1022 40 10000 2.57 260 17:43 10.06.2022
1649 Clear 25 1022 45 10000 3.09 190 17:21 10.06.2022
1650 Clear 24 1022 41 10000 2.57 210 16:25 10.06.2022
1651 Clear 24 1022 40 10000 1.54 0 15:37 10.06.2022
1652 Clouds 23 1023 42 10000 3.09 220 13:58 10.06.2022
1653 Clouds 23 1022 48 10000 3.09 0 12:51 10.06.2022
1654 Clouds 21 1022 52 10000 3.09 0 11:53 10.06.2022
1655 Clouds 20 1022 59 10000 1.54 0 10:45 10.06.2022
1656 Clouds 18 1022 68 10000 1.54 220 09:55 10.06.2022
1657 Clear 16 1022 78 10000 1.03 0 08:44 10.06.2022
1658 Clear 13 1021 85 10000 1.03 0 07:31 10.06.2022
1659 Clear 11 1023 93 10000 1.54 260 06:45 10.06.2022
1660 Clear 10 1023 96 10000 1.54 220 06:26 10.06.2022
1661 Clear 11 1022 94 10000 0.51 0 04:37 10.06.2022
1662 Clear 13 1022 86 10000 2.57 290 01:42 10.06.2022
1663 Clear 14 1021 85 10000 1.54 240 00:40 10.06.2022
1664 Clear 14 1021 86 10000 1.54 290 23:49 09.06.2022
1665 Clear 16 1020 72 10000 2.06 270 22:22 09.06.2022
1666 Clouds 17 1019 68 10000 3.09 300 21:37 09.06.2022
1667 Clouds 19 1019 59 10000 4.63 300 20:58 09.06.2022
1668 Clouds 20 1018 58 10000 5.14 320 20:27 09.06.2022
1669 Clouds 20 1018 55 10000 5.66 330 19:31 09.06.2022
1670 Clouds 21 1017 54 10000 5.66 280 18:35 09.06.2022
1671 Clouds 21 1017 52 10000 6.17 280 17:25 09.06.2022
1672 Clouds 21 1016 55 10000 6.69 270 16:21 09.06.2022
1673 Clouds 21 1013 59 10000 6.17 250 14:42 09.06.2022
1674 Rain 20 1013 63 10000 6.17 250 14:23 09.06.2022
1675 Clouds 19 1013 65 10000 4.63 270 13:30 09.06.2022
1676 Clouds 19 1013 66 10000 6.69 250 12:46 09.06.2022
1677 Clouds 17 1012 74 10000 5.14 260 11:20 09.06.2022
1678 Clouds 16 1014 76 10000 4.63 240 09:55 09.06.2022
1679 Clouds 16 1013 77 10000 5.14 240 09:36 09.06.2022
1680 Clouds 15 1012 86 10000 4.12 240 08:27 09.06.2022
1681 Clouds 14 1012 93 10000 3.09 200 07:24 09.06.2022
1682 Clouds 14 1010 94 10000 3.09 220 03:29 09.06.2022
1683 Clouds 15 1010 95 10000 2.06 200 00:32 09.06.2022
1684 Clouds 15 1009 94 10000 4.12 220 23:18 08.06.2022
1685 Clouds 15 1009 94 10000 4.12 210 22:42 08.06.2022
1686 Clouds 15 1009 94 10000 4.63 190 22:23 08.06.2022
1687 Clouds 16 1008 94 10000 3.6 200 21:32 08.06.2022
1688 Rain 16 1008 93 10000 3.6 190 20:25 08.06.2022
1689 Rain 16 1008 93 10000 2.57 200 19:41 08.06.2022
1690 Rain 16 1008 91 10000 3.6 200 18:48 08.06.2022
1691 Rain 17 1008 88 10000 2.06 230 17:38 08.06.2022
1692 Rain 21 1008 52 10000 2.06 0 15:53 08.06.2022
1693 Clouds 22 1006 54 10000 4.12 190 14:38 08.06.2022
1694 Clouds 22 1007 57 10000 3.6 190 12:55 08.06.2022
1695 Clouds 22 1007 57 10000 3.6 190 12:55 08.06.2022
1696 Clouds 22 1007 56 10000 3.6 190 12:55 08.06.2022
1697 Clouds 21 1007 62 10000 3.6 180 11:36 08.06.2022
1698 Clouds 21 1008 66 10000 3.6 180 10:51 08.06.2022
1699 Clouds 18 1011 80 10000 2.57 210 09:28 08.06.2022
1700 Clouds 17 1009 83 10000 3.09 210 08:54 08.06.2022
1701 Clouds 15 1011 93 10000 2.06 240 07:21 08.06.2022
1702 Clouds 15 1011 93 10000 2.06 240 07:21 08.06.2022
1703 Clouds 14 1011 96 10000 3.09 180 04:47 08.06.2022
1704 Clouds 16 1013 92 10000 1.54 160 01:25 08.06.2022
1705 Rain 16 1014 91 10000 2.57 190 23:32 07.06.2022
1706 Clouds 16 1014 89 10000 1.54 210 22:58 07.06.2022
1707 Clouds 17 1014 87 10000 1.54 210 22:37 07.06.2022
1708 Clouds 17 1013 83 10000 1.54 170 21:41 07.06.2022
1709 Clouds 18 1013 83 10000 1.54 150 21:20 07.06.2022
1710 Rain 18 1013 83 10000 2.06 230 20:42 07.06.2022
1711 Clouds 18 1013 79 10000 3.6 280 19:57 07.06.2022
1712 Clouds 21 1012 46 10000 5.66 250 18:38 07.06.2022
1713 Clouds 23 1012 46 10000 5.14 220 17:36 07.06.2022
1714 Clear 23 1013 46 10000 5.66 220 16:47 07.06.2022
1715 Clear 23 1013 44 10000 4.63 230 16:28 07.06.2022
1716 Clear 23 1013 44 10000 5.14 230 15:38 07.06.2022
1717 Clear 23 1013 43 10000 4.12 250 15:19 07.06.2022
1718 Clear 23 1013 43 10000 5.66 250 14:44 07.06.2022
1719 Clear 22 1014 44 10000 5.14 230 13:42 07.06.2022
1720 Clear 22 1014 46 10000 6.17 230 13:42 07.06.2022
1721 Clear 22 1012 46 10000 6.17 230 13:23 07.06.2022
1722 Clear 22 1015 44 10000 4.63 230 11:56 07.06.2022
1723 Clouds 22 1013 47 10000 5.14 220 10:57 07.06.2022
1724 Clear 19 1013 60 10000 4.12 230 09:28 07.06.2022
1725 Clear 17 1013 69 10000 2.57 210 08:28 07.06.2022
1726 Clear 15 1015 85 10000 1.54 170 07:19 07.06.2022
1727 Clear 14 1015 83 10000 0.51 0 05:19 07.06.2022
1728 Clear 15 1015 76 10000 1.54 220 01:43 07.06.2022
1729 Clear 17 1015 63 10000 2.57 260 23:59 06.06.2022
1730 Clear 18 1015 56 10000 3.6 250 23:25 06.06.2022
1731 Clear 19 1015 53 10000 3.09 250 22:37 06.06.2022
1732 Clear 20 1015 47 10000 5.14 220 21:33 06.06.2022
1733 Clear 23 1014 42 10000 7.72 240 19:37 06.06.2022
1734 Clear 23 1014 40 10000 7.72 240 19:19 06.06.2022
1735 Clear 24 1015 48 10000 6.69 250 18:34 06.06.2022
1736 Clear 23 1015 49 10000 6.17 270 17:36 06.06.2022
1737 Clouds 24 1015 47 10000 7.2 220 16:33 06.06.2022
1738 Clouds 24 1015 48 10000 6.69 200 15:39 06.06.2022
1739 Clouds 23 1015 51 10000 6.69 190 14:39 06.06.2022
1740 Clouds 22 1014 54 10000 4.63 230 13:27 06.06.2022
1741 Clouds 21 1014 63 10000 4.63 260 12:38 06.06.2022
1742 Clouds 20 1015 73 10000 5.66 250 12:19 06.06.2022
1743 Clouds 19 1015 80 10000 5.66 230 11:42 06.06.2022
1744 Clouds 19 1015 75 10000 4.63 210 09:41 06.06.2022
1745 Clouds 18 1016 84 10000 4.12 200 08:35 06.06.2022
1746 Clouds 17 1016 89 10000 2.57 190 07:40 06.06.2022
1747 Clouds 15 1016 93 10000 3.6 180 05:34 06.06.2022
1748 Clouds 16 1016 91 10000 2.57 190 03:47 06.06.2022
1749 Clouds 16 1016 91 10000 2.57 190 03:47 06.06.2022
1750 Clouds 17 1016 85 10000 3.09 210 01:30 06.06.2022
1751 Clouds 17 1016 84 10000 2.57 200 00:43 06.06.2022
1752 Clouds 18 1016 81 10000 2.57 200 00:19 06.06.2022
1753 Clouds 18 1016 79 10000 4.12 200 22:57 05.06.2022
1754 Clouds 19 1012 76 10000 8.23 240 21:33 05.06.2022
1755 Clouds 20 1013 86 10000 4.63 190 20:23 05.06.2022
1756 Clouds 21 1011 85 10000 4.12 180 18:47 05.06.2022
1757 Thunderstorm 21 1013 84 10000 3.09 220 17:58 05.06.2022
1758 Rain 21 1013 78 10000 1.54 250 17:38 05.06.2022
1759 Rain 21 1013 89 6736 3.34 224 17:19 05.06.2022
1760 Rain 21 1013 91 6736 3.34 224 16:46 05.06.2022
1761 Rain 22 1013 71 10000 1.03 0 14:59 05.06.2022
1762 Clouds 23 1011 65 10000 3.09 110 13:55 05.06.2022
1763 Clouds 20 1014 78 10000 2.57 70 11:58 05.06.2022
1764 Clouds 19 1014 79 10000 2.57 70 10:45 05.06.2022
1765 Clouds 19 1014 82 10000 3.6 70 10:24 05.06.2022
1766 Rain 18 1014 84 10000 4.63 70 09:29 05.06.2022
1767 Rain 18 1016 79 10000 3.09 60 08:23 05.06.2022
1768 Clear 18 1015 78 10000 5.14 40 05:58 05.06.2022
1769 Clear 18 1015 79 10000 5.14 40 05:19 05.06.2022
1770 Clear 18 1018 80 10000 3.6 20 02:23 05.06.2022
1771 Clear 19 1018 77 10000 4.12 40 01:23 05.06.2022
1772 Clear 22 1018 64 10000 3.6 70 22:49 04.06.2022
1773 Clear 24 1018 59 10000 4.63 70 21:25 04.06.2022
1774 Clear 27 1017 50 10000 5.14 110 19:26 04.06.2022
1775 Clouds 27 1018 48 10000 4.12 50 16:48 04.06.2022
1776 Clouds 27 1018 49 10000 4.12 70 16:20 04.06.2022
1777 Clouds 26 1018 56 10000 4.12 70 15:39 04.06.2022
1778 Clouds 26 1018 59 10000 2.57 20 13:59 04.06.2022
1779 Clouds 23 1018 65 10000 2.57 0 11:41 04.06.2022
1780 Clouds 22 1018 72 10000 3.09 70 10:54 04.06.2022
1781 Clouds 22 1015 75 10000 3.6 70 09:56 04.06.2022
1782 Clouds 21 1015 75 10000 3.6 70 09:38 04.06.2022
1783 Clear 19 1017 82 10000 2.57 10 08:38 04.06.2022
1784 Clear 17 1017 90 10000 2.57 0 06:59 04.06.2022
1785 Clear 17 1016 94 10000 2.06 10 03:57 04.06.2022
1786 Clear 19 1016 85 10000 1.03 0 00:24 04.06.2022
1787 Clouds 19 1016 84 10000 2.06 150 23:19 03.06.2022
1788 Rain 20 1015 80 10000 3.09 300 21:54 03.06.2022
1789 Rain 21 1015 73 10000 3.09 260 20:42 03.06.2022
1790 Rain 21 1015 73 10000 3.09 260 20:42 03.06.2022
1791 Rain 22 1015 68 10000 3.6 250 19:58 03.06.2022
1792 Rain 26 1013 46 10000 4.63 310 16:59 03.06.2022
1793 Rain 27 1013 42 10000 4.63 310 16:30 03.06.2022
1794 Clear 28 1013 39 10000 3.09 80 14:47 03.06.2022
1795 Clear 24 1014 44 10000 3.09 0 12:28 03.06.2022
1796 Clear 20 1015 51 10000 3.6 50 10:18 03.06.2022
1797 Clear 18 1016 54 10000 3.6 30 09:30 03.06.2022
1798 Clear 16 1015 63 10000 5.14 20 07:53 03.06.2022
1799 Clear 15 1018 65 10000 5.14 40 07:20 03.06.2022
1800 Clear 13 1018 68 10000 5.14 30 06:30 03.06.2022
1801 Clear 14 1018 67 10000 5.14 20 04:40 03.06.2022
1802 Clear 16 1019 58 10000 6.69 20 00:22 03.06.2022
1803 Clear 18 1019 50 10000 6.17 20 22:35 02.06.2022
1804 Clear 20 1018 41 10000 5.14 20 21:29 02.06.2022
1805 Clear 22 1019 31 10000 5.14 20 20:22 02.06.2022
1806 Clear 23 1018 29 10000 3.6 50 19:42 02.06.2022
1807 Clear 23 1019 29 10000 3.6 80 19:19 02.06.2022
1808 Clear 23 1019 30 10000 2.57 0 16:46 02.06.2022
1809 Clear 22 1020 30 10000 2.06 0 16:20 02.06.2022
1810 Clear 22 1019 38 10000 2.57 0 13:56 02.06.2022
1811 Clear 21 1019 39 10000 1.54 0 13:29 02.06.2022
1812 Clouds 18 1019 49 10000 3.6 50 11:22 02.06.2022
1813 Clouds 17 1019 52 10000 3.09 60 10:19 02.06.2022
1814 Clouds 16 1019 59 10000 2.06 30 09:27 02.06.2022
1815 Clear 14 1019 67 10000 1.03 0 08:26 02.06.2022
1816 Clear 9 1020 81 10000 1.03 0 06:59 02.06.2022
1817 Clear 9 1019 84 10000 0.51 0 04:40 02.06.2022
1818 Clear 11 1019 74 10000 1.54 140 02:37 02.06.2022
1819 Clear 14 1018 63 10000 5.14 340 23:43 01.06.2022
1820 Clear 14 1018 63 10000 5.14 340 23:43 01.06.2022
1821 Clear 14 1018 63 10000 5.14 340 23:43 01.06.2022
1822 Clear 14 1018 63 10000 5.14 340 23:43 01.06.2022
1823 Clear 15 1016 59 10000 3.6 330 22:31 01.06.2022
1824 Clear 17 1016 53 10000 5.14 340 21:32 01.06.2022
1825 Clear 19 1015 47 10000 6.69 320 20:40 01.06.2022
1826 Clear 20 1014 42 10000 4.12 330 19:59 01.06.2022
1827 Clear 21 1014 37 10000 5.14 310 19:19 01.06.2022
1828 Clear 22 1014 32 10000 5.14 250 17:44 01.06.2022
1829 Clear 22 1014 32 10000 7.2 280 16:34 01.06.2022
1830 Clear 22 1014 36 10000 5.14 250 14:54 01.06.2022
1831 Clear 21 1014 39 10000 6.17 230 13:51 01.06.2022
1832 Clear 20 1013 42 10000 5.14 280 12:26 01.06.2022
1833 Clear 20 1013 42 10000 5.14 280 12:26 01.06.2022
1834 Clear 17 1013 59 10000 1.03 0 09:41 01.06.2022
1835 Clear 15 1013 68 10000 1.03 0 08:52 01.06.2022
1836 Clear 11 1014 84 10000 0.51 0 07:24 01.06.2022
1837 Clear 10 1014 88 10000 1.54 330 05:52 01.06.2022
1838 Clear 11 1014 80 10000 1.03 210 00:48 01.06.2022
1839 Clear 13 1013 75 10000 1.54 30 23:30 31.05.2022
1840 Clear 13 1013 75 10000 1.54 30 23:30 31.05.2022
1841 Clear 15 1013 68 10000 3.09 320 22:37 31.05.2022
1842 Clear 16 1012 56 10000 3.09 330 21:46 31.05.2022
1843 Clear 19 1012 47 10000 4.12 320 20:46 31.05.2022
1844 Clear 19 1012 48 10000 3.6 330 20:20 31.05.2022
1845 Clouds 20 1011 48 10000 6.69 330 18:53 31.05.2022
1846 Clear 22 1011 36 10000 6.17 270 17:51 31.05.2022
1847 Clear 22 1011 33 10000 5.66 300 17:18 31.05.2022
1848 Clear 23 1011 33 10000 4.12 250 15:41 31.05.2022
1849 Clear 23 1011 31 10000 4.12 250 15:41 31.05.2022
1850 Clear 22 1011 35 10000 4.12 0 14:33 31.05.2022
1851 Clouds 19 1010 49 10000 1.54 0 12:22 31.05.2022
1852 Clouds 18 1010 54 10000 2.57 80 11:23 31.05.2022
1853 Clouds 15 1011 62 10000 4.12 40 09:31 31.05.2022
1854 Clear 12 1011 69 10000 5.14 20 07:36 31.05.2022
1855 Clear 9 1013 77 10000 3.09 30 05:24 31.05.2022
1856 Clear 9 1014 75 10000 4.12 20 01:42 31.05.2022
1857 Clouds 11 1015 75 10000 1.74 45 23:29 30.05.2022
1858 Clear 12 1014 61 10000 4.12 20 22:59 30.05.2022
1859 Clouds 12 1015 70 10000 2.15 39 22:24 30.05.2022
1860 Clear 14 1013 53 10000 4.12 20 21:35 30.05.2022
1861 Clear 17 1013 48 10000 3.09 10 20:22 30.05.2022
1862 Clear 18 1013 44 10000 2.57 0 18:58 30.05.2022
1863 Clear 18 1013 44 10000 3.09 0 17:43 30.05.2022
1864 Clear 17 1013 45 10000 3.6 20 16:54 30.05.2022
1865 Clouds 17 1013 47 10000 3.6 340 15:43 30.05.2022
1866 Clouds 15 1011 56 10000 3.09 350 12:44 30.05.2022
1867 Clouds 14 1011 62 10000 3.09 0 10:57 30.05.2022
1868 Clouds 13 1010 69 10000 3.6 30 09:39 30.05.2022
1869 Clouds 8 1012 93 10000 1.03 0 07:24 30.05.2022
1870 Clear 6 1011 97 10000 0.51 0 05:51 30.05.2022
1871 Clear 7 1012 93 10000 2.57 320 02:36 30.05.2022
1872 Clear 10 1012 76 10000 3.6 330 23:28 29.05.2022
1873 Clear 10 1012 80 10000 3.09 340 22:39 29.05.2022
1874 Clouds 12 1012 75 10000 3.09 320 21:40 29.05.2022
1875 Clouds 14 1012 73 10000 1.54 250 19:57 29.05.2022
1876 Clouds 14 1012 62 10000 3.09 140 19:28 29.05.2022
1877 Clouds 17 1011 41 10000 2.57 300 17:48 29.05.2022
1878 Clear 17 1012 38 10000 4.63 290 15:59 29.05.2022
1879 Clear 17 1012 38 10000 4.63 290 15:40 29.05.2022
1880 Clear 16 1013 41 10000 2.06 310 14:44 29.05.2022
1881 Clouds 16 1012 45 10000 2.06 0 12:21 29.05.2022
1882 Clouds 14 1012 50 10000 2.57 0 10:56 29.05.2022
1883 Clouds 13 1012 55 10000 3.6 0 09:54 29.05.2022
1884 Clouds 10 1015 67 10000 4.12 20 07:42 29.05.2022
1885 Clear 8 1015 74 10000 3.6 360 04:58 29.05.2022
1886 Clear 8 1015 74 10000 3.6 360 04:32 29.05.2022
1887 Clear 10 1016 64 10000 2.57 330 00:53 29.05.2022
1888 Clear 11 1017 60 10000 2.57 310 23:47 28.05.2022
1889 Clear 11 1017 59 10000 2.57 310 23:19 28.05.2022
1890 Clear 14 1017 53 10000 3.09 0 21:52 28.05.2022
1891 Clear 16 1017 40 10000 4.12 320 20:53 28.05.2022
1892 Clear 18 1017 36 10000 5.66 340 19:20 28.05.2022
1893 Clear 19 1017 33 10000 5.66 320 18:23 28.05.2022
1894 Clear 19 1018 36 10000 6.17 320 17:33 28.05.2022
1895 Clear 19 1019 34 10000 6.17 300 15:50 28.05.2022
1896 Clear 19 1019 35 10000 5.14 300 15:20 28.05.2022
1897 Clear 18 1018 42 10000 5.66 320 13:36 28.05.2022
1898 Clouds 17 1018 48 10000 6.17 300 12:42 28.05.2022
1899 Clouds 16 1018 53 10000 5.14 290 11:37 28.05.2022
1900 Clouds 15 1019 57 10000 4.63 300 10:39 28.05.2022
1901 Clouds 14 1019 59 10000 3.6 250 09:54 28.05.2022
1902 Clouds 13 1019 59 10000 4.63 230 08:24 28.05.2022
1903 Clouds 10 1021 72 10000 2.37 265 06:50 28.05.2022
1904 Clouds 9 1021 77 10000 1.83 272 05:18 28.05.2022
1905 Clear 11 1021 64 10000 4.63 330 02:26 28.05.2022
1906 Clear 13 1021 57 10000 4.12 310 23:57 27.05.2022
1907 Clear 14 1021 55 10000 3.6 300 22:48 27.05.2022
1908 Clear 17 1020 50 10000 5.66 320 21:29 27.05.2022
1909 Clear 18 1020 47 10000 6.69 320 20:45 27.05.2022
1910 Clear 19 1019 49 10000 6.69 320 20:19 27.05.2022
1911 Clear 20 1019 47 10000 6.69 320 19:38 27.05.2022
1912 Clear 20 1019 44 10000 5.66 280 19:19 27.05.2022
1913 Clouds 20 1019 58 10000 5.66 230 17:19 27.05.2022
1914 Clouds 19 1020 69 10000 6.17 290 15:57 27.05.2022
1915 Clouds 19 1016 57 10000 0.89 133 14:57 27.05.2022
1916 Clouds 19 1018 68 10000 7.2 240 13:40 27.05.2022
1917 Clouds 18 1021 65 10000 7.72 260 12:20 27.05.2022
1918 Clouds 18 1021 67 10000 7.2 240 11:31 27.05.2022
1919 Clouds 17 1018 68 10000 6.17 250 10:43 27.05.2022
1920 Clouds 17 1019 69 10000 6.69 250 09:59 27.05.2022
1921 Clouds 17 1018 70 10000 6.17 220 09:30 27.05.2022
1922 Clouds 16 1018 75 10000 4.63 210 07:40 27.05.2022
1923 Clouds 14 1020 78 10000 3.6 210 04:58 27.05.2022
1924 Clouds 16 1021 72 10000 2.57 200 01:38 27.05.2022
1925 Clear 18 1022 63 10000 3.09 200 23:31 26.05.2022
1926 Clear 19 1021 57 10000 4.63 220 22:28 26.05.2022
1927 Clear 19 1021 57 10000 5.14 210 21:32 26.05.2022
1928 Clear 22 1021 47 10000 5.66 240 19:39 26.05.2022
1929 Clear 22 1021 44 10000 6.69 240 18:52 26.05.2022
1930 Clear 23 1021 44 10000 5.66 240 17:36 26.05.2022
1931 Clear 23 1020 43 10000 5.66 260 16:31 26.05.2022
1932 Clear 22 1022 44 10000 5.14 250 15:33 26.05.2022
1933 Clouds 21 1023 46 10000 6.69 250 14:21 26.05.2022
1934 Clouds 20 1021 52 10000 4.63 240 12:20 26.05.2022
1935 Clouds 19 1020 57 10000 6.69 230 11:21 26.05.2022
1936 Clouds 18 1020 62 10000 6.17 230 09:39 26.05.2022
1937 Clouds 17 1019 64 10000 6.17 240 08:51 26.05.2022
1938 Clear 15 1018 67 10000 3.09 210 06:51 26.05.2022
1939 Clear 15 1019 64 10000 3.6 200 02:59 26.05.2022
1940 Clear 16 1019 57 10000 2.57 210 00:20 26.05.2022
1941 Clear 17 1018 53 10000 3.6 220 23:19 25.05.2022
1942 Clouds 18 1019 53 10000 3.89 250 21:46 25.05.2022
1943 Clear 19 1017 43 10000 5.66 230 20:53 25.05.2022
1944 Clear 20 1017 41 10000 6.17 250 19:59 25.05.2022
1945 Clear 21 1017 39 10000 7.2 250 19:19 25.05.2022
1946 Clear 22 1016 38 10000 4.63 260 17:30 25.05.2022
1947 Clear 22 1016 37 10000 6.17 250 16:36 25.05.2022
1948 Clear 22 1016 36 10000 6.69 250 15:53 25.05.2022
1949 Clear 22 1014 36 10000 6.69 250 14:51 25.05.2022
1950 Clear 20 1016 39 10000 7.2 230 14:32 25.05.2022
1951 Clouds 21 1014 42 10000 4.63 240 13:35 25.05.2022
1952 Clear 20 1013 49 10000 1.79 358 12:24 25.05.2022
1953 Clouds 18 1015 56 10000 4.12 250 10:43 25.05.2022
1954 Clouds 17 1014 62 10000 2.57 240 09:53 25.05.2022
1955 Clouds 15 1012 76 10000 1.34 358 08:22 25.05.2022
1956 Clouds 10 1016 89 10000 1.2 231 06:53 25.05.2022
1957 Clear 10 1013 87 10000 0.51 220 03:20 25.05.2022
1958 Clear 13 1012 74 10000 1.54 200 23:55 24.05.2022
1959 Clear 12 1012 75 10000 1.54 200 23:25 24.05.2022
1960 Clear 15 1011 62 10000 3.6 260 22:19 24.05.2022
1961 Clouds 17 1011 53 10000 4.12 260 21:39 24.05.2022
1962 Clouds 17 1011 53 10000 4.12 260 21:20 24.05.2022
1963 Clear 19 1010 47 10000 4.12 260 19:45 24.05.2022
1964 Clear 20 1010 43 10000 6.69 270 18:53 24.05.2022
1965 Clear 21 1009 42 10000 8.23 250 16:42 24.05.2022
1966 Clouds 21 1009 43 10000 6.69 280 16:22 24.05.2022
1967 Clouds 20 1006 48 10000 8.75 260 14:50 24.05.2022
1968 Clouds 20 1006 49 10000 10.29 240 14:20 24.05.2022
1969 Clouds 19 1006 55 10000 8.75 240 12:49 24.05.2022
1970 Clouds 18 1005 65 10000 7.72 250 11:26 24.05.2022
1971 Rain 16 1004 83 10000 5.14 240 09:44 24.05.2022
1972 Clouds 15 1005 88 10000 7.72 210 08:50 24.05.2022
1973 Clouds 15 1004 84 10000 3.6 200 06:57 24.05.2022
1974 Clouds 16 1004 80 10000 5.14 210 03:56 24.05.2022
1975 Clouds 16 1004 83 10000 6.69 230 01:53 24.05.2022
1976 Clouds 16 1004 84 10000 6.69 230 01:33 24.05.2022
1977 Clouds 18 1001 90 10000 5.66 210 23:31 23.05.2022
1978 Rain 18 1000 88 10000 7.2 230 21:56 23.05.2022
1979 Rain 19 998 77 9000 5.14 250 21:29 23.05.2022
1980 Rain 20 1000 68 10000 9.77 270 20:35 23.05.2022
1981 Clouds 23 999 62 10000 5.66 160 19:33 23.05.2022
1982 Clouds 23 999 70 10000 3.6 190 18:59 23.05.2022
1983 Clouds 24 1000 63 10000 5.66 180 18:31 23.05.2022
1984 Clouds 25 1000 53 10000 4.63 180 17:24 23.05.2022
1985 Rain 24 1000 59 10000 6.17 180 15:31 23.05.2022
1986 Clouds 24 1004 54 10000 3.6 140 13:22 23.05.2022
1987 Clouds 21 1005 63 10000 2.57 190 11:33 23.05.2022
1988 Clear 20 1005 65 10000 1.03 0 10:42 23.05.2022
1989 Clear 18 1005 70 10000 3.6 90 09:39 23.05.2022
1990 Rain 17 1002 76 10000 5.66 60 08:38 23.05.2022
1991 Rain 15 1008 73 10000 3.09 360 06:47 23.05.2022
1992 Rain 15 1007 74 10000 4.63 10 06:22 23.05.2022
1993 Clear 15 1009 75 10000 2.06 10 02:35 23.05.2022
1994 Clear 16 1010 75 10000 2.57 10 01:46 23.05.2022
1995 Clear 17 1010 65 10000 3.6 50 00:44 23.05.2022
1996 Clear 18 1011 63 10000 2.57 50 22:43 22.05.2022
1997 Clear 19 1011 62 10000 2.57 40 22:18 22.05.2022
1998 Clear 20 1011 53 10000 3.09 20 21:49 22.05.2022
1999 Clear 21 1011 48 10000 4.63 60 20:40 22.05.2022
2000 Clear 22 1011 49 10000 5.14 60 20:19 22.05.2022
2001 Clear 24 1012 41 10000 3.09 60 18:58 22.05.2022
2002 Clear 24 1012 40 10000 2.57 80 18:31 22.05.2022
2003 Clear 24 1013 39 10000 1.03 0 17:55 22.05.2022
2004 Clear 24 1013 39 10000 2.06 0 16:51 22.05.2022
2005 Clear 24 1014 38 10000 2.57 0 15:22 22.05.2022
2006 Clear 23 1015 40 10000 2.06 0 14:36 22.05.2022
2007 Clear 22 1015 44 10000 2.06 100 12:54 22.05.2022
2008 Clear 22 1016 45 10000 1.54 0 12:24 22.05.2022
2009 Clouds 20 1014 54 10000 1.54 0 10:45 22.05.2022
2010 Clouds 18 1015 66 10000 2.24 248 09:29 22.05.2022
2011 Clear 14 1015 81 10000 2.57 10 07:44 22.05.2022
2012 Clear 12 1017 84 10000 2.06 80 07:20 22.05.2022
2013 Clear 11 1018 88 10000 0.51 0 04:19 22.05.2022
2014 Clear 13 1019 81 10000 0.51 0 00:59 22.05.2022
2015 Clear 14 1019 79 10000 1.54 40 23:57 21.05.2022
2016 Clear 15 1019 74 10000 2.06 70 23:29 21.05.2022
2017 Clear 16 1019 68 10000 2.57 20 21:59 21.05.2022
2018 Clear 17 1019 67 10000 2.57 20 21:38 21.05.2022
2019 Clear 19 1019 54 10000 2.57 340 20:48 21.05.2022
2020 Clear 20 1020 51 10000 2.57 310 19:59 21.05.2022
2021 Clear 21 1020 50 10000 1.54 0 19:21 21.05.2022
2022 Clear 22 1021 42 10000 4.63 300 17:29 21.05.2022
2023 Clear 21 1020 44 10000 5.14 240 15:37 21.05.2022
2024 Clouds 21 1020 45 10000 5.14 270 14:36 21.05.2022
2025 Clouds 20 1020 49 10000 5.66 260 13:36 21.05.2022
2026 Clouds 19 1020 53 10000 7.2 240 12:40 21.05.2022
2027 Clouds 18 1020 57 10000 5.66 240 11:52 21.05.2022
2028 Clouds 17 1021 63 10000 5.14 250 10:22 21.05.2022
2029 Clouds 16 1021 69 10000 4.63 230 09:20 21.05.2022
2030 Clouds 16 1021 68 10000 4.63 230 09:20 21.05.2022
2031 Clouds 15 1021 73 10000 5.14 220 08:47 21.05.2022
2032 Clear 12 1023 86 10000 2.75 226 06:22 21.05.2022
2033 Clouds 15 1020 76 10000 6.17 310 02:24 21.05.2022
2034 Clouds 17 1018 78 10000 6.69 300 23:47 20.05.2022
2035 Clouds 19 1017 73 10000 6.69 260 22:42 20.05.2022
2036 Clouds 19 1017 82 10000 5.14 250 22:22 20.05.2022
2037 Rain 21 1015 83 10000 6.17 290 21:32 20.05.2022
2038 Rain 23 1014 60 10000 11.32 290 20:53 20.05.2022
2039 Clouds 25 1012 51 10000 9.77 230 19:56 20.05.2022
2040 Clouds 27 1013 49 10000 10.29 220 19:24 20.05.2022
2041 Clouds 27 1011 56 10000 3.6 200 18:28 20.05.2022
2042 Rain 26 1012 62 10000 4.12 210 16:51 20.05.2022
2043 Rain 27 1014 58 10000 5.66 230 15:58 20.05.2022
2044 Rain 28 1014 56 10000 5.66 230 15:40 20.05.2022
2045 Clouds 27 1015 55 10000 2.57 180 14:29 20.05.2022
2046 Clouds 27 1015 54 10000 4.63 220 13:54 20.05.2022
2047 Clouds 23 1018 74 10000 2.06 60 11:22 20.05.2022
2048 Clouds 20 1018 87 10000 2.57 100 09:51 20.05.2022
2049 Rain 18 1019 91 10000 1.54 350 08:43 20.05.2022
2050 Rain 17 1021 96 8000 2.57 60 06:47 20.05.2022
2051 Rain 17 1021 96 8000 2.57 50 06:24 20.05.2022
2052 Clouds 17 1021 99 10000 1.03 0 04:22 20.05.2022
2053 Clear 17 1022 97 10000 1.03 0 00:43 20.05.2022
2054 Rain 18 1021 92 10000 1.54 290 22:46 19.05.2022
2055 Rain 19 1020 90 10000 4.63 110 21:59 19.05.2022
2056 Clouds 19 1020 90 10000 4.63 110 21:40 19.05.2022
2057 Rain 19 1020 90 10000 2.06 40 21:22 19.05.2022
2058 Thunderstorm 19 1019 87 10000 2.06 0 20:32 19.05.2022
2059 Thunderstorm 22 1018 71 10000 6.69 290 19:40 19.05.2022
2060 Rain 29 1017 45 10000 5.14 230 18:19 19.05.2022
2061 Clear 30 1017 40 10000 4.63 190 16:32 19.05.2022
2062 Clear 29 1019 42 10000 3.09 220 14:52 19.05.2022
2063 Clear 29 1017 40 10000 2.06 160 14:24 19.05.2022
2064 Clear 27 1019 41 10000 3.09 220 13:20 19.05.2022
2065 Clear 25 1018 41 10000 2.06 0 11:25 19.05.2022
2066 Clear 22 1018 52 10000 3.09 70 09:19 19.05.2022
2067 Clear 19 1018 64 10000 3.09 50 07:49 19.05.2022
2068 Clear 16 1020 75 10000 3.09 60 05:32 19.05.2022
2069 Clear 18 1020 74 10000 2.06 40 01:59 19.05.2022
2070 Clear 21 1020 55 10000 3.09 100 23:57 18.05.2022
2071 Clear 23 1020 52 10000 3.6 110 22:47 18.05.2022
2072 Clear 24 1020 50 10000 4.12 100 21:51 18.05.2022
2073 Clear 25 1020 48 10000 4.12 110 21:29 18.05.2022
2074 Clear 27 1020 39 10000 4.63 110 20:47 18.05.2022
2075 Clear 27 1020 42 10000 5.14 100 20:18 18.05.2022
2076 Clear 29 1020 36 10000 4.12 110 18:33 18.05.2022
2077 Clear 30 1020 34 10000 3.09 150 17:41 18.05.2022
2078 Clear 29 1020 33 10000 3.09 150 17:23 18.05.2022
2079 Clear 29 1021 34 10000 3.6 140 16:34 18.05.2022
2080 Clear 29 1021 34 10000 3.09 0 15:41 18.05.2022
2081 Clear 28 1022 38 10000 3.6 0 14:35 18.05.2022
2082 Clear 28 1022 39 10000 2.57 210 13:41 18.05.2022
2083 Clear 27 1020 42 10000 1.79 355 12:43 18.05.2022
2084 Clear 26 1021 49 10000 2.57 100 11:36 18.05.2022
2085 Clouds 25 1021 51 10000 1.54 0 11:18 18.05.2022
2086 Clear 22 1021 63 10000 1.54 70 09:50 18.05.2022
2087 Clear 18 1021 71 10000 1.54 350 07:51 18.05.2022
2088 Clear 15 1020 84 10000 2.06 60 06:41 18.05.2022
2089 Clear 17 1021 83 10000 1.54 70 01:22 18.05.2022
2090 Clear 18 1021 76 10000 3.09 360 00:23 18.05.2022
2091 Clear 20 1020 67 10000 3.6 60 22:18 17.05.2022
2092 Clear 21 1020 61 10000 2.57 70 21:20 17.05.2022
2093 Clear 23 1020 51 10000 2.57 0 20:22 17.05.2022
2094 Clear 25 1020 48 10000 2.06 30 19:28 17.05.2022
2095 Clear 25 1020 49 10000 3.09 20 17:52 17.05.2022
2096 Clear 25 1018 45 10000 3.09 110 16:59 17.05.2022
2097 Clear 25 1018 44 10000 2.57 0 16:31 17.05.2022
2098 Clear 25 1019 44 10000 1.54 0 15:32 17.05.2022
2099 Clouds 25 1019 47 10000 2.57 0 14:31 17.05.2022
2100 Clouds 24 1019 49 10000 2.06 70 13:37 17.05.2022
2101 Clouds 23 1020 57 10000 1.54 0 11:58 17.05.2022
2102 Clouds 20 1020 74 10000 1.03 0 09:53 17.05.2022
2103 Clouds 18 1020 82 10000 2.06 230 08:43 17.05.2022
2104 Fog 13 1021 95 10000 1.54 220 06:52 17.05.2022
2105 Fog 13 1021 95 10000 1.54 200 04:24 17.05.2022
2106 Clear 16 1020 96 10000 1.54 200 00:47 17.05.2022
2107 Clouds 18 1020 89 10000 1.92 273 22:44 16.05.2022
2108 Clouds 18 1020 90 10000 2.57 240 22:18 16.05.2022
2109 Clouds 19 1019 89 10000 2.06 260 20:50 16.05.2022
2110 Rain 19 1018 87 10000 2.06 320 19:59 16.05.2022
2111 Rain 20 1016 77 10000 5.66 270 18:32 16.05.2022
2112 Clouds 24 1016 56 10000 8.23 220 16:37 16.05.2022
2113 Rain 24 1014 54 10000 3.6 270 14:46 16.05.2022
2114 Clear 24 1016 47 10000 5.14 210 13:26 16.05.2022
2115 Clear 23 1014 53 10000 4.63 210 11:34 16.05.2022
2116 Clear 21 1014 53 10000 2.57 220 10:30 16.05.2022
2117 Clear 17 1013 67 10000 2.57 40 07:45 16.05.2022
2118 Clouds 15 1015 69 10000 3.6 40 05:40 16.05.2022
2119 Clear 17 1016 61 10000 1.03 0 00:35 16.05.2022
2120 Clear 19 1016 54 10000 3.6 70 22:39 15.05.2022
2121 Clear 21 1015 50 10000 4.63 60 21:54 15.05.2022
2122 Clear 22 1015 44 10000 4.12 70 21:34 15.05.2022
2123 Clear 24 1015 38 10000 5.14 70 20:35 15.05.2022
2124 Clear 26 1016 30 10000 5.14 90 18:30 15.05.2022
2125 Clear 27 1017 29 10000 3.09 150 16:37 15.05.2022
2126 Clear 26 1018 34 10000 3.6 80 14:26 15.05.2022
2127 Clear 25 1018 37 10000 4.12 70 13:44 15.05.2022
2128 Clear 23 1018 47 10000 4.12 40 11:55 15.05.2022
2129 Clear 21 1018 53 10000 3.6 60 10:43 15.05.2022
2130 Clear 17 1018 61 10000 4.12 30 08:58 15.05.2022
2131 Clear 13 1020 74 10000 4.12 40 07:22 15.05.2022
2132 Clear 12 1020 75 10000 2.57 60 06:42 15.05.2022
2133 Clear 13 1020 74 10000 3.09 20 02:43 15.05.2022
2134 Clear 15 1020 59 10000 3.6 10 00:22 15.05.2022
2135 Clear 16 1020 48 10000 4.12 20 23:36 14.05.2022
2136 Clear 18 1019 56 10000 2.57 10 21:50 14.05.2022
2137 Clear 20 1019 37 10000 3.6 340 21:25 14.05.2022
2138 Clear 22 1019 40 10000 3.6 330 20:26 14.05.2022
2139 Clear 24 1019 33 10000 3.6 340 19:20 14.05.2022
2140 Clear 24 1019 36 10000 3.09 250 18:57 14.05.2022
2141 Clear 25 1019 34 10000 1.54 0 17:44 14.05.2022
2142 Clear 24 1020 36 10000 3.09 270 15:58 14.05.2022
2143 Clear 23 1021 39 10000 3.09 0 14:38 14.05.2022
2144 Clear 23 1021 40 10000 3.09 240 14:18 14.05.2022
2145 Clouds 21 1020 47 10000 2.06 280 11:46 14.05.2022
2146 Clouds 19 1020 52 10000 1.54 0 10:44 14.05.2022
2147 Clear 18 1020 53 10000 1.54 0 10:18 14.05.2022
2148 Clear 17 1020 62 10000 1.03 0 09:25 14.05.2022
2149 Clear 13 1020 74 10000 1.03 0 07:34 14.05.2022
2150 Clear 10 1021 86 10000 1.03 0 04:43 14.05.2022
2151 Clear 12 1021 79 10000 1.03 0 01:42 14.05.2022
2152 Clear 14 1020 70 10000 1.54 100 23:28 13.05.2022
2153 Clear 15 1020 67 10000 2.06 110 22:55 13.05.2022
2154 Clear 15 1020 65 10000 3.09 350 22:22 13.05.2022
2155 Clear 17 1020 57 10000 1.54 220 21:19 13.05.2022
2156 Clear 19 1020 50 10000 2.06 290 20:40 13.05.2022
2157 Clear 21 1020 40 10000 2.06 310 20:21 13.05.2022
2158 Clear 22 1020 39 10000 3.6 0 19:19 13.05.2022
2159 Clear 22 1020 36 10000 3.6 0 17:47 13.05.2022
2160 Clear 22 1020 35 10000 2.57 280 17:23 13.05.2022
2161 Clear 22 1020 37 10000 3.6 260 15:53 13.05.2022
2162 Clear 21 1020 40 10000 4.63 0 14:47 13.05.2022
2163 Clear 20 1019 41 10000 4.63 280 12:55 13.05.2022
2164 Clear 19 1019 42 10000 6.17 250 12:25 13.05.2022
2165 Clouds 18 1018 49 10000 4.63 260 10:35 13.05.2022
2166 Clear 17 1018 56 10000 5.14 260 09:29 13.05.2022
2167 Clear 15 1018 68 10000 2.57 240 08:20 13.05.2022
2168 Clear 13 1019 79 10000 1.54 200 07:31 13.05.2022
2169 Clear 12 1019 78 10000 2.06 230 05:58 13.05.2022
2170 Clear 15 1019 69 10000 1.54 260 01:49 13.05.2022
2171 Clear 18 1018 57 10000 3.6 250 23:43 12.05.2022
2172 Clear 19 1018 53 10000 3.6 230 22:42 12.05.2022
2173 Clouds 20 1018 54 10000 2.74 278 21:36 12.05.2022
2174 Clear 22 1017 42 10000 5.66 260 20:22 12.05.2022
2175 Clear 23 1017 39 10000 5.66 250 18:31 12.05.2022
2176 Clear 24 1017 37 10000 5.14 250 16:57 12.05.2022
2177 Clear 24 1018 39 10000 4.63 250 15:49 12.05.2022
2178 Clear 23 1016 42 10000 5.66 260 13:59 12.05.2022
2179 Clear 23 1018 44 10000 5.14 260 13:21 12.05.2022
2180 Clouds 20 1019 55 10000 5.66 230 10:40 12.05.2022
2181 Clouds 19 1018 61 10000 2.57 290 09:19 12.05.2022
2182 Clouds 18 1018 66 10000 2.06 320 08:41 12.05.2022
2183 Clouds 17 1017 71 10000 1.03 0 07:37 12.05.2022
2184 Clear 17 1015 67 10000 1.03 330 05:32 12.05.2022
2185 Clear 20 1012 48 10000 6.69 220 02:24 12.05.2022
2186 Clear 21 1012 45 10000 4.63 220 00:32 12.05.2022
2187 Clear 23 1011 39 10000 5.14 230 22:33 11.05.2022
2188 Clear 24 1011 37 10000 6.17 240 21:33 11.05.2022
2189 Clear 26 1010 39 10000 5.66 230 20:55 11.05.2022
2190 Clear 29 1010 35 10000 9.77 220 18:27 11.05.2022
2191 Clear 29 1011 33 10000 8.23 220 16:51 11.05.2022
2192 Clear 29 1011 33 10000 8.23 220 16:51 11.05.2022
2193 Clear 28 1012 33 10000 9.77 230 14:58 11.05.2022
2194 Clear 29 1010 33 10000 9.77 230 14:38 11.05.2022
2195 Clear 28 1012 34 10000 10.29 230 14:18 11.05.2022
2196 Clear 25 1012 51 10000 6.17 210 11:52 11.05.2022
2197 Clear 22 1012 59 10000 4.63 210 10:32 11.05.2022
2198 Clear 18 1013 72 10000 4.12 210 08:37 11.05.2022
2199 Clear 14 1015 84 10000 2.57 200 05:27 11.05.2022
2200 Clear 17 1016 70 10000 1.54 190 00:42 11.05.2022
2201 Clear 19 1016 64 10000 3.09 190 22:30 10.05.2022
2202 Clear 20 1016 56 10000 3.09 190 21:56 10.05.2022
2203 Clear 22 1016 48 10000 3.09 190 20:56 10.05.2022
2204 Rain 24 1016 40 10000 5.14 210 19:27 10.05.2022
2205 Clear 26 1015 40 10000 5.66 210 17:54 10.05.2022
2206 Clear 26 1015 43 10000 4.63 200 17:21 10.05.2022
2207 Clear 26 1018 41 10000 4.12 210 15:28 10.05.2022
2208 Clouds 24 1018 49 10000 3.09 170 12:39 10.05.2022
2209 Clouds 22 1018 53 10000 3.09 210 11:50 10.05.2022
2210 Clouds 22 1019 53 10000 2.06 210 11:20 10.05.2022
2211 Clouds 20 1019 59 10000 1.03 0 10:26 10.05.2022
2212 Clouds 18 1019 66 10000 1.54 70 09:26 10.05.2022
2213 Clear 13 1019 80 10000 2.57 80 07:22 10.05.2022
2214 Clear 12 1021 83 10000 3.09 80 03:57 10.05.2022
2215 Clear 14 1022 79 10000 0.51 0 00:57 10.05.2022
2216 Clear 17 1023 69 10000 0.51 0 22:56 09.05.2022
2217 Clear 18 1022 67 10000 2.06 70 21:51 09.05.2022
2218 Clear 21 1022 56 10000 2.06 360 20:54 09.05.2022
2219 Clear 24 1022 41 10000 2.57 70 19:23 09.05.2022
2220 Clear 25 1022 36 10000 2.06 350 17:52 09.05.2022
2221 Clear 25 1023 36 10000 2.57 0 16:38 09.05.2022
2222 Clear 24 1024 39 10000 2.57 0 15:52 09.05.2022
2223 Clear 24 1024 40 10000 1.54 0 15:27 09.05.2022
2224 Clear 24 1025 42 10000 2.57 0 14:31 09.05.2022
2225 Clear 23 1025 44 10000 2.57 90 13:50 09.05.2022
2226 Clouds 21 1026 53 10000 2.57 0 12:26 09.05.2022
2227 Clouds 21 1024 55 10000 2.57 110 11:37 09.05.2022
2228 Clouds 19 1024 57 10000 3.09 50 10:43 09.05.2022
2229 Clear 15 1024 68 10000 4.12 40 08:51 09.05.2022
2230 Clear 13 1024 73 10000 4.12 40 07:54 09.05.2022
2231 Clear 12 1025 75 10000 5.66 20 03:40 09.05.2022
2232 Clear 14 1025 72 10000 6.17 20 00:20 09.05.2022
2233 Clouds 15 1025 80 10000 2.46 34 22:56 08.05.2022
2234 Clouds 16 1025 76 10000 3.11 39 21:56 08.05.2022
2235 Clouds 19 1023 60 10000 4.12 50 20:37 08.05.2022
2236 Clouds 19 1023 58 10000 4.12 50 19:53 08.05.2022
2237 Rain 20 1023 61 10000 6.17 60 18:57 08.05.2022
2238 Clouds 20 1023 60 10000 7.2 60 18:19 08.05.2022
2239 Clouds 21 1023 58 10000 6.69 30 16:58 08.05.2022
2240 Clouds 23 1023 46 10000 5.66 20 15:41 08.05.2022
2241 Clouds 23 1023 46 10000 5.66 20 15:20 08.05.2022
2242 Clouds 23 1023 46 10000 5.66 20 15:20 08.05.2022
2243 Clouds 21 1024 59 10000 4.12 0 12:39 08.05.2022
2244 Clear 18 1022 67 10000 4.63 40 10:32 08.05.2022
2245 Clear 17 1022 70 10000 5.66 30 09:59 08.05.2022
2246 Clear 16 1022 72 10000 5.66 30 09:33 08.05.2022
2247 Clouds 13 1023 80 10000 6.17 20 07:33 08.05.2022
2248 Clear 13 1022 82 10000 3.6 30 04:20 08.05.2022
2249 Clear 14 1022 77 10000 4.63 20 03:19 08.05.2022
2250 Clear 16 1022 66 10000 3.6 20 00:28 08.05.2022
2251 Clear 16 1022 65 10000 4.12 20 23:53 07.05.2022
2252 Clear 17 1022 64 10000 5.14 20 22:57 07.05.2022
2253 Clear 17 1022 63 10000 5.14 20 22:33 07.05.2022
2254 Clear 18 1021 55 10000 4.12 20 21:43 07.05.2022
2255 Clouds 19 1021 47 10000 4.12 10 20:56 07.05.2022
2256 Clouds 21 1020 43 10000 4.12 10 19:59 07.05.2022
2257 Clear 23 1020 37 10000 2.57 40 17:51 07.05.2022
2258 Clear 23 1021 37 10000 3.09 20 15:58 07.05.2022
2259 Clear 22 1022 37 10000 3.6 20 14:44 07.05.2022
2260 Clouds 20 1021 51 10000 1.03 0 10:59 07.05.2022
2261 Clear 16 1021 59 10000 2.57 80 09:38 07.05.2022
2262 Clear 13 1021 62 10000 2.57 60 07:54 07.05.2022
2263 Clear 10 1021 72 10000 2.57 70 06:44 07.05.2022
2264 Clear 9 1023 78 10000 2.57 60 05:34 07.05.2022
2265 Clear 11 1023 75 10000 1.54 70 03:54 07.05.2022
2266 Clear 13 1023 68 10000 1.54 330 23:39 06.05.2022
2267 Clear 14 1023 65 10000 2.57 360 22:33 06.05.2022
2268 Clear 15 1023 59 10000 3.6 30 21:47 06.05.2022
2269 Clear 18 1023 45 10000 3.6 30 20:39 06.05.2022
2270 Clear 20 1022 41 10000 4.63 360 19:43 06.05.2022
2271 Clear 21 1022 40 10000 4.63 360 19:19 06.05.2022
2272 Clear 21 1022 37 10000 3.6 20 18:25 06.05.2022
2273 Clear 21 1023 36 10000 4.63 10 17:27 06.05.2022
2274 Clear 21 1023 38 10000 4.63 20 15:49 06.05.2022
2275 Clear 21 1024 38 10000 2.57 0 14:58 06.05.2022
2276 Clear 20 1024 39 10000 4.12 30 13:38 06.05.2022
2277 Clear 20 1022 40 10000 3.09 40 12:42 06.05.2022
2278 Clear 19 1022 41 10000 5.14 40 11:58 06.05.2022
2279 Clear 18 1022 49 10000 4.63 40 10:41 06.05.2022
2280 Clear 16 1022 56 10000 4.63 30 09:47 06.05.2022
2281 Clear 15 1022 56 10000 4.63 30 08:59 06.05.2022
2282 Clear 10 1024 76 10000 2.06 60 07:27 06.05.2022
2283 Clear 9 1023 75 10000 1.54 80 06:24 06.05.2022
2284 Clear 11 1023 79 10000 3.09 10 02:54 06.05.2022
2285 Clear 12 1023 74 10000 3.09 30 01:57 06.05.2022
2286 Clear 14 1022 74 10000 2.57 360 22:48 05.05.2022
2287 Clear 15 1022 70 10000 2.57 330 21:46 05.05.2022
2288 Clouds 16 1021 64 10000 3.09 320 20:34 05.05.2022
2289 Clouds 17 1021 56 10000 3.09 20 18:43 05.05.2022
2290 Clear 18 1021 52 10000 2.57 330 16:40 05.05.2022
2291 Clouds 17 1021 52 10000 2.57 20 14:59 05.05.2022
2292 Clouds 17 1019 62 10000 3.6 10 13:29 05.05.2022
2293 Clear 17 1019 65 10000 3.09 10 12:55 05.05.2022
2294 Rain 15 1019 73 10000 0.51 0 11:22 05.05.2022
2295 Clouds 14 1018 77 10000 2.57 10 09:40 05.05.2022
2296 Clouds 13 1020 83 10000 2.06 280 08:34 05.05.2022
2297 Rain 12 1018 81 10000 2.57 30 06:23 05.05.2022
2298 Clear 12 1018 90 10000 2.06 350 02:23 05.05.2022
2299 Clouds 13 1018 84 10000 2.57 10 01:40 05.05.2022
2300 Clear 13 1018 84 10000 2.57 360 00:43 05.05.2022
2301 Clear 14 1017 73 10000 1.54 60 22:57 04.05.2022
2302 Clouds 15 1016 75 10000 3.6 260 21:59 04.05.2022
2303 Clouds 15 1016 76 10000 3.6 260 21:34 04.05.2022
2304 Clouds 16 1016 68 10000 1.03 60 20:52 04.05.2022
2305 Rain 16 1015 68 10000 1.03 0 20:18 04.05.2022
2306 Rain 16 1015 63 10000 3.09 230 19:35 04.05.2022
2307 Clouds 17 1015 63 10000 4.12 220 18:42 04.05.2022
2308 Clouds 19 1015 50 10000 3.6 290 18:18 04.05.2022
2309 Clouds 20 1015 50 10000 2.57 40 17:22 04.05.2022
2310 Clouds 21 1015 48 10000 2.57 0 15:34 04.05.2022
2311 Clouds 21 1015 50 10000 3.09 360 14:41 04.05.2022
2312 Clouds 21 1016 51 10000 2.06 0 14:19 04.05.2022
2313 Clouds 19 1016 55 10000 3.09 60 12:39 04.05.2022
2314 Clouds 17 1017 61 10000 2.06 0 11:40 04.05.2022
2315 Clear 15 1017 66 10000 2.06 40 10:27 04.05.2022
2316 Clear 14 1017 70 10000 0.51 0 09:21 04.05.2022
2317 Clear 12 1016 76 10000 1.54 10 07:51 04.05.2022
2318 Clear 12 1016 72 10000 3.6 50 05:34 04.05.2022
2319 Clear 13 1016 63 10000 3.09 20 02:37 04.05.2022
2320 Clear 14 1016 77 10000 4.12 10 23:20 03.05.2022
2321 Clear 15 1015 70 10000 3.6 20 21:55 03.05.2022
2322 Clear 16 1015 66 10000 4.12 30 21:31 03.05.2022
2323 Clear 17 1015 59 10000 2.57 350 20:52 03.05.2022
2324 Clear 20 1014 47 10000 4.12 10 19:36 03.05.2022
2325 Clouds 21 1014 46 10000 4.12 20 18:47 03.05.2022
2326 Clouds 21 1014 43 10000 5.14 340 17:22 03.05.2022
2327 Clouds 21 1015 44 10000 5.14 360 16:19 03.05.2022
2328 Clouds 20 1015 49 10000 5.14 30 14:25 03.05.2022
2329 Clouds 19 1016 55 10000 4.12 40 12:46 03.05.2022
2330 Clouds 19 1014 56 10000 4.12 40 11:49 03.05.2022
2331 Clear 17 1014 60 10000 4.63 10 10:50 03.05.2022
2332 Clear 13 1015 70 10000 4.63 40 08:33 03.05.2022
2333 Clear 12 1015 77 10000 3.09 40 06:45 03.05.2022
2334 Clear 12 1015 76 10000 3.09 40 06:45 03.05.2022
2335 Clear 13 1015 71 10000 4.63 20 03:26 03.05.2022
2336 Clear 14 1015 67 10000 3.09 360 23:32 02.05.2022
2337 Clear 15 1015 63 10000 2.57 360 22:32 02.05.2022
2338 Clear 16 1015 57 10000 3.09 350 21:48 02.05.2022
2339 Clear 16 1015 57 10000 3.09 350 21:48 02.05.2022
2340 Clear 17 1015 62 10000 3.09 360 20:48 02.05.2022
2341 Clouds 20 1015 44 10000 3.6 20 18:28 02.05.2022
2342 Clear 21 1015 42 10000 3.09 60 17:44 02.05.2022
2343 Clear 21 1015 43 10000 2.57 90 16:47 02.05.2022
2344 Clouds 21 1016 46 10000 2.57 0 15:52 02.05.2022
2345 Clouds 20 1016 47 10000 1.54 0 14:56 02.05.2022
2346 Clouds 19 1017 51 10000 3.09 40 13:47 02.05.2022
2347 Clouds 17 1016 60 10000 2.57 60 11:51 02.05.2022
2348 Clear 15 1016 63 10000 3.6 60 10:20 02.05.2022
2349 Clear 12 1016 69 10000 3.6 20 08:46 02.05.2022
2350 Clear 8 1018 86 10000 3.09 30 07:30 02.05.2022
2351 Clear 11 1019 75 10000 4.63 30 01:28 02.05.2022
2352 Clear 11 1020 72 10000 3.6 30 00:23 02.05.2022
2353 Clear 12 1020 73 10000 4.63 10 23:46 01.05.2022
2354 Clouds 13 1020 73 10000 4.63 20 21:56 01.05.2022
2355 Clouds 14 1019 71 10000 3.09 360 20:50 01.05.2022
2356 Clouds 15 1019 70 10000 3.6 20 19:49 01.05.2022
2357 Clouds 17 1019 61 10000 2.57 10 18:55 01.05.2022
2358 Clouds 17 1019 60 10000 3.09 30 18:18 01.05.2022
2359 Clouds 17 1020 56 10000 3.09 340 16:55 01.05.2022
2360 Clouds 17 1020 57 10000 2.06 350 16:23 01.05.2022
2361 Clouds 17 1021 58 10000 2.06 330 15:22 01.05.2022
2362 Clouds 16 1021 60 10000 2.57 360 13:42 01.05.2022
2363 Clear 12 1022 69 10000 2.57 30 10:50 01.05.2022
2364 Clear 10 1022 76 10000 3.09 30 08:51 01.05.2022
2365 Clear 9 1022 79 10000 3.6 40 07:42 01.05.2022
2366 Clouds 9 1022 79 10000 3.09 20 02:51 01.05.2022
2367 Clouds 10 1023 74 10000 4.63 360 23:23 30.04.2022
2368 Clouds 10 1023 78 10000 3.6 20 21:35 30.04.2022
2369 Clouds 11 1023 78 10000 3.6 20 20:36 30.04.2022
2370 Clouds 11 1022 76 10000 4.12 360 19:41 30.04.2022
2371 Clouds 11 1023 77 10000 5.14 20 17:44 30.04.2022
2372 Clouds 12 1023 78 10000 4.12 10 16:37 30.04.2022
2373 Clouds 11 1023 82 10000 4.12 10 15:24 30.04.2022
2374 Clouds 10 1024 86 10000 3.09 350 14:34 30.04.2022
2375 Clouds 10 1022 85 10000 3.6 20 12:40 30.04.2022
2376 Rain 10 1022 86 10000 3.09 360 11:33 30.04.2022
2377 Rain 10 1022 86 10000 3.6 10 10:43 30.04.2022
2378 Rain 9 1023 91 9000 3.09 10 08:59 30.04.2022
2379 Rain 10 1023 88 10000 4.63 20 05:51 30.04.2022
2380 Clear 13 1023 74 10000 5.14 20 01:51 30.04.2022
2381 Clear 14 1023 66 10000 4.63 360 23:37 29.04.2022
2382 Clear 15 1023 60 10000 4.63 330 22:31 29.04.2022
2383 Clear 16 1023 56 10000 2.06 340 21:34 29.04.2022
2384 Clear 16 1023 58 10000 2.06 20 20:40 29.04.2022
2385 Clear 18 1023 45 10000 2.57 20 19:43 29.04.2022
2386 Clear 20 1023 37 10000 2.57 0 17:55 29.04.2022
2387 Clear 20 1024 36 10000 3.09 0 17:21 29.04.2022
2388 Clear 20 1025 35 10000 2.06 330 15:23 29.04.2022
2389 Clear 20 1025 38 10000 1.54 0 14:22 29.04.2022
2390 Clear 19 1024 47 10000 1.54 0 12:52 29.04.2022
2391 Clouds 17 1025 56 10000 1.54 80 11:40 29.04.2022
2392 Clear 11 1025 75 10000 2.57 70 08:51 29.04.2022
2393 Clear 8 1027 81 10000 2.57 70 07:28 29.04.2022
2394 Clear 7 1027 83 10000 2.57 70 06:39 29.04.2022
2395 Clear 8 1027 79 10000 3.09 20 04:53 29.04.2022
2396 Clear 11 1028 67 10000 3.09 10 00:45 29.04.2022
2397 Clear 12 1027 66 10000 1.54 360 23:28 28.04.2022
2398 Clear 13 1027 59 10000 1.03 0 22:41 28.04.2022
2399 Clear 14 1027 64 10000 2.06 30 21:47 28.04.2022
2400 Clear 15 1027 58 10000 3.09 20 21:19 28.04.2022
2401 Clear 17 1027 43 10000 3.09 20 20:35 28.04.2022
2402 Clear 20 1026 33 10000 2.57 40 19:45 28.04.2022
2403 Clear 20 1026 33 10000 2.57 40 19:45 28.04.2022
2404 Clear 20 1026 35 10000 2.57 10 19:22 28.04.2022
2405 Clear 20 1026 34 10000 4.12 340 18:36 28.04.2022
2406 Clear 20 1027 32 10000 2.57 340 17:24 28.04.2022
2407 Clear 20 1027 34 10000 3.6 10 16:41 28.04.2022
2408 Clear 20 1027 36 10000 3.6 10 16:19 28.04.2022
2409 Clear 20 1027 36 10000 3.6 70 15:29 28.04.2022
2410 Clear 19 1028 36 10000 2.57 0 14:20 28.04.2022
2411 Clear 18 1028 43 10000 2.06 0 12:55 28.04.2022
2412 Clouds 18 1026 51 10000 1.54 70 11:59 28.04.2022
2413 Clouds 16 1026 61 10000 3.09 80 10:46 28.04.2022
2414 Clouds 14 1026 64 10000 2.57 60 10:26 28.04.2022
2415 Clear 10 1026 78 10000 3.09 70 08:44 28.04.2022
2416 Clear 8 1025 81 10000 2.57 70 07:36 28.04.2022
2417 Clear 6 1027 89 10000 2.57 70 06:33 28.04.2022
2418 Clear 6 1026 86 10000 3.09 80 05:39 28.04.2022
2419 Clear 7 1026 82 10000 2.57 80 04:40 28.04.2022
2420 Clear 9 1025 82 10000 1.54 60 00:36 28.04.2022
2421 Clear 11 1025 67 10000 0.51 0 22:45 27.04.2022
2422 Clear 12 1024 69 10000 1.03 0 21:57 27.04.2022
2423 Clear 13 1024 61 10000 2.06 70 21:27 27.04.2022
2424 Clear 15 1024 41 10000 2.06 0 20:43 27.04.2022
2425 Clear 17 1023 47 10000 2.06 60 19:39 27.04.2022
2426 Clear 17 1023 46 10000 1.54 160 19:39 27.04.2022
2427 Clouds 17 1023 50 10000 3.09 45 19:18 27.04.2022
2428 Clear 17 1023 43 10000 3.09 80 18:35 27.04.2022
2429 Clear 18 1023 46 10000 3.6 70 17:26 27.04.2022
2430 Clear 18 1023 44 10000 1.54 0 15:43 27.04.2022
2431 Clouds 16 1022 66 10000 3.6 60 12:31 27.04.2022
2432 Clouds 14 1022 71 10000 4.12 70 11:23 27.04.2022
2433 Clouds 12 1022 79 10000 4.12 50 10:22 27.04.2022
2434 Fog 6 1020 92 7000 1.03 40 07:28 27.04.2022
2435 Clouds 7 1017 90 10000 1.8 7 05:50 27.04.2022
2436 Clear 8 1018 91 10000 2.06 270 02:21 27.04.2022
2437 Clouds 8 1020 93 10000 1.54 240 00:57 27.04.2022
2438 Clouds 8 1020 91 10000 1.54 330 23:58 26.04.2022
2439 Clouds 8 1020 91 10000 2.06 340 23:23 26.04.2022
2440 Clouds 8 1019 89 10000 2.06 320 22:42 26.04.2022
2441 Rain 9 1019 87 10000 3.6 350 21:57 26.04.2022
2442 Rain 9 1018 86 10000 4.12 360 20:56 26.04.2022
2443 Rain 9 1018 86 10000 4.12 360 20:35 26.04.2022
2444 Rain 10 1017 83 10000 5.14 10 19:34 26.04.2022
2445 Clouds 10 1017 84 10000 4.63 10 18:53 26.04.2022
2446 Clouds 10 1017 83 10000 4.63 10 18:19 26.04.2022
2447 Clouds 10 1016 84 10000 3.6 10 17:33 26.04.2022
2448 Clouds 9 1016 90 10000 4.63 20 14:58 26.04.2022
2449 Rain 10 1015 88 8000 4.63 310 13:34 26.04.2022
2450 Rain 10 1015 85 10000 4.12 330 12:34 26.04.2022
2451 Rain 9 1014 97 10000 2.06 300 10:46 26.04.2022
2452 Rain 9 1013 97 9000 1.54 290 09:50 26.04.2022
2453 Rain 8 1013 97 10000 2.57 10 08:29 26.04.2022
2454 Clouds 7 1012 98 10000 1.03 0 04:38 26.04.2022
2455 Clouds 7 1012 98 10000 1.03 0 03:25 26.04.2022
2456 Fog 8 1012 96 10000 0.51 30 00:39 26.04.2022
2457 Clear 8 1012 92 10000 1.54 70 23:43 25.04.2022
2458 Clouds 10 1012 84 10000 2.06 50 21:44 25.04.2022
2459 Rain 10 1012 87 10000 5.66 20 20:49 25.04.2022
2460 Clouds 11 1011 87 10000 5.66 10 19:39 25.04.2022
2461 Thunderstorm 14 1008 64 9000 4.12 110 18:25 25.04.2022
2462 Clouds 15 1010 56 10000 5.14 110 17:39 25.04.2022
2463 Clouds 16 1009 52 10000 3.09 70 16:30 25.04.2022
2464 Clouds 16 1010 51 10000 1.54 110 15:19 25.04.2022
2465 Clouds 15 1010 59 10000 1.03 0 14:22 25.04.2022
2466 Clouds 14 1010 60 10000 2.06 340 12:40 25.04.2022
2467 Clouds 12 1009 71 10000 3.6 70 10:29 25.04.2022
2468 Clouds 11 1009 77 10000 2.57 70 09:36 25.04.2022
2469 Clouds 7 1008 89 10000 0 0 07:34 25.04.2022
2470 Clouds 6 1008 93 10000 0.77 51 05:53 25.04.2022
2471 Clear 8 1006 85 10000 1.54 290 01:27 25.04.2022
2472 Clear 9 1006 75 10000 3.09 340 23:54 24.04.2022
2473 Clear 9 1006 75 10000 2.57 330 23:20 24.04.2022
2474 Clear 10 1005 75 10000 4.12 50 22:37 24.04.2022
2475 Clouds 11 1004 68 10000 5.66 40 21:54 24.04.2022
2476 Clouds 12 1004 67 10000 7.2 30 21:21 24.04.2022
2477 Clouds 12 1004 65 10000 5.66 30 20:41 24.04.2022
2478 Clouds 12 1003 64 10000 5.14 30 19:57 24.04.2022
2479 Clouds 13 1003 64 10000 5.14 30 18:37 24.04.2022
2480 Clouds 13 1002 62 10000 7.2 30 17:41 24.04.2022
2481 Clouds 14 1002 62 10000 6.69 30 17:20 24.04.2022
2482 Clouds 14 1001 54 10000 5.14 20 16:51 24.04.2022
2483 Clouds 14 1001 60 10000 6.17 20 16:23 24.04.2022
2484 Clouds 15 1001 51 10000 5.66 10 15:39 24.04.2022
2485 Clouds 14 1000 55 10000 5.14 360 14:31 24.04.2022
2486 Clouds 15 998 58 10000 5.14 20 13:26 24.04.2022
2487 Clouds 15 1000 58 10000 3.6 40 12:46 24.04.2022
2488 Clouds 14 999 58 10000 5.14 40 11:49 24.04.2022
2489 Clouds 12 999 61 10000 6.17 20 10:37 24.04.2022
2490 Clouds 13 999 60 10000 5.66 20 10:37 24.04.2022
2491 Clouds 12 999 62 10000 6.17 20 09:42 24.04.2022
2492 Rain 11 999 64 10000 5.14 20 07:42 24.04.2022
2493 Clear 11 998 60 10000 6.17 20 05:38 24.04.2022
2494 Clouds 12 999 60 10000 7.2 10 01:58 24.04.2022
2495 Clouds 13 1000 62 10000 5.66 10 00:45 24.04.2022
2496 Clear 13 1000 61 10000 5.66 50 23:46 23.04.2022
2497 Clear 13 1000 62 10000 5.66 50 23:25 23.04.2022
2498 Clear 14 1001 61 10000 3.6 60 21:58 23.04.2022
2499 Clear 14 1001 59 10000 3.6 60 21:36 23.04.2022
2500 Clouds 15 1001 52 10000 4.63 90 20:59 23.04.2022
2501 Clouds 16 1001 55 10000 4.63 80 19:55 23.04.2022
2502 Clouds 16 1002 53 10000 5.66 100 19:20 23.04.2022
2503 Clouds 16 1002 53 10000 4.63 60 18:53 23.04.2022
2504 Clouds 16 1002 53 10000 4.12 90 18:31 23.04.2022
2505 Clouds 16 1002 53 10000 5.14 120 17:44 23.04.2022
2506 Clouds 16 1003 56 10000 4.63 90 16:44 23.04.2022
2507 Clouds 16 1001 55 10000 5.66 100 15:36 23.04.2022
2508 Clouds 16 1002 56 10000 6.17 80 12:59 23.04.2022
2509 Clouds 14 1004 59 10000 6.69 70 11:24 23.04.2022
2510 Clouds 13 1003 66 10000 6.17 60 09:38 23.04.2022
2511 Clouds 10 1004 75 10000 4.63 10 07:52 23.04.2022
2512 Clear 9 1004 73 10000 5.14 20 03:56 23.04.2022
2513 Clear 10 1004 68 10000 5.66 40 01:59 23.04.2022
2514 Clear 13 1004 60 10000 5.66 50 23:34 22.04.2022
2515 Clear 14 1003 59 10000 5.66 40 22:32 22.04.2022
2516 Clear 14 1003 56 10000 6.17 30 21:55 22.04.2022
2517 Clear 14 1003 56 10000 6.17 30 21:37 22.04.2022
2518 Clear 16 1002 52 10000 7.2 40 20:29 22.04.2022
2519 Clear 17 1002 47 10000 8.75 40 19:23 22.04.2022
2520 Clear 18 1002 46 10000 8.75 40 18:53 22.04.2022
2521 Clear 18 1002 42 10000 8.23 40 18:20 22.04.2022
2522 Clear 19 1001 39 10000 7.72 40 16:53 22.04.2022
2523 Clear 20 1002 40 10000 6.17 60 15:57 22.04.2022
2524 Clear 19 1002 41 10000 6.17 60 15:23 22.04.2022
2525 Clear 18 1002 43 10000 6.69 30 14:21 22.04.2022
2526 Clear 18 1002 45 10000 6.17 50 13:41 22.04.2022
2527 Clouds 17 1001 49 10000 7.2 40 12:35 22.04.2022
2528 Clouds 15 1002 57 10000 6.69 50 11:23 22.04.2022
2529 Clouds 14 1003 60 10000 7.72 40 10:56 22.04.2022
2530 Clouds 13 1003 60 10000 7.72 40 10:32 22.04.2022
2531 Clouds 12 1003 65 10000 6.17 40 09:54 22.04.2022
2532 Clouds 11 1003 73 10000 5.14 30 08:56 22.04.2022
2533 Clouds 10 1003 75 10000 5.14 30 08:36 22.04.2022
2534 Clear 7 1005 84 10000 5.14 20 06:21 22.04.2022
2535 Clear 9 1008 76 10000 5.66 30 00:53 22.04.2022
2536 Clear 10 1008 72 10000 4.12 20 23:29 21.04.2022
2537 Clouds 12 1008 67 10000 6.17 40 22:35 21.04.2022
2538 Clouds 13 1008 63 10000 7.2 30 21:25 21.04.2022
2539 Clouds 14 1008 60 10000 6.69 50 20:29 21.04.2022
2540 Clouds 15 1008 54 10000 7.2 60 18:49 21.04.2022
2541 Clouds 15 1008 54 10000 7.2 60 18:49 21.04.2022
2542 Clouds 15 1008 51 10000 7.2 40 18:26 21.04.2022
2543 Clouds 16 1008 48 10000 5.66 70 17:19 21.04.2022
2544 Clouds 17 1009 48 10000 5.14 50 15:24 21.04.2022
2545 Clouds 16 1010 49 10000 5.66 30 14:52 21.04.2022
2546 Clouds 15 1010 50 10000 2.57 10 13:59 21.04.2022
2547 Clouds 15 1011 50 10000 3.09 40 13:21 21.04.2022
2548 Clouds 15 1011 48 10000 3.09 40 13:21 21.04.2022
2549 Clouds 14 1011 55 10000 2.57 50 12:22 21.04.2022
2550 Clear 10 1012 65 10000 5.14 30 09:33 21.04.2022
2551 Clear 9 1012 71 10000 5.14 30 08:38 21.04.2022
2552 Clear 6 1012 77 10000 2.57 80 06:44 21.04.2022
2553 Clear 8 1012 70 10000 5.66 20 03:41 21.04.2022
2554 Clear 8 1012 70 10000 6.69 20 03:22 21.04.2022
2555 Clear 8 1013 70 10000 6.17 20 02:44 21.04.2022
2556 Clear 8 1013 70 10000 6.17 20 02:44 21.04.2022
2557 Clear 10 1013 61 10000 4.63 30 00:34 21.04.2022
2558 Clear 11 1013 57 10000 6.17 40 23:37 20.04.2022
2559 Clear 11 1013 57 10000 6.17 40 23:18 20.04.2022
2560 Clear 12 1013 53 10000 6.17 50 22:34 20.04.2022
2561 Clear 13 1013 52 10000 7.2 50 21:43 20.04.2022
2562 Clear 14 1012 49 10000 7.72 60 20:44 20.04.2022
2563 Clear 14 1012 49 10000 7.72 60 20:44 20.04.2022
2564 Clear 15 1012 42 10000 5.66 20 20:21 20.04.2022
2565 Clear 17 1012 36 10000 5.14 40 19:44 20.04.2022
2566 Clear 17 1012 38 10000 5.66 30 18:48 20.04.2022
2567 Clear 17 1012 34 10000 5.14 20 17:50 20.04.2022
2568 Clear 17 1013 32 10000 3.09 60 16:39 20.04.2022
2569 Clear 17 1013 31 10000 5.14 30 15:26 20.04.2022
2570 Clear 13 1015 38 10000 5.14 50 12:22 20.04.2022
2571 Clear 13 1014 39 10000 6.69 70 11:42 20.04.2022
2572 Clear 12 1014 45 10000 6.17 70 10:44 20.04.2022
2573 Clear 10 1014 54 10000 4.63 50 09:31 20.04.2022
2574 Clear 9 1014 58 10000 5.14 60 08:40 20.04.2022
2575 Clear 8 1016 60 10000 4.12 50 08:18 20.04.2022
2576 Clear 5 1016 68 10000 3.09 40 06:23 20.04.2022
2577 Clear 8 1015 53 10000 2.06 60 02:34 20.04.2022
2578 Clear 10 1015 49 10000 5.14 50 00:22 20.04.2022
2579 Clear 12 1014 42 10000 7.2 60 23:19 19.04.2022
2580 Clear 13 1014 40 10000 7.2 60 22:24 19.04.2022
2581 Clear 14 1013 35 10000 6.69 60 21:55 19.04.2022
2582 Clear 15 1012 34 10000 7.2 40 20:59 19.04.2022
2583 Clear 15 1012 34 10000 7.2 40 20:37 19.04.2022
2584 Clear 17 1011 36 10000 6.69 40 19:41 19.04.2022
2585 Clear 18 1011 38 10000 5.14 10 18:37 19.04.2022
2586 Clear 19 1011 35 10000 4.63 10 17:24 19.04.2022
2587 Clear 19 1011 33 10000 5.14 20 16:42 19.04.2022
2588 Clear 19 1011 34 10000 5.14 20 16:42 19.04.2022
2589 Clear 18 1011 34 10000 5.66 360 16:20 19.04.2022
2590 Clear 18 1012 35 10000 5.14 10 14:46 19.04.2022
2591 Clear 17 1013 35 10000 3.09 0 13:22 19.04.2022
2592 Clear 16 1013 37 10000 3.6 50 12:49 19.04.2022
2593 Clear 16 1011 40 10000 2.57 60 11:38 19.04.2022
2594 Clear 12 1012 52 10000 3.09 70 09:52 19.04.2022
2595 Clear 9 1012 62 10000 2.06 90 08:43 19.04.2022
2596 Clear 7 1014 65 10000 2.06 70 04:26 19.04.2022
2597 Clear 7 1014 66 10000 2.06 30 03:19 19.04.2022
2598 Clear 9 1015 59 10000 2.06 350 00:24 19.04.2022
2599 Clear 10 1015 50 10000 0.51 0 22:58 18.04.2022
2600 Clear 12 1015 50 10000 2.57 20 21:29 18.04.2022
2601 Clear 14 1015 40 10000 3.09 20 20:53 18.04.2022
2602 Clear 16 1015 33 10000 3.09 360 20:27 18.04.2022
2603 Clear 17 1015 34 10000 4.12 350 19:42 18.04.2022
2604 Clear 18 1015 30 10000 4.63 360 18:53 18.04.2022
2605 Clear 18 1016 30 10000 4.12 350 17:54 18.04.2022
2606 Clear 18 1016 30 10000 3.09 0 17:33 18.04.2022
2607 Clear 18 1016 30 10000 3.09 90 16:44 18.04.2022
2608 Clear 18 1016 32 10000 1.54 0 16:21 18.04.2022
2609 Clear 17 1018 34 10000 3.09 110 14:43 18.04.2022
2610 Clear 16 1019 35 10000 3.6 70 13:35 18.04.2022
2611 Clear 16 1018 34 10000 3.09 60 13:35 18.04.2022
2612 Clear 15 1020 37 10000 2.57 120 12:29 18.04.2022
2613 Clear 14 1018 40 10000 3.09 80 11:34 18.04.2022
2614 Clear 12 1020 47 10000 3.6 70 10:31 18.04.2022
2615 Clear 11 1020 52 10000 3.09 50 09:30 18.04.2022
2616 Clear 6 1020 68 10000 3.6 20 07:42 18.04.2022
2617 Clear 6 1020 68 10000 4.12 360 05:37 18.04.2022
2618 Clear 8 1022 47 10000 2.06 40 00:27 18.04.2022
2619 Clear 10 1022 32 10000 2.06 120 22:41 17.04.2022
2620 Clear 12 1022 35 10000 2.57 120 21:42 17.04.2022
2621 Clear 12 1022 34 10000 3.09 120 21:22 17.04.2022
2622 Clear 14 1022 26 10000 3.6 120 20:35 17.04.2022
2623 Clear 14 1022 30 10000 3.6 120 20:35 17.04.2022
2624 Clear 16 1022 24 10000 4.12 80 19:28 17.04.2022
2625 Clear 17 1023 25 10000 2.57 0 17:45 17.04.2022
2626 Clear 16 1026 29 10000 4.63 90 15:39 17.04.2022
2627 Clear 16 1026 30 10000 4.63 70 14:55 17.04.2022
2628 Clear 15 1027 34 10000 4.63 80 14:19 17.04.2022
2629 Clear 14 1028 42 10000 5.66 80 12:58 17.04.2022
2630 Clear 13 1028 43 10000 2.57 90 12:27 17.04.2022
2631 Clear 13 1028 42 10000 2.57 90 12:27 17.04.2022
2632 Clear 12 1027 47 10000 2.57 70 10:46 17.04.2022
2633 Clear 11 1029 50 10000 2.57 70 10:28 17.04.2022
2634 Clear 10 1028 55 10000 2.06 0 09:34 17.04.2022
2635 Clear 7 1030 60 10000 2.06 30 08:53 17.04.2022
2636 Clear 4 1030 72 10000 3.6 10 07:37 17.04.2022
2637 Clear 4 1031 68 10000 2.57 60 04:30 17.04.2022
2638 Clear 6 1032 59 10000 3.6 70 01:27 17.04.2022
2639 Clear 8 1031 48 10000 3.6 70 23:54 16.04.2022
2640 Clear 10 1031 40 10000 5.14 50 22:39 16.04.2022
2641 Clear 11 1031 34 10000 5.14 60 21:39 16.04.2022
2642 Clear 13 1030 30 10000 5.66 30 20:32 16.04.2022
2643 Clear 15 1029 31 10000 6.17 20 19:18 16.04.2022
2644 Clear 15 1029 26 10000 7.72 20 18:28 16.04.2022
2645 Clear 16 1030 28 10000 6.17 20 16:40 16.04.2022
2646 Clear 16 1030 33 10000 5.66 50 15:46 16.04.2022
2647 Clear 15 1030 40 10000 5.66 40 14:57 16.04.2022
2648 Clouds 14 1031 45 10000 6.69 30 13:58 16.04.2022
2649 Clouds 14 1031 47 10000 6.69 30 13:37 16.04.2022
2650 Clouds 13 1031 54 10000 6.17 40 12:33 16.04.2022
2651 Clouds 11 1031 60 10000 7.72 40 11:19 16.04.2022
2652 Clouds 10 1030 68 10000 7.72 50 09:57 16.04.2022
2653 Clouds 10 1030 69 10000 6.69 60 09:18 16.04.2022
2654 Clouds 10 1029 74 10000 5.66 40 08:31 16.04.2022
2655 Clouds 9 1029 75 10000 3.6 20 06:59 16.04.2022
2656 Clouds 9 1028 75 10000 5.14 20 03:48 16.04.2022
2657 Clear 9 1028 72 10000 4.63 20 00:38 16.04.2022
2658 Clear 9 1028 72 10000 4.63 20 23:34 15.04.2022
2659 Clear 10 1027 68 10000 4.63 20 22:38 15.04.2022
2660 Clear 11 1027 67 10000 6.69 20 21:59 15.04.2022
2661 Clear 12 1026 63 10000 7.2 20 21:18 15.04.2022
2662 Clear 12 1026 63 10000 7.2 20 21:18 15.04.2022
2663 Clear 13 1026 62 10000 8.23 20 20:31 15.04.2022
2664 Clear 14 1025 57 10000 9.77 20 19:41 15.04.2022
2665 Clear 16 1025 59 10000 9.77 40 18:55 15.04.2022
2666 Clear 17 1025 57 10000 8.75 30 18:26 15.04.2022
2667 Clear 18 1024 55 10000 8.23 40 17:56 15.04.2022
2668 Clear 19 1024 48 10000 5.14 290 17:23 15.04.2022
2669 Clear 19 1024 45 10000 3.6 310 16:24 15.04.2022
2670 Clear 19 1024 45 10000 4.63 320 15:40 15.04.2022
2671 Clouds 18 1025 50 10000 4.63 300 13:55 15.04.2022
2672 Clouds 18 1023 49 10000 4.63 310 12:48 15.04.2022
2673 Clouds 17 1023 51 10000 2.06 50 12:21 15.04.2022
2674 Clouds 17 1023 55 10000 2.57 0 11:42 15.04.2022
2675 Clouds 16 1023 65 10000 1.03 0 10:46 15.04.2022
2676 Clouds 14 1023 73 10000 1.03 0 09:59 15.04.2022
2677 Clouds 13 1022 77 10000 1.03 0 09:22 15.04.2022
2678 Clouds 11 1022 83 10000 1.03 0 08:37 15.04.2022
2679 Clouds 8 1024 94 10000 1.26 349 06:48 15.04.2022
2680 Clear 9 1023 93 10000 1.03 140 04:42 15.04.2022
2681 Clear 12 1022 87 10000 2.06 230 00:34 15.04.2022
2682 Clear 12 1022 85 10000 1.03 200 23:22 14.04.2022
2683 Clear 13 1022 84 10000 1.54 240 22:45 14.04.2022
2684 Clear 14 1020 77 10000 1.54 240 22:26 14.04.2022
2685 Clear 14 1022 81 10000 1.54 290 21:47 14.04.2022
2686 Clouds 18 1020 62 10000 2.06 80 19:24 14.04.2022
2687 Clouds 18 1021 63 10000 2.57 70 18:53 14.04.2022
2688 Clouds 18 1020 63 10000 3.09 0 17:45 14.04.2022
2689 Clouds 19 1018 60 10000 2.57 10 16:51 14.04.2022
2690 Clouds 18 1020 63 10000 2.57 350 15:52 14.04.2022
2691 Clouds 18 1018 65 10000 4.63 50 13:53 14.04.2022
2692 Clouds 17 1021 71 10000 6.17 40 13:21 14.04.2022
2693 Clouds 17 1020 68 10000 5.14 20 12:32 14.04.2022
2694 Rain 16 1020 71 10000 5.14 20 11:43 14.04.2022
2695 Clouds 16 1020 72 10000 4.63 10 11:18 14.04.2022
2696 Rain 15 1020 75 10000 4.12 10 10:31 14.04.2022
2697 Rain 15 1019 76 10000 4.63 10 09:30 14.04.2022
2698 Clear 14 1019 77 10000 4.12 20 08:24 14.04.2022
2699 Clear 13 1018 86 10000 1.54 340 05:58 14.04.2022
2700 Clear 15 1017 71 10000 2.57 320 01:23 14.04.2022
2701 Clear 18 1016 59 10000 4.12 310 22:38 13.04.2022
2702 Clear 18 1016 59 10000 4.12 310 22:38 13.04.2022
2703 Clear 17 1016 58 10000 3.6 310 21:43 13.04.2022
2704 Clear 19 1015 54 10000 2.57 350 20:45 13.04.2022
2705 Clear 21 1015 42 10000 3.09 20 19:54 13.04.2022
2706 Clear 21 1015 41 10000 3.09 20 19:54 13.04.2022
2707 Clear 23 1015 37 10000 4.12 50 18:43 13.04.2022
2708 Clear 24 1015 35 10000 3.09 20 17:52 13.04.2022
2709 Clear 24 1015 33 10000 1.03 0 17:23 13.04.2022
2710 Clouds 24 1015 32 10000 1.03 0 16:18 13.04.2022
2711 Clear 23 1015 41 10000 3.09 300 15:31 13.04.2022
2712 Rain 23 1013 40 10000 2.57 300 14:43 13.04.2022
2713 Rain 22 1013 42 10000 1.54 10 13:55 13.04.2022
2714 Clear 21 1014 44 10000 1.03 0 12:58 13.04.2022
2715 Clear 20 1014 46 10000 1.54 300 12:19 13.04.2022
2716 Clouds 17 1013 49 10000 2.57 60 10:41 13.04.2022
2717 Clear 14 1013 60 10000 0.51 0 08:49 13.04.2022
2718 Clear 12 1012 64 10000 0 0 08:28 13.04.2022
2719 Clear 11 1012 75 10000 1.03 0 06:50 13.04.2022
2720 Clear 11 1012 75 10000 0.51 0 06:25 13.04.2022
2721 Clear 13 1013 66 10000 2.57 10 02:37 13.04.2022
2722 Clear 14 1012 61 10000 3.6 40 00:20 13.04.2022
2723 Clear 15 1012 58 10000 2.57 40 22:45 12.04.2022
2724 Clear 17 1012 45 10000 3.09 100 21:56 12.04.2022
2725 Clear 19 1011 40 10000 4.12 100 20:49 12.04.2022
2726 Clear 19 1011 40 10000 4.12 100 20:49 12.04.2022
2727 Clear 19 1011 40 10000 4.12 100 20:27 12.04.2022
2728 Clear 21 1011 37 10000 5.14 100 19:41 12.04.2022
2729 Clear 21 1011 37 10000 5.14 100 19:19 12.04.2022
2730 Clear 22 1011 37 10000 6.17 100 17:50 12.04.2022
2731 Clear 23 1011 33 10000 3.6 110 16:50 12.04.2022
2732 Clear 22 1011 35 10000 4.63 70 15:52 12.04.2022
2733 Clear 22 1011 32 10000 4.12 80 15:25 12.04.2022
2734 Clear 20 1012 35 10000 3.09 90 13:54 12.04.2022
2735 Clear 19 1012 38 10000 3.09 90 13:27 12.04.2022
2736 Clear 17 1013 42 10000 3.6 90 12:31 12.04.2022
2737 Clear 16 1012 47 10000 3.6 90 11:40 12.04.2022
2738 Clear 13 1012 54 10000 4.12 50 10:30 12.04.2022
2739 Clear 10 1012 64 10000 3.09 40 08:54 12.04.2022
2740 Clear 10 1012 64 10000 3.09 40 08:54 12.04.2022
2741 Clear 6 1014 71 10000 3.09 10 07:50 12.04.2022
2742 Clear 6 1013 71 10000 3.09 30 05:49 12.04.2022
2743 Clear 7 1014 67 10000 3.09 30 03:28 12.04.2022
2744 Clear 8 1015 64 10000 4.12 60 23:49 11.04.2022
2745 Clear 9 1015 59 10000 3.6 70 22:44 11.04.2022
2746 Clear 11 1015 56 10000 3.09 70 21:37 11.04.2022
2747 Clear 12 1014 47 10000 3.6 80 20:55 11.04.2022
2748 Clear 13 1014 44 10000 5.14 80 20:28 11.04.2022
2749 Clear 15 1014 38 10000 4.63 80 19:37 11.04.2022
2750 Clear 15 1014 37 10000 4.63 80 19:18 11.04.2022
2751 Clear 16 1014 38 10000 3.6 110 18:40 11.04.2022
2752 Clear 16 1015 37 10000 5.14 80 17:56 11.04.2022
2753 Clear 16 1015 37 10000 4.12 100 16:54 11.04.2022
2754 Clear 15 1016 36 10000 3.6 0 15:45 11.04.2022
2755 Clear 14 1018 38 10000 4.12 90 13:53 11.04.2022
2756 Clear 13 1018 41 10000 4.63 90 12:47 11.04.2022
2757 Clear 12 1019 44 10000 3.6 90 12:29 11.04.2022
2758 Clear 11 1017 51 10000 2.57 80 11:30 11.04.2022
2759 Clear 8 1018 65 10000 3.09 70 10:21 11.04.2022
2760 Clear 5 1018 78 10000 3.6 50 08:50 11.04.2022
2761 Clear 2 1020 92 10000 1.54 20 06:21 11.04.2022
2762 Clear 2 1021 90 10000 1.03 250 01:23 11.04.2022
2763 Clear 5 1021 78 10000 1.03 0 22:34 10.04.2022
2764 Clear 6 1021 72 10000 1.54 190 21:55 10.04.2022
2765 Clouds 6 1021 67 10000 1.54 190 21:28 10.04.2022
2766 Clouds 8 1020 61 10000 2.57 170 20:30 10.04.2022
2767 Clouds 9 1020 59 10000 1.54 180 19:41 10.04.2022
2768 Clouds 10 1020 55 10000 2.06 220 19:18 10.04.2022
2769 Clouds 10 1020 51 10000 3.09 230 18:41 10.04.2022
2770 Clouds 11 1020 52 10000 3.09 250 17:52 10.04.2022
2771 Clouds 11 1020 51 10000 4.12 240 17:32 10.04.2022
2772 Clouds 10 1021 57 10000 4.12 230 15:56 10.04.2022
2773 Clouds 10 1021 59 10000 3.09 190 14:51 10.04.2022
2774 Clouds 10 1019 55 10000 5.66 200 13:54 10.04.2022
2775 Clouds 8 1019 60 10000 3.6 210 12:33 10.04.2022
2776 Clouds 7 1019 67 10000 3.6 260 11:46 10.04.2022
2777 Clouds 6 1019 70 10000 2.57 190 11:28 10.04.2022
2778 Clouds 6 1019 73 10000 3.6 200 10:43 10.04.2022
2779 Clouds 4 1019 78 10000 3.09 190 09:50 10.04.2022
2780 Clouds 3 1019 82 10000 2.57 190 08:56 10.04.2022
2781 Clouds 3 1016 83 10000 2.09 261 08:21 10.04.2022
2782 Clouds 1 1021 90 10000 2.24 264 07:18 10.04.2022
2783 Clouds 1 1020 85 10000 2.7 272 05:19 10.04.2022
2784 Clear 3 1018 83 10000 1.54 230 02:20 10.04.2022
2785 Clear 4 1016 83 10000 2.06 140 23:54 09.04.2022
2786 Clear 4 1016 82 10000 2.06 140 23:35 09.04.2022
2787 Clear 4 1016 78 10000 1.54 170 22:43 09.04.2022
2788 Clear 5 1015 72 10000 3.09 200 21:32 09.04.2022
2789 Clouds 6 1015 66 10000 4.63 250 20:48 09.04.2022
2790 Clouds 6 1014 61 10000 5.66 250 20:23 09.04.2022
2791 Clouds 8 1013 51 10000 8.23 280 19:41 09.04.2022
2792 Clouds 9 1013 53 10000 4.63 280 18:54 09.04.2022
2793 Clouds 10 1013 49 10000 4.63 320 18:18 09.04.2022
2794 Clouds 10 1012 46 10000 7.2 270 17:34 09.04.2022
2795 Clouds 10 1012 51 10000 6.69 270 16:47 09.04.2022
2796 Clouds 10 1012 52 10000 6.17 260 15:55 09.04.2022
2797 Clouds 10 1012 54 10000 7.72 260 15:28 09.04.2022
2798 Clouds 8 1010 66 10000 6.69 270 14:27 09.04.2022
2799 Clouds 8 1010 67 10000 6.69 270 14:27 09.04.2022
2800 Clouds 8 1011 62 10000 7.72 300 13:47 09.04.2022
2801 Clouds 9 1010 55 10000 5.14 240 12:59 09.04.2022
2802 Clouds 9 1010 59 10000 6.17 260 12:34 09.04.2022
2803 Clouds 7 1009 70 10000 4.12 240 11:21 09.04.2022
2804 Clouds 6 1009 74 10000 5.66 230 10:20 09.04.2022
2805 Clouds 5 1008 78 10000 4.63 210 09:37 09.04.2022
2806 Clouds 4 1010 82 10000 4.12 200 08:51 09.04.2022
2807 Clouds 3 1007 85 10000 4.12 210 06:48 09.04.2022
2808 Clouds 3 999 96 10000 2.06 210 01:31 09.04.2022
2809 Rain 3 997 91 10000 3.09 10 23:30 08.04.2022
2810 Rain 3 997 93 10000 3.6 20 21:58 08.04.2022
2811 Rain 3 997 91 10000 4.12 30 20:48 08.04.2022
2812 Rain 3 997 93 10000 4.12 30 20:23 08.04.2022
2813 Rain 4 997 92 10000 4.12 20 19:20 08.04.2022
2814 Rain 4 997 92 10000 5.14 20 18:29 08.04.2022
2815 Rain 4 997 88 10000 4.12 20 17:46 08.04.2022
2816 Rain 4 996 88 10000 4.63 10 17:22 08.04.2022
2817 Rain 5 997 89 10000 1.03 0 16:47 08.04.2022
2818 Rain 5 997 90 10000 1.54 280 15:57 08.04.2022
2819 Rain 6 998 90 10000 1.54 240 15:26 08.04.2022
2820 Rain 6 998 88 10000 3.09 220 14:27 08.04.2022
2821 Rain 7 997 84 10000 3.09 230 13:46 08.04.2022
2822 Rain 7 997 84 10000 2.06 240 13:27 08.04.2022
2823 Rain 8 998 77 10000 5.14 220 11:56 08.04.2022
2824 Rain 8 999 71 10000 5.14 200 10:37 08.04.2022
2825 Clouds 8 999 72 10000 4.63 200 09:38 08.04.2022
2826 Clouds 7 999 75 10000 2.06 190 08:51 08.04.2022
2827 Clouds 6 999 77 10000 6.17 260 06:55 08.04.2022
2828 Clouds 7 999 75 10000 6.69 300 05:23 08.04.2022
2829 Clear 10 996 50 10000 9.77 240 01:29 08.04.2022
2830 Clear 10 995 45 10000 9.77 240 00:25 08.04.2022
2831 Clear 10 995 39 10000 10.8 240 22:59 07.04.2022
2832 Clear 10 995 39 10000 10.8 240 22:59 07.04.2022
2833 Clear 10 995 38 10000 10.8 240 22:40 07.04.2022
2834 Clear 10 994 39 10000 9.26 250 22:22 07.04.2022
2835 Clear 11 994 36 10000 11.83 250 21:56 07.04.2022
2836 Clear 11 993 38 10000 11.83 250 21:19 07.04.2022
2837 Clear 11 992 39 10000 9.26 250 20:41 07.04.2022
2838 Clear 13 990 37 10000 13.38 260 18:54 07.04.2022
2839 Clouds 14 989 59 10000 9.26 270 17:27 07.04.2022
2840 Clouds 13 988 78 10000 10.29 240 16:45 07.04.2022
2841 Clouds 12 986 82 10000 11.32 230 16:23 07.04.2022
2842 Clouds 12 986 90 4500 11.83 240 15:37 07.04.2022
2843 Clouds 13 986 77 10000 12.35 210 13:51 07.04.2022
2844 Clouds 13 986 77 10000 11.32 200 13:23 07.04.2022
2845 Clouds 11 988 81 10000 9.26 180 11:49 07.04.2022
2846 Rain 10 990 84 10000 8.75 190 10:30 07.04.2022
2847 Clouds 10 992 82 10000 9.26 190 08:40 07.04.2022
2848 Clouds 10 993 83 10000 8.23 200 06:58 07.04.2022
2849 Clouds 10 995 79 10000 7.72 210 04:26 07.04.2022
2850 Clear 10 999 77 10000 7.72 210 02:32 07.04.2022
2851 Clouds 11 998 78 10000 6.17 210 00:42 07.04.2022
2852 Clouds 11 1001 76 10000 5.66 220 23:21 06.04.2022
2853 Clouds 11 999 71 10000 4.12 210 22:44 06.04.2022
2854 Clouds 12 999 64 10000 5.66 210 21:47 06.04.2022
2855 Clouds 12 999 61 10000 6.69 220 20:43 06.04.2022
2856 Rain 12 1002 61 10000 6.17 210 19:59 06.04.2022
2857 Rain 12 1000 61 10000 7.2 230 19:19 06.04.2022
2858 Rain 12 1003 59 10000 7.72 220 18:47 06.04.2022
2859 Clouds 13 1003 53 10000 9.26 220 17:36 06.04.2022
2860 Clouds 14 1001 52 10000 8.75 220 16:39 06.04.2022
2861 Clouds 14 1003 51 10000 8.75 220 16:19 06.04.2022
2862 Clouds 14 1004 50 10000 9.77 240 15:40 06.04.2022
2863 Clouds 13 1005 58 10000 9.26 240 13:34 06.04.2022
2864 Clouds 13 1002 59 10000 7.72 250 13:34 06.04.2022
2865 Clouds 12 1003 57 10000 8.23 240 12:29 06.04.2022
2866 Clouds 12 1006 61 10000 6.17 230 10:57 06.04.2022
2867 Clouds 11 1006 61 10000 5.66 230 10:33 06.04.2022
2868 Clouds 11 1006 63 10000 6.17 240 09:46 06.04.2022
2869 Clouds 10 1006 69 10000 5.66 240 08:59 06.04.2022
2870 Clouds 10 1006 71 10000 3.6 240 07:58 06.04.2022
2871 Clouds 10 1004 85 10000 4.63 220 05:45 06.04.2022
2872 Clouds 10 1008 84 10000 4.63 220 00:45 06.04.2022
2873 Clouds 10 1006 84 10000 6.17 200 23:48 05.04.2022
2874 Clouds 10 1008 83 10000 6.17 200 21:51 05.04.2022
2875 Clouds 10 1008 84 10000 6.17 200 21:18 05.04.2022
2876 Clouds 10 1005 84 10000 7.2 220 20:24 05.04.2022
2877 Clouds 10 1008 83 10000 8.75 220 18:32 05.04.2022
2878 Clouds 10 1008 78 10000 8.75 220 17:22 05.04.2022
2879 Clouds 10 1008 77 10000 8.75 220 16:43 05.04.2022
2880 Clouds 10 1008 71 10000 8.75 220 15:52 05.04.2022
2881 Clouds 10 1008 77 10000 7.72 210 15:31 05.04.2022
2882 Clouds 10 1008 76 10000 8.75 220 13:55 05.04.2022
2883 Clouds 9 1006 79 10000 7.2 220 12:39 05.04.2022
2884 Drizzle 8 1006 81 10000 7.72 220 11:43 05.04.2022
2885 Drizzle 8 1006 83 10000 7.72 220 11:25 05.04.2022
2886 Drizzle 8 1006 83 10000 7.72 220 11:25 05.04.2022
2887 Clouds 7 1006 86 10000 6.69 210 09:40 05.04.2022
2888 Clouds 7 1006 80 10000 7.2 210 08:51 05.04.2022
2889 Clouds 6 1005 83 10000 8.75 210 04:25 05.04.2022
2890 Clouds 7 1007 72 10000 12.35 230 23:48 04.04.2022
2891 Clouds 7 1007 72 10000 12.86 230 22:41 04.04.2022
2892 Clouds 7 1010 65 10000 10.8 230 21:52 04.04.2022
2893 Clouds 7 1010 63 10000 9.77 230 21:21 04.04.2022
2894 Clouds 6 1010 63 10000 11.83 240 20:48 04.04.2022
2895 Clouds 7 1010 60 10000 12.35 240 19:39 04.04.2022
2896 Clouds 7 1010 57 10000 10.8 230 18:59 04.04.2022
2897 Clouds 8 1011 54 10000 9.26 250 17:39 04.04.2022
2898 Rain 9 1009 47 10000 9.77 230 16:36 04.04.2022
2899 Clouds 9 1009 40 10000 11.83 220 15:34 04.04.2022
2900 Clear 9 1009 40 10000 11.32 210 14:58 04.04.2022
2901 Clear 9 1010 40 10000 11.32 220 14:40 04.04.2022
2902 Clear 9 1011 42 10000 10.8 220 13:21 04.04.2022
2903 Clouds 7 1013 50 10000 9.77 220 11:49 04.04.2022
2904 Clouds 6 1013 57 10000 5.14 200 11:28 04.04.2022
2905 Clouds 0 1016 79 10000 4.12 190 08:29 04.04.2022
2906 Clouds -1 1020 80 10000 1.92 215 03:52 04.04.2022
2907 Clear 0 1021 75 10000 1.54 230 00:26 04.04.2022
2908 Clouds 2 1021 64 10000 2.57 290 22:36 03.04.2022
2909 Clear 3 1021 63 10000 2.57 270 21:44 03.04.2022
2910 Clear 4 1021 49 10000 2.57 300 20:53 03.04.2022
2911 Clear 6 1020 42 10000 3.6 320 19:49 03.04.2022
2912 Clear 7 1020 37 10000 2.06 300 18:32 03.04.2022
2913 Clear 7 1020 36 10000 4.12 300 17:47 03.04.2022
2914 Clear 7 1020 34 10000 2.57 0 16:57 03.04.2022
2915 Clear 8 1020 35 10000 2.57 0 16:39 03.04.2022
2916 Clear 6 1021 37 10000 3.09 360 14:48 03.04.2022
2917 Clear 6 1022 39 10000 4.12 40 13:53 03.04.2022
2918 Clear 5 1022 39 10000 5.14 50 12:42 03.04.2022
2919 Clouds 4 1022 49 10000 5.66 50 10:58 03.04.2022
2920 Clouds 1 1021 57 10000 5.14 10 09:38 03.04.2022
2921 Clear 0 1021 64 10000 2.57 10 08:36 03.04.2022
2922 Clear -2 1020 82 10000 2.57 10 05:38 03.04.2022
2923 Clouds 1 1019 75 10000 2.57 360 01:54 03.04.2022
2924 Clouds 2 1018 72 10000 4.63 360 23:21 02.04.2022
2925 Clouds 3 1018 69 10000 5.66 350 22:18 02.04.2022
2926 Clouds 3 1018 68 10000 5.14 350 21:47 02.04.2022
2927 Clouds 3 1017 68 10000 5.14 360 21:19 02.04.2022
2928 Clouds 3 1016 66 10000 6.17 360 20:29 02.04.2022
2929 Clouds 4 1015 62 10000 7.2 350 18:23 02.04.2022
2930 Clouds 4 1015 61 10000 6.69 10 17:53 02.04.2022
2931 Clouds 4 1014 61 10000 7.2 20 16:30 02.04.2022
2932 Clouds 4 1014 63 10000 6.17 30 15:23 02.04.2022
2933 Clouds 3 1014 65 10000 6.69 30 14:51 02.04.2022
2934 Clouds 3 1013 67 10000 7.2 20 13:56 02.04.2022
2935 Clouds 3 1013 68 10000 7.2 10 13:19 02.04.2022
2936 Clouds 2 1013 74 10000 7.72 20 11:39 02.04.2022
2937 Clouds 0 1011 86 7000 5.66 360 09:48 02.04.2022
2938 Mist 0 1010 90 4000 7.2 10 06:58 02.04.2022
2939 Mist 0 1008 90 5000 6.17 10 03:59 02.04.2022
2940 Mist 1 1008 90 4200 6.17 10 00:27 02.04.2022
2941 Snow 1 1008 90 3600 6.69 10 23:53 01.04.2022
2942 Mist 0 1007 94 4500 6.69 360 22:24 01.04.2022
2943 Mist 0 1006 94 1800 5.14 10 20:54 01.04.2022
2944 Mist 0 1006 94 1800 5.66 10 20:32 01.04.2022
2945 Mist 0 1005 94 1700 6.17 10 19:39 01.04.2022
2946 Snow 1 1005 94 2200 6.17 10 19:18 01.04.2022
2947 Snow 1 1004 90 2200 5.66 10 18:35 01.04.2022
2948 Snow 1 1004 89 2400 6.17 10 17:36 01.04.2022
2949 Snow 2 1003 88 3700 6.17 20 15:45 01.04.2022
2950 Snow 2 1003 81 9000 7.72 10 14:47 01.04.2022
2951 Clouds 2 1003 81 9000 7.72 20 13:38 01.04.2022
2952 Clouds 2 1002 81 10000 8.23 10 12:33 01.04.2022
2953 Clouds 2 1002 80 10000 8.75 10 11:45 01.04.2022
2954 Clouds 2 1001 80 10000 7.72 10 10:41 01.04.2022
2955 Clouds 3 1000 80 10000 6.69 10 09:35 01.04.2022
2956 Clouds 3 999 85 10000 5.66 10 07:24 01.04.2022
2957 Clouds 3 998 85 10000 4.63 360 04:57 01.04.2022
2958 Clouds 3 998 85 10000 4.63 360 04:39 01.04.2022
2959 Clouds 4 998 85 10000 5.14 20 02:32 01.04.2022
2960 Clouds 4 998 85 10000 4.12 10 01:33 01.04.2022
2961 Clouds 5 998 86 10000 4.12 10 22:27 31.03.2022
2962 Clouds 5 998 87 10000 5.14 10 21:38 31.03.2022
2963 Clouds 6 997 82 10000 5.14 20 20:51 31.03.2022
2964 Clouds 6 997 77 10000 5.14 20 20:28 31.03.2022
2965 Clouds 7 996 79 10000 4.63 10 19:21 31.03.2022
2966 Clouds 8 996 77 10000 5.14 20 18:31 31.03.2022
2967 Clouds 8 996 73 10000 4.63 20 16:47 31.03.2022
2968 Clouds 9 996 71 10000 4.12 20 15:55 31.03.2022
2969 Clouds 9 996 71 10000 3.09 30 15:26 31.03.2022
2970 Clouds 9 997 67 10000 3.6 50 14:45 31.03.2022
2971 Clouds 8 997 72 10000 4.12 10 13:28 31.03.2022
2972 Clouds 7 998 73 10000 4.63 40 11:31 31.03.2022
2973 Clouds 6 998 77 10000 4.12 10 10:26 31.03.2022
2974 Clouds 5 998 79 10000 3.09 10 09:39 31.03.2022
2975 Clouds 4 998 84 10000 3.09 40 07:48 31.03.2022
2976 Clouds 5 1000 83 10000 4.12 60 02:33 31.03.2022
2977 Clear 7 1001 75 10000 3.6 50 23:25 30.03.2022
2978 Clear 8 1001 72 10000 3.6 70 21:57 30.03.2022
2979 Clear 8 1001 71 10000 4.12 60 21:31 30.03.2022
2980 Clear 9 1000 71 10000 4.12 60 20:44 30.03.2022
2981 Clouds 10 1000 62 10000 4.12 60 19:47 30.03.2022
2982 Clouds 12 1000 58 10000 4.12 60 18:41 30.03.2022
2983 Clouds 12 1000 58 10000 5.14 50 17:51 30.03.2022
2984 Clouds 12 1001 59 10000 6.17 50 17:23 30.03.2022
2985 Clouds 12 1001 59 10000 5.14 40 16:41 30.03.2022
2986 Clouds 11 1001 64 10000 5.14 20 15:59 30.03.2022
2987 Clouds 10 1002 72 10000 3.6 20 14:42 30.03.2022
2988 Clouds 9 1002 79 10000 3.6 10 13:23 30.03.2022
2989 Clouds 9 1003 81 10000 4.63 20 12:32 30.03.2022
2990 Clouds 8 1003 90 9000 5.14 20 10:48 30.03.2022
2991 Clouds 7 1003 90 7000 3.6 20 09:58 30.03.2022
2992 Rain 7 1003 88 4600 4.12 20 08:27 30.03.2022
2993 Clouds 8 1003 81 10000 5.66 20 07:29 30.03.2022
2994 Clouds 9 1002 74 10000 3.09 40 05:40 30.03.2022
2995 Clear 10 1005 59 10000 3.09 30 02:40 30.03.2022
2996 Clear 11 1006 63 10000 3.6 360 22:43 29.03.2022
2997 Clear 12 1006 60 10000 3.09 10 21:52 29.03.2022
2998 Clear 12 1006 64 10000 3.09 10 21:34 29.03.2022
2999 Clear 14 1006 54 10000 2.06 120 20:30 29.03.2022
3000 Clear 15 1007 50 10000 2.57 20 19:34 29.03.2022
3001 Clear 15 1007 49 10000 3.09 10 18:53 29.03.2022
3002 Clear 16 1007 47 10000 1.54 360 17:52 29.03.2022
3003 Clear 16 1008 45 10000 1.03 0 17:19 29.03.2022
3004 Clear 16 1008 46 10000 2.06 350 16:53 29.03.2022
3005 Clear 16 1009 45 10000 1.03 0 15:41 29.03.2022
3006 Clear 16 1010 47 10000 2.06 50 14:43 29.03.2022
3007 Clear 15 1011 51 10000 3.09 80 13:35 29.03.2022
3008 Clear 14 1012 56 10000 3.6 10 12:39 29.03.2022
3009 Clear 13 1010 60 10000 3.6 20 11:24 29.03.2022
3010 Clear 11 1013 64 10000 3.09 40 10:20 29.03.2022
3011 Clear 9 1012 72 10000 3.6 10 08:52 29.03.2022
3012 Clear 9 1013 72 10000 2.57 10 06:53 29.03.2022
3013 Clear 11 1012 62 10000 1.03 0 02:52 29.03.2022
3014 Clear 13 1013 51 10000 3.09 340 23:40 28.03.2022
3015 Clear 13 1016 50 10000 1.54 250 22:57 28.03.2022
3016 Clear 13 1016 46 10000 1.54 240 22:33 28.03.2022
3017 Clear 14 1016 46 10000 1.54 210 21:47 28.03.2022
3018 Clear 16 1016 45 10000 1.54 210 20:37 28.03.2022
3019 Clear 18 1016 35 10000 3.09 240 19:57 28.03.2022
3020 Clear 19 1017 32 10000 4.12 240 19:38 28.03.2022
3021 Clear 20 1017 29 10000 5.14 250 18:51 28.03.2022
3022 Clear 21 1017 32 10000 5.14 240 17:41 28.03.2022
3023 Clear 21 1018 35 10000 2.06 260 16:58 28.03.2022
3024 Clear 21 1019 38 10000 3.6 200 15:35 28.03.2022
3025 Clear 20 1021 42 10000 3.09 220 14:24 28.03.2022
3026 Clouds 19 1022 52 10000 2.57 220 13:26 28.03.2022
3027 Clouds 16 1021 61 10000 2.06 200 11:53 28.03.2022
3028 Clear 14 1022 61 10000 0.51 0 10:35 28.03.2022
3029 Clear 10 1022 76 10000 1.03 0 09:21 28.03.2022
3030 Clear 8 1022 84 10000 2.06 10 08:45 28.03.2022
3031 Clear 8 1022 86 10000 1.54 350 08:21 28.03.2022
3032 Clear 8 1022 85 10000 1.03 60 07:23 28.03.2022
3033 Clear 10 1026 77 10000 2.06 50 02:44 28.03.2022
3034 Clear 13 1027 65 10000 5.14 20 22:57 27.03.2022
3035 Clear 15 1027 63 10000 6.17 20 21:55 27.03.2022
3036 Clear 15 1027 59 10000 5.14 30 21:36 27.03.2022
3037 Clear 16 1026 58 10000 4.63 20 20:41 27.03.2022
3038 Clear 17 1026 52 10000 3.6 20 19:43 27.03.2022
3039 Clear 19 1026 49 10000 4.12 10 18:47 27.03.2022
3040 Clear 20 1026 46 10000 2.06 0 18:24 27.03.2022
3041 Clear 20 1027 46 10000 2.06 350 17:37 27.03.2022
3042 Clear 20 1028 43 10000 2.57 0 15:55 27.03.2022
3043 Clouds 18 1029 47 10000 1.03 0 13:59 27.03.2022
3044 Clouds 18 1029 48 10000 2.06 70 13:33 27.03.2022
3045 Clear 16 1028 61 10000 3.6 50 11:41 27.03.2022
3046 Clear 13 1028 68 10000 4.12 20 10:23 27.03.2022
3047 Clear 7 1027 80 10000 3.09 70 07:55 27.03.2022
3048 Clear 8 1029 75 10000 1.03 0 05:18 27.03.2022
3049 Clear 10 1030 64 10000 4.63 30 00:30 27.03.2022
3050 Clear 12 1029 57 10000 4.63 30 22:53 26.03.2022
3051 Clear 12 1029 56 10000 5.14 30 22:27 26.03.2022
3052 Clear 12 1029 55 10000 5.14 10 21:31 26.03.2022
3053 Clear 15 1028 43 10000 4.12 20 19:45 26.03.2022
3054 Clear 17 1028 36 10000 4.63 20 18:44 26.03.2022
3055 Clear 18 1028 36 10000 5.66 20 17:44 26.03.2022
3056 Clear 18 1028 34 10000 4.63 20 16:47 26.03.2022
3057 Clear 19 1028 34 10000 6.17 20 15:43 26.03.2022
3058 Clear 19 1029 33 10000 5.66 60 14:21 26.03.2022
3059 Clear 18 1029 36 10000 5.14 50 13:51 26.03.2022
3060 Clear 17 1030 35 10000 5.14 50 12:36 26.03.2022
3061 Clear 16 1029 42 10000 4.12 60 11:18 26.03.2022
3062 Clear 11 1028 56 10000 4.12 40 09:22 26.03.2022
3063 Clear 5 1029 66 10000 3.09 70 07:36 26.03.2022
3064 Clear 6 1027 61 10000 3.09 60 05:53 26.03.2022
3065 Clear 8 1027 53 10000 5.66 20 03:32 26.03.2022
3066 Clear 9 1029 48 10000 5.14 20 22:57 25.03.2022
3067 Clear 13 1028 38 10000 5.14 20 20:58 25.03.2022
3068 Clear 13 1028 38 10000 5.14 20 20:38 25.03.2022
3069 Clear 16 1027 31 10000 5.14 20 19:21 25.03.2022
3070 Clear 16 1027 32 10000 6.17 20 18:37 25.03.2022
3071 Clear 18 1026 32 10000 6.17 20 17:34 25.03.2022
3072 Clear 18 1026 31 10000 5.66 360 16:39 25.03.2022
3073 Clear 19 1027 29 10000 4.12 60 15:50 25.03.2022
3074 Clear 18 1028 32 10000 4.12 0 13:40 25.03.2022
3075 Clear 16 1028 39 10000 3.6 50 11:49 25.03.2022
3076 Clear 12 1026 51 10000 4.63 40 09:46 25.03.2022
3077 Clear 11 1026 57 10000 4.63 50 09:19 25.03.2022
3078 Clear 7 1024 66 10000 2.36 16 07:48 25.03.2022
3079 Clear 6 1024 68 10000 1.97 12 07:21 25.03.2022
3080 Clear 7 1023 66 10000 1.88 12 04:35 25.03.2022
3081 Clear 10 1025 54 10000 1.03 0 23:55 24.03.2022
3082 Clear 11 1025 48 10000 2.57 330 22:29 24.03.2022
3083 Clear 10 1027 50 10000 3.6 340 21:33 24.03.2022
3084 Clear 13 1026 41 10000 2.57 0 19:50 24.03.2022
3085 Clear 16 1026 27 10000 3.09 320 18:49 24.03.2022
3086 Clear 19 1026 28 10000 3.09 10 17:38 24.03.2022
3087 Clear 19 1026 28 10000 1.54 60 16:41 24.03.2022
3088 Clear 19 1027 30 10000 1.54 0 14:59 24.03.2022
3089 Clear 19 1027 30 10000 1.54 0 14:40 24.03.2022
3090 Clear 19 1028 31 10000 1.54 0 13:41 24.03.2022
3091 Clear 18 1028 34 10000 1.54 0 12:39 24.03.2022
3092 Clear 15 1027 40 10000 1.03 0 11:31 24.03.2022
3093 Clear 10 1027 54 10000 2.06 0 09:36 24.03.2022
3094 Clear 9 1027 54 10000 0.51 0 08:40 24.03.2022
3095 Clear 5 1026 73 10000 0.51 0 06:19 24.03.2022
3096 Clear 9 1024 56 10000 1.24 10 01:28 24.03.2022
3097 Clear 10 1027 51 10000 1.03 0 22:29 23.03.2022
3098 Clear 10 1029 51 10000 1.54 0 21:25 23.03.2022
3099 Clear 11 1029 47 10000 1.03 0 20:47 23.03.2022
3100 Clear 13 1028 47 10000 1.03 0 19:43 23.03.2022
3101 Clear 12 1028 47 10000 1.03 0 19:43 23.03.2022
3102 Clear 17 1028 26 10000 1.03 240 18:22 23.03.2022
3103 Clear 19 1028 24 10000 1.54 340 17:36 23.03.2022
3104 Clear 19 1029 24 10000 1.54 0 16:20 23.03.2022
3105 Clear 19 1029 21 10000 1.54 240 14:50 23.03.2022
3106 Clear 18 1030 21 10000 1.03 0 13:51 23.03.2022
3107 Clear 16 1031 31 10000 1.03 0 12:24 23.03.2022
3108 Clear 11 1031 43 10000 0.51 0 09:38 23.03.2022
3109 Clear 4 1029 70 10000 2.06 60 06:40 23.03.2022
3110 Clear 5 1028 65 10000 2.06 20 03:58 23.03.2022
3111 Clear 7 1028 60 10000 1.03 60 00:29 23.03.2022
3112 Clear 8 1030 52 10000 0.51 0 22:26 22.03.2022
3113 Clear 9 1030 46 10000 1.54 40 21:29 22.03.2022
3114 Clear 10 1030 48 10000 1.03 80 20:39 22.03.2022
3115 Clear 12 1030 42 10000 1.03 0 19:39 22.03.2022
3116 Clear 14 1029 32 10000 1.54 130 19:18 22.03.2022
3117 Clear 17 1029 25 10000 3.09 90 17:58 22.03.2022
3118 Clear 18 1029 23 10000 3.09 110 17:25 22.03.2022
3119 Clear 18 1030 25 10000 3.6 90 15:59 22.03.2022
3120 Clear 18 1030 26 10000 3.6 110 15:22 22.03.2022
3121 Clear 17 1030 26 10000 4.12 90 14:46 22.03.2022
3122 Clear 17 1031 26 10000 2.06 110 14:26 22.03.2022
3123 Clear 15 1032 33 10000 2.57 100 12:55 22.03.2022
3124 Clear 13 1032 34 10000 3.6 90 11:48 22.03.2022
3125 Clear 12 1031 41 10000 4.12 50 10:35 22.03.2022
3126 Clear 6 1031 63 10000 3.6 70 08:24 22.03.2022
3127 Clear 4 1030 68 10000 1.54 40 05:21 22.03.2022
3128 Clear 5 1030 66 10000 2.57 70 03:46 22.03.2022
3129 Clear 8 1030 55 10000 3.09 20 23:59 21.03.2022
3130 Clear 9 1030 53 10000 3.09 60 22:29 21.03.2022
3131 Clear 10 1032 49 10000 3.09 60 20:54 21.03.2022
3132 Clear 10 1032 49 10000 3.09 60 20:54 21.03.2022
3133 Clear 10 1031 50 10000 3.6 60 20:34 21.03.2022
3134 Clear 12 1031 43 10000 3.09 80 19:58 21.03.2022
3135 Clear 13 1031 42 10000 2.57 80 19:27 21.03.2022
3136 Clear 15 1031 37 10000 3.6 90 18:22 21.03.2022
3137 Clear 16 1031 35 10000 3.09 80 17:19 21.03.2022
3138 Clear 16 1031 37 10000 3.09 90 16:44 21.03.2022
3139 Clear 17 1031 35 10000 1.54 50 15:52 21.03.2022
3140 Clear 17 1031 35 10000 2.06 40 15:19 21.03.2022
3141 Clear 16 1031 34 10000 2.06 60 14:25 21.03.2022
3142 Clear 14 1032 36 10000 2.06 30 12:40 21.03.2022
3143 Clear 13 1033 38 10000 1.03 0 11:53 21.03.2022
3144 Clear 11 1031 44 10000 2.06 60 10:40 21.03.2022
3145 Clear 8 1031 50 10000 2.57 40 08:55 21.03.2022
3146 Clear 5 1032 61 10000 2.57 20 06:54 21.03.2022
3147 Clear 7 1028 64 10000 3.6 60 02:55 21.03.2022
3148 Clear 8 1028 59 10000 3.6 50 00:35 21.03.2022
3149 Clear 9 1030 55 10000 2.06 50 22:54 20.03.2022
3150 Clear 10 1030 46 10000 1.54 80 21:56 20.03.2022
3151 Clear 11 1029 48 10000 2.57 80 21:29 20.03.2022
3152 Clear 11 1029 48 10000 4.12 90 20:45 20.03.2022
3153 Clear 11 1029 54 10000 2.57 60 20:00 20.03.2022
3154 Clear 11 1029 54 10000 1.03 70 19:38 20.03.2022
3155 Clear 13 1028 48 10000 1.54 110 18:44 20.03.2022
3156 Clear 15 1028 43 10000 3.09 190 17:37 20.03.2022
3157 Clear 15 1028 43 10000 3.09 190 16:58 20.03.2022
3158 Clear 15 1028 45 10000 5.14 180 15:52 20.03.2022
3159 Clear 15 1029 47 10000 4.12 160 14:36 20.03.2022
3160 Clouds 14 1029 49 10000 4.63 170 13:20 20.03.2022
3161 Clouds 11 1029 45 10000 3.09 140 11:37 20.03.2022
3162 Clear 9 1027 51 10000 4.63 90 09:57 20.03.2022
3163 Clear 5 1029 61 10000 4.12 40 07:51 20.03.2022
3164 Clear 4 1028 59 10000 5.66 50 05:49 20.03.2022
3165 Clear 4 1029 57 10000 3.09 10 03:18 20.03.2022
3166 Clear 5 1031 58 10000 5.66 20 00:51 20.03.2022
3167 Clear 5 1031 61 10000 7.2 20 23:35 19.03.2022
3168 Clouds 6 1033 62 10000 7.72 40 21:54 19.03.2022
3169 Clear 7 1033 64 10000 7.72 40 21:20 19.03.2022
3170 Clouds 8 1034 56 10000 7.2 40 19:21 19.03.2022
3171 Clouds 8 1034 53 10000 9.77 50 18:30 19.03.2022
3172 Clouds 10 1034 43 10000 8.23 60 17:45 19.03.2022
3173 Clouds 11 1034 38 10000 8.23 40 16:45 19.03.2022
3174 Clear 12 1035 32 10000 10.8 40 15:22 19.03.2022
3175 Clear 13 1036 35 10000 8.75 50 13:40 19.03.2022
3176 Clouds 12 1037 42 10000 7.72 40 12:42 19.03.2022
3177 Clouds 12 1038 46 10000 8.75 40 12:19 19.03.2022
3178 Clouds 11 1039 49 10000 7.72 40 11:42 19.03.2022
3179 Clear 8 1038 64 10000 5.66 20 08:57 19.03.2022
3180 Clear 5 1041 65 10000 5.66 30 04:42 19.03.2022
3181 Clear 6 1042 61 10000 6.17 20 02:32 19.03.2022
3182 Clear 7 1042 52 10000 5.14 30 23:51 18.03.2022
3183 Clear 8 1042 50 10000 6.69 50 22:48 18.03.2022
3184 Clear 8 1042 48 10000 7.2 50 22:21 18.03.2022
3185 Clear 10 1041 42 10000 8.75 40 20:25 18.03.2022
3186 Clear 10 1041 39 10000 8.75 40 20:25 18.03.2022
3187 Clear 10 1041 42 10000 8.75 40 20:25 18.03.2022
3188 Clear 11 1040 39 10000 8.23 30 19:24 18.03.2022
3189 Clear 12 1040 39 10000 9.26 30 18:43 18.03.2022
3190 Clear 14 1039 34 10000 9.77 40 16:54 18.03.2022
3191 Clear 14 1039 34 10000 9.26 40 16:23 18.03.2022
3192 Clear 13 1040 40 10000 6.69 40 14:27 18.03.2022
3193 Clear 12 1040 43 10000 6.69 20 13:39 18.03.2022
3194 Clear 10 1038 55 10000 6.17 30 11:35 18.03.2022
3195 Clouds 8 1038 70 10000 7.72 20 10:21 18.03.2022
3196 Clouds 6 1040 75 10000 6.69 20 08:46 18.03.2022
3197 Clouds 5 1038 81 10000 4.63 30 06:59 18.03.2022
3198 Clear 5 1037 80 10000 5.66 20 04:55 18.03.2022
3199 Clouds 6 1036 75 10000 5.14 10 01:38 18.03.2022
3200 Clouds 7 1036 72 10000 4.63 10 23:59 17.03.2022
3201 Clouds 7 1035 69 10000 5.14 10 22:50 17.03.2022
3202 Clouds 8 1034 70 10000 5.66 10 22:19 17.03.2022
3203 Clouds 8 1034 68 10000 5.14 10 21:30 17.03.2022
3204 Clouds 8 1033 72 10000 4.63 360 20:54 17.03.2022
3205 Clouds 9 1033 71 10000 3.09 10 20:20 17.03.2022
3206 Clouds 9 1032 74 10000 3.6 20 19:38 17.03.2022
3207 Clouds 9 1032 70 10000 4.12 360 18:53 17.03.2022
3208 Clouds 10 1031 72 10000 5.14 10 17:47 17.03.2022
3209 Clouds 10 1030 77 10000 2.57 340 16:29 17.03.2022
3210 Clouds 9 1029 81 10000 4.63 310 15:43 17.03.2022
3211 Clouds 9 1029 81 10000 4.63 310 15:18 17.03.2022
3212 Rain 10 1027 79 10000 5.14 310 13:47 17.03.2022
3213 Clouds 10 1028 71 10000 4.12 300 12:47 17.03.2022
3214 Clouds 10 1027 67 10000 2.06 340 11:40 17.03.2022
3215 Clouds 10 1026 65 10000 1.03 0 10:58 17.03.2022
3216 Clear 9 1025 69 10000 2.57 50 09:41 17.03.2022
3217 Clear 9 1025 75 10000 1.03 0 08:21 17.03.2022
3218 Clear 8 1023 75 10000 1.54 50 06:18 17.03.2022
3219 Clear 9 1023 73 10000 3.6 90 05:25 17.03.2022
3220 Clear 9 1022 76 10000 3.6 60 00:33 17.03.2022
3221 Clear 10 1023 73 10000 3.09 50 22:58 16.03.2022
3222 Clear 10 1023 72 10000 3.09 50 22:39 16.03.2022
3223 Clear 10 1023 72 10000 3.6 50 22:19 16.03.2022
3224 Clear 10 1023 72 10000 4.12 50 21:18 16.03.2022
3225 Clear 10 1023 72 10000 4.12 50 21:18 16.03.2022
3226 Clear 11 1023 69 10000 3.6 60 19:25 16.03.2022
3227 Clear 11 1023 69 10000 4.63 60 18:55 16.03.2022
3228 Clear 12 1023 65 10000 4.63 70 18:20 16.03.2022
3229 Clear 13 1023 62 10000 5.66 80 17:37 16.03.2022
3230 Clear 13 1023 63 10000 5.66 90 16:49 16.03.2022
3231 Clouds 13 1024 62 10000 5.14 90 15:35 16.03.2022
3232 Clouds 12 1024 63 10000 6.17 80 13:44 16.03.2022
3233 Clouds 11 1025 73 10000 5.14 40 12:59 16.03.2022
3234 Clouds 9 1026 80 8000 4.12 20 11:44 16.03.2022
3235 Mist 8 1024 85 5000 4.63 20 11:18 16.03.2022
3236 Clouds 7 1023 89 10000 3.18 106 09:58 16.03.2022
3237 Fog 4 1024 95 1000 3.6 30 08:37 16.03.2022
3238 Clouds 4 1021 93 10000 1.36 61 03:33 16.03.2022
3239 Fog 4 1024 97 900 1.03 310 23:39 15.03.2022
3240 Fog 6 1024 94 10000 1.54 230 22:37 15.03.2022
3241 Clouds 6 1024 93 10000 1.54 300 21:50 15.03.2022
3242 Clouds 7 1023 91 10000 3.09 10 19:47 15.03.2022
3243 Clouds 7 1022 92 10000 3.09 20 18:41 15.03.2022
3244 Rain 7 1021 96 6000 3.6 10 16:47 15.03.2022
3245 Rain 7 1022 96 4800 2.57 40 16:18 15.03.2022
3246 Rain 7 1023 93 7000 3.6 360 14:55 15.03.2022
3247 Rain 7 1022 90 4800 4.63 30 14:31 15.03.2022
3248 Rain 7 1024 88 7000 3.6 20 13:27 15.03.2022
3249 Rain 8 1023 77 10000 2.57 40 11:57 15.03.2022
3250 Rain 8 1026 73 10000 2.57 50 11:19 15.03.2022
3251 Rain 7 1024 79 10000 4.63 60 09:37 15.03.2022
3252 Clear 6 1027 82 10000 3.09 30 08:32 15.03.2022
3253 Rain 5 1027 81 10000 3.09 20 07:50 15.03.2022
3254 Rain 5 1028 85 10000 2.57 40 06:51 15.03.2022
3255 Clear 5 1029 83 10000 1.54 40 02:38 15.03.2022
3256 Clear 6 1028 83 10000 1.03 80 23:38 14.03.2022
3257 Clear 6 1028 82 10000 1.54 40 23:20 14.03.2022
3258 Clear 5 1030 83 10000 0.51 0 22:19 14.03.2022
3259 Clear 6 1029 79 10000 1.03 0 21:22 14.03.2022
3260 Clear 7 1029 78 10000 1.54 150 20:35 14.03.2022
3261 Clouds 8 1029 74 10000 2.06 170 19:59 14.03.2022
3262 Clouds 11 1028 59 10000 2.06 250 18:37 14.03.2022
3263 Clouds 12 1028 57 10000 2.57 250 17:44 14.03.2022
3264 Clouds 13 1028 55 10000 4.12 250 16:57 14.03.2022
3265 Clouds 13 1026 59 10000 6.17 220 15:34 14.03.2022
3266 Clouds 12 1025 63 10000 5.66 240 14:33 14.03.2022
3267 Clouds 11 1027 68 10000 6.17 230 12:21 14.03.2022
3268 Clouds 10 1026 76 10000 8.23 220 10:50 14.03.2022
3269 Rain 9 1024 87 10000 5.66 210 09:41 14.03.2022
3270 Clouds 8 1025 88 10000 5.14 210 09:20 14.03.2022
3271 Clouds 8 1025 88 10000 5.14 200 08:55 14.03.2022
3272 Clouds 7 1023 98 10000 4.12 190 07:21 14.03.2022
3273 Clouds 8 1022 78 10000 5.14 220 05:22 14.03.2022
3274 Clear 8 1018 48 10000 2.57 20 01:52 14.03.2022
3275 Clear 8 1017 49 10000 3.09 20 01:20 14.03.2022
3276 Clear 8 1017 44 10000 3.6 20 22:42 13.03.2022
3277 Clear 9 1016 42 10000 3.6 20 21:28 13.03.2022
3278 Clear 10 1016 38 10000 4.12 50 20:55 13.03.2022
3279 Clear 10 1016 37 10000 4.12 60 20:29 13.03.2022
3280 Clear 11 1015 34 10000 3.6 60 19:49 13.03.2022
3281 Clear 12 1015 33 10000 3.6 70 19:27 13.03.2022
3282 Clear 13 1015 32 10000 4.63 80 18:59 13.03.2022
3283 Clear 13 1015 31 10000 4.12 90 18:30 13.03.2022
3284 Clear 15 1015 28 10000 3.6 100 17:40 13.03.2022
3285 Clear 15 1015 28 10000 3.09 80 16:57 13.03.2022
3286 Clear 15 1015 28 10000 4.12 90 16:29 13.03.2022
3287 Clear 15 1015 27 10000 2.57 90 15:44 13.03.2022
3288 Clear 15 1015 27 10000 2.57 60 14:56 13.03.2022
3289 Clear 13 1016 27 10000 3.6 60 13:43 13.03.2022
3290 Clear 11 1017 30 10000 2.57 0 12:38 13.03.2022
3291 Clear 11 1017 30 10000 3.09 90 11:52 13.03.2022
3292 Clear 9 1017 32 10000 3.6 90 11:32 13.03.2022
3293 Clear 9 1015 35 10000 3.09 80 10:47 13.03.2022
3294 Clear 8 1016 38 10000 3.09 80 10:22 13.03.2022
3295 Clear 7 1016 39 10000 3.6 50 09:40 13.03.2022
3296 Clear 5 1016 44 10000 4.63 50 08:46 13.03.2022
3297 Clear 3 1015 51 10000 4.12 50 07:42 13.03.2022
3298 Clear 3 1014 56 10000 3.6 60 05:41 13.03.2022
3299 Clear 3 1017 54 10000 3.6 10 02:43 13.03.2022
3300 Clear 5 1018 52 10000 3.6 20 23:59 12.03.2022
3301 Clear 6 1018 45 10000 3.09 40 22:31 12.03.2022
3302 Clear 8 1018 45 10000 4.63 80 20:48 12.03.2022
3303 Clear 10 1018 46 10000 3.09 100 19:48 12.03.2022
3304 Clear 10 1018 47 10000 3.09 100 19:27 12.03.2022
3305 Clear 11 1018 47 10000 3.6 60 18:27 12.03.2022
3306 Clear 13 1019 40 10000 1.03 0 17:34 12.03.2022
3307 Clear 14 1019 37 10000 1.54 360 16:24 12.03.2022
3308 Clear 14 1019 37 10000 1.03 0 15:24 12.03.2022
3309 Clear 13 1019 37 10000 2.06 20 14:50 12.03.2022
3310 Clouds 13 1020 36 10000 2.57 100 13:47 12.03.2022
3311 Clouds 10 1021 37 10000 4.12 70 11:57 12.03.2022
3312 Clouds 10 1021 37 10000 4.12 70 11:38 12.03.2022
3313 Clouds 9 1019 37 10000 3.6 70 10:58 12.03.2022
3314 Clear 7 1019 39 10000 4.63 60 09:46 12.03.2022
3315 Clear 7 1019 39 10000 4.63 60 09:46 12.03.2022
3316 Clear 6 1021 40 10000 4.12 70 09:20 12.03.2022
3317 Clear 3 1020 45 10000 3.6 50 07:29 12.03.2022
3318 Clear 5 1019 40 10000 3.6 60 03:54 12.03.2022
3319 Clear 6 1018 41 10000 5.14 60 00:21 12.03.2022
3320 Clear 6 1018 41 10000 3.6 60 23:19 11.03.2022
3321 Clear 6 1018 41 10000 3.6 60 23:19 11.03.2022
3322 Clear 7 1018 36 10000 4.63 50 21:43 11.03.2022
3323 Clear 8 1017 36 10000 4.63 60 20:57 11.03.2022
3324 Clear 8 1017 36 10000 4.63 60 20:37 11.03.2022
3325 Clear 9 1017 31 10000 4.12 60 19:52 11.03.2022
3326 Clear 9 1017 34 10000 4.63 60 19:26 11.03.2022
3327 Clear 13 1017 29 10000 5.66 80 17:34 11.03.2022
3328 Clear 13 1017 30 10000 5.66 80 16:42 11.03.2022
3329 Clear 13 1017 31 10000 5.66 100 15:57 11.03.2022
3330 Clear 11 1018 35 10000 5.14 90 14:21 11.03.2022
3331 Clear 9 1020 37 10000 4.63 80 12:53 11.03.2022
3332 Clear 9 1020 37 10000 5.14 90 12:21 11.03.2022
3333 Clear 8 1020 38 10000 4.63 90 11:55 11.03.2022
3334 Clear 6 1021 42 10000 5.66 80 10:18 11.03.2022
3335 Clear 4 1019 50 10000 4.12 80 08:57 11.03.2022
3336 Clear 3 1021 52 10000 3.6 60 08:24 11.03.2022
3337 Clear 2 1021 60 10000 4.12 60 07:46 11.03.2022
3338 Clear 3 1021 64 10000 5.14 70 05:49 11.03.2022
3339 Clouds 4 1022 63 10000 3.21 103 04:22 11.03.2022
3340 Clear 5 1022 54 10000 4.12 50 23:49 10.03.2022
3341 Clear 8 1022 41 10000 4.12 50 22:31 10.03.2022
3342 Clear 7 1022 45 10000 4.12 60 21:48 10.03.2022
3343 Clear 8 1022 41 10000 3.6 60 21:20 10.03.2022
3344 Clear 10 1022 31 10000 3.09 70 19:48 10.03.2022
3345 Clear 11 1022 35 10000 3.6 70 18:56 10.03.2022
3346 Clear 14 1022 30 10000 4.63 90 17:36 10.03.2022
3347 Clear 15 1023 28 10000 6.17 100 16:31 10.03.2022
3348 Clear 15 1023 28 10000 6.17 120 15:20 10.03.2022
3349 Clear 14 1025 29 10000 4.12 100 13:30 10.03.2022
3350 Clear 13 1025 32 10000 4.12 80 12:34 10.03.2022
3351 Clear 11 1024 41 10000 4.63 80 11:20 10.03.2022
3352 Clear 5 1025 57 10000 2.57 10 09:22 10.03.2022
3353 Clear 1 1026 64 10000 3.09 20 07:43 10.03.2022
3354 Clear 1 1025 64 10000 2.06 50 04:47 10.03.2022
3355 Clear 2 1025 64 10000 1.03 30 01:53 10.03.2022
3356 Clear 2 1025 65 10000 3.09 70 23:29 09.03.2022
3357 Clear 3 1024 62 10000 1.03 0 21:54 09.03.2022
3358 Clear 4 1024 60 10000 1.03 0 21:34 09.03.2022
3359 Clear 6 1024 55 10000 1.03 260 19:55 09.03.2022
3360 Clear 9 1023 40 10000 2.06 260 18:34 09.03.2022
3361 Clear 12 1023 31 10000 2.06 260 17:27 09.03.2022
3362 Clear 12 1024 34 10000 1.64 127 16:34 09.03.2022
3363 Clear 12 1023 30 10000 1.03 0 15:31 09.03.2022
3364 Clear 11 1024 34 10000 2.06 0 13:54 09.03.2022
3365 Clear 11 1025 37 10000 1.54 0 12:56 09.03.2022
3366 Clear 9 1025 40 10000 1.54 0 12:18 09.03.2022
3367 Clear 8 1025 42 10000 1.54 0 11:36 09.03.2022
3368 Clear 6 1025 48 10000 2.57 60 10:38 09.03.2022
3369 Clear 2 1025 63 10000 3.6 50 08:59 09.03.2022
3370 Clear -1 1024 74 10000 1.03 0 08:23 09.03.2022
3371 Clear -1 1024 68 10000 2.57 30 02:59 09.03.2022
3372 Clear 1 1021 62 10000 3.09 70 00:47 09.03.2022
3373 Clear 2 1023 54 10000 2.57 60 22:48 08.03.2022
3374 Clear 2 1022 53 10000 3.09 80 22:29 08.03.2022
3375 Clear 3 1022 49 10000 2.57 90 21:23 08.03.2022
3376 Clear 4 1022 51 10000 3.09 70 20:44 08.03.2022
3377 Clear 5 1022 42 10000 2.06 80 19:42 08.03.2022
3378 Clear 7 1021 37 10000 4.12 90 18:44 08.03.2022
3379 Clear 10 1021 32 10000 5.66 110 17:37 08.03.2022
3380 Clear 10 1022 31 10000 7.2 100 16:29 08.03.2022
3381 Clear 10 1022 35 10000 8.23 110 14:20 08.03.2022
3382 Clear 8 1023 39 10000 7.72 110 12:44 08.03.2022
3383 Clear 7 1023 45 10000 4.63 80 11:45 08.03.2022
3384 Clear 6 1022 52 10000 4.12 90 10:55 08.03.2022
3385 Clear 5 1022 54 10000 3.09 80 10:19 08.03.2022
3386 Clear -2 1023 74 10000 1.54 30 07:33 08.03.2022
3387 Clear -2 1024 77 10000 1.54 70 05:44 08.03.2022
3388 Clear -1 1025 65 10000 4.12 70 23:58 07.03.2022
3389 Clear 0 1025 65 10000 2.06 60 22:23 07.03.2022
3390 Clear 0 1025 60 10000 1.54 60 21:34 07.03.2022
3391 Clear 1 1025 58 10000 2.06 80 20:52 07.03.2022
3392 Clear 2 1025 54 10000 1.54 100 20:20 07.03.2022
3393 Clear 2 1024 51 10000 2.57 90 19:34 07.03.2022
3394 Clear 3 1024 44 10000 3.6 90 18:47 07.03.2022
3395 Clear 5 1024 41 10000 4.12 80 17:54 07.03.2022
3396 Clear 5 1024 42 10000 5.14 80 16:56 07.03.2022
3397 Clear 6 1024 41 10000 5.66 70 16:20 07.03.2022
3398 Clouds 5 1025 45 10000 6.69 50 14:31 07.03.2022
3399 Clouds 4 1026 45 10000 7.72 80 12:33 07.03.2022
3400 Clouds 3 1026 47 10000 5.66 60 10:39 07.03.2022
3401 Clouds 2 1026 49 10000 8.23 70 09:47 07.03.2022
3402 Clouds -1 1025 57 10000 5.14 50 06:35 07.03.2022
3403 Clear 1 1025 60 10000 6.69 20 00:23 07.03.2022
3404 Clouds 1 1025 57 10000 6.69 20 23:41 06.03.2022
3405 Clear 2 1025 57 10000 7.2 20 22:58 06.03.2022
3406 Clear 2 1024 59 10000 7.72 20 22:24 06.03.2022
3407 Clear 2 1024 59 10000 7.72 20 22:24 06.03.2022
3408 Clouds 2 1024 52 10000 6.17 20 20:56 06.03.2022
3409 Clouds 3 1023 51 10000 5.66 10 20:28 06.03.2022
3410 Clear 3 1023 49 10000 5.14 50 19:29 06.03.2022
3411 Clouds 5 1023 45 10000 5.14 20 18:25 06.03.2022
3412 Clouds 5 1023 44 10000 7.2 20 17:22 06.03.2022
3413 Clear 6 1022 43 10000 6.69 20 16:44 06.03.2022
3414 Clear 6 1022 43 10000 6.69 20 16:44 06.03.2022
3415 Clear 6 1022 42 10000 6.69 20 16:20 06.03.2022
3416 Clear 7 1022 39 10000 4.63 50 14:57 06.03.2022
3417 Clear 7 1022 38 10000 4.63 50 14:38 06.03.2022
3418 Clear 7 1023 40 10000 5.14 20 13:47 06.03.2022
3419 Clear 6 1023 39 10000 4.63 10 12:36 06.03.2022
3420 Clear 6 1024 42 10000 4.63 70 11:27 06.03.2022
3421 Clouds 5 1024 48 10000 4.63 60 10:29 06.03.2022
3422 Clear 1 1021 63 10000 3.09 20 08:51 06.03.2022
3423 Clear 1 1023 64 10000 2.57 30 08:27 06.03.2022
3424 Clear 0 1022 66 10000 2.57 20 06:33 06.03.2022
3425 Clear 1 1022 60 10000 2.57 60 01:32 06.03.2022
3426 Clear 1 1022 60 10000 3.09 70 00:33 06.03.2022
3427 Clear 2 1022 56 10000 3.09 70 23:41 05.03.2022
3428 Clear 2 1022 54 10000 2.57 70 23:18 05.03.2022
3429 Clear 3 1022 53 10000 3.09 70 22:31 05.03.2022
3430 Clear 3 1021 50 10000 3.09 60 21:24 05.03.2022
3431 Clear 4 1021 49 10000 3.6 90 19:56 05.03.2022
3432 Clear 5 1021 48 10000 4.12 110 18:57 05.03.2022
3433 Clear 5 1021 46 10000 4.12 110 18:36 05.03.2022
3434 Clear 7 1020 41 10000 5.14 90 16:58 05.03.2022
3435 Clear 8 1021 37 10000 4.12 70 15:49 05.03.2022
3436 Clear 8 1021 38 10000 4.12 80 14:53 05.03.2022
3437 Clear 8 1021 39 10000 4.12 80 14:35 05.03.2022
3438 Clouds 7 1021 44 10000 3.6 80 13:37 05.03.2022
3439 Clouds 7 1022 49 10000 2.57 70 12:33 05.03.2022
3440 Clear 5 1020 63 10000 3.09 70 11:20 05.03.2022
3441 Clear 4 1020 66 10000 3.6 70 10:52 05.03.2022
3442 Clear 1 1022 77 10000 3.6 40 09:30 05.03.2022
3443 Clear -1 1022 83 10000 3.6 20 08:24 05.03.2022
3444 Clear -2 1021 84 10000 3.6 30 06:33 05.03.2022
3445 Clear -1 1021 83 10000 4.63 30 05:22 05.03.2022
3446 Clear 0 1021 77 10000 4.12 10 00:30 05.03.2022
3447 Clear 1 1021 74 10000 4.12 10 22:45 04.03.2022
3448 Clear 2 1021 72 10000 4.63 30 22:24 04.03.2022
3449 Clear 2 1021 70 10000 4.63 20 21:43 04.03.2022
3450 Clear 4 1021 61 10000 6.17 20 20:39 04.03.2022
3451 Clear 4 1020 60 10000 4.12 20 19:37 04.03.2022
3452 Clear 6 1020 55 10000 4.63 30 18:54 04.03.2022
3453 Clear 6 1020 51 10000 4.63 30 18:33 04.03.2022
3454 Clear 8 1020 50 10000 4.63 10 17:29 04.03.2022
3455 Clear 9 1020 46 10000 3.6 30 15:54 04.03.2022
3456 Clear 9 1020 45 10000 3.6 20 15:24 04.03.2022
3457 Clear 8 1021 50 10000 2.06 0 13:35 04.03.2022
3458 Clear 7 1021 55 10000 3.09 50 12:38 04.03.2022
3459 Clear 6 1020 60 10000 3.6 50 11:37 04.03.2022
3460 Clear 4 1020 68 10000 3.6 20 10:25 04.03.2022
3461 Clear 2 1019 72 10000 3.6 20 09:27 04.03.2022
3462 Clear 0 1020 73 10000 4.12 20 07:48 04.03.2022
3463 Clear 0 1020 73 10000 3.09 40 06:21 04.03.2022
3464 Clear 1 1020 65 10000 3.6 10 01:46 04.03.2022
3465 Clear 2 1019 64 10000 3.09 20 23:41 03.03.2022
3466 Clear 4 1019 60 10000 5.14 20 22:18 03.03.2022
3467 Clear 4 1018 53 10000 4.63 20 21:36 03.03.2022
3468 Clear 5 1018 55 10000 5.14 20 20:50 03.03.2022
3469 Clear 6 1017 47 10000 4.12 20 19:34 03.03.2022
3470 Clear 8 1017 43 10000 2.57 20 18:33 03.03.2022
3471 Clear 10 1017 36 10000 3.6 10 17:39 03.03.2022
3472 Clear 11 1017 34 10000 2.57 10 17:18 03.03.2022
3473 Clear 11 1017 30 10000 2.57 40 15:46 03.03.2022
3474 Clear 11 1017 27 10000 4.12 40 14:51 03.03.2022
3475 Clear 11 1017 28 10000 4.12 40 14:32 03.03.2022
3476 Clear 9 1018 39 10000 2.57 70 12:44 03.03.2022
3477 Clear 7 1017 49 10000 2.57 70 11:32 03.03.2022
3478 Clear 6 1017 55 10000 4.12 70 10:39 03.03.2022
3479 Clear 1 1017 72 10000 2.57 70 08:44 03.03.2022
3480 Clear 0 1017 76 10000 3.6 10 06:58 03.03.2022
3481 Clear 0 1017 75 10000 3.6 10 06:33 03.03.2022
3482 Clear 0 1021 73 10000 3.09 90 00:43 03.03.2022
3483 Clear 1 1021 73 10000 2.06 90 23:28 02.03.2022
3484 Clear 1 1021 70 10000 1.03 60 22:49 02.03.2022
3485 Clear 3 1021 56 10000 2.57 60 21:25 02.03.2022
3486 Clear 3 1021 59 10000 2.06 70 20:44 02.03.2022
3487 Clear 4 1022 47 10000 0.51 0 19:56 02.03.2022
3488 Clear 4 1022 47 10000 0.51 0 19:56 02.03.2022
3489 Clear 5 1022 50 10000 0.51 0 19:33 02.03.2022
3490 Clear 6 1022 46 10000 2.06 140 18:44 02.03.2022
3491 Clear 8 1022 35 10000 2.57 100 17:57 02.03.2022
3492 Clear 9 1022 33 10000 3.09 90 17:23 02.03.2022
3493 Clear 9 1022 32 10000 2.57 110 16:45 02.03.2022
3494 Clear 9 1022 36 10000 3.6 130 14:44 02.03.2022
3495 Clear 7 1023 44 10000 3.6 50 13:24 02.03.2022
3496 Clear 6 1024 49 10000 4.12 50 12:42 02.03.2022
3497 Clear 5 1024 52 10000 4.12 60 11:47 02.03.2022
3498 Clear 5 1024 55 10000 4.12 60 11:24 02.03.2022
3499 Rain 3 1024 59 10000 3.6 50 09:42 02.03.2022
3500 Rain 2 1025 64 10000 3.09 70 08:59 02.03.2022
3501 Snow 1 1025 67 10000 3.09 20 07:39 02.03.2022
3502 Clear 1 1024 67 10000 4.12 50 06:51 02.03.2022
3503 Clear 1 1026 68 10000 1.54 60 02:54 02.03.2022
3504 Clear 2 1027 61 10000 2.57 10 00:29 02.03.2022
3505 Clear 2 1027 63 10000 3.09 60 22:48 01.03.2022
3506 Clear 2 1027 58 10000 2.57 60 22:21 01.03.2022
3507 Clear 3 1028 54 10000 2.57 70 21:25 01.03.2022
3508 Clear 4 1028 53 10000 2.57 60 20:32 01.03.2022
3509 Clear 5 1028 48 10000 3.09 70 19:45 01.03.2022
3510 Clear 6 1028 45 10000 2.57 70 18:51 01.03.2022
3511 Clear 6 1028 42 10000 2.57 80 18:21 01.03.2022
3512 Clear 7 1027 37 10000 3.09 110 17:37 01.03.2022
3513 Clear 8 1028 32 10000 3.09 100 16:35 01.03.2022
3514 Clear 8 1028 31 10000 2.57 90 15:45 01.03.2022
3515 Clear 8 1029 32 10000 4.12 90 14:41 01.03.2022
3516 Clear 7 1029 34 10000 3.6 80 14:23 01.03.2022
3517 Clear 7 1030 37 10000 3.6 70 13:26 01.03.2022
3518 Clear 6 1030 42 10000 3.09 90 12:35 01.03.2022
3519 Clear 4 1029 52 10000 4.63 70 10:38 01.03.2022
3520 Clear 1 1031 61 10000 4.63 60 09:25 01.03.2022
3521 Clear -1 1031 69 10000 5.14 50 08:19 01.03.2022
3522 Clear -1 1030 74 10000 4.63 50 06:28 01.03.2022
3523 Clear 1 1031 68 10000 4.63 60 02:48 01.03.2022
3524 Clear 2 1030 64 10000 3.09 50 00:47 01.03.2022
3525 Clear 2 1028 64 10000 1.54 50 23:36 28.02.2022
3526 Clear 3 1028 62 10000 1.54 90 22:30 28.02.2022
3527 Clear 3 1031 66 10000 2.06 50 21:43 28.02.2022
3528 Clear 4 1030 60 10000 0.51 0 20:34 28.02.2022
3529 Clear 5 1030 55 10000 3.09 70 19:51 28.02.2022
3530 Clear 7 1030 46 10000 2.06 100 18:50 28.02.2022
3531 Clear 9 1030 38 10000 3.09 100 17:43 28.02.2022
3532 Clear 10 1030 38 10000 2.06 70 17:21 28.02.2022
3533 Clear 10 1031 35 10000 2.57 60 16:21 28.02.2022
3534 Clear 10 1031 40 10000 3.09 90 14:32 28.02.2022
3535 Clear 9 1032 43 10000 4.12 90 13:53 28.02.2022
3536 Clear 8 1032 46 10000 3.6 90 13:24 28.02.2022
3537 Clear 8 1033 49 10000 3.6 90 12:25 28.02.2022
3538 Clear 6 1031 57 10000 4.12 60 11:19 28.02.2022
3539 Clear 4 1031 65 10000 4.63 60 10:23 28.02.2022
3540 Clear 3 1031 67 10000 4.12 60 09:44 28.02.2022
3541 Clear 2 1033 73 10000 3.09 60 09:23 28.02.2022
3542 Clear -1 1032 79 10000 3.09 70 08:21 28.02.2022
3543 Clear -1 1032 85 10000 2.57 80 06:31 28.02.2022
3544 Clear -1 1032 83 10000 2.06 70 04:31 28.02.2022
3545 Clear 0 1032 77 10000 2.57 70 01:24 28.02.2022
3546 Clear 2 1032 68 10000 4.12 10 22:55 27.02.2022
3547 Clear 2 1032 68 10000 4.12 10 22:32 27.02.2022
3548 Clear 3 1032 64 10000 3.6 10 21:42 27.02.2022
3549 Clear 3 1032 65 10000 3.09 40 20:51 27.02.2022
3550 Clear 4 1032 63 10000 4.63 60 20:22 27.02.2022
3551 Clear 5 1032 59 10000 4.12 70 19:50 27.02.2022
3552 Clear 5 1033 56 10000 2.37 81 19:24 27.02.2022
3553 Clear 6 1031 50 10000 5.14 70 18:37 27.02.2022
3554 Clear 8 1031 45 10000 5.66 90 17:53 27.02.2022
3555 Clear 9 1031 44 10000 5.66 110 16:31 27.02.2022
3556 Clouds 9 1032 45 10000 6.69 90 15:39 27.02.2022
3557 Clouds 8 1033 55 10000 5.14 100 12:53 27.02.2022
3558 Clouds 7 1033 57 10000 6.17 100 12:29 27.02.2022
3559 Clouds 6 1031 68 10000 4.12 90 10:47 27.02.2022
3560 Clouds 4 1032 76 10000 4.63 60 09:58 27.02.2022
3561 Clouds 3 1034 81 10000 2.06 80 09:27 27.02.2022
3562 Clouds 2 1034 84 10000 1.54 60 08:54 27.02.2022
3563 Clear -1 1032 88 10000 2.06 70 06:43 27.02.2022
3564 Clear 0 1032 88 10000 2.06 60 05:35 27.02.2022
3565 Clear 2 1033 80 10000 2.06 80 00:37 27.02.2022
3566 Clear 2 1033 79 10000 1.54 70 22:51 26.02.2022
3567 Clear 3 1033 74 10000 0.51 0 21:39 26.02.2022
3568 Clouds 3 1034 72 10000 1.03 0 20:48 26.02.2022
3569 Clouds 4 1033 71 10000 2.57 20 19:59 26.02.2022
3570 Clouds 4 1033 70 10000 2.57 20 19:37 26.02.2022
3571 Clouds 5 1033 68 10000 2.57 60 18:49 26.02.2022
3572 Clouds 7 1033 56 10000 2.06 90 17:42 26.02.2022
3573 Clouds 7 1033 54 10000 3.09 70 16:49 26.02.2022
3574 Clouds 7 1034 55 10000 2.06 60 15:49 26.02.2022
3575 Clouds 8 1034 58 10000 3.6 30 15:22 26.02.2022
3576 Clouds 8 1034 57 10000 2.57 30 14:53 26.02.2022
3577 Clouds 8 1034 57 10000 2.57 30 14:33 26.02.2022
3578 Clouds 7 1035 60 10000 3.09 20 13:19 26.02.2022
3579 Clouds 6 1035 63 10000 3.6 20 12:23 26.02.2022
3580 Clouds 6 1035 67 10000 2.57 70 11:28 26.02.2022
3581 Clouds 5 1035 73 10000 1.03 0 10:40 26.02.2022
3582 Clouds 1 1034 89 10000 1.54 190 08:55 26.02.2022
3583 Clouds 0 1034 91 10000 2.06 230 07:37 26.02.2022
3584 Clouds 2 1031 86 10000 4.12 280 01:27 26.02.2022
3585 Clouds 2 1029 91 10000 2.57 190 22:55 25.02.2022
3586 Clouds 2 1028 87 10000 4.12 0 21:46 25.02.2022
3587 Clouds 3 1028 87 10000 4.12 270 21:26 25.02.2022
3588 Clouds 3 1027 84 10000 5.66 270 20:33 25.02.2022
3589 Clouds 3 1027 84 10000 6.69 260 19:22 25.02.2022
3590 Clouds 6 1023 74 4800 7.72 250 17:33 25.02.2022
3591 Clouds 7 1022 66 10000 8.23 230 16:44 25.02.2022
3592 Clouds 7 1021 66 10000 6.17 210 15:48 25.02.2022
3593 Clouds 7 1021 66 10000 5.66 220 15:23 25.02.2022
3594 Clouds 7 1021 68 10000 5.66 230 14:42 25.02.2022
3595 Clouds 6 1021 70 10000 5.66 230 14:18 25.02.2022
3596 Clouds 6 1021 73 10000 7.2 240 13:20 25.02.2022
3597 Clouds 5 1021 71 10000 8.23 220 11:30 25.02.2022
3598 Clouds 5 1021 73 10000 8.23 210 10:54 25.02.2022
3599 Clouds 5 1020 74 10000 6.17 200 10:23 25.02.2022
3600 Clouds 3 1021 78 10000 5.66 200 09:35 25.02.2022
3601 Clouds 1 1022 82 10000 5.66 200 07:47 25.02.2022
3602 Clouds 1 1021 81 10000 5.14 200 06:45 25.02.2022
3603 Clouds 2 1021 80 10000 4.12 220 05:37 25.02.2022
3604 Clouds 4 1018 80 10000 3.6 220 00:46 25.02.2022
3605 Clouds 4 1015 85 10000 4.12 200 22:30 24.02.2022
3606 Clouds 3 1015 86 10000 3.6 200 21:43 24.02.2022
3607 Rain 3 1015 86 10000 4.63 200 21:21 24.02.2022
3608 Rain 4 1014 84 10000 5.14 250 20:42 24.02.2022
3609 Clouds 7 1009 63 10000 7.2 210 19:31 24.02.2022
3610 Clouds 10 1010 61 10000 7.72 210 18:20 24.02.2022
3611 Clouds 11 1010 61 10000 8.23 220 17:52 24.02.2022
3612 Clouds 11 1010 60 10000 9.26 220 17:19 24.02.2022
3613 Clouds 11 1008 67 10000 9.77 220 16:25 24.02.2022
3614 Clouds 11 1011 71 10000 8.75 220 15:42 24.02.2022
3615 Clouds 11 1011 65 10000 8.75 210 14:45 24.02.2022
3616 Clouds 11 1011 67 10000 7.2 200 13:57 24.02.2022
3617 Clouds 11 1012 69 10000 5.14 200 13:35 24.02.2022
3618 Clouds 9 1011 78 10000 2.57 190 11:32 24.02.2022
3619 Clear 8 1012 81 10000 2.57 200 10:31 24.02.2022
3620 Clouds 6 1014 83 10000 1.03 0 08:43 24.02.2022
3621 Clouds 6 1017 84 10000 1.54 220 06:45 24.02.2022
3622 Clouds 6 1018 82 10000 2.06 210 05:40 24.02.2022
3623 Clear 5 1021 82 10000 1.54 100 00:31 24.02.2022
3624 Clouds 5 1020 80 10000 2.06 250 22:22 23.02.2022
3625 Clear 5 1023 77 10000 1.03 0 20:45 23.02.2022
3626 Clear 5 1023 79 10000 0.51 0 20:26 23.02.2022
3627 Clear 7 1023 70 10000 2.06 140 19:35 23.02.2022
3628 Clear 9 1024 60 10000 2.57 150 18:26 23.02.2022
3629 Clouds 12 1025 47 10000 3.09 240 16:33 23.02.2022
3630 Clouds 11 1027 55 10000 4.12 240 14:22 23.02.2022
3631 Clouds 10 1028 62 10000 4.12 230 12:37 23.02.2022
3632 Clouds 9 1026 71 10000 3.6 230 11:23 23.02.2022
3633 Clouds 8 1026 76 10000 2.06 190 10:24 23.02.2022
3634 Clear 5 1024 84 10000 1.47 245 08:56 23.02.2022
3635 Clouds 3 1027 94 10000 2.06 210 07:56 23.02.2022
3636 Clear 5 1023 84 10000 3.09 290 03:47 23.02.2022
3637 Clouds 7 1018 83 10000 4.12 290 00:19 23.02.2022
3638 Clouds 9 1017 87 10000 7.72 220 23:34 22.02.2022
3639 Clouds 9 1016 86 10000 6.69 210 22:28 22.02.2022
3640 Clouds 8 1018 88 10000 6.17 210 21:48 22.02.2022
3641 Clouds 8 1016 87 10000 6.69 200 21:25 22.02.2022
3642 Clouds 8 1018 83 10000 6.17 200 20:49 22.02.2022
3643 Clouds 8 1018 83 10000 6.69 200 20:29 22.02.2022
3644 Clouds 8 1016 82 10000 6.69 200 19:36 22.02.2022
3645 Clouds 8 1018 81 10000 6.69 200 19:18 22.02.2022
3646 Clouds 8 1019 80 10000 6.17 210 17:40 22.02.2022
3647 Clouds 8 1019 79 10000 7.72 210 17:19 22.02.2022
3648 Clouds 8 1017 80 10000 8.75 220 16:36 22.02.2022
3649 Clouds 8 1017 76 10000 4.63 200 15:39 22.02.2022
3650 Clouds 9 1020 68 10000 7.72 220 14:44 22.02.2022
3651 Clouds 8 1019 69 10000 4.63 200 12:21 22.02.2022
3652 Clouds 7 1022 70 10000 6.17 230 10:39 22.02.2022
3653 Clouds 5 1020 75 10000 5.14 250 07:52 22.02.2022
3654 Clouds 5 1019 75 10000 4.63 250 07:25 22.02.2022
3655 Clouds 6 1016 70 10000 7.72 280 02:52 22.02.2022
3656 Clouds 6 1014 79 10000 5.66 270 00:49 22.02.2022
3657 Clouds 6 1011 72 10000 4.12 220 22:44 21.02.2022
3658 Clouds 6 1010 71 10000 4.63 280 21:31 21.02.2022
3659 Clouds 7 1007 72 10000 4.63 260 20:34 21.02.2022
3660 Clouds 7 1007 72 10000 4.63 260 20:34 21.02.2022
3661 Clouds 7 1004 79 10000 11.32 270 18:42 21.02.2022
3662 Clouds 6 1000 81 10000 11.83 230 16:56 21.02.2022
3663 Rain 7 1000 67 10000 11.83 220 14:52 21.02.2022
3664 Rain 7 999 68 10000 11.83 220 14:52 21.02.2022
3665 Clouds 7 1000 67 10000 10.8 210 14:21 21.02.2022
3666 Clouds 8 1004 57 10000 9.26 240 12:59 21.02.2022
3667 Clouds 7 1004 59 10000 10.8 240 12:23 21.02.2022
3668 Clouds 6 1002 67 10000 9.77 240 10:58 21.02.2022
3669 Clouds 5 1002 74 10000 6.69 260 09:34 21.02.2022
3670 Clouds 7 998 71 10000 9.77 290 04:52 21.02.2022
3671 Rain 10 1000 79 10000 11.83 210 23:41 20.02.2022
3672 Rain 10 1002 80 10000 10.8 200 22:21 20.02.2022
3673 Rain 10 1003 82 10000 9.26 210 21:42 20.02.2022
3674 Rain 9 1004 85 10000 9.26 200 20:53 20.02.2022
3675 Rain 9 1004 83 10000 9.77 200 20:33 20.02.2022
3676 Rain 9 1005 82 10000 10.29 210 19:31 20.02.2022
3677 Rain 9 1005 82 10000 10.29 210 19:31 20.02.2022
3678 Rain 9 1005 81 10000 10.29 210 18:50 20.02.2022
3679 Rain 9 1006 81 10000 9.77 200 18:31 20.02.2022
3680 Rain 9 1006 81 10000 9.77 200 18:31 20.02.2022
3681 Clouds 9 1006 83 10000 8.75 200 17:48 20.02.2022
3682 Clouds 9 1009 83 9000 10.29 210 15:32 20.02.2022
3683 Clouds 9 1009 80 10000 12.35 210 14:41 20.02.2022
3684 Clouds 9 1010 80 10000 1.34 257 13:23 20.02.2022
3685 Clouds 8 1011 84 10000 8.75 210 12:25 20.02.2022
3686 Rain 7 1012 90 10000 7.72 200 10:38 20.02.2022
3687 Clouds 7 1015 88 10000 7.2 200 10:19 20.02.2022
3688 Clouds 7 1012 81 10000 6.17 210 08:25 20.02.2022
3689 Clouds 7 1010 65 10000 9.26 220 00:54 20.02.2022
3690 Clouds 7 1010 65 10000 9.26 220 00:29 20.02.2022
3691 Rain 7 1011 61 10000 9.26 200 22:47 19.02.2022
3692 Rain 7 1011 60 10000 7.72 200 22:22 19.02.2022
3693 Clear 6 1015 61 10000 6.17 200 20:51 19.02.2022
3694 Clear 6 1016 56 10000 5.66 200 19:53 19.02.2022
3695 Clear 6 1016 60 10000 4.12 200 19:28 19.02.2022
3696 Clouds 7 1016 54 10000 6.17 220 18:33 19.02.2022
3697 Clouds 7 1016 54 10000 5.66 220 17:35 19.02.2022
3698 Clouds 8 1015 53 10000 6.17 240 16:28 19.02.2022
3699 Clouds 8 1015 54 10000 8.23 230 14:56 19.02.2022
3700 Clouds 8 1015 54 10000 8.23 230 14:37 19.02.2022
3701 Clouds 8 1018 52 10000 9.77 230 13:22 19.02.2022
3702 Clouds 7 1018 53 10000 9.77 250 11:37 19.02.2022
3703 Clouds 6 1014 61 10000 9.77 230 09:55 19.02.2022
3704 Clouds 5 1013 65 10000 6.69 220 06:54 19.02.2022
3705 Clouds 6 1010 57 10000 7.72 230 03:38 19.02.2022
3706 Clear 8 1007 47 10000 11.83 240 23:29 18.02.2022
3707 Clear 9 1004 51 10000 13.89 250 21:50 18.02.2022
3708 Clear 10 1002 56 10000 13.38 240 20:51 18.02.2022
3709 Clouds 10 999 57 10000 11.83 240 19:53 18.02.2022
3710 Clouds 10 1001 59 10000 10.8 240 18:50 18.02.2022
3711 Clouds 10 998 66 10000 14.4 250 18:22 18.02.2022
3712 Clouds 12 998 68 10000 11.83 210 17:50 18.02.2022
3713 Clouds 13 999 73 10000 9.77 210 14:54 18.02.2022
3714 Clouds 13 1000 78 10000 9.77 210 13:55 18.02.2022
3715 Clouds 12 1000 82 10000 8.75 200 12:53 18.02.2022
3716 Clouds 11 1001 83 10000 5.14 190 12:33 18.02.2022
3717 Clouds 10 1003 84 10000 5.66 180 11:27 18.02.2022
3718 Rain 8 1006 79 10000 4.63 180 10:23 18.02.2022
3719 Rain 7 1011 80 10000 2.57 180 06:57 18.02.2022
3720 Clear 7 1012 76 10000 3.6 190 05:40 18.02.2022
3721 Clouds 9 1011 59 10000 4.63 230 23:31 17.02.2022
3722 Clear 8 1013 62 10000 6.69 230 21:45 17.02.2022
3723 Clear 9 1013 56 10000 6.17 240 21:20 17.02.2022
3724 Clouds 9 1013 56 10000 7.2 250 20:38 17.02.2022
3725 Clouds 9 1012 59 10000 6.17 240 19:49 17.02.2022
3726 Clouds 10 1009 62 10000 6.17 240 18:44 17.02.2022
3727 Clouds 10 1010 61 10000 5.66 250 17:50 17.02.2022
3728 Clouds 10 1009 63 10000 6.69 250 16:29 17.02.2022
3729 Clouds 10 1006 67 10000 6.17 260 15:38 17.02.2022
3730 Rain 11 1006 64 10000 14.92 260 14:26 17.02.2022
3731 Clouds 12 1007 54 10000 12.35 260 12:38 17.02.2022
3732 Clouds 11 1006 54 10000 10.8 250 11:27 17.02.2022
3733 Clouds 10 1001 62 10000 11.83 250 08:53 17.02.2022
3734 Clouds 13 995 81 10000 12.35 220 02:26 17.02.2022
3735 Clouds 13 996 85 10000 10.29 210 23:21 16.02.2022
3736 Clouds 12 997 85 10000 9.77 210 21:44 16.02.2022
3737 Rain 12 998 86 10000 7.2 200 19:57 16.02.2022
3738 Clouds 11 999 88 10000 7.72 190 18:39 16.02.2022
3739 Clouds 11 999 88 6000 9.77 200 17:53 16.02.2022
3740 Clouds 11 999 83 10000 8.23 190 15:40 16.02.2022
3741 Clouds 10 999 82 10000 7.72 210 15:19 16.02.2022
3742 Clouds 9 1001 91 10000 5.66 190 13:28 16.02.2022
3743 Clouds 8 1001 92 10000 5.66 190 12:19 16.02.2022
3744 Clouds 8 1002 89 10000 7.2 190 11:28 16.02.2022
3745 Clouds 7 1002 92 10000 6.17 190 10:34 16.02.2022
3746 Clouds 6 1006 91 10000 5.14 180 08:20 16.02.2022
3747 Clouds 6 1005 88 10000 5.14 180 06:29 16.02.2022
3748 Clouds 6 1012 76 10000 5.66 190 23:45 15.02.2022
3749 Clouds 7 1013 66 10000 6.69 190 22:30 15.02.2022
3750 Clouds 6 1013 66 10000 6.69 190 21:47 15.02.2022
3751 Clouds 6 1013 65 10000 6.69 190 21:27 15.02.2022
3752 Clouds 6 1013 66 10000 6.17 190 20:56 15.02.2022
3753 Clouds 6 1014 63 10000 5.66 200 19:59 15.02.2022
3754 Clouds 6 1013 62 10000 5.14 200 19:21 15.02.2022
3755 Clouds 7 1013 60 10000 5.14 200 18:23 15.02.2022
3756 Clouds 8 1013 58 10000 3.6 210 17:50 15.02.2022
3757 Clouds 9 1011 57 10000 5.14 220 17:19 15.02.2022
3758 Clouds 10 1011 58 10000 6.69 230 15:32 15.02.2022
3759 Clouds 9 1014 71 10000 5.66 230 13:28 15.02.2022
3760 Clouds 9 1014 71 10000 7.2 250 12:53 15.02.2022
3761 Clouds 8 1013 81 10000 3.09 230 11:40 15.02.2022
3762 Clouds 6 1012 93 10000 3.09 190 09:47 15.02.2022
3763 Clouds 6 1010 88 10000 3.09 200 06:59 15.02.2022
3764 Clouds 6 1010 89 10000 3.6 200 05:32 15.02.2022
3765 Clouds 7 1006 88 10000 4.12 190 23:34 14.02.2022
3766 Clouds 7 1006 86 10000 3.6 180 21:55 14.02.2022
3767 Clouds 8 1007 79 10000 3.09 200 20:50 14.02.2022
3768 Clear 9 1007 75 10000 4.12 200 19:45 14.02.2022
3769 Clear 9 1007 74 10000 4.12 200 19:45 14.02.2022
3770 Rain 9 1007 74 10000 4.63 210 19:26 14.02.2022
3771 Rain 9 1006 75 10000 3.09 200 18:23 14.02.2022
3772 Clouds 10 1005 74 10000 3.6 190 17:27 14.02.2022
3773 Clouds 11 1005 73 10000 3.6 200 16:25 14.02.2022
3774 Clouds 11 1004 66 10000 5.14 190 14:39 14.02.2022
3775 Clouds 10 1005 63 10000 4.12 180 13:34 14.02.2022
3776 Clouds 10 1003 65 10000 4.12 180 12:56 14.02.2022
3777 Clouds 8 1005 64 10000 2.57 190 11:55 14.02.2022
3778 Clouds 8 1003 67 10000 3.09 180 11:18 14.02.2022
3779 Clouds 6 1002 75 10000 0.45 81 09:19 14.02.2022
3780 Clouds 5 1002 70 10000 3.35 183 07:33 14.02.2022
3781 Clouds 5 1002 70 10000 3.35 183 07:33 14.02.2022
3782 Clouds 4 1002 74 10000 3.42 184 06:54 14.02.2022
3783 Clear 4 1008 81 10000 0.51 0 22:44 13.02.2022
3784 Clear 4 1008 80 10000 0.51 0 22:26 13.02.2022
3785 Clear 5 1008 77 10000 2.06 320 21:48 13.02.2022
3786 Clear 5 1008 76 10000 0.51 110 20:42 13.02.2022
3787 Clear 6 1009 73 10000 1.54 120 19:57 13.02.2022
3788 Clear 7 1012 65 10000 2.57 150 18:57 13.02.2022
3789 Clear 7 1012 64 10000 2.57 150 18:38 13.02.2022
3790 Clear 10 1013 53 10000 4.12 170 16:40 13.02.2022
3791 Clear 10 1014 56 10000 4.12 180 15:51 13.02.2022
3792 Clear 9 1015 60 10000 3.09 170 14:38 13.02.2022
3793 Clear 7 1017 66 10000 2.06 210 13:27 13.02.2022
3794 Clear 7 1016 67 10000 2.06 230 12:40 13.02.2022
3795 Clear 3 1017 75 10000 2.57 200 10:43 13.02.2022
3796 Clear 2 1017 80 10000 1.54 210 10:23 13.02.2022
3797 Clouds 0 1016 84 10000 2.18 182 08:55 13.02.2022
3798 Clear 0 1021 85 10000 1.03 0 01:26 13.02.2022
3799 Clear 0 1021 84 10000 0.51 0 00:21 13.02.2022
3800 Clear 0 1024 88 10000 0.51 0 22:34 12.02.2022
3801 Clear 0 1024 90 10000 0.51 0 22:00 12.02.2022
3802 Clear 1 1025 87 10000 0.51 0 20:55 12.02.2022
3803 Clear 1 1025 85 10000 0.51 0 20:23 12.02.2022
3804 Clear 3 1026 79 10000 1.03 210 18:54 12.02.2022
3805 Clear 3 1026 64 10000 1.03 210 18:36 12.02.2022
3806 Clear 5 1026 57 10000 1.54 240 17:39 12.02.2022
3807 Clouds 6 1027 59 10000 0.51 0 16:46 12.02.2022
3808 Clouds 7 1027 58 10000 2.57 100 15:53 12.02.2022
3809 Clouds 7 1028 58 10000 1.54 0 15:21 12.02.2022
3810 Clouds 7 1029 58 10000 1.54 0 14:29 12.02.2022
3811 Clouds 4 1029 76 10000 2.57 70 11:34 12.02.2022
3812 Clouds 2 1030 82 10000 3.09 60 10:33 12.02.2022
3813 Clouds 1 1030 80 10000 2.57 40 09:38 12.02.2022
3814 Clouds 0 1030 89 10000 2.06 60 08:47 12.02.2022
3815 Clear -2 1032 93 10000 2.06 60 07:47 12.02.2022
3816 Clear -2 1033 94 10000 1.54 40 05:31 12.02.2022
3817 Clear -1 1034 93 10000 1.03 70 02:19 12.02.2022
3818 Clear 0 1034 91 10000 1.03 0 00:31 12.02.2022
3819 Clear 1 1034 85 10000 1.03 190 22:24 11.02.2022
3820 Clear 2 1035 77 10000 0.86 333 21:43 11.02.2022
3821 Clouds 2 1033 71 10000 3.6 260 20:37 11.02.2022
3822 Clouds 3 1033 69 10000 3.09 240 19:31 11.02.2022
3823 Clouds 3 1033 65 10000 2.57 230 18:47 11.02.2022
3824 Clouds 5 1032 51 10000 5.14 310 17:27 11.02.2022
3825 Clouds 6 1031 64 10000 2.57 250 16:58 11.02.2022
3826 Clouds 6 1030 61 10000 6.69 260 15:33 11.02.2022
3827 Clouds 7 1030 61 10000 6.69 260 14:38 11.02.2022
3828 Clouds 6 1030 58 10000 6.69 280 14:20 11.02.2022
3829 Clouds 7 1030 65 10000 8.23 280 13:50 11.02.2022
3830 Clouds 7 1029 60 10000 9.77 280 13:31 11.02.2022
3831 Clouds 5 1028 71 10000 4.63 240 11:27 11.02.2022
3832 Clouds 3 1026 78 10000 7.72 230 09:39 11.02.2022
3833 Clouds 2 1026 87 10000 5.14 210 08:39 11.02.2022
3834 Clouds 2 1025 87 10000 4.12 230 08:21 11.02.2022
3835 Clouds 2 1024 89 10000 3.09 240 06:33 11.02.2022
3836 Clouds 4 1021 87 10000 5.14 300 02:25 11.02.2022
3837 Rain 5 1020 92 9000 3.6 200 00:46 11.02.2022
3838 Rain 6 1021 84 10000 4.63 200 22:45 10.02.2022
3839 Clouds 6 1021 84 10000 4.63 200 21:44 10.02.2022
3840 Clouds 6 1021 83 10000 3.6 190 20:54 10.02.2022
3841 Clouds 6 1021 84 10000 4.63 190 20:29 10.02.2022
3842 Rain 7 1021 79 10000 4.63 190 19:25 10.02.2022
3843 Clouds 7 1021 76 10000 5.66 200 18:43 10.02.2022
3844 Clouds 8 1021 74 10000 7.2 210 17:26 10.02.2022
3845 Clouds 8 1021 74 10000 5.14 200 16:50 10.02.2022
3846 Clouds 8 1021 74 10000 4.12 190 15:47 10.02.2022
3847 Clouds 8 1019 77 10000 4.63 190 15:28 10.02.2022
3848 Clouds 8 1019 78 10000 4.12 190 14:47 10.02.2022
3849 Clouds 8 1022 78 10000 4.12 210 14:23 10.02.2022
3850 Clouds 7 1019 82 10000 4.63 220 13:26 10.02.2022
3851 Clouds 7 1019 79 10000 6.17 210 12:27 10.02.2022
3852 Clouds 6 1019 80 10000 1.34 0 11:33 10.02.2022
3853 Clouds 6 1019 79 10000 2.57 240 10:43 10.02.2022
3854 Clouds 5 1019 83 10000 2.57 250 09:50 10.02.2022
3855 Clouds 4 1019 85 10000 2.57 260 09:18 10.02.2022
3856 Clear 3 1019 89 10000 2.06 220 06:50 10.02.2022
3857 Clear 3 1020 89 10000 1.54 220 03:55 10.02.2022
3858 Clear 4 1023 87 10000 2.06 280 01:48 10.02.2022
3859 Clear 4 1021 86 10000 0.51 0 00:44 10.02.2022
3860 Clear 4 1024 88 10000 0.51 0 00:25 10.02.2022
3861 Clear 5 1022 87 10000 1.03 140 22:58 09.02.2022
3862 Clear 5 1022 87 10000 1.03 140 22:34 09.02.2022
3863 Clear 6 1022 83 10000 1.54 190 21:49 09.02.2022
3864 Clear 6 1022 83 10000 1.54 210 21:28 09.02.2022
3865 Clear 7 1023 77 10000 2.06 180 20:47 09.02.2022
3866 Clear 8 1023 76 10000 2.06 180 20:24 09.02.2022
3867 Clouds 8 1023 74 10000 4.12 180 19:44 09.02.2022
3868 Clouds 9 1025 70 10000 3.09 170 18:58 09.02.2022
3869 Clouds 11 1025 71 10000 3.09 180 17:32 09.02.2022
3870 Clouds 12 1025 69 10000 4.63 210 16:32 09.02.2022
3871 Clouds 12 1026 70 10000 3.6 210 15:33 09.02.2022
3872 Clouds 11 1027 73 10000 3.6 220 14:25 09.02.2022
3873 Clouds 10 1025 75 10000 5.66 210 12:27 09.02.2022
3874 Clouds 8 1028 80 10000 2.57 190 10:47 09.02.2022
3875 Clouds 8 1029 82 10000 3.09 190 09:59 09.02.2022
3876 Clouds 7 1029 84 10000 3.6 210 09:23 09.02.2022
3877 Clouds 7 1029 84 10000 3.09 210 08:58 09.02.2022
3878 Clouds 7 1029 86 10000 2.06 210 07:34 09.02.2022
3879 Clouds 7 1029 85 10000 4.12 190 05:30 09.02.2022
3880 Clouds 8 1029 82 10000 2.57 220 03:50 09.02.2022
3881 Clouds 7 1030 86 10000 1.54 210 00:23 09.02.2022
3882 Clouds 7 1030 86 10000 3.09 200 23:31 08.02.2022
3883 Clouds 7 1030 86 10000 3.6 200 22:46 08.02.2022
3884 Clouds 7 1030 86 10000 3.6 200 22:21 08.02.2022
3885 Clouds 7 1030 86 10000 3.6 200 22:21 08.02.2022
3886 Clouds 7 1030 86 10000 3.6 200 22:21 08.02.2022
3887 Clouds 7 1030 86 10000 3.09 200 21:38 08.02.2022
3888 Clouds 7 1030 86 10000 3.09 200 21:20 08.02.2022
3889 Clouds 7 1030 86 10000 3.09 200 20:42 08.02.2022
3890 Clouds 7 1030 86 10000 4.12 200 19:46 08.02.2022
3891 Clouds 7 1030 85 10000 4.12 200 18:35 08.02.2022
3892 Drizzle 7 1029 84 10000 5.66 210 17:38 08.02.2022
3893 Drizzle 7 1027 85 10000 5.14 190 16:22 08.02.2022
3894 Drizzle 8 1027 83 10000 4.63 200 15:29 08.02.2022
3895 Clouds 8 1027 79 10000 7.72 200 14:26 08.02.2022
3896 Clouds 7 1027 78 10000 6.69 210 12:41 08.02.2022
3897 Clouds 7 1028 78 10000 6.69 210 11:33 08.02.2022
3898 Clouds 6 1027 82 10000 6.17 210 10:18 08.02.2022
3899 Clouds 5 1030 81 10000 6.17 210 09:41 08.02.2022
3900 Clouds 4 1029 80 10000 4.12 200 07:46 08.02.2022
3901 Clouds 4 1027 75 10000 5.14 190 05:37 08.02.2022
3902 Clouds 4 1027 75 10000 6.69 200 04:39 08.02.2022
3903 Clouds 4 1027 75 10000 5.14 210 04:21 08.02.2022
3904 Clouds 4 1030 74 10000 4.12 200 03:36 08.02.2022
3905 Clouds 3 1030 75 10000 5.14 200 03:18 08.02.2022
3906 Clear 3 1030 73 10000 4.12 180 02:58 08.02.2022
3907 Clear 3 1030 74 10000 4.12 180 02:36 08.02.2022
3908 Clear 3 1030 74 10000 3.6 190 02:18 08.02.2022
3909 Clear 3 1030 73 10000 3.6 200 01:43 08.02.2022
3910 Clear 3 1030 72 10000 3.09 190 01:24 08.02.2022
3911 Clear 3 1030 72 10000 2.57 180 00:49 08.02.2022
3912 Clear 2 1030 76 10000 4.12 220 23:54 07.02.2022
3913 Clear 3 1030 74 10000 4.12 220 23:36 07.02.2022
3914 Clear 2 1029 77 10000 4.12 210 23:18 07.02.2022
3915 Clear 2 1029 79 10000 3.09 190 22:19 07.02.2022
3916 Clear 2 1029 77 10000 3.6 190 21:53 07.02.2022
3917 Clear 2 1028 76 10000 2.57 190 21:29 07.02.2022
3918 Clear 3 1028 75 10000 2.06 210 20:56 07.02.2022
3919 Clear 3 1028 74 10000 2.06 210 20:38 07.02.2022
3920 Clear 4 1028 66 10000 4.63 240 19:49 07.02.2022
3921 Clouds 4 1028 65 10000 4.12 230 19:31 07.02.2022
3922 Clouds 5 1027 59 10000 5.14 250 17:52 07.02.2022
3923 Clouds 7 1027 58 10000 6.17 250 16:52 07.02.2022
3924 Clouds 7 1024 58 10000 6.17 290 15:49 07.02.2022
3925 Clouds 7 1023 66 10000 9.26 280 14:55 07.02.2022
3926 Clouds 7 1022 66 10000 7.72 280 13:28 07.02.2022
3927 Clouds 6 1022 68 10000 0.89 77 12:42 07.02.2022
3928 Clouds 6 1021 65 10000 1.79 49 11:58 07.02.2022
3929 Clouds 6 1021 66 10000 2.68 150 11:35 07.02.2022
3930 Clouds 5 1019 70 10000 1.34 358 10:50 07.02.2022
3931 Clouds 5 1018 73 10000 2.68 147 10:30 07.02.2022
3932 Clouds 4 1020 74 10000 4.12 190 09:53 07.02.2022
3933 Clouds 4 1019 74 10000 4.12 200 09:18 07.02.2022
3934 Clouds 3 1018 75 10000 4.12 250 08:36 07.02.2022
3935 Clouds 3 1015 77 10000 6.69 290 06:54 07.02.2022
3936 Clouds 3 1015 77 10000 6.69 290 06:33 07.02.2022
3937 Clouds 4 1005 76 10000 3.13 118 02:58 07.02.2022
3938 Clouds 4 1004 89 10000 6.69 260 00:44 07.02.2022
3939 Clouds 4 1003 90 10000 4.63 250 23:47 06.02.2022
3940 Rain 4 1001 91 10000 1.34 63 22:48 06.02.2022
3941 Rain 5 1001 91 10000 3.58 165 21:54 06.02.2022
3942 Clouds 6 1000 95 10000 0.89 139 21:35 06.02.2022
3943 Rain 6 1000 93 10000 1.34 54 20:54 06.02.2022
3944 Rain 6 1000 93 10000 1.34 115 20:31 06.02.2022
3945 Rain 6 1001 91 10000 4.12 230 19:38 06.02.2022
3946 Rain 6 1002 93 10000 3.09 250 18:40 06.02.2022
3947 Rain 6 1002 91 10000 0.45 4 17:56 06.02.2022
3948 Rain 6 1002 88 9000 3.58 350 17:19 06.02.2022
3949 Rain 6 1002 82 10000 1.34 90 16:38 06.02.2022
3950 Rain 6 1001 80 10000 2.68 15 15:49 06.02.2022
3951 Clouds 6 1002 80 10000 2.24 52 15:26 06.02.2022
3952 Rain 6 1003 83 10000 4.47 358 14:36 06.02.2022
3953 Rain 6 1005 84 10000 0.89 330 13:26 06.02.2022
3954 Rain 6 1006 78 10000 0.89 343 12:52 06.02.2022
3955 Rain 6 1008 76 10000 12.86 210 11:35 06.02.2022
3956 Rain 6 1009 76 10000 2.24 9 10:31 06.02.2022
3957 Rain 6 1010 73 10000 1.34 355 08:59 06.02.2022
3958 Clouds 6 1010 74 10000 1.79 357 08:30 06.02.2022
3959 Clouds 6 1013 74 10000 1.79 25 05:31 06.02.2022
3960 Rain 5 1015 75 10000 1.79 9 02:50 06.02.2022
3961 Rain 5 1016 73 10000 0.45 0 02:24 06.02.2022
3962 Clouds 5 1017 73 10000 6.69 200 00:29 06.02.2022
3963 Clouds 4 1021 74 10000 5.14 200 22:36 05.02.2022
3964 Clouds 3 1019 76 10000 0.89 333 21:32 05.02.2022
3965 Clouds 4 1022 71 10000 5.14 210 20:25 05.02.2022
3966 Clouds 4 1023 68 10000 5.66 220 19:48 05.02.2022
3967 Clouds 4 1022 66 10000 6.69 220 18:59 05.02.2022
3968 Clouds 5 1022 64 10000 6.69 220 17:45 05.02.2022
3969 Clouds 5 1022 64 10000 7.2 220 17:25 05.02.2022
3970 Clouds 7 1020 66 10000 2.24 81 15:42 05.02.2022
3971 Clouds 7 1022 65 10000 6.17 260 15:21 05.02.2022
3972 Clouds 6 1023 68 10000 5.14 210 12:54 05.02.2022
3973 Clouds 6 1023 71 10000 5.66 240 12:31 05.02.2022
3974 Clouds 4 1021 76 10000 2.24 347 10:52 05.02.2022
3975 Clouds 4 1021 83 10000 1.34 26 10:22 05.02.2022
3976 Clouds 2 1020 87 10000 3.6 200 09:44 05.02.2022
3977 Clouds 1 1019 88 10000 0.45 188 07:54 05.02.2022
3978 Clouds 1 1021 86 10000 4.12 210 06:57 05.02.2022
3979 Clouds 2 1020 80 10000 5.14 190 04:30 05.02.2022
3980 Clouds 3 1018 74 10000 4.63 220 01:19 05.02.2022
3981 Clouds 3 1017 73 10000 5.14 220 00:53 05.02.2022
3982 Clouds 3 1016 70 10000 3.09 260 23:58 04.02.2022
3983 Clouds 4 1016 70 10000 5.66 280 23:30 04.02.2022
3984 Clouds 5 1011 74 10000 1.34 144 21:59 04.02.2022
3985 Clouds 6 1010 76 10000 3.58 146 21:36 04.02.2022
3986 Clouds 6 1010 76 10000 2.24 47 21:18 04.02.2022
3987 Rain 7 1008 83 10000 2.24 125 20:20 04.02.2022
3988 Clouds 7 1007 76 10000 0.89 12 17:44 04.02.2022
3989 Clouds 8 1008 73 10000 1.34 12 15:55 04.02.2022
3990 Clouds 8 1008 73 10000 1.34 12 15:55 04.02.2022
3991 Clouds 8 1008 74 10000 4.92 324 14:55 04.02.2022
3992 Clouds 8 1010 80 10000 0.45 355 13:39 04.02.2022
3993 Clouds 7 1011 83 10000 0.45 338 12:43 04.02.2022
3994 Clouds 7 1011 84 10000 1.34 19 11:42 04.02.2022
3995 Clouds 7 1011 84 10000 1.34 19 11:42 04.02.2022
3996 Drizzle 7 1014 84 10000 5.14 200 10:37 04.02.2022
3997 Clouds 6 1015 87 10000 4.12 190 08:48 04.02.2022
3998 Drizzle 6 1015 83 10000 4.12 200 06:57 04.02.2022
3999 Clouds 6 1015 79 10000 4.12 240 02:48 04.02.2022
4000 Clouds 6 1015 80 10000 4.63 220 01:56 04.02.2022
4001 Clouds 7 1014 78 10000 3.6 220 23:31 03.02.2022
4002 Clouds 7 1014 78 10000 2.57 250 22:46 03.02.2022
4003 Clouds 7 1014 81 10000 3.09 250 21:49 03.02.2022
4004 Clouds 7 1014 81 10000 3.09 250 21:49 03.02.2022
4005 Clouds 7 1015 81 10000 3.09 230 20:41 03.02.2022
4006 Clouds 7 1014 80 10000 3.6 230 20:20 03.02.2022
4007 Clouds 7 1014 78 10000 3.6 220 19:32 03.02.2022
4008 Rain 7 1014 74 10000 4.12 220 18:44 03.02.2022
4009 Clouds 8 1012 74 10000 0.89 355 17:42 03.02.2022
4010 Clouds 9 1013 75 10000 1.34 21 16:35 03.02.2022
4011 Clouds 9 1013 77 10000 0.45 299 14:54 03.02.2022
4012 Clouds 9 1014 81 10000 1.34 25 13:18 03.02.2022
4013 Clouds 8 1016 89 10000 4.12 180 11:43 03.02.2022
4014 Clouds 7 1018 94 10000 2.57 190 08:38 03.02.2022
4015 Mist 6 1019 97 2000 2.06 220 05:26 03.02.2022
4016 Clouds 5 1021 90 10000 0.51 0 00:32 03.02.2022
4017 Clouds 4 1023 94 10000 0.51 0 23:45 02.02.2022
4018 Clouds 4 1021 88 10000 1.03 0 22:35 02.02.2022
4019 Clouds 4 1023 93 10000 1.03 0 21:37 02.02.2022
4020 Clouds 4 1023 92 10000 0.51 0 21:37 02.02.2022
4021 Clouds 4 1022 92 10000 1.03 0 20:53 02.02.2022
4022 Clouds 5 1022 89 10000 1.03 0 19:59 02.02.2022
4023 Clouds 5 1022 85 10000 1.03 0 19:41 02.02.2022
4024 Clouds 6 1022 83 10000 1.54 220 18:53 02.02.2022
4025 Clouds 6 1021 78 10000 2.06 0 18:22 02.02.2022
4026 Clouds 8 1021 73 10000 1.03 0 17:20 02.02.2022
4027 Clouds 8 1021 73 10000 1.03 0 17:20 02.02.2022
4028 Clouds 8 1018 76 10000 1.54 280 16:46 02.02.2022
4029 Clouds 9 1017 59 10000 0.45 108 13:57 02.02.2022
4030 Clouds 9 1016 61 10000 0.45 28 12:26 02.02.2022
4031 Clouds 9 1016 67 10000 4.12 320 11:37 02.02.2022
4032 Clouds 8 1016 72 10000 4.63 320 10:38 02.02.2022
4033 Clouds 7 1013 70 10000 0.89 19 07:42 02.02.2022
4034 Clouds 8 1013 78 10000 6.17 220 00:34 02.02.2022
4035 Drizzle 7 1012 87 10000 5.66 210 21:55 01.02.2022
4036 Clouds 7 1009 89 10000 1.79 126 20:49 01.02.2022
4037 Clouds 5 1009 87 10000 6.69 200 18:35 01.02.2022
4038 Clouds 4 1013 89 5000 9.77 210 16:43 01.02.2022
4039 Clouds 4 1011 89 5000 0.89 43 15:30 01.02.2022
4040 Clouds 4 1015 78 10000 0.89 21 12:49 01.02.2022
4041 Clouds 4 1019 72 10000 8.23 220 11:48 01.02.2022
4042 Clouds 3 1020 71 10000 4.12 230 08:34 01.02.2022
4043 Clouds 5 1016 72 10000 4.12 310 23:54 31.01.2022
4044 Clouds 5 1016 72 10000 4.12 310 23:54 31.01.2022
4045 Clouds 5 1016 72 10000 4.12 310 23:36 31.01.2022
4046 Clouds 5 1016 72 10000 4.12 310 23:36 31.01.2022
4047 Clouds 5 1014 77 10000 5.66 300 22:27 31.01.2022
4048 Clouds 5 1013 76 10000 6.17 280 21:34 31.01.2022
4049 Clouds 5 1012 75 10000 8.23 280 20:34 31.01.2022
4050 Clouds 5 1012 75 10000 7.72 270 19:46 31.01.2022
4051 Clouds 5 1011 75 10000 8.23 260 18:31 31.01.2022
4052 Clouds 5 1011 75 10000 8.23 260 18:31 31.01.2022
4053 Clouds 5 1010 72 10000 8.23 260 17:55 31.01.2022
4054 Clouds 5 1010 73 10000 5.66 270 16:58 31.01.2022
4055 Clouds 5 1009 77 10000 5.66 260 15:46 31.01.2022
4056 Clouds 5 1005 77 10000 1.34 88 14:27 31.01.2022
4057 Rain 5 1007 78 10000 10.8 250 12:57 31.01.2022
4058 Rain 5 1007 76 10000 9.77 250 12:36 31.01.2022
4059 Rain 5 1008 81 10000 6.69 230 10:58 31.01.2022
4060 Rain 5 1008 81 10000 6.69 230 10:37 31.01.2022
4061 Clouds 4 1009 86 10000 6.69 240 09:36 31.01.2022
4062 Clouds 3 1009 90 10000 6.17 220 08:54 31.01.2022
4063 Clouds 3 1009 91 10000 7.72 230 08:20 31.01.2022
4064 Clouds 3 1009 91 10000 8.75 220 07:29 31.01.2022
4065 Clouds 3 1009 77 10000 5.66 190 05:24 31.01.2022
4066 Clear 2 1023 80 10000 2.06 210 23:37 30.01.2022
4067 Clouds 2 1025 78 10000 2.57 230 22:31 30.01.2022
4068 Clouds 2 1025 71 10000 2.57 220 21:45 30.01.2022
4069 Clouds 2 1026 67 10000 2.57 210 21:24 30.01.2022
4070 Clouds 2 1026 68 10000 2.57 190 20:51 30.01.2022
4071 Clouds 3 1026 66 10000 2.57 200 20:31 30.01.2022
4072 Clouds 4 1027 60 10000 2.57 230 19:55 30.01.2022
4073 Clouds 5 1027 64 10000 3.6 240 18:51 30.01.2022
4074 Clouds 5 1027 54 10000 3.09 260 18:22 30.01.2022
4075 Clouds 6 1027 54 10000 5.14 310 17:31 30.01.2022
4076 Clouds 7 1027 60 10000 5.66 290 16:42 30.01.2022
4077 Clouds 7 1028 52 10000 5.66 280 16:23 30.01.2022
4078 Clouds 7 1028 50 10000 6.69 280 15:54 30.01.2022
4079 Clouds 7 1028 51 10000 6.69 280 15:33 30.01.2022
4080 Clouds 7 1028 52 10000 5.66 280 14:47 30.01.2022
4081 Clouds 7 1029 54 10000 6.69 290 13:47 30.01.2022
4082 Clouds 7 1029 55 10000 7.2 280 12:46 30.01.2022
4083 Clouds 7 1028 65 10000 9.26 270 10:47 30.01.2022
4084 Clouds 6 1028 61 10000 5.66 270 10:25 30.01.2022
4085 Clouds 6 1028 70 10000 3.6 320 09:22 30.01.2022
4086 Clouds 6 1027 64 10000 6.69 260 07:59 30.01.2022
4087 Clouds 8 1025 67 10000 5.66 270 02:44 30.01.2022
4088 Clouds 8 1022 70 10000 0.89 52 01:54 30.01.2022
4089 Clouds 8 1024 90 10000 2.57 0 23:49 29.01.2022
4090 Rain 8 1021 91 10000 6.69 190 22:57 29.01.2022
4091 Clouds 7 1021 93 10000 8.23 190 21:35 29.01.2022
4092 Clouds 7 1021 94 10000 2.68 12 20:57 29.01.2022
4093 Drizzle 7 1021 92 4600 0.45 127 19:52 29.01.2022
4094 Drizzle 7 1021 92 4800 1.34 7 19:31 29.01.2022
4095 Clouds 8 1021 82 10000 1.79 32 18:44 29.01.2022
4096 Clouds 7 1021 82 10000 3.13 21 17:55 29.01.2022
4097 Clouds 7 1021 83 10000 0.89 54 16:59 29.01.2022
4098 Clouds 6 1022 85 10000 4.92 8 15:27 29.01.2022
4099 Drizzle 6 1023 86 10000 1.34 49 13:48 29.01.2022
4100 Clouds 5 1027 86 10000 9.26 210 13:28 29.01.2022
4101 Clouds 5 1027 83 10000 7.72 210 12:59 29.01.2022
4102 Clouds 5 1025 84 10000 1.79 358 11:39 29.01.2022
4103 Clouds 5 1028 84 10000 7.72 220 10:33 29.01.2022
4104 Drizzle 4 1028 89 10000 6.69 210 08:20 29.01.2022
4105 Clouds 4 1032 84 10000 4.63 210 02:48 29.01.2022
4106 Clouds 4 1033 86 10000 4.12 210 00:32 29.01.2022
4107 Clouds 4 1033 86 10000 3.6 190 23:32 28.01.2022
4108 Clouds 4 1033 86 10000 3.6 190 23:32 28.01.2022
4109 Clouds 4 1034 82 10000 3.09 200 22:47 28.01.2022
4110 Clouds 4 1034 81 10000 3.6 210 22:19 28.01.2022
4111 Clear 4 1034 75 10000 3.6 220 20:41 28.01.2022
4112 Clear 4 1034 75 10000 2.06 190 19:58 28.01.2022
4113 Clear 4 1034 73 10000 1.54 190 19:18 28.01.2022
4114 Clouds 4 1034 71 10000 2.06 210 18:35 28.01.2022
4115 Clouds 6 1033 63 10000 3.6 320 16:37 28.01.2022
4116 Clouds 7 1034 55 10000 3.6 310 14:58 28.01.2022
4117 Clouds 7 1034 66 10000 6.69 290 13:21 28.01.2022
4118 Clouds 6 1034 70 10000 4.63 270 11:52 28.01.2022
4119 Clouds 5 1033 77 10000 4.63 280 10:27 28.01.2022
4120 Clouds 4 1033 77 10000 3.6 270 09:47 28.01.2022
4121 Clouds 4 1031 80 10000 5.14 270 07:43 28.01.2022
4122 Clouds 4 1030 84 10000 4.63 250 06:30 28.01.2022
4123 Clouds 4 1029 93 10000 2.57 210 03:51 28.01.2022
4124 Clouds 4 1028 90 10000 4.12 200 02:28 28.01.2022
4125 Clouds 4 1027 89 10000 4.63 210 01:57 28.01.2022
4126 Clouds 4 1027 90 10000 5.66 210 01:29 28.01.2022
4127 Clouds 4 1026 89 10000 5.66 210 22:39 27.01.2022
4128 Clouds 4 1023 86 10000 1.34 355 21:41 27.01.2022
4129 Rain 4 1025 85 10000 7.72 220 21:21 27.01.2022
4130 Clouds 3 1025 87 10000 8.75 210 19:47 27.01.2022
4131 Clouds 3 1025 91 10000 4.63 180 18:22 27.01.2022
4132 Clouds 3 1022 90 10000 1.34 358 17:18 27.01.2022
4133 Drizzle 3 1023 89 7000 6.69 200 14:24 27.01.2022
4134 Clouds 2 1023 85 10000 1.79 358 12:53 27.01.2022
4135 Clouds 2 1024 89 10000 5.66 190 12:18 27.01.2022
4136 Drizzle 1 1027 89 10000 5.14 190 09:51 27.01.2022
4137 Clouds 1 1028 85 10000 5.14 190 08:40 27.01.2022
4138 Clouds 1 1029 84 10000 4.63 220 07:58 27.01.2022
4139 Clouds 1 1029 84 10000 4.12 200 03:34 27.01.2022
4140 Clouds 1 1031 83 10000 4.63 210 00:25 27.01.2022
4141 Clouds 1 1031 85 10000 4.12 220 22:31 26.01.2022
4142 Clouds 1 1031 87 10000 4.12 210 21:44 26.01.2022
4143 Clouds 2 1032 84 10000 4.12 220 20:57 26.01.2022
4144 Clouds 2 1032 85 10000 4.12 220 20:33 26.01.2022
4145 Clouds 2 1032 85 10000 3.6 210 19:49 26.01.2022
4146 Clouds 2 1032 85 10000 3.09 220 18:52 26.01.2022
4147 Clouds 2 1032 85 10000 3.09 220 18:52 26.01.2022
4148 Clouds 2 1032 86 10000 3.09 200 18:24 26.01.2022
4149 Clouds 2 1032 85 10000 2.06 210 17:39 26.01.2022
4150 Clouds 2 1031 86 10000 2.57 220 17:19 26.01.2022
4151 Clouds 2 1032 86 10000 3.09 260 16:25 26.01.2022
4152 Clouds 2 1032 86 10000 2.57 200 15:23 26.01.2022
4153 Clouds 2 1032 91 10000 4.12 210 12:44 26.01.2022
4154 Drizzle 1 1032 95 10000 3.6 210 10:56 26.01.2022
4155 Clouds 1 1032 95 6000 3.09 180 09:58 26.01.2022
4156 Clouds 1 1032 95 6000 3.09 180 09:39 26.01.2022
4157 Drizzle 1 1031 99 5000 3.09 190 07:28 26.01.2022
4158 Drizzle 1 1032 95 2800 2.06 200 00:42 26.01.2022
4159 Drizzle 1 1032 98 2600 2.06 200 23:43 25.01.2022
4160 Mist 2 1033 97 4500 1.54 180 22:50 25.01.2022
4161 Clouds 2 1033 94 6000 2.06 180 22:20 25.01.2022
4162 Clouds 2 1033 94 7000 1.54 180 21:35 25.01.2022
4163 Clouds 2 1033 94 6000 1.54 150 20:46 25.01.2022
4164 Clouds 2 1033 94 6000 2.06 180 19:59 25.01.2022
4165 Clouds 2 1033 94 6000 2.06 180 19:34 25.01.2022
4166 Clouds 2 1033 94 6000 1.54 200 18:20 25.01.2022
4167 Mist 2 1033 94 5000 1.54 200 17:40 25.01.2022
4168 Mist 2 1033 94 5000 1.03 0 16:35 25.01.2022
4169 Mist 2 1033 91 5000 1.54 190 15:43 25.01.2022
4170 Mist 3 1030 87 5000 0.45 14 15:25 25.01.2022
4171 Clouds 3 1030 87 8000 1.54 180 14:57 25.01.2022
4172 Clear 3 1033 90 10000 0.64 224 13:18 25.01.2022
4173 Fog 1 1033 94 9000 0.51 0 10:00 25.01.2022
4174 Fog -1 1033 94 6000 1.03 0 08:32 25.01.2022
4175 Fog -1 1033 95 8000 1.54 80 07:28 25.01.2022
4176 Clouds 0 1033 99 10000 1.54 70 05:55 25.01.2022
4177 Clouds 0 1033 94 10000 3.09 70 01:34 25.01.2022
4178 Clouds 2 1034 89 10000 3.09 50 23:36 24.01.2022
4179 Clouds 2 1034 89 10000 3.09 50 23:18 24.01.2022
4180 Clouds 2 1034 89 10000 3.09 60 22:59 24.01.2022
4181 Clouds 2 1034 88 10000 3.09 60 22:41 24.01.2022
4182 Clouds 2 1034 83 10000 2.57 70 21:45 24.01.2022
4183 Clouds 3 1034 83 10000 2.57 70 21:27 24.01.2022
4184 Clouds 3 1034 79 10000 2.06 80 20:29 24.01.2022
4185 Clouds 4 1033 77 10000 3.09 70 19:39 24.01.2022
4186 Clouds 4 1033 76 10000 3.09 80 18:55 24.01.2022
4187 Clouds 5 1033 75 10000 3.09 60 17:44 24.01.2022
4188 Clouds 5 1033 74 10000 3.6 70 17:23 24.01.2022
4189 Clouds 5 1033 72 10000 2.57 130 16:32 24.01.2022
4190 Clouds 6 1033 70 10000 3.6 80 15:52 24.01.2022
4191 Clouds 6 1034 70 10000 3.6 120 14:27 24.01.2022
4192 Clouds 5 1035 70 10000 2.57 120 12:36 24.01.2022
4193 Clouds 5 1035 70 10000 3.09 110 11:53 24.01.2022
4194 Clouds 5 1035 72 10000 3.09 120 10:25 24.01.2022
4195 Clouds 5 1035 73 10000 3.09 80 09:47 24.01.2022
4196 Clouds 4 1034 77 10000 3.6 80 08:19 24.01.2022
4197 Clouds 4 1035 74 10000 2.57 100 02:51 24.01.2022
4198 Clouds 4 1035 75 10000 2.57 60 01:29 24.01.2022
4199 Clouds 4 1035 74 10000 3.09 60 00:34 24.01.2022
4200 Clouds 5 1035 72 10000 3.6 90 23:47 23.01.2022
4201 Clouds 5 1035 71 10000 3.6 70 22:21 23.01.2022
4202 Clouds 5 1035 72 10000 3.09 70 21:44 23.01.2022
4203 Clouds 5 1035 73 10000 3.6 60 21:24 23.01.2022
4204 Clouds 5 1035 71 10000 3.6 60 20:30 23.01.2022
4205 Clouds 6 1035 68 10000 2.06 70 19:21 23.01.2022
4206 Clouds 6 1035 69 10000 3.09 70 18:44 23.01.2022
4207 Clouds 6 1035 71 10000 2.57 80 17:28 23.01.2022
4208 Clouds 6 1035 75 10000 2.06 40 16:38 23.01.2022
4209 Clouds 7 1035 72 10000 1.03 0 14:59 23.01.2022
4210 Clouds 7 1035 71 10000 0.51 0 14:21 23.01.2022
4211 Clouds 6 1036 78 10000 1.03 0 12:51 23.01.2022
4212 Clouds 6 1036 83 10000 1.03 0 12:22 23.01.2022
4213 Clouds 6 1036 84 10000 0.51 0 11:51 23.01.2022
4214 Clouds 6 1036 86 10000 1.54 160 11:18 23.01.2022
4215 Clouds 5 1036 89 10000 1.54 0 10:27 23.01.2022
4216 Clouds 5 1035 87 10000 0.51 0 09:51 23.01.2022
4217 Clouds 5 1035 88 10000 2.57 310 08:52 23.01.2022
4218 Clouds 5 1034 89 10000 3.09 300 05:56 23.01.2022
4219 Clouds 5 1034 89 10000 2.57 260 01:52 23.01.2022
4220 Clouds 5 1034 89 10000 2.57 250 01:26 23.01.2022
4221 Clouds 5 1034 89 10000 2.57 250 00:23 23.01.2022
4222 Clouds 5 1034 90 10000 2.06 240 23:44 22.01.2022
4223 Clouds 5 1034 90 10000 2.57 240 22:46 22.01.2022
4224 Clouds 6 1034 84 10000 2.57 260 21:36 22.01.2022
4225 Clouds 6 1034 84 10000 2.06 250 19:51 22.01.2022
4226 Drizzle 6 1034 84 10000 3.09 290 18:49 22.01.2022
4227 Clouds 6 1034 80 10000 3.09 300 18:18 22.01.2022
4228 Clouds 6 1033 78 10000 4.12 290 17:40 22.01.2022
4229 Clouds 6 1033 77 10000 2.06 240 16:56 22.01.2022
4230 Clouds 6 1033 77 10000 2.57 250 15:53 22.01.2022
4231 Clouds 6 1033 80 10000 3.6 270 15:26 22.01.2022
4232 Clouds 6 1033 81 10000 5.66 300 13:46 22.01.2022
4233 Clouds 6 1033 82 10000 3.6 270 12:52 22.01.2022
4234 Clouds 6 1033 82 10000 4.63 270 12:29 22.01.2022
4235 Clouds 5 1033 83 10000 5.14 280 11:44 22.01.2022
4236 Clouds 5 1032 84 10000 2.57 220 10:29 22.01.2022
4237 Clouds 5 1032 84 10000 3.09 260 09:59 22.01.2022
4238 Clouds 5 1032 82 10000 3.6 260 08:53 22.01.2022
4239 Clouds 5 1031 80 10000 4.12 250 07:39 22.01.2022
4240 Clouds 4 1031 77 10000 4.63 230 04:53 22.01.2022
4241 Clouds 5 1031 82 10000 4.63 240 01:49 22.01.2022
4242 Clouds 4 1032 85 10000 3.6 230 23:46 21.01.2022
4243 Clouds 4 1032 86 10000 5.14 240 22:41 21.01.2022
4244 Clouds 4 1032 84 10000 3.6 200 20:32 21.01.2022
4245 Clouds 4 1032 79 10000 4.12 230 18:41 21.01.2022
4246 Clouds 4 1032 76 10000 3.6 250 17:45 21.01.2022
4247 Clouds 4 1032 71 10000 5.66 290 15:47 21.01.2022
4248 Clouds 4 1032 72 10000 5.66 280 13:55 21.01.2022
4249 Clouds 4 1028 73 10000 0.89 132 12:40 21.01.2022
4250 Clouds 3 1033 74 10000 4.63 250 11:29 21.01.2022
4251 Clouds 2 1033 78 10000 4.12 250 10:22 21.01.2022
4252 Clouds 1 1032 82 10000 1.54 220 08:25 21.01.2022
4253 Clouds 1 1032 81 10000 0.51 0 07:26 21.01.2022
4254 Clouds 2 1030 78 10000 4.12 300 00:59 21.01.2022
4255 Clouds 2 1029 80 10000 4.12 260 22:46 20.01.2022
4256 Clouds 2 1028 73 10000 5.14 280 21:48 20.01.2022
4257 Clouds 2 1028 73 10000 5.14 280 20:57 20.01.2022
4258 Clouds 2 1028 74 10000 5.14 290 19:40 20.01.2022
4259 Clouds 2 1028 73 10000 5.14 300 19:18 20.01.2022
4260 Clouds 3 1026 68 10000 4.12 270 17:32 20.01.2022
4261 Clouds 3 1026 75 10000 5.66 290 15:46 20.01.2022
4262 Clouds 3 1026 78 10000 2.57 230 15:26 20.01.2022
4263 Clouds 5 1024 64 10000 2.68 143 13:54 20.01.2022
4264 Clouds 5 1026 71 10000 6.69 280 12:44 20.01.2022
4265 Clouds 5 1024 65 10000 1.34 116 12:26 20.01.2022
4266 Clouds 4 1025 81 10000 5.14 300 10:58 20.01.2022
4267 Snow 4 1024 91 10000 4.12 260 09:43 20.01.2022
4268 Clouds 3 1024 92 10000 4.63 250 08:36 20.01.2022
4269 Clouds 3 1023 92 10000 4.12 210 06:19 20.01.2022
4270 Clouds 4 1022 93 10000 5.66 220 23:56 19.01.2022
4271 Clouds 3 1022 92 10000 6.17 220 22:37 19.01.2022
4272 Clouds 3 1022 92 10000 5.66 220 21:26 19.01.2022
4273 Clouds 3 1022 94 10000 6.17 200 20:55 19.01.2022
4274 Clouds 3 1022 94 10000 6.17 200 20:55 19.01.2022
4275 Clouds 3 1023 94 10000 4.63 210 20:30 19.01.2022
4276 Clouds 3 1023 96 8000 5.14 220 18:49 19.01.2022
4277 Drizzle 3 1023 97 4500 4.63 210 17:50 19.01.2022
4278 Drizzle 3 1023 97 4500 5.14 220 17:18 19.01.2022
4279 Drizzle 3 1023 97 4500 5.14 220 17:18 19.01.2022
4280 Drizzle 3 1023 97 4500 5.14 220 17:18 19.01.2022
4281 Drizzle 3 1021 87 8000 5.66 210 15:31 19.01.2022
4282 Drizzle 4 1022 81 10000 0.45 270 13:20 19.01.2022
4283 Clouds 4 1026 77 10000 3.6 200 11:58 19.01.2022
4284 Clouds 4 1026 76 10000 3.6 200 11:38 19.01.2022
4285 Clear 2 1028 89 10000 2.34 192 09:35 19.01.2022
4286 Clouds 1 1028 90 10000 1.03 0 08:33 19.01.2022
4287 Clouds 4 1030 78 10000 2.57 110 05:19 19.01.2022
4288 Clouds 5 1034 74 10000 3.09 90 00:21 19.01.2022
4289 Clouds 5 1035 73 10000 3.6 80 23:18 18.01.2022
4290 Clouds 5 1035 73 10000 3.6 80 23:18 18.01.2022
4291 Clouds 6 1036 77 10000 2.57 90 21:44 18.01.2022
4292 Clouds 6 1036 75 10000 2.57 140 20:34 18.01.2022
4293 Clouds 6 1037 74 10000 1.54 80 19:49 18.01.2022
4294 Clouds 6 1037 75 10000 2.57 70 19:31 18.01.2022
4295 Clouds 6 1037 75 10000 3.6 70 18:19 18.01.2022
4296 Clouds 7 1037 75 10000 1.03 170 17:32 18.01.2022
4297 Clouds 7 1037 76 10000 1.54 180 16:20 18.01.2022
4298 Clouds 7 1037 76 10000 1.54 130 15:25 18.01.2022
4299 Clouds 7 1037 77 10000 2.06 0 14:22 18.01.2022
4300 Clouds 7 1038 87 10000 1.54 200 11:37 18.01.2022
4301 Clouds 6 1038 92 10000 0.51 0 10:30 18.01.2022
4302 Clouds 5 1038 93 10000 1.54 200 08:29 18.01.2022
4303 Clouds 5 1037 92 10000 1.03 190 07:44 18.01.2022
4304 Clouds 6 1035 89 10000 1.03 230 00:42 18.01.2022
4305 Clouds 6 1035 91 10000 2.06 230 22:46 17.01.2022
4306 Clouds 6 1035 91 10000 4.63 230 21:44 17.01.2022
4307 Clouds 6 1035 91 10000 4.63 210 21:24 17.01.2022
4308 Clouds 6 1033 85 10000 3.09 230 18:51 17.01.2022
4309 Clouds 6 1033 85 10000 3.6 230 18:26 17.01.2022
4310 Clouds 6 1033 83 10000 4.63 240 17:22 17.01.2022
4311 Clouds 6 1032 77 10000 5.14 240 15:58 17.01.2022
4312 Clouds 6 1032 77 10000 5.66 240 14:58 17.01.2022
4313 Clouds 6 1032 76 10000 6.69 240 14:31 17.01.2022
4314 Clouds 6 1029 79 10000 1.34 26 13:18 17.01.2022
4315 Clouds 6 1030 80 10000 1.79 77 12:22 17.01.2022
4316 Clouds 5 1032 86 10000 6.17 220 10:53 17.01.2022
4317 Clouds 4 1032 87 10000 6.17 210 09:53 17.01.2022
4318 Clouds 3 1032 90 10000 6.17 210 08:44 17.01.2022
4319 Clouds 3 1031 90 10000 4.63 220 07:20 17.01.2022
4320 Clouds 3 1031 86 10000 5.66 220 00:59 17.01.2022
4321 Clouds 3 1030 87 10000 5.14 200 23:44 16.01.2022
4322 Clouds 3 1029 88 10000 5.66 220 21:21 16.01.2022
4323 Clouds 3 1029 92 10000 5.66 220 20:18 16.01.2022
4324 Clouds 2 1029 93 10000 3.6 210 18:46 16.01.2022
4325 Drizzle 3 1028 89 10000 5.14 220 17:50 16.01.2022
4326 Clouds 3 1027 86 10000 6.69 220 16:54 16.01.2022
4327 Clouds 3 1027 84 10000 7.2 220 15:40 16.01.2022
4328 Clouds 3 1026 87 10000 4.63 200 14:29 16.01.2022
4329 Clouds 2 1026 89 10000 5.66 210 13:23 16.01.2022
4330 Clouds 2 1026 89 9000 6.17 210 12:21 16.01.2022
4331 Clouds 2 1026 93 8000 4.63 210 11:27 16.01.2022
4332 Clouds 2 1026 91 6000 4.63 220 10:27 16.01.2022
4333 Clouds 1 1025 90 10000 4.12 220 09:57 16.01.2022
4334 Clouds 1 1025 90 10000 4.12 220 09:37 16.01.2022
4335 Clouds 1 1025 90 10000 3.6 220 09:19 16.01.2022
4336 Clouds 1 1024 94 9000 4.63 230 06:35 16.01.2022
4337 Clouds 2 1026 95 10000 1.54 170 00:19 16.01.2022
4338 Clouds 2 1025 95 10000 3.09 90 22:50 15.01.2022
4339 Clouds 2 1025 95 10000 2.06 90 21:21 15.01.2022
4340 Clouds 2 1027 95 10000 2.06 120 20:44 15.01.2022
4341 Clouds 2 1027 95 10000 1.54 120 20:22 15.01.2022
4342 Clouds 2 1027 95 10000 2.06 80 19:27 15.01.2022
4343 Clouds 2 1027 95 10000 3.6 110 18:18 15.01.2022
4344 Clouds 2 1027 93 10000 2.57 80 16:49 15.01.2022
4345 Clouds 3 1029 95 10000 3.09 80 14:38 15.01.2022
4346 Clouds 3 1029 95 10000 3.6 90 12:40 15.01.2022
4347 Clouds 2 1030 96 10000 4.12 90 11:26 15.01.2022
4348 Clouds 1 1031 96 10000 3.09 70 09:46 15.01.2022
4349 Mist 0 1033 99 2200 3.6 30 01:58 15.01.2022
4350 Fog 0 1033 99 800 2.57 20 23:21 14.01.2022
4351 Fog 0 1034 99 1200 1.03 0 21:18 14.01.2022
4352 Fog 1 1034 100 900 1.54 30 20:25 14.01.2022
4353 Fog 1 1034 100 1200 2.06 0 19:50 14.01.2022
4354 Fog 1 1034 97 900 2.06 80 18:41 14.01.2022
4355 Fog 1 1032 94 1200 1.54 180 17:36 14.01.2022
4356 Mist 2 1032 93 2200 0.51 0 16:42 14.01.2022
4357 Fog 3 1033 92 600 1.03 0 15:32 14.01.2022
4358 Fog 3 1032 89 900 3.09 230 14:26 14.01.2022
4359 Clear 5 1036 66 10000 0.51 245 12:58 14.01.2022
4360 Fog 3 1034 89 800 2.57 220 11:52 14.01.2022
4361 Fog 1 1034 94 600 2.57 190 10:39 14.01.2022
4362 Fog -1 1037 100 400 1.54 230 08:53 14.01.2022
4363 Fog -1 1036 97 400 2.06 180 07:30 14.01.2022
4364 Fog 0 1038 96 200 1.54 140 02:27 14.01.2022
4365 Fog 0 1039 99 300 0.51 0 00:22 14.01.2022
4366 Mist 1 1039 98 1200 1.54 140 21:47 13.01.2022
4367 Mist 1 1040 98 1200 1.03 0 21:29 13.01.2022
4368 Mist 1 1040 97 3800 1.54 190 19:47 13.01.2022
4369 Clouds 1 1040 94 6000 2.06 220 19:29 13.01.2022
4370 Clouds 1 1040 94 7000 1.54 210 18:40 13.01.2022
4371 Clouds 2 1041 90 10000 2.06 210 16:53 13.01.2022
4372 Clouds 3 1038 87 10000 1.54 220 15:39 13.01.2022
4373 Clouds 3 1038 84 10000 0.45 312 15:21 13.01.2022
4374 Clouds 2 1039 90 10000 1.03 0 13:29 13.01.2022
4375 Clouds 2 1042 92 10000 2.06 200 11:18 13.01.2022
4376 Clouds 1 1042 91 10000 2.06 210 09:24 13.01.2022
4377 Clouds 1 1041 96 10000 1.54 190 08:29 13.01.2022
4378 Clouds 1 1041 94 10000 1.54 250 07:59 13.01.2022
4379 Clouds 1 1041 93 10000 1.03 200 07:20 13.01.2022
4380 Clouds 0 1041 94 10000 1.03 220 05:21 13.01.2022
4381 Clouds 0 1041 94 10000 0.51 0 04:55 13.01.2022
4382 Clouds 0 1041 94 10000 0.51 0 01:39 13.01.2022
4383 Clouds 0 1041 90 10000 1.03 0 23:54 12.01.2022
4384 Clouds 1 1041 89 10000 2.57 360 23:34 12.01.2022
4385 Clouds 1 1041 89 10000 3.09 340 22:35 12.01.2022
4386 Clouds 1 1041 91 10000 0.81 356 21:49 12.01.2022
4387 Clouds 1 1040 86 10000 0.51 0 21:20 12.01.2022
4388 Clouds 1 1040 89 10000 1.54 290 20:49 12.01.2022
4389 Clouds 3 1039 79 10000 1.03 210 19:24 12.01.2022
4390 Clouds 4 1039 72 10000 2.06 200 18:27 12.01.2022
4391 Clouds 4 1039 67 10000 2.06 210 16:58 12.01.2022
4392 Clouds 5 1039 61 10000 1.54 210 15:53 12.01.2022
4393 Clouds 5 1039 59 10000 1.54 180 14:46 12.01.2022
4394 Clouds 5 1039 70 10000 1.03 0 12:58 12.01.2022
4395 Clear 0 1039 94 10000 1.03 80 09:59 12.01.2022
4396 Clear -1 1038 93 10000 1.03 0 08:33 12.01.2022
4397 Clear 0 1037 93 10000 0.51 0 07:34 12.01.2022
4398 Clouds 0 1037 90 10000 1.54 340 05:30 12.01.2022
4399 Clouds 3 1036 75 10000 1.54 110 23:30 11.01.2022
4400 Clouds 3 1036 70 10000 2.06 90 22:41 11.01.2022
4401 Clouds 3 1035 70 10000 1.54 120 22:21 11.01.2022
4402 Clouds 4 1035 68 10000 2.06 100 20:49 11.01.2022
4403 Clouds 4 1035 69 10000 2.57 100 19:42 11.01.2022
4404 Clouds 4 1034 74 10000 2.06 60 18:31 11.01.2022
4405 Clouds 5 1034 74 10000 2.06 80 17:19 11.01.2022
4406 Clouds 5 1034 75 10000 2.06 70 16:37 11.01.2022
4407 Clouds 5 1033 78 10000 2.06 100 15:34 11.01.2022
4408 Clouds 5 1033 81 10000 1.54 80 14:41 11.01.2022
4409 Clouds 5 1033 83 10000 1.54 90 13:54 11.01.2022
4410 Clouds 5 1034 84 10000 2.06 80 13:32 11.01.2022
4411 Clouds 4 1034 87 10000 1.54 20 12:41 11.01.2022
4412 Clouds 3 1034 91 10000 2.06 360 11:40 11.01.2022
4413 Clouds 1 1033 95 10000 0.51 0 09:28 11.01.2022
4414 Clouds 1 1032 97 10000 1.03 0 06:36 11.01.2022
4415 Clouds 1 1030 92 10000 1.54 260 00:31 11.01.2022
4416 Clouds 1 1029 90 10000 1.03 220 23:41 10.01.2022
4417 Clouds 2 1029 90 10000 2.06 300 22:51 10.01.2022
4418 Clouds 2 1029 89 10000 1.03 0 22:19 10.01.2022
4419 Clouds 2 1029 90 10000 1.54 0 21:54 10.01.2022
4420 Clouds 2 1028 90 10000 1.03 0 21:20 10.01.2022
4421 Clouds 2 1028 91 10000 1.54 340 20:56 10.01.2022
4422 Clear 2 1028 89 10000 2.57 330 20:28 10.01.2022
4423 Clear 3 1027 87 10000 1.03 0 19:44 10.01.2022
4424 Clear 3 1027 85 10000 1.54 60 19:21 10.01.2022
4425 Clear 3 1027 84 10000 2.06 70 18:49 10.01.2022
4426 Clouds 4 1025 77 10000 2.06 60 17:42 10.01.2022
4427 Clouds 5 1025 71 10000 1.54 30 16:42 10.01.2022
4428 Clouds 6 1024 73 10000 2.06 50 15:49 10.01.2022
4429 Clouds 6 1023 73 10000 1.03 0 14:34 10.01.2022
4430 Clear 4 1021 85 10000 2.06 10 12:18 10.01.2022
4431 Clear 3 1020 92 10000 1.03 0 11:25 10.01.2022
4432 Clouds 1 1021 97 10000 0.44 3 09:53 10.01.2022
4433 Clouds 0 1017 97 10000 1.03 0 08:22 10.01.2022
4434 Clouds 1 1014 94 10000 0.51 0 05:49 10.01.2022
4435 Clouds 1 1010 94 10000 1.54 230 01:33 10.01.2022
4436 Clouds 1 1010 98 10000 1.03 70 00:29 10.01.2022
4437 Clear 1 1009 96 10000 0.51 0 23:43 09.01.2022
4438 Clear 2 1008 92 10000 2.06 190 22:40 09.01.2022
4439 Clear 2 1008 88 10000 1.03 140 21:47 09.01.2022
4440 Clear 3 1007 90 10000 1.54 180 21:24 09.01.2022
4441 Clear 3 1007 89 10000 1.54 180 21:24 09.01.2022
4442 Clear 3 1007 86 10000 2.06 180 20:54 09.01.2022
4443 Clear 4 1007 86 10000 2.06 180 20:36 09.01.2022
4444 Clouds 4 1006 83 10000 3.09 210 20:18 09.01.2022
4445 Clouds 4 1006 78 10000 2.57 230 19:36 09.01.2022
4446 Clouds 4 1006 77 10000 2.57 230 19:18 09.01.2022
4447 Clouds 5 1005 76 10000 3.09 220 18:37 09.01.2022
4448 Clouds 5 1005 75 10000 3.6 210 17:48 09.01.2022
4449 Clouds 5 1004 69 10000 3.6 250 17:25 09.01.2022
4450 Clouds 6 1004 68 10000 4.63 240 16:34 09.01.2022
4451 Clouds 6 1001 68 10000 2.24 1 15:37 09.01.2022
4452 Clouds 6 1001 71 10000 0.89 120 14:41 09.01.2022
4453 Clouds 6 1000 72 10000 5.14 250 14:41 09.01.2022
4454 Clouds 6 1000 71 10000 0.45 87 14:21 09.01.2022
4455 Clouds 6 1002 72 10000 5.14 250 13:41 09.01.2022
4456 Clouds 5 1000 77 10000 1.34 82 11:56 09.01.2022
4457 Clouds 5 999 83 10000 0.45 35 11:24 09.01.2022
4458 Rain 5 998 85 10000 0.45 63 09:53 09.01.2022
4459 Clouds 4 996 87 10000 7.2 230 08:54 09.01.2022
4460 Rain 4 994 93 10000 8.75 230 06:21 09.01.2022
4461 Clouds 4 994 92 10000 5.14 170 01:28 09.01.2022
4462 Rain 3 995 90 10000 5.66 170 00:37 09.01.2022
4463 Rain 3 997 88 10000 4.63 170 23:30 08.01.2022
4464 Rain 3 998 89 10000 4.12 170 22:44 08.01.2022
4465 Rain 3 1001 84 10000 5.66 180 21:27 08.01.2022
4466 Clouds 3 1003 83 10000 5.66 180 20:43 08.01.2022
4467 Clouds 3 1004 84 10000 3.6 170 20:21 08.01.2022
4468 Clouds 3 1005 86 10000 3.09 170 19:22 08.01.2022
4469 Clouds 2 1009 90 10000 5.14 180 17:31 08.01.2022
4470 Rain 3 1009 85 10000 5.14 190 16:42 08.01.2022
4471 Clouds 3 1011 83 10000 5.14 200 15:33 08.01.2022
4472 Clouds 3 1010 82 10000 2.24 358 13:58 08.01.2022
4473 Clouds 2 1015 91 10000 4.63 210 11:41 08.01.2022
4474 Clouds 1 1014 94 10000 3.6 210 10:40 08.01.2022
4475 Clouds 1 1014 94 10000 3.6 210 10:21 08.01.2022
4476 Clouds 1 1014 97 10000 3.6 230 09:34 08.01.2022
4477 Snow 1 1010 97 10000 3.09 340 06:22 08.01.2022
4478 Rain 2 1010 95 10000 4.12 170 01:46 08.01.2022
4479 Clouds 3 1012 91 10000 5.66 190 23:36 07.01.2022
4480 Clouds 3 1013 91 10000 6.17 190 21:49 07.01.2022
4481 Clouds 3 1014 92 10000 5.14 190 20:35 07.01.2022
4482 Clouds 3 1014 93 10000 5.14 180 19:27 07.01.2022
4483 Clouds 3 1014 94 10000 4.63 170 18:49 07.01.2022
4484 Clouds 2 1014 93 10000 4.63 180 18:24 07.01.2022
4485 Clouds 2 1014 92 8000 5.66 190 17:24 07.01.2022
4486 Clouds 2 1014 93 10000 5.66 190 14:56 07.01.2022
4487 Clouds 2 1014 93 10000 6.17 190 13:52 07.01.2022
4488 Clouds 2 1014 93 10000 6.17 190 13:52 07.01.2022
4489 Clouds 2 1015 95 10000 5.14 180 12:57 07.01.2022
4490 Snow 1 1015 97 4000 4.63 190 11:58 07.01.2022
4491 Clouds 0 1018 96 10000 2.57 190 04:56 07.01.2022
4492 Clouds 0 1019 96 10000 1.54 190 02:53 07.01.2022
4493 Clear 0 1019 97 10000 1.54 210 01:50 07.01.2022
4494 Clear 0 1020 97 10000 2.06 200 01:26 07.01.2022
4495 Clouds 0 1020 96 10000 3.09 190 00:34 07.01.2022
4496 Clouds 0 1021 94 10000 1.03 250 22:42 06.01.2022
4497 Clear 0 1021 97 10000 1.54 240 21:22 06.01.2022
4498 Clear 1 1021 92 10000 1.03 0 20:19 06.01.2022
4499 Clear 0 1021 90 10000 2.06 170 19:40 06.01.2022
4500 Clouds 2 1020 78 10000 1.03 230 17:53 06.01.2022
4501 Clouds 3 1020 74 10000 1.54 260 17:32 06.01.2022
4502 Clouds 4 1020 64 10000 1.54 230 16:40 06.01.2022
4503 Clouds 6 1020 66 10000 2.57 280 15:45 06.01.2022
4504 Clouds 6 1020 59 10000 1.54 310 15:23 06.01.2022
4505 Clouds 6 1019 70 10000 2.06 270 14:21 06.01.2022
4506 Clouds 6 1019 70 10000 1.03 0 13:47 06.01.2022
4507 Clouds 5 1019 73 10000 4.12 280 12:43 06.01.2022
4508 Clouds 5 1019 74 10000 4.63 280 11:41 06.01.2022
4509 Clouds 5 1017 80 10000 4.12 250 11:21 06.01.2022
4510 Clouds 2 1018 94 10000 2.06 190 08:50 06.01.2022
4511 Clouds 4 1013 83 10000 4.63 240 00:43 06.01.2022
4512 Clouds 4 1012 82 10000 4.63 240 23:36 05.01.2022
4513 Clouds 4 1012 78 10000 4.63 220 22:54 05.01.2022
4514 Clouds 4 1012 78 10000 5.14 210 22:31 05.01.2022
4515 Clouds 4 1012 77 10000 4.63 220 21:47 05.01.2022
4516 Clouds 4 1011 75 10000 6.69 220 20:50 05.01.2022
4517 Clouds 4 1011 75 10000 7.72 220 20:18 05.01.2022
4518 Clouds 4 1010 72 10000 7.72 200 18:42 05.01.2022
4519 Clouds 4 1009 71 10000 7.72 210 17:23 05.01.2022
4520 Clouds 4 1009 70 10000 8.23 220 16:38 05.01.2022
4521 Clouds 4 1008 68 10000 7.72 220 15:21 05.01.2022
4522 Clouds 4 1008 67 10000 8.23 240 13:51 05.01.2022
4523 Clouds 4 1008 68 10000 8.23 230 12:59 05.01.2022
4524 Clouds 3 1007 71 10000 6.69 250 10:32 05.01.2022
4525 Clouds 3 1004 79 10000 6.69 280 07:45 05.01.2022
4526 Clouds 3 1003 86 10000 6.69 280 06:24 05.01.2022
4527 Clouds 6 999 95 10000 5.14 190 00:58 05.01.2022
4528 Clouds 6 999 95 8000 5.14 190 23:27 04.01.2022
4529 Clouds 6 999 95 10000 4.12 190 22:46 04.01.2022
4530 Clouds 6 999 95 10000 5.66 200 21:23 04.01.2022
4531 Clouds 6 999 95 10000 3.6 180 19:20 04.01.2022
4532 Clouds 6 999 95 10000 3.09 200 17:51 04.01.2022
4533 Clouds 6 999 97 10000 5.14 210 16:43 04.01.2022
4534 Clouds 6 999 98 10000 4.12 210 16:23 04.01.2022
4535 Rain 6 998 97 10000 2.57 210 14:54 04.01.2022
4536 Rain 6 998 98 10000 2.57 210 14:34 04.01.2022
4537 Rain 7 997 92 10000 2.06 0 13:27 04.01.2022
4538 Rain 8 994 96 10000 3.09 60 10:41 04.01.2022
4539 Rain 8 994 95 9000 3.6 30 09:47 04.01.2022
4540 Clouds 9 995 94 10000 3.6 200 08:32 04.01.2022
4541 Rain 9 1003 95 10000 4.63 180 02:32 04.01.2022
4542 Clouds 9 1005 95 10000 4.63 180 00:41 04.01.2022
4543 Rain 9 1007 94 10000 3.6 190 23:34 03.01.2022
4544 Rain 10 1006 88 10000 4.63 200 21:52 03.01.2022
4545 Rain 10 1006 88 10000 0.89 354 21:33 03.01.2022
4546 Rain 10 1009 83 10000 6.69 220 20:26 03.01.2022
4547 Clouds 10 1008 77 10000 6.17 210 18:54 03.01.2022
4548 Rain 10 1008 77 10000 6.17 210 18:28 03.01.2022
4549 Clouds 10 1009 81 10000 4.47 316 16:59 03.01.2022
4550 Clouds 11 1010 80 10000 5.66 240 15:40 03.01.2022
4551 Clouds 11 1011 77 10000 1.34 146 14:31 03.01.2022
4552 Clouds 11 1011 78 10000 0.45 123 14:31 03.01.2022
4553 Rain 10 1012 86 10000 1.34 164 12:48 03.01.2022
4554 Clouds 10 1013 84 10000 2.68 336 11:39 03.01.2022
4555 Clouds 9 1013 86 10000 6.17 210 10:37 03.01.2022
4556 Clouds 8 1015 91 10000 4.63 200 08:48 03.01.2022
4557 Clouds 8 1015 88 10000 5.14 220 07:36 03.01.2022
4558 Rain 11 1012 82 10000 1.79 90 00:29 03.01.2022
4559 Clouds 12 1011 75 10000 2.24 74 23:22 02.01.2022
4560 Clouds 12 1011 74 10000 0.45 123 22:55 02.01.2022
4561 Clouds 12 1012 75 10000 0.89 19 21:52 02.01.2022
4562 Clouds 11 1013 77 10000 6.17 190 20:41 02.01.2022
4563 Clouds 11 1013 77 10000 1.34 61 20:22 02.01.2022
4564 Clouds 11 1013 78 10000 1.34 11 19:31 02.01.2022
4565 Clouds 11 1014 76 10000 5.66 190 18:51 02.01.2022
4566 Clouds 11 1014 74 10000 0.45 16 17:56 02.01.2022
4567 Clouds 11 1014 74 10000 0.89 32 17:38 02.01.2022
4568 Clouds 11 1014 76 10000 4.63 210 17:19 02.01.2022
4569 Clouds 11 1014 74 10000 0.89 309 16:27 02.01.2022
4570 Clouds 11 1014 77 10000 0.89 105 14:38 02.01.2022
4571 Clouds 9 1014 92 10000 2.06 190 12:57 02.01.2022
4572 Clouds 8 1014 93 10000 2.57 190 12:31 02.01.2022
4573 Clouds 8 1016 94 10000 3.6 220 11:36 02.01.2022
4574 Clouds 7 1016 97 8000 3.09 240 10:50 02.01.2022
4575 Clouds 7 1016 97 10000 2.06 240 09:55 02.01.2022
4576 Clouds 6 1017 98 10000 2.06 210 07:29 02.01.2022
4577 Clouds 7 1020 94 10000 0.51 0 02:20 02.01.2022
4578 Fog 7 1021 94 2000 0.51 0 23:41 01.01.2022
4579 Clear 7 1021 95 10000 1.03 0 23:23 01.01.2022
4580 Fog 7 1022 97 10000 0.51 0 22:25 01.01.2022
4581 Fog 8 1022 96 10000 1.03 0 21:44 01.01.2022
4582 Fog 7 1024 99 10000 0.51 0 21:21 01.01.2022
4583 Fog 8 1024 96 10000 0.51 0 20:20 01.01.2022
4584 Fog 9 1025 98 10000 1.03 0 19:33 01.01.2022
4585 Clouds 9 1025 96 10000 1.03 0 18:29 01.01.2022
4586 Clouds 10 1025 95 10000 1.03 0 17:38 01.01.2022
4587 Clouds 12 1025 85 10000 1.03 180 16:34 01.01.2022
4588 Clouds 12 1025 84 10000 2.06 180 15:33 01.01.2022
4589 Clouds 12 1023 85 10000 1.54 160 14:22 01.01.2022
4590 Clouds 12 1024 87 10000 2.06 170 13:35 01.01.2022
4591 Clouds 12 1025 90 10000 0.89 343 12:18 01.01.2022
4592 Clouds 11 1025 90 10000 3.6 210 11:25 01.01.2022
4593 Clouds 11 1025 91 10000 0.89 9 10:52 01.01.2022
4594 Clouds 10 1027 94 10000 2.57 170 09:47 01.01.2022
4595 Clouds 10 1027 93 10000 1.54 200 08:35 01.01.2022
4596 Clouds 11 1026 91 10000 3.09 220 07:56 01.01.2022
4597 Clouds 11 1026 91 10000 4.12 230 07:37 01.01.2022
4598 Clouds 11 1026 91 10000 2.57 230 06:43 01.01.2022
4599 Clouds 11 1026 91 10000 4.12 180 04:39 01.01.2022
4600 Clouds 11 1026 90 10000 2.06 180 03:50 01.01.2022
4601 Clouds 11 1023 88 10000 4.63 210 23:55 31.12.2021
4602 Clouds 11 1022 88 10000 5.14 220 22:24 31.12.2021
4603 Clouds 11 1022 87 10000 5.14 210 21:39 31.12.2021
4604 Clouds 11 1020 88 10000 0.45 345 19:48 31.12.2021
4605 Clouds 11 1020 88 10000 4.12 200 19:28 31.12.2021
4606 Clouds 12 1019 87 10000 0.45 60 17:56 31.12.2021
4607 Clouds 12 1019 86 10000 0.45 26 17:26 31.12.2021
4608 Clouds 12 1018 87 10000 0.45 36 16:52 31.12.2021
4609 Clouds 12 1018 83 10000 5.14 210 16:18 31.12.2021
4610 Clouds 13 1018 81 10000 0.89 11 15:50 31.12.2021
4611 Clouds 13 1018 82 10000 0.89 223 15:26 31.12.2021
4612 Clouds 13 1018 81 10000 0.45 52 14:39 31.12.2021
4613 Clouds 13 1018 80 10000 0.89 95 13:55 31.12.2021
4614 Clouds 13 1019 81 10000 0.45 1 12:51 31.12.2021
4615 Clouds 13 1022 81 10000 4.63 220 12:26 31.12.2021
4616 Clouds 12 1020 85 10000 0.89 123 11:42 31.12.2021
4617 Clouds 11 1019 91 10000 3.6 190 10:56 31.12.2021
4618 Clouds 11 1022 92 10000 3.6 190 10:28 31.12.2021
4619 Clouds 9 1021 94 10000 4.12 190 09:35 31.12.2021
4620 Clouds 9 1022 94 10000 3.09 200 08:54 31.12.2021
4621 Clouds 10 1021 94 10000 3.09 210 07:59 31.12.2021
4622 Clouds 11 1021 90 10000 3.09 200 06:24 31.12.2021
4623 Clouds 13 1019 91 10000 6.69 220 23:19 30.12.2021
4624 Clouds 13 1019 91 10000 0.45 59 22:32 30.12.2021
4625 Clouds 13 1019 89 10000 4.63 220 21:40 30.12.2021
4626 Clouds 13 1019 88 10000 4.63 210 21:20 30.12.2021
4627 Clouds 13 1018 88 10000 0.45 50 20:40 30.12.2021
4628 Clouds 13 1018 86 10000 1.34 77 19:58 30.12.2021
4629 Clouds 13 1018 86 10000 6.17 230 19:36 30.12.2021
4630 Clouds 14 1018 85 10000 0.45 84 18:29 30.12.2021
4631 Clouds 14 1017 85 10000 0.89 43 17:38 30.12.2021
4632 Clouds 15 1016 85 10000 2.24 347 15:55 30.12.2021
4633 Clouds 15 1016 84 10000 1.34 23 15:36 30.12.2021
4634 Clouds 16 1015 81 10000 2.24 358 14:37 30.12.2021
4635 Clouds 16 1015 82 10000 0.45 28 13:32 30.12.2021
4636 Clouds 15 1016 86 10000 1.34 348 12:29 30.12.2021
4637 Clouds 13 1016 93 10000 6.17 220 10:50 30.12.2021
4638 Clouds 12 1015 98 10000 5.14 210 09:54 30.12.2021
4639 Clouds 11 1015 97 10000 3.6 210 08:49 30.12.2021
4640 Clouds 11 1014 91 10000 3.09 220 06:51 30.12.2021
4641 Clouds 11 1013 84 10000 1.34 358 03:41 30.12.2021
4642 Clouds 11 1012 88 10000 6.17 240 02:42 30.12.2021
4643 Clouds 10 1009 97 10000 3.6 230 23:43 29.12.2021
4644 Clouds 10 1009 95 10000 3.6 200 23:22 29.12.2021
4645 Clouds 10 1008 98 10000 4.12 200 22:21 29.12.2021
4646 Clouds 9 1007 97 6000 4.63 190 21:33 29.12.2021
4647 Clouds 9 1007 95 3800 4.63 190 20:39 29.12.2021
4648 Drizzle 9 1007 95 4500 0.89 337 19:50 29.12.2021
4649 Rain 9 1009 95 4800 4.63 190 18:54 29.12.2021
4650 Rain 9 1009 95 10000 3.09 180 17:56 29.12.2021
4651 Clouds 9 1009 95 10000 4.12 190 17:28 29.12.2021
4652 Clouds 9 1009 92 10000 4.12 180 16:44 29.12.2021
4653 Clouds 9 1009 91 10000 3.6 180 16:19 29.12.2021
4654 Clouds 10 1009 81 10000 4.63 210 14:24 29.12.2021
4655 Clouds 10 1007 80 10000 4.12 220 12:42 29.12.2021
4656 Clouds 10 1007 82 10000 4.63 230 12:20 29.12.2021
4657 Clouds 9 1007 91 10000 0.89 167 10:31 29.12.2021
4658 Clouds 9 1005 91 10000 1.34 106 07:52 29.12.2021
4659 Clouds 9 1004 87 10000 6.69 240 06:45 29.12.2021
4660 Clouds 9 1006 89 10000 7.2 240 06:24 29.12.2021
4661 Clouds 9 1005 91 10000 7.72 230 05:42 29.12.2021
4662 Clouds 9 1001 94 8000 0.45 19 03:20 29.12.2021
4663 Clouds 9 997 91 10000 0.45 21 00:24 29.12.2021
4664 Clouds 9 996 91 10000 1.34 230 23:49 28.12.2021
4665 Clouds 9 995 90 10000 0.45 354 22:45 28.12.2021
4666 Rain 9 995 89 10000 6.69 220 22:24 28.12.2021
4667 Rain 9 994 89 10000 6.69 220 21:53 28.12.2021
4668 Rain 9 994 85 10000 3.13 30 20:54 28.12.2021
4669 Rain 9 994 80 10000 6.69 190 19:50 28.12.2021
4670 Clouds 8 995 78 10000 6.17 190 18:50 28.12.2021
4671 Clear 8 994 78 10000 1.34 8 18:23 28.12.2021
4672 Clouds 10 994 80 10000 1.79 71 17:25 28.12.2021
4673 Rain 10 993 93 10000 7.72 200 15:52 28.12.2021
4674 Clouds 10 992 96 10000 4.63 180 15:29 28.12.2021
4675 Clouds 10 992 97 10000 5.66 190 14:54 28.12.2021
4676 Drizzle 10 993 98 10000 4.12 200 14:22 28.12.2021
4677 Clouds 10 993 96 10000 3.09 180 13:54 28.12.2021
4678 Clouds 10 993 96 10000 3.09 180 13:33 28.12.2021
4679 Clouds 9 994 97 8000 4.12 190 12:55 28.12.2021
4680 Clouds 9 994 97 10000 4.12 190 12:19 28.12.2021
4681 Clouds 8 996 98 10000 3.09 100 09:32 28.12.2021
4682 Rain 8 997 95 10000 3.6 140 07:33 28.12.2021
4683 Clouds 8 997 97 10000 3.6 170 03:31 28.12.2021
4684 Drizzle 7 999 95 6000 4.12 180 23:39 27.12.2021
4685 Drizzle 7 999 98 4500 2.06 50 22:20 27.12.2021
4686 Clouds 7 999 95 9000 1.03 10 21:30 27.12.2021
4687 Clouds 6 999 95 10000 2.57 40 20:32 27.12.2021
4688 Clouds 6 999 94 10000 3.09 50 19:48 27.12.2021
4689 Clouds 6 1001 95 10000 2.06 30 19:27 27.12.2021
4690 Clouds 6 999 94 10000 2.57 40 17:51 27.12.2021
4691 Drizzle 6 999 94 8000 2.57 20 17:28 27.12.2021
4692 Drizzle 6 999 94 7000 2.57 360 16:23 27.12.2021
4693 Drizzle 6 999 94 5000 2.06 340 15:44 27.12.2021
4694 Clouds 6 999 98 6000 2.06 10 14:24 27.12.2021
4695 Clouds 6 1000 96 6000 2.57 0 12:56 27.12.2021
4696 Clouds 5 1001 97 6000 2.06 50 10:56 27.12.2021
4697 Clouds 4 1001 95 6000 2.57 60 10:27 27.12.2021
4698 Mist 4 1001 98 4800 2.06 40 09:27 27.12.2021
4699 Drizzle 3 1001 95 3500 1.54 340 07:34 27.12.2021
4700 Fog 3 1002 97 700 1.54 50 06:29 27.12.2021
4701 Clouds 3 1005 98 4200 2.57 360 01:58 27.12.2021
4702 Drizzle 2 1005 95 6000 3.6 30 23:50 26.12.2021
4703 Rain 2 1005 95 4000 3.6 360 23:20 26.12.2021
4704 Clouds 2 1006 96 4800 3.6 20 21:48 26.12.2021
4705 Clouds 2 1006 98 4500 3.6 20 20:25 26.12.2021
4706 Drizzle 2 1007 95 5000 3.6 10 19:27 26.12.2021
4707 Drizzle 2 1007 95 9000 4.12 20 18:23 26.12.2021
4708 Rain 1 1007 94 7000 3.6 20 15:55 26.12.2021
4709 Drizzle 1 1008 93 3200 4.12 10 13:52 26.12.2021
4710 Drizzle 1 1008 93 4500 3.6 10 13:32 26.12.2021
4711 Drizzle 1 1008 90 10000 4.12 20 12:38 26.12.2021
4712 Clouds 1 1008 89 10000 3.09 30 11:58 26.12.2021
4713 Clouds 0 1008 87 10000 4.12 20 09:52 26.12.2021
4714 Clouds 0 1008 87 10000 3.6 20 09:18 26.12.2021
4715 Clouds 0 1008 87 10000 3.6 20 08:39 26.12.2021
4716 Clouds 0 1008 87 10000 3.6 20 07:25 26.12.2021
4717 Clouds 1 1007 89 10000 4.63 20 00:59 26.12.2021
4718 Clouds 1 1009 91 10000 4.63 20 23:51 25.12.2021
4719 Snow 1 1009 91 10000 5.14 20 23:27 25.12.2021
4720 Snow 1 1009 91 10000 4.63 20 22:23 25.12.2021
4721 Clouds 0 1009 91 10000 5.14 30 20:48 25.12.2021
4722 Snow 0 1009 91 10000 4.63 30 19:23 25.12.2021
4723 Snow 1 1009 91 10000 5.14 30 18:54 25.12.2021
4724 Snow 1 1008 92 10000 5.66 30 17:32 25.12.2021
4725 Snow 1 1008 95 10000 5.66 30 16:36 25.12.2021
4726 Snow 1 1007 93 10000 6.17 20 14:46 25.12.2021
4727 Rain 2 1006 94 10000 6.69 30 13:30 25.12.2021
4728 Rain 2 1006 95 10000 6.69 30 13:30 25.12.2021
4729 Clouds 3 1006 95 10000 6.17 30 11:46 25.12.2021
4730 Clouds 4 1005 94 10000 5.66 30 09:54 25.12.2021
4731 Clouds 4 1005 94 10000 5.66 30 09:34 25.12.2021
4732 Rain 6 1002 97 700 1.03 60 04:34 25.12.2021
4733 Fog 7 1002 95 2800 0 0 01:24 25.12.2021
4734 Clouds 7 1004 96 10000 1.03 0 23:42 24.12.2021
4735 Clouds 8 1005 91 10000 3.6 210 19:46 24.12.2021
4736 Clouds 8 1005 91 10000 2.06 210 19:23 24.12.2021
4737 Clouds 8 1005 88 10000 3.6 190 16:57 24.12.2021
4738 Clouds 8 1003 87 10000 3.6 180 16:22 24.12.2021
4739 Clouds 9 1003 86 10000 0.45 1 15:48 24.12.2021
4740 Clouds 9 1003 88 10000 4.63 210 15:18 24.12.2021
4741 Clouds 9 1003 86 10000 1.79 358 14:31 24.12.2021
4742 Clouds 9 1003 85 10000 1.34 146 13:42 24.12.2021
4743 Clouds 9 1004 85 10000 0.89 358 12:49 24.12.2021
4744 Clouds 9 1004 84 10000 2.68 28 12:23 24.12.2021
4745 Clouds 9 1004 84 10000 2.24 9 11:40 24.12.2021
4746 Clouds 9 1004 85 10000 5.14 200 11:18 24.12.2021
4747 Clouds 8 1004 86 10000 4.12 200 10:33 24.12.2021
4748 Clouds 8 1005 89 10000 1.34 32 08:38 24.12.2021
4749 Clouds 8 1004 89 10000 1.34 59 07:58 24.12.2021
4750 Clouds 8 1004 87 10000 1.34 12 06:18 24.12.2021
4751 Clouds 6 1006 87 10000 1.34 331 00:21 24.12.2021
4752 Rain 6 1006 86 10000 0.45 251 23:39 23.12.2021
4753 Clouds 5 1006 86 10000 1.03 220 22:50 23.12.2021
4754 Clouds 4 1007 86 10000 1.54 230 22:22 23.12.2021
4755 Clouds 4 1007 86 10000 0.45 0 21:39 23.12.2021
4756 Clouds 3 1007 85 10000 1.34 122 20:27 23.12.2021
4757 Clouds 3 1007 84 10000 2.06 260 19:28 23.12.2021
4758 Clouds 2 1008 84 10000 2.06 240 18:18 23.12.2021
4759 Clouds 1 1008 86 10000 2.57 300 17:29 23.12.2021
4760 Clouds 1 1009 85 10000 1.54 240 16:26 23.12.2021
4761 Clouds 1 1010 84 10000 2.57 220 15:40 23.12.2021
4762 Clouds 1 1010 82 10000 0.89 19 15:22 23.12.2021
4763 Clouds 1 1010 83 10000 0.45 21 14:40 23.12.2021
4764 Snow 0 1011 84 10000 0.89 0 13:31 23.12.2021
4765 Snow -1 1013 88 9000 3.6 210 11:49 23.12.2021
4766 Clouds -2 1016 88 8000 2.06 240 09:53 23.12.2021
4767 Clouds -2 1016 88 8000 2.06 240 09:53 23.12.2021
4768 Clouds -2 1016 88 8000 2.06 240 09:34 23.12.2021
4769 Clouds -3 1017 88 10000 1.54 270 08:28 23.12.2021
4770 Clear -3 1018 89 10000 0.51 0 05:39 23.12.2021
4771 Clear -4 1021 95 10000 1.03 60 01:31 23.12.2021
4772 Clear -3 1022 93 10000 1.54 360 22:53 22.12.2021
4773 Clear -3 1022 92 10000 2.06 50 22:19 22.12.2021
4774 Clear -3 1022 90 10000 2.06 50 21:37 22.12.2021
4775 Clear -3 1022 87 10000 1.54 70 21:19 22.12.2021
4776 Clear -3 1023 87 10000 2.57 60 20:40 22.12.2021
4777 Clear -3 1023 84 10000 2.57 60 19:57 22.12.2021
4778 Clear -2 1024 81 10000 2.57 70 18:55 22.12.2021
4779 Clear -1 1024 77 10000 2.57 70 17:38 22.12.2021
4780 Clear 1 1024 67 10000 2.57 70 16:25 22.12.2021
4781 Clear 1 1025 72 10000 2.57 70 14:34 22.12.2021
4782 Clear 0 1026 80 10000 2.06 70 12:59 22.12.2021
4783 Clear -1 1027 77 10000 2.57 60 11:50 22.12.2021
4784 Clear -2 1025 85 10000 3.09 70 09:53 22.12.2021
4785 Clear -4 1027 93 10000 3.09 10 08:34 22.12.2021
4786 Clear -4 1027 86 10000 2.06 70 07:21 22.12.2021
4787 Clear -4 1027 86 10000 2.06 20 05:39 22.12.2021
4788 Clear -4 1027 86 10000 2.57 60 05:20 22.12.2021
4789 Clear -4 1027 93 10000 2.57 60 04:42 22.12.2021
4790 Clear -4 1027 90 10000 3.09 70 03:54 22.12.2021
4791 Clear -4 1027 86 10000 2.57 60 03:31 22.12.2021
4792 Clear -3 1026 94 10000 0.51 110 23:49 21.12.2021
4793 Clear -3 1026 93 10000 1.03 80 22:44 21.12.2021
4794 Clear -3 1026 93 10000 1.03 80 22:24 21.12.2021
4795 Clear -2 1026 91 10000 1.03 0 21:42 21.12.2021
4796 Clear -2 1026 86 10000 2.06 70 20:44 21.12.2021
4797 Clear -2 1026 86 10000 1.54 60 20:20 21.12.2021
4798 Clear -2 1026 86 10000 1.54 60 20:20 21.12.2021
4799 Clear -2 1025 85 10000 2.06 90 19:40 21.12.2021
4800 Clear -1 1025 78 10000 3.6 30 18:33 21.12.2021
4801 Clear 0 1025 76 10000 3.6 20 17:59 21.12.2021
4802 Clear 0 1025 75 10000 3.09 20 17:40 21.12.2021
4803 Clear 3 1025 59 10000 2.57 70 15:46 21.12.2021
4804 Clouds 3 1025 63 10000 2.06 70 14:59 21.12.2021
4805 Clouds 3 1025 72 10000 3.09 80 13:44 21.12.2021
4806 Clear 2 1026 75 10000 3.09 80 12:58 21.12.2021
4807 Clear 0 1026 78 10000 2.57 90 10:53 21.12.2021
4808 Clear -2 1026 89 10000 2.06 80 09:57 21.12.2021
4809 Clear -3 1026 91 10000 2.06 70 09:18 21.12.2021
4810 Clear -4 1026 91 10000 2.57 70 07:50 21.12.2021
4811 Clear -3 1026 88 10000 1.54 70 07:25 21.12.2021
4812 Clear -2 1026 88 10000 2.57 80 04:48 21.12.2021
4813 Clear -2 1026 86 10000 2.57 80 02:39 21.12.2021
4814 Clear -1 1027 82 10000 1.54 30 23:58 20.12.2021
4815 Clear -1 1027 83 10000 2.57 70 22:49 20.12.2021
4816 Clear -1 1027 85 10000 2.06 80 22:28 20.12.2021
4817 Clear 0 1027 82 10000 3.09 10 21:41 20.12.2021
4818 Clear 0 1027 81 10000 3.09 10 21:22 20.12.2021
4819 Clear 0 1027 82 10000 3.6 20 20:41 20.12.2021
4820 Clear 1 1027 77 10000 3.09 10 19:48 20.12.2021
4821 Clear 1 1027 71 10000 3.6 20 19:29 20.12.2021
4822 Clear 1 1027 68 10000 3.6 20 18:49 20.12.2021
4823 Clear 2 1027 67 10000 4.12 30 17:52 20.12.2021
4824 Clouds 3 1027 65 10000 4.12 20 16:56 20.12.2021
4825 Clouds 4 1027 63 10000 4.12 20 16:36 20.12.2021
4826 Clouds 5 1026 56 10000 4.12 20 15:47 20.12.2021
4827 Clouds 6 1026 53 10000 4.63 40 14:41 20.12.2021
4828 Clouds 6 1027 68 10000 4.63 30 12:51 20.12.2021
4829 Clear 5 1027 76 10000 5.14 30 11:18 20.12.2021
4830 Clouds 3 1027 80 10000 4.12 20 09:47 20.12.2021
4831 Clouds 3 1026 83 10000 4.63 10 08:57 20.12.2021
4832 Clouds 3 1026 83 10000 4.63 20 08:38 20.12.2021
4833 Clouds 4 1026 80 10000 4.63 30 07:49 20.12.2021
4834 Clouds 5 1025 85 10000 4.12 20 06:47 20.12.2021
4835 Clouds 6 1025 83 10000 1.54 280 03:42 20.12.2021
4836 Clouds 6 1026 81 10000 3.09 240 23:51 19.12.2021
4837 Clouds 6 1026 78 10000 3.09 250 22:45 19.12.2021
4838 Clouds 6 1026 78 10000 2.57 300 21:49 19.12.2021
4839 Clouds 6 1026 78 10000 3.09 320 21:26 19.12.2021
4840 Clouds 6 1026 77 10000 4.12 300 20:30 19.12.2021
4841 Clouds 6 1026 79 10000 4.12 300 19:46 19.12.2021
4842 Clouds 6 1026 81 10000 3.6 300 18:57 19.12.2021
4843 Clouds 6 1026 82 10000 6.17 300 18:27 19.12.2021
4844 Clouds 6 1026 82 10000 6.17 300 17:49 19.12.2021
4845 Clouds 6 1027 82 10000 5.14 300 17:18 19.12.2021
4846 Clouds 6 1027 82 10000 5.66 290 16:25 19.12.2021
4847 Clouds 7 1027 79 10000 5.66 290 15:28 19.12.2021
4848 Clouds 7 1027 79 10000 6.69 290 14:57 19.12.2021
4849 Clouds 7 1027 79 10000 6.69 290 14:36 19.12.2021
4850 Clouds 7 1028 83 10000 5.14 270 13:22 19.12.2021
4851 Clouds 7 1029 87 10000 5.14 270 12:33 19.12.2021
4852 Clouds 7 1030 89 10000 4.12 270 11:44 19.12.2021
4853 Clouds 6 1030 91 10000 3.6 220 10:58 19.12.2021
4854 Clouds 6 1031 91 10000 3.6 220 10:25 19.12.2021
4855 Clouds 5 1031 91 10000 2.57 220 09:26 19.12.2021
4856 Clouds 5 1032 92 10000 3.09 210 07:50 19.12.2021
4857 Clouds 5 1033 99 8000 1.54 190 04:45 19.12.2021
4858 Drizzle 4 1035 98 3500 2.06 200 00:56 19.12.2021
4859 Drizzle 5 1035 98 3500 2.06 210 00:28 19.12.2021
4860 Drizzle 4 1036 95 3200 2.57 200 22:32 18.12.2021
4861 Drizzle 4 1036 95 3000 2.06 210 21:54 18.12.2021
4862 Drizzle 4 1036 95 3000 2.06 210 21:35 18.12.2021
4863 Drizzle 4 1036 95 3200 1.54 190 20:44 18.12.2021
4864 Drizzle 4 1036 95 3200 1.03 0 19:54 18.12.2021
4865 Drizzle 4 1036 95 3500 1.03 190 19:20 18.12.2021
4866 Clouds 4 1036 95 10000 2.06 100 18:20 18.12.2021
4867 Clouds 5 1037 93 10000 1.54 100 17:47 18.12.2021
4868 Clouds 5 1037 89 10000 1.03 0 16:25 18.12.2021
4869 Clouds 5 1037 89 10000 1.03 0 15:26 18.12.2021
4870 Clouds 5 1037 94 10000 1.54 150 14:32 18.12.2021
4871 Clouds 4 1038 94 10000 3.09 100 13:20 18.12.2021
4872 Clouds 4 1039 94 10000 1.54 110 11:21 18.12.2021
4873 Clouds 4 1039 91 10000 3.09 80 09:39 18.12.2021
4874 Clouds 3 1039 92 10000 3.09 70 08:46 18.12.2021
4875 Clouds 3 1039 92 10000 2.57 60 08:19 18.12.2021
4876 Clouds 1 1038 99 10000 0 0 02:51 18.12.2021
4877 Fog 2 1039 98 10000 2.57 30 00:28 18.12.2021
4878 Fog 3 1039 97 10000 0.51 260 23:44 17.12.2021
4879 Clouds 4 1039 93 10000 0.51 0 21:56 17.12.2021
4880 Clouds 4 1039 93 10000 0.51 0 21:56 17.12.2021
4881 Clouds 4 1038 93 10000 1.03 190 21:18 17.12.2021
4882 Clouds 5 1039 92 10000 1.03 0 20:38 17.12.2021
4883 Clouds 7 1038 83 10000 1.03 0 19:19 17.12.2021
4884 Clouds 7 1038 82 10000 0.51 0 18:38 17.12.2021
4885 Clouds 8 1038 79 10000 1.03 160 17:31 17.12.2021
4886 Clouds 8 1039 78 10000 1.54 110 16:46 17.12.2021
4887 Clouds 8 1039 78 10000 2.57 70 16:22 17.12.2021
4888 Clouds 8 1039 77 10000 3.09 70 15:21 17.12.2021
4889 Clouds 8 1039 76 10000 3.09 70 15:21 17.12.2021
4890 Clouds 8 1039 76 10000 5.14 40 14:39 17.12.2021
4891 Clouds 8 1039 74 10000 4.12 10 12:47 17.12.2021
4892 Clouds 8 1039 79 10000 3.6 30 11:34 17.12.2021
4893 Clouds 7 1039 86 10000 1.03 0 10:37 17.12.2021
4894 Clouds 6 1039 90 10000 2.06 50 09:31 17.12.2021
4895 Clouds 6 1038 89 10000 2.57 20 08:30 17.12.2021
4896 Clouds 6 1038 95 10000 1.03 0 05:58 17.12.2021
4897 Drizzle 7 1039 98 6000 1.54 10 02:53 17.12.2021
4898 Drizzle 8 1039 93 9000 0 0 23:25 16.12.2021
4899 Clouds 8 1039 90 10000 2.06 20 22:24 16.12.2021
4900 Clouds 8 1039 90 10000 1.03 0 21:50 16.12.2021
4901 Clouds 8 1039 89 10000 1.03 70 21:25 16.12.2021
4902 Clouds 8 1038 89 10000 0.51 0 20:30 16.12.2021
4903 Clouds 8 1038 88 10000 0.51 80 19:44 16.12.2021
4904 Clouds 8 1037 88 10000 0.51 230 18:39 16.12.2021
4905 Clouds 8 1037 87 10000 1.03 170 17:56 16.12.2021
4906 Clouds 8 1037 87 10000 0.51 0 17:30 16.12.2021
4907 Clouds 9 1037 84 10000 0.51 0 16:21 16.12.2021
4908 Clouds 9 1037 81 10000 1.54 200 14:50 16.12.2021
4909 Clouds 9 1035 79 10000 1.54 200 13:29 16.12.2021
4910 Clouds 8 1037 83 10000 2.06 200 11:20 16.12.2021
4911 Clouds 7 1037 84 10000 1.54 230 10:59 16.12.2021
4912 Clouds 7 1037 86 10000 1.54 180 10:22 16.12.2021
4913 Clouds 6 1036 89 10000 2.06 180 08:25 16.12.2021
4914 Clouds 6 1035 89 10000 2.06 210 06:22 16.12.2021
4915 Clouds 7 1034 88 10000 2.06 210 01:25 16.12.2021
4916 Clouds 7 1034 88 10000 2.06 190 23:33 15.12.2021
4917 Clouds 7 1034 88 10000 2.57 210 22:44 15.12.2021
4918 Clouds 7 1034 89 10000 3.09 180 21:56 15.12.2021
4919 Clouds 7 1034 89 10000 3.09 180 21:27 15.12.2021
4920 Clouds 7 1034 89 10000 3.09 180 21:27 15.12.2021
4921 Clouds 7 1033 89 10000 1.54 200 20:19 15.12.2021
4922 Clouds 7 1033 89 10000 1.54 220 19:51 15.12.2021
4923 Clouds 7 1033 89 10000 1.54 210 18:38 15.12.2021
4924 Drizzle 8 1033 89 10000 1.54 190 17:55 15.12.2021
4925 Clouds 8 1033 86 10000 1.03 190 17:36 15.12.2021
4926 Clouds 8 1032 86 10000 2.06 210 16:34 15.12.2021
4927 Clouds 8 1032 84 10000 1.54 210 15:47 15.12.2021
4928 Clouds 8 1032 84 10000 2.57 220 15:28 15.12.2021
4929 Clouds 8 1030 83 10000 3.09 190 14:42 15.12.2021
4930 Clouds 8 1030 88 10000 3.6 230 12:46 15.12.2021
4931 Clouds 6 1033 97 6000 2.57 170 10:44 15.12.2021
4932 Mist 6 1032 99 3300 1.03 190 08:55 15.12.2021
4933 Mist 5 1032 99 3500 1.03 210 07:44 15.12.2021
4934 Fog 5 1031 99 1000 1.03 200 01:39 15.12.2021
4935 Fog 6 1031 98 400 1.03 150 23:42 14.12.2021
4936 Fog 6 1030 98 1400 1.54 190 22:49 14.12.2021
4937 Fog 6 1030 98 1400 1.54 190 22:49 14.12.2021
4938 Mist 6 1030 98 4500 1.54 190 22:30 14.12.2021
4939 Clouds 7 1030 95 6000 1.03 180 20:57 14.12.2021
4940 Clouds 7 1030 96 7000 1.54 180 19:44 14.12.2021
4941 Clouds 7 1030 96 7000 1.54 180 19:44 14.12.2021
4942 Clouds 7 1030 94 7000 2.06 190 19:20 14.12.2021
4943 Clouds 7 1029 94 7000 2.06 180 18:29 14.12.2021
4944 Clouds 7 1029 94 7000 2.06 170 17:34 14.12.2021
4945 Clouds 7 1029 94 7000 1.54 170 16:43 14.12.2021
4946 Clouds 7 1028 95 9000 1.54 210 15:41 14.12.2021
4947 Clouds 8 1025 94 6000 1.03 0 13:32 14.12.2021
4948 Clouds 8 1026 94 7000 2.57 200 12:27 14.12.2021
4949 Drizzle 7 1028 95 7000 3.6 200 11:24 14.12.2021
4950 Clouds 7 1028 95 10000 4.12 190 10:25 14.12.2021
4951 Clouds 7 1027 95 9000 3.6 190 09:53 14.12.2021
4952 Clouds 7 1028 94 8000 1.54 210 08:29 14.12.2021
4953 Clouds 7 1027 94 9000 2.57 210 07:59 14.12.2021
4954 Clouds 6 1027 100 10000 1.54 190 05:52 14.12.2021
4955 Clouds 6 1028 98 10000 0.51 0 23:39 13.12.2021
4956 Clouds 7 1029 95 10000 1.54 240 21:57 13.12.2021
4957 Clouds 7 1029 95 10000 0.51 0 21:34 13.12.2021
4958 Clouds 7 1029 95 10000 0.51 0 21:34 13.12.2021
4959 Clouds 7 1029 93 10000 1.03 0 20:50 13.12.2021
4960 Clouds 7 1029 95 10000 1.03 250 19:59 13.12.2021
4961 Clouds 7 1029 94 10000 0.51 260 19:27 13.12.2021
4962 Clouds 8 1029 90 10000 1.03 0 17:27 13.12.2021
4963 Clouds 8 1029 89 10000 1.03 210 16:24 13.12.2021
4964 Clouds 8 1028 89 10000 1.03 230 15:43 13.12.2021
4965 Clouds 8 1028 89 10000 1.03 230 15:43 13.12.2021
4966 Clouds 8 1026 86 10000 2.57 200 13:52 13.12.2021
4967 Clouds 8 1026 86 10000 2.57 200 13:31 13.12.2021
4968 Clouds 8 1027 88 10000 1.54 190 12:39 13.12.2021
4969 Clouds 7 1027 92 10000 2.06 190 11:43 13.12.2021
4970 Drizzle 7 1027 94 10000 1.03 0 11:24 13.12.2021
4971 Clouds 6 1027 94 10000 2.06 200 10:21 13.12.2021
4972 Clouds 5 1028 96 10000 1.03 0 08:43 13.12.2021
4973 Clouds 5 1028 95 7000 2.57 180 05:38 13.12.2021
4974 Clouds 6 1025 95 10000 3.09 200 03:57 13.12.2021
4975 Drizzle 5 1025 95 8000 2.06 190 23:55 12.12.2021
4976 Drizzle 5 1025 98 7000 3.09 190 21:57 12.12.2021
4977 Drizzle 5 1024 95 6000 0.89 351 20:49 12.12.2021
4978 Clouds 5 1024 90 10000 2.06 180 19:35 12.12.2021
4979 Clouds 5 1024 84 10000 4.12 190 17:58 12.12.2021
4980 Clouds 5 1023 81 10000 3.09 190 16:29 12.12.2021
4981 Clouds 5 1023 79 10000 4.63 190 15:54 12.12.2021
4982 Clouds 5 1023 79 10000 4.12 200 15:28 12.12.2021
4983 Clouds 5 1023 81 10000 0.89 2 14:46 12.12.2021
4984 Drizzle 4 1023 85 10000 4.63 210 13:56 12.12.2021
4985 Clouds 4 1024 86 10000 3.6 200 12:48 12.12.2021
4986 Clouds 4 1024 84 10000 4.63 190 11:45 12.12.2021
4987 Drizzle 3 1024 84 10000 1.34 63 11:27 12.12.2021
4988 Clouds 3 1026 84 10000 4.63 200 10:44 12.12.2021
4989 Clear 2 1026 86 10000 4.12 190 09:58 12.12.2021
4990 Clouds 2 1026 88 10000 3.6 190 08:44 12.12.2021
4991 Clouds 2 1026 92 10000 2.57 190 06:55 12.12.2021
4992 Clouds 1 1025 93 10000 1.54 190 05:29 12.12.2021
4993 Clear 1 1025 93 10000 1.54 220 04:19 12.12.2021
4994 Clouds 2 1024 86 10000 2.06 180 00:54 12.12.2021
4995 Clouds 4 1023 84 10000 3.6 220 22:56 11.12.2021
4996 Clouds 4 1023 85 10000 3.09 190 22:20 11.12.2021
4997 Clouds 4 1023 87 10000 2.57 190 21:35 11.12.2021
4998 Clouds 4 1022 88 10000 2.06 190 20:18 11.12.2021
4999 Clouds 4 1021 88 10000 3.6 210 19:21 11.12.2021
5000 Clouds 4 1020 88 10000 4.12 210 18:45 11.12.2021
5001 Clouds 4 1020 88 10000 4.12 200 17:54 11.12.2021
5002 Clouds 4 1018 85 10000 2.57 200 15:59 11.12.2021
5003 Clouds 4 1018 84 10000 2.57 200 15:40 11.12.2021
5004 Clouds 5 1017 73 10000 4.63 240 14:36 11.12.2021
5005 Clouds 5 1016 79 10000 3.09 260 12:31 11.12.2021
5006 Clouds 3 1015 88 10000 2.57 190 10:50 11.12.2021
5007 Clouds 2 1014 91 10000 2.57 240 09:43 11.12.2021
5008 Clouds 2 1006 95 10000 1.54 260 03:58 11.12.2021
5009 Snow 2 1002 98 7000 1.54 250 00:48 11.12.2021
5010 Snow 2 1001 98 9000 1.03 0 23:44 10.12.2021
5011 Snow 2 1000 98 9000 1.54 220 22:47 10.12.2021
5012 Snow 2 998 98 9000 0.51 250 21:41 10.12.2021
5013 Snow 1 997 96 9000 1.03 0 20:32 10.12.2021
5014 Rain 1 996 94 9000 2.06 70 19:19 10.12.2021
5015 Snow 2 995 93 8000 2.06 60 17:50 10.12.2021
5016 Snow 2 994 87 10000 2.57 120 16:41 10.12.2021
5017 Clouds 3 993 78 10000 3.6 130 15:47 10.12.2021
5018 Clouds 3 993 76 10000 1.03 0 15:28 10.12.2021
5019 Clouds 3 993 72 10000 1.54 190 14:56 10.12.2021
5020 Rain 3 993 70 10000 4.63 180 13:50 10.12.2021
5021 Clouds 4 993 68 10000 2.57 140 13:18 10.12.2021
5022 Clouds 3 994 80 10000 3.09 60 11:43 10.12.2021
5023 Clouds 2 994 80 10000 0.51 0 11:19 10.12.2021
5024 Clouds 2 995 86 10000 1.54 60 09:53 10.12.2021
5025 Clouds 1 995 90 10000 3.6 60 08:23 10.12.2021
5026 Clouds 2 998 91 10000 2.06 150 05:46 10.12.2021
5027 Clouds 3 1001 94 10000 3.6 180 02:47 10.12.2021
5028 Clouds 3 1004 94 10000 3.09 190 23:44 09.12.2021
5029 Clouds 3 1005 94 10000 2.57 190 22:49 09.12.2021
5030 Clouds 3 1006 93 10000 3.6 230 22:23 09.12.2021
5031 Clouds 4 1006 92 10000 3.6 200 21:48 09.12.2021
5032 Drizzle 4 1006 89 10000 3.6 190 20:40 09.12.2021
5033 Drizzle 4 1006 89 10000 3.09 180 20:20 09.12.2021
5034 Drizzle 4 1006 89 10000 3.09 170 19:21 09.12.2021
5035 Drizzle 4 1006 89 10000 3.09 180 18:35 09.12.2021
5036 Drizzle 4 1006 82 10000 3.6 170 17:51 09.12.2021
5037 Clouds 4 1006 82 10000 3.09 180 17:25 09.12.2021
5038 Clouds 4 1006 82 10000 3.09 180 17:25 09.12.2021
5039 Clouds 4 1006 81 10000 3.09 170 16:53 09.12.2021
5040 Clouds 4 1006 81 10000 3.09 200 15:31 09.12.2021
5041 Clouds 4 1006 80 10000 5.14 210 14:46 09.12.2021
5042 Clouds 4 1006 82 10000 4.63 210 13:19 09.12.2021
5043 Clouds 4 1006 84 10000 3.09 210 12:35 09.12.2021
5044 Clouds 3 1004 94 10000 0.45 274 10:58 09.12.2021
5045 Clouds 2 1006 99 8000 2.57 200 08:54 09.12.2021
5046 Fog 2 1005 99 7000 1.03 220 06:21 09.12.2021
5047 Mist 3 1003 98 4500 1.54 200 02:58 09.12.2021
5048 Fog 3 1003 98 3500 1.54 210 23:43 08.12.2021
5049 Fog 3 1003 98 3500 1.03 160 23:21 08.12.2021
5050 Clouds 3 1002 97 6000 1.03 140 22:46 08.12.2021
5051 Clouds 3 1002 98 10000 1.03 0 21:40 08.12.2021
5052 Clouds 3 1002 98 10000 1.03 270 20:59 08.12.2021
5053 Clouds 4 1002 95 10000 1.03 0 19:58 08.12.2021
5054 Clouds 4 1001 95 10000 1.03 0 19:33 08.12.2021
5055 Clouds 4 1001 98 10000 1.54 130 18:45 08.12.2021
5056 Clouds 4 1001 95 10000 0.51 0 17:36 08.12.2021
5057 Clouds 4 1001 95 10000 0.51 0 17:36 08.12.2021
5058 Clouds 5 1000 91 10000 0 0 15:51 08.12.2021
5059 Clouds 5 1000 90 10000 1.03 240 15:28 08.12.2021
5060 Clouds 5 1000 90 10000 1.03 0 14:31 08.12.2021
5061 Clouds 4 1001 91 10000 0.51 0 11:19 08.12.2021
5062 Clouds 4 1000 92 10000 1.03 0 10:31 08.12.2021
5063 Clouds 3 1000 93 10000 1.03 0 08:56 08.12.2021
5064 Clouds 3 1000 93 10000 2.06 60 07:25 08.12.2021
5065 Rain 3 1000 86 10000 3.6 40 04:24 08.12.2021
5066 Clear 3 1002 76 10000 3.6 80 23:34 07.12.2021
5067 Clear 3 1004 76 10000 4.63 110 21:51 07.12.2021
5068 Clouds 3 1005 77 10000 3.09 110 21:23 07.12.2021
5069 Clouds 3 1006 78 10000 4.63 130 20:20 07.12.2021
5070 Clouds 3 1008 75 10000 3.09 120 18:43 07.12.2021
5071 Clouds 3 1009 76 10000 3.09 130 17:53 07.12.2021
5072 Clouds 3 1009 76 10000 2.57 140 17:20 07.12.2021
5073 Clouds 4 1010 72 10000 2.06 170 16:31 07.12.2021
5074 Clouds 5 1011 64 10000 4.12 210 15:34 07.12.2021
5075 Clouds 6 1011 61 10000 6.69 220 14:30 07.12.2021
5076 Clouds 6 1012 74 10000 4.63 230 12:56 07.12.2021
5077 Clouds 6 1012 74 10000 4.63 230 12:56 07.12.2021
5078 Clouds 5 1010 76 10000 6.17 230 11:52 07.12.2021
5079 Clouds 4 1012 77 10000 4.63 210 10:36 07.12.2021
5080 Clouds 4 1011 83 10000 5.66 220 08:42 07.12.2021
5081 Clouds 4 1008 89 10000 5.66 210 06:21 07.12.2021
5082 Clouds 3 1008 94 10000 4.12 200 05:39 07.12.2021
5083 Snow 3 1009 81 10000 4.12 170 23:58 06.12.2021
5084 Clouds 3 1010 83 10000 4.12 170 22:58 06.12.2021
5085 Clouds 3 1010 84 10000 4.12 170 22:38 06.12.2021
5086 Clouds 2 1011 85 10000 3.6 170 21:52 06.12.2021
5087 Clouds 3 1012 84 10000 3.09 170 20:40 06.12.2021
5088 Clouds 3 1013 85 10000 2.57 170 20:22 06.12.2021
5089 Clouds 3 1013 85 10000 2.57 170 19:22 06.12.2021
5090 Clouds 3 1013 88 10000 3.09 180 18:29 06.12.2021
5091 Clouds 3 1013 91 10000 3.09 170 17:51 06.12.2021
5092 Clouds 4 1014 90 10000 2.06 180 16:56 06.12.2021
5093 Clouds 4 1014 86 10000 2.57 170 15:45 06.12.2021
5094 Clouds 5 1015 86 10000 3.09 220 13:46 06.12.2021
5095 Clouds 5 1015 85 10000 3.09 220 12:40 06.12.2021
5096 Clouds 4 1015 89 10000 2.06 220 11:48 06.12.2021
5097 Clouds 1 1015 98 10000 1.03 150 09:35 06.12.2021
5098 Clouds 1 1013 95 10000 1.03 130 06:43 06.12.2021
5099 Clouds 3 1009 91 10000 2.06 70 23:52 05.12.2021
5100 Clouds 3 1008 92 10000 2.57 60 21:53 05.12.2021
5101 Clouds 3 1008 93 10000 2.06 360 21:25 05.12.2021
5102 Clouds 3 1007 89 10000 2.57 20 20:20 05.12.2021
5103 Clouds 4 1007 87 10000 2.57 10 19:49 05.12.2021
5104 Clouds 4 1006 87 10000 1.03 0 19:21 05.12.2021
5105 Clouds 4 1006 84 10000 1.03 150 18:20 05.12.2021
5106 Clouds 5 1005 79 10000 1.54 150 17:49 05.12.2021
5107 Clouds 5 1005 78 10000 2.06 140 16:57 05.12.2021
5108 Clouds 5 1004 76 10000 1.54 130 16:28 05.12.2021
5109 Clouds 5 1004 73 10000 2.06 180 15:58 05.12.2021
5110 Clouds 6 1003 73 10000 3.09 180 14:45 05.12.2021
5111 Clouds 6 1003 75 10000 4.12 200 14:27 05.12.2021
5112 Clouds 6 1003 78 10000 5.14 190 13:31 05.12.2021
5113 Clouds 5 1003 82 10000 3.6 200 12:41 05.12.2021
5114 Clouds 5 1003 84 10000 3.6 200 12:23 05.12.2021
5115 Clouds 5 1004 88 10000 3.6 180 11:37 05.12.2021
5116 Clouds 4 1003 90 10000 2.57 190 10:21 05.12.2021
5117 Clouds 3 1003 93 10000 4.63 180 09:26 05.12.2021
5118 Clouds 3 1002 87 10000 5.14 210 04:56 05.12.2021
5119 Clear 3 1002 85 10000 4.63 210 01:23 05.12.2021
5120 Clouds 5 1000 86 10000 6.17 240 22:42 04.12.2021
5121 Clouds 5 999 91 10000 4.63 230 21:37 04.12.2021
5122 Clouds 5 998 93 10000 4.12 230 20:40 04.12.2021
5123 Clouds 4 995 94 10000 3.6 220 19:33 04.12.2021
5124 Clouds 4 994 92 8000 2.57 220 18:43 04.12.2021
5125 Mist 4 993 92 4200 3.09 280 17:47 04.12.2021
5126 Mist 4 995 92 4200 1.03 0 17:22 04.12.2021
5127 Mist 4 995 92 4000 1.54 350 16:46 04.12.2021
5128 Drizzle 4 994 92 7000 2.57 350 16:27 04.12.2021
5129 Drizzle 3 997 92 2500 1.54 20 12:44 04.12.2021
5130 Drizzle 3 998 92 2000 2.06 50 11:39 04.12.2021
5131 Mist 2 999 95 2500 2.06 40 10:59 04.12.2021
5132 Drizzle 2 999 96 2000 2.06 60 09:42 04.12.2021
5133 Drizzle 1 1000 96 4500 1.54 10 08:29 04.12.2021
5134 Snow 1 1001 98 4500 2.06 160 04:43 04.12.2021
5135 Snow 1 1003 95 3800 1.54 140 03:36 04.12.2021
5136 Clouds 3 1006 74 10000 4.12 200 23:47 03.12.2021
5137 Clouds 3 1007 74 10000 5.14 200 22:53 03.12.2021
5138 Clouds 3 1008 75 10000 4.12 190 21:57 03.12.2021
5139 Clouds 2 1008 78 10000 4.12 190 21:24 03.12.2021
5140 Clouds 3 1008 75 10000 4.63 190 20:42 03.12.2021
5141 Clouds 2 1010 78 10000 5.14 180 19:28 03.12.2021
5142 Clouds 2 1011 76 10000 4.12 190 18:24 03.12.2021
5143 Clouds 2 1011 75 10000 5.14 190 17:32 03.12.2021
5144 Clouds 2 1013 78 10000 5.66 190 13:45 03.12.2021
5145 Clouds 2 1013 78 10000 6.17 210 12:49 03.12.2021
5146 Clouds 3 1014 78 10000 4.12 180 11:24 03.12.2021
5147 Clouds 1 1012 88 10000 3.6 180 09:44 03.12.2021
5148 Clouds -1 1014 91 10000 2.85 207 08:21 03.12.2021
5149 Clouds -1 1013 91 10000 1.54 170 07:29 03.12.2021
5150 Clouds 1 1011 81 10000 2.57 280 01:51 03.12.2021
5151 Clouds 1 1010 82 10000 4.12 290 00:43 03.12.2021
5152 Clouds 2 1010 82 10000 3.09 280 23:42 02.12.2021
5153 Clouds 2 1007 84 10000 6.17 280 21:42 02.12.2021
5154 Clouds 2 1007 83 10000 0.51 0 20:57 02.12.2021
5155 Clouds 2 1007 83 10000 0.51 0 20:37 02.12.2021
5156 Clouds 3 1006 79 10000 3.09 280 19:25 02.12.2021
5157 Clouds 3 1004 76 10000 4.12 270 17:36 02.12.2021
5158 Clouds 4 1002 76 10000 4.12 310 15:42 02.12.2021
5159 Clouds 4 1001 74 10000 3.6 270 14:58 02.12.2021
5160 Clouds 5 1001 76 10000 3.6 340 13:58 02.12.2021
5161 Clouds 5 1000 84 10000 4.12 260 12:52 02.12.2021
5162 Clouds 5 1000 86 10000 3.6 250 12:18 02.12.2021
5163 Rain 4 1000 94 10000 4.12 230 09:34 02.12.2021
5164 Rain 4 999 93 10000 3.09 230 08:49 02.12.2021
5165 Rain 5 999 89 10000 3.09 240 04:54 02.12.2021
5166 Clouds 6 998 78 10000 5.14 220 00:53 02.12.2021
5167 Clouds 6 995 78 10000 0.45 171 23:19 01.12.2021
5168 Clouds 7 995 78 10000 0.89 19 22:23 01.12.2021
5169 Rain 7 996 80 10000 8.75 220 20:53 01.12.2021
5170 Clouds 7 996 82 10000 5.14 200 19:57 01.12.2021
5171 Clouds 7 995 87 10000 4.63 190 19:28 01.12.2021
5172 Clouds 8 994 88 10000 6.17 210 17:50 01.12.2021
5173 Rain 8 992 85 10000 0.45 19 16:50 01.12.2021
5174 Clouds 9 992 79 10000 1.34 7 14:59 01.12.2021
5175 Clouds 9 993 80 10000 2.24 1 13:49 01.12.2021
5176 Clouds 8 994 84 10000 1.34 194 12:51 01.12.2021
5177 Clouds 8 994 84 10000 1.34 194 12:51 01.12.2021
5178 Clouds 7 997 85 10000 2.68 18 10:43 01.12.2021
5179 Clouds 7 999 84 10000 8.75 200 09:32 01.12.2021
5180 Rain 7 998 81 10000 0.89 43 08:36 01.12.2021
5181 Rain 6 1000 85 10000 3.13 15 07:37 01.12.2021
5182 Rain 6 1000 86 10000 0.45 102 07:19 01.12.2021
5183 Rain 6 1004 88 10000 2.68 26 03:47 01.12.2021
5184 Rain 6 1005 91 10000 0.89 358 02:34 01.12.2021
5185 Clouds 7 1007 85 10000 1.34 5 23:56 30.11.2021
5186 Clouds 7 1007 85 10000 0.45 281 23:28 30.11.2021
5187 Clouds 7 1007 85 10000 9.26 220 21:55 30.11.2021
5188 Clouds 6 1007 87 10000 1.79 36 20:46 30.11.2021
5189 Rain 6 1007 87 10000 0.45 209 20:19 30.11.2021
5190 Clouds 6 1007 88 10000 1.79 12 19:38 30.11.2021
5191 Rain 6 1007 89 10000 1.79 26 18:42 30.11.2021
5192 Clouds 6 1006 91 10000 1.34 23 17:21 30.11.2021
5193 Clouds 6 1006 92 10000 8.75 200 15:50 30.11.2021
5194 Clouds 5 1006 92 6000 1.79 45 14:29 30.11.2021
5195 Clouds 5 1006 94 10000 0.89 168 13:29 30.11.2021
5196 Clouds 5 1006 93 10000 0.89 244 12:53 30.11.2021
5197 Rain 4 1006 92 6000 0.45 225 11:52 30.11.2021
5198 Rain 4 1006 93 10000 1.79 49 11:25 30.11.2021
5199 Rain 3 1007 94 10000 2.68 14 10:35 30.11.2021
5200 Clouds 3 1010 93 8000 10.8 220 08:54 30.11.2021
5201 Clouds 3 1010 93 9000 9.26 220 08:32 30.11.2021
5202 Snow 2 1010 92 9000 8.75 210 07:49 30.11.2021
5203 Snow 3 1011 88 10000 9.77 210 06:32 30.11.2021
5204 Clouds 3 1013 87 10000 5.66 220 01:46 30.11.2021
5205 Clouds 3 1013 90 10000 5.14 210 01:26 30.11.2021
5206 Clouds 3 1013 95 10000 2.57 200 23:27 29.11.2021
5207 Clouds 3 1013 94 10000 2.06 190 22:59 29.11.2021
5208 Clouds 3 1013 94 7000 1.03 0 22:36 29.11.2021
5209 Clouds 3 1013 92 10000 2.06 210 21:46 29.11.2021
5210 Clouds 3 1013 92 10000 3.09 210 21:19 29.11.2021
5211 Clouds 3 1012 94 10000 2.57 180 20:45 29.11.2021
5212 Clouds 3 1012 92 10000 1.54 220 19:58 29.11.2021
5213 Clouds 3 1012 92 10000 1.54 220 19:39 29.11.2021
5214 Clouds 3 1011 92 10000 2.57 210 18:58 29.11.2021
5215 Clouds 3 1012 73 10000 2.87 307 18:39 29.11.2021
5216 Clouds 3 1010 87 10000 3.52 276 17:21 29.11.2021
5217 Clouds 3 1010 87 10000 3.53 276 16:43 29.11.2021
5218 Clouds 3 1009 82 10000 3.62 269 16:22 29.11.2021
5219 Clouds 4 1009 76 10000 3.97 268 14:45 29.11.2021
5220 Clouds 4 1008 69 10000 4.1 263 13:52 29.11.2021
5221 Rain 4 1008 64 10000 4.17 267 12:57 29.11.2021
5222 Clouds 4 1007 66 10000 3.87 271 12:19 29.11.2021
5223 Clouds 3 1007 71 10000 3.66 270 11:22 29.11.2021
5224 Clouds 1 1006 86 10000 4.63 250 09:58 29.11.2021
5225 Clouds 0 1004 86 10000 4.12 260 07:26 29.11.2021
5226 Clouds 0 1003 93 10000 3.09 270 05:51 29.11.2021
5227 Clouds -1 1001 100 10000 1.54 220 01:22 29.11.2021
5228 Clear 1 1000 93 10000 2.06 270 23:54 28.11.2021
5229 Clear 2 1000 87 10000 1.03 0 23:36 28.11.2021
5230 Clouds 1 999 93 10000 2.57 280 22:18 28.11.2021
5231 Clouds 2 999 93 10000 1.54 290 21:39 28.11.2021
5232 Clouds 1 999 100 10000 1.03 220 20:44 28.11.2021
5233 Clouds 2 998 93 10000 0.51 0 19:51 28.11.2021
5234 Clouds 2 998 93 10000 1.03 0 18:40 28.11.2021
5235 Clouds 2 998 93 10000 1.54 230 18:19 28.11.2021
5236 Clouds 3 997 87 10000 2.06 260 17:45 28.11.2021
5237 Rain 4 997 81 10000 1.54 230 16:48 28.11.2021
5238 Rain 4 997 81 10000 1.03 230 16:28 28.11.2021
5239 Clouds 4 997 81 10000 1.54 220 15:50 28.11.2021
5240 Clouds 4 996 81 10000 1.54 210 14:56 28.11.2021
5241 Clouds 4 996 81 10000 2.06 220 14:28 28.11.2021
5242 Clouds 3 997 87 10000 2.06 200 12:54 28.11.2021
5243 Clouds 3 997 87 10000 2.06 210 11:51 28.11.2021
5244 Clouds 3 997 87 10000 1.54 200 10:37 28.11.2021
5245 Clouds 2 996 93 10000 0.51 0 09:56 28.11.2021
5246 Clouds 2 996 87 10000 0.51 170 09:36 28.11.2021
5247 Clouds 2 995 87 10000 3.09 190 05:23 28.11.2021
5248 Clouds 2 995 93 10000 3.09 180 22:58 27.11.2021
5249 Clouds 2 995 87 10000 3.09 190 20:28 27.11.2021
5250 Clouds 3 994 81 10000 3.09 180 18:44 27.11.2021
5251 Clouds 5 993 65 10000 3.09 220 16:31 27.11.2021
5252 Clouds 5 993 65 10000 3.6 220 15:32 27.11.2021
5253 Clouds 5 991 75 10000 3.09 210 13:41 27.11.2021
5254 Clouds 5 991 81 10000 3.09 210 12:27 27.11.2021
5255 Clouds 4 989 87 10000 4.63 190 10:31 27.11.2021
5256 Clouds 3 989 93 10000 4.12 180 09:41 27.11.2021
5257 Clouds 3 988 93 10000 3.6 180 07:44 27.11.2021
5258 Clouds 3 987 93 10000 4.63 180 04:55 27.11.2021
5259 Rain 3 989 87 10000 5.14 190 00:55 27.11.2021
5260 Rain 3 990 87 10000 7.2 190 23:29 26.11.2021
5261 Rain 3 991 87 10000 6.17 180 22:25 26.11.2021
5262 Clouds 3 991 87 10000 7.2 170 21:34 26.11.2021
5263 Rain 3 992 87 10000 5.66 170 20:45 26.11.2021
5264 Clouds 3 992 87 10000 5.66 180 20:18 26.11.2021
5265 Clouds 3 993 87 10000 5.14 170 19:47 26.11.2021
5266 Clouds 3 995 87 9000 3.6 180 17:57 26.11.2021
5267 Clouds 3 995 87 9000 4.63 190 17:22 26.11.2021
5268 Clouds 3 996 93 6000 4.12 170 15:56 26.11.2021
5269 Clouds 4 996 85 10000 5.14 190 13:35 26.11.2021
5270 Clouds 4 997 82 10000 4.63 200 12:34 26.11.2021
5271 Clouds 3 1000 83 10000 4.63 200 10:38 26.11.2021
5272 Clouds 2 1003 89 10000 2.06 190 08:59 26.11.2021
5273 Clouds 2 1003 89 10000 2.06 220 08:21 26.11.2021
5274 Clouds 2 1004 90 10000 2.06 200 07:29 26.11.2021
5275 Clouds 2 1005 91 10000 2.57 180 06:27 26.11.2021
5276 Clouds 1 1006 91 10000 2.06 180 04:51 26.11.2021
5277 Clouds 2 1007 86 10000 2.06 180 02:52 26.11.2021
5278 Clouds 3 1010 83 10000 2.57 190 23:27 25.11.2021
5279 Clouds 3 1011 84 10000 2.06 210 21:48 25.11.2021
5280 Clouds 3 1011 85 10000 3.6 190 20:29 25.11.2021
5281 Clouds 2 1010 85 10000 2.57 180 18:48 25.11.2021
5282 Clouds 3 1011 82 10000 1.23 213 17:48 25.11.2021
5283 Clouds 3 1010 81 10000 2.06 220 17:26 25.11.2021
5284 Clouds 4 1011 77 10000 1.54 190 16:34 25.11.2021
5285 Clouds 4 1010 75 10000 2.06 200 15:49 25.11.2021
5286 Clouds 4 1011 76 10000 2.57 210 14:19 25.11.2021
5287 Clouds 3 1011 76 10000 1.54 260 12:28 25.11.2021
5288 Clouds 3 1012 77 10000 2.57 240 11:51 25.11.2021
5289 Clouds 3 1012 80 10000 1.54 210 09:56 25.11.2021
5290 Clouds 2 1012 80 10000 1.03 0 06:22 25.11.2021
5291 Clouds 2 1013 78 10000 1.54 240 02:52 25.11.2021
5292 Clouds 3 1014 84 10000 3.09 90 23:32 24.11.2021
5293 Clouds 3 1015 82 10000 3.6 80 22:26 24.11.2021
5294 Clouds 3 1015 85 10000 3.09 70 21:38 24.11.2021
5295 Clouds 2 1016 87 10000 3.6 70 20:56 24.11.2021
5296 Clouds 2 1016 87 10000 3.6 70 20:26 24.11.2021
5297 Clouds 3 1018 77 10000 3.09 60 18:31 24.11.2021
5298 Clouds 4 1018 77 10000 2.57 70 17:59 24.11.2021
5299 Clouds 6 1019 65 10000 3.6 60 16:19 24.11.2021
5300 Clouds 7 1020 70 10000 2.57 130 14:54 24.11.2021
5301 Clouds 7 1020 70 10000 2.57 130 14:54 24.11.2021
5302 Clouds 7 1021 67 10000 3.6 110 14:20 24.11.2021
5303 Clouds 7 1021 67 10000 3.6 110 14:20 24.11.2021
5304 Clouds 6 1022 70 10000 5.14 80 12:50 24.11.2021
5305 Clouds 6 1024 76 10000 2.57 90 11:22 24.11.2021
5306 Clouds 5 1024 81 10000 3.09 70 10:50 24.11.2021
5307 Clouds 5 1024 83 10000 2.57 70 10:27 24.11.2021
5308 Clouds 4 1025 90 10000 2.06 80 07:56 24.11.2021
5309 Clouds 4 1025 92 10000 2.06 80 06:56 24.11.2021
5310 Clouds 4 1027 88 10000 1.54 70 03:59 24.11.2021
5311 Clouds 3 1027 89 10000 1.03 0 01:30 24.11.2021
5312 Clouds 4 1028 85 10000 3.09 20 22:59 23.11.2021
5313 Clouds 4 1028 84 10000 3.09 20 22:34 23.11.2021
5314 Clouds 3 1029 85 10000 1.03 0 21:45 23.11.2021
5315 Clouds 3 1029 85 10000 1.03 0 21:45 23.11.2021
5316 Clouds 4 1029 76 10000 1.54 70 20:21 23.11.2021
5317 Clouds 5 1029 69 10000 1.54 90 19:20 23.11.2021
5318 Clouds 5 1029 66 10000 2.06 80 18:29 23.11.2021
5319 Clouds 6 1029 66 10000 1.54 90 17:23 23.11.2021
5320 Clouds 6 1029 66 10000 1.54 90 17:23 23.11.2021
5321 Clouds 6 1029 62 10000 0.51 200 16:35 23.11.2021
5322 Clouds 7 1029 57 10000 1.54 120 15:25 23.11.2021
5323 Clouds 7 1029 65 10000 1.54 110 14:39 23.11.2021
5324 Clouds 6 1030 71 10000 1.03 0 12:50 23.11.2021
5325 Clear 2 1028 85 10000 2.06 350 10:26 23.11.2021
5326 Clouds 2 1028 89 10000 1.54 360 09:43 23.11.2021
5327 Clear -2 1029 96 10000 2.06 80 07:51 23.11.2021
5328 Clear -1 1029 94 10000 0.51 210 04:38 23.11.2021
5329 Clear 0 1029 87 10000 1.03 0 03:27 23.11.2021
5330 Clear 1 1029 82 10000 3.6 30 23:35 22.11.2021
5331 Clear 1 1028 80 10000 4.12 30 22:57 22.11.2021
5332 Clear 2 1028 80 10000 4.12 30 22:30 22.11.2021
5333 Clear 2 1028 80 10000 4.12 30 22:30 22.11.2021
5334 Clear 2 1028 80 10000 4.12 30 22:30 22.11.2021
5335 Clear 2 1028 77 10000 3.6 30 21:44 22.11.2021
5336 Clear 2 1028 75 10000 4.12 20 21:18 22.11.2021
5337 Clear 3 1027 74 10000 5.14 30 20:26 22.11.2021
5338 Clear 4 1027 71 10000 5.14 20 19:20 22.11.2021
5339 Clear 4 1026 71 10000 5.14 20 18:40 22.11.2021
5340 Clouds 5 1026 69 10000 4.63 10 17:46 22.11.2021
5341 Clouds 7 1025 65 10000 6.69 20 16:30 22.11.2021
5342 Clouds 7 1024 65 10000 5.66 30 15:29 22.11.2021
5343 Clouds 7 1023 71 10000 6.69 30 12:48 22.11.2021
5344 Clouds 7 1021 77 10000 7.72 30 11:28 22.11.2021
5345 Clouds 6 1020 84 10000 6.17 20 10:22 22.11.2021
5346 Clouds 5 1020 90 10000 5.14 20 08:43 22.11.2021
5347 Clouds 5 1020 91 10000 5.66 30 08:23 22.11.2021
5348 Clouds 6 1015 97 8000 1.54 20 01:36 22.11.2021
5349 Clouds 6 1014 97 9000 1.03 0 23:20 21.11.2021
5350 Clouds 6 1014 96 10000 1.03 0 22:42 21.11.2021
5351 Mist 6 1013 96 4500 0.51 0 20:45 21.11.2021
5352 Clouds 6 1013 96 6000 2.06 180 20:26 21.11.2021
5353 Drizzle 6 1012 96 6000 1.03 0 18:53 21.11.2021
5354 Clouds 7 1012 95 6000 2.06 190 17:56 21.11.2021
5355 Clouds 6 1012 95 4500 2.06 180 17:35 21.11.2021
5356 Drizzle 7 1009 93 4500 2.57 190 14:50 21.11.2021
5357 Drizzle 7 1009 92 9000 3.09 210 14:31 21.11.2021
5358 Drizzle 7 1010 90 8000 4.12 200 12:59 21.11.2021
5359 Clouds 7 1010 90 10000 0.45 336 12:25 21.11.2021
5360 Drizzle 7 1010 92 10000 1.34 358 11:37 21.11.2021
5361 Clouds 6 1013 96 9000 3.09 190 10:19 21.11.2021
5362 Clouds 6 1013 98 8000 2.57 190 09:45 21.11.2021
5363 Clouds 6 1013 98 8000 3.09 180 08:32 21.11.2021
5364 Clouds 6 1013 98 6000 2.57 190 07:53 21.11.2021
5365 Drizzle 6 1013 98 4800 3.09 190 06:37 21.11.2021
5366 Drizzle 6 1013 99 4800 2.06 200 05:42 21.11.2021
5367 Drizzle 6 1015 94 4000 2.57 200 03:26 21.11.2021
5368 Clouds 6 1016 93 8000 2.57 220 02:56 21.11.2021
5369 Drizzle 6 1016 92 9000 3.09 220 02:19 21.11.2021
5370 Clouds 6 1017 88 10000 3.09 210 00:50 21.11.2021
5371 Clouds 7 1018 86 10000 2.06 190 22:35 20.11.2021
5372 Clouds 8 1019 83 10000 2.57 190 21:33 20.11.2021
5373 Clouds 8 1019 81 10000 2.06 190 20:33 20.11.2021
5374 Clouds 9 1021 77 10000 2.06 190 18:45 20.11.2021
5375 Clouds 9 1021 77 10000 2.06 210 18:24 20.11.2021
5376 Clouds 10 1022 75 10000 3.09 180 17:22 20.11.2021
5377 Clouds 10 1023 79 10000 1.54 210 15:40 20.11.2021
5378 Clouds 11 1021 79 10000 1.54 180 14:39 20.11.2021
5379 Clouds 11 1022 80 10000 1.54 190 14:21 20.11.2021
5380 Clouds 10 1024 89 10000 1.03 0 11:56 20.11.2021
5381 Clouds 9 1025 90 10000 1.54 210 10:28 20.11.2021
5382 Clouds 8 1026 94 7000 1.54 200 08:55 20.11.2021
5383 Clouds 8 1028 97 6000 1.03 190 07:19 20.11.2021
5384 Clouds 8 1028 92 6000 2.06 200 05:24 20.11.2021
5385 Clouds 8 1026 94 6000 2.06 210 04:50 20.11.2021
5386 Clouds 8 1028 91 10000 2.57 210 01:41 20.11.2021
5387 Clouds 9 1028 91 10000 3.09 200 00:38 20.11.2021
5388 Clouds 9 1028 91 10000 2.06 180 22:55 19.11.2021
5389 Clouds 9 1028 92 10000 0.89 15 21:57 19.11.2021
5390 Clouds 9 1028 90 10000 1.54 190 20:57 19.11.2021
5391 Clouds 9 1028 90 10000 1.34 4 20:36 19.11.2021
5392 Clouds 9 1028 90 10000 2.57 190 19:50 19.11.2021
5393 Clouds 9 1028 90 10000 0.45 26 18:53 19.11.2021
5394 Clouds 9 1030 90 10000 1.03 0 18:22 19.11.2021
5395 Clouds 10 1028 86 10000 3.6 210 16:47 19.11.2021
5396 Clouds 10 1028 86 10000 5.14 200 15:32 19.11.2021
5397 Clouds 9 1029 89 10000 0.45 78 13:25 19.11.2021
5398 Drizzle 8 1029 97 2500 4.12 190 10:27 19.11.2021
5399 Mist 7 1032 95 4700 4.63 190 09:37 19.11.2021
5400 Clouds 7 1031 95 9000 3.09 190 07:41 19.11.2021
5401 Clouds 6 1031 90 10000 2.57 180 04:29 19.11.2021
5402 Clouds 6 1028 89 10000 1.34 29 02:26 19.11.2021
5403 Clouds 6 1031 88 10000 4.63 220 23:51 18.11.2021
5404 Clouds 6 1031 92 10000 3.6 220 21:55 18.11.2021
5405 Clouds 6 1031 87 10000 3.09 210 20:49 18.11.2021
5406 Clouds 6 1031 84 10000 4.12 220 20:30 18.11.2021
5407 Clouds 7 1031 83 10000 3.09 200 19:49 18.11.2021
5408 Clouds 7 1030 80 10000 3.09 240 19:29 18.11.2021
5409 Clouds 8 1030 82 10000 3.6 210 18:29 18.11.2021
5410 Clouds 8 1030 81 10000 3.09 200 17:51 18.11.2021
5411 Clouds 9 1030 77 10000 2.57 200 16:44 18.11.2021
5412 Clouds 9 1029 75 10000 3.6 200 15:46 18.11.2021
5413 Clouds 9 1028 80 10000 0.89 28 13:40 18.11.2021
5414 Clouds 8 1029 87 10000 0.89 16 12:34 18.11.2021
5415 Clouds 8 1029 91 9000 2.57 220 11:43 18.11.2021
5416 Clouds 7 1029 92 8000 3.09 210 11:24 18.11.2021
5417 Mist 6 1029 96 2500 1.54 220 09:44 18.11.2021
5418 Fog 5 1027 94 500 2.57 200 07:35 18.11.2021
5419 Fog 5 1027 95 1300 1.54 190 05:57 18.11.2021
5420 Fog 5 1029 97 1300 1.54 190 05:38 18.11.2021
5421 Clouds 6 1027 94 10000 1.03 0 01:24 18.11.2021
5422 Clouds 6 1027 94 10000 1.03 0 01:24 18.11.2021
5423 Clouds 7 1027 92 10000 4.63 210 23:19 17.11.2021
5424 Clouds 7 1027 92 10000 4.12 200 22:34 17.11.2021
5425 Clouds 7 1026 91 10000 3.09 200 21:54 17.11.2021
5426 Clouds 7 1026 91 10000 3.09 200 21:34 17.11.2021
5427 Clouds 7 1024 91 10000 3.6 210 19:22 17.11.2021
5428 Clouds 7 1023 90 10000 3.6 200 17:31 17.11.2021
5429 Clouds 8 1021 78 10000 3.09 210 15:23 17.11.2021
5430 Clouds 7 1020 80 10000 0.45 288 12:51 17.11.2021
5431 Clouds 7 1020 80 10000 3.6 220 12:25 17.11.2021
5432 Clouds 6 1022 85 10000 2.06 200 10:51 17.11.2021
5433 Drizzle 5 1022 95 10000 3.09 240 09:29 17.11.2021
5434 Drizzle 5 1021 95 10000 2.57 260 07:46 17.11.2021
5435 Drizzle 5 1021 96 10000 1.54 260 06:53 17.11.2021
5436 Clouds 6 1021 99 10000 1.54 200 02:47 17.11.2021
5437 Drizzle 6 1021 95 10000 1.54 220 23:46 16.11.2021
5438 Clouds 6 1021 96 7000 2.57 230 22:25 16.11.2021
5439 Drizzle 6 1021 95 7000 1.54 210 20:19 16.11.2021
5440 Drizzle 6 1021 95 10000 1.54 290 19:37 16.11.2021
5441 Clouds 6 1021 95 10000 1.03 280 18:43 16.11.2021
5442 Clouds 7 1021 94 10000 1.03 0 17:56 16.11.2021
5443 Clouds 7 1021 91 10000 1.03 0 16:59 16.11.2021
5444 Clouds 7 1021 91 10000 1.03 0 16:20 16.11.2021
5445 Clouds 7 1021 91 10000 1.54 360 15:43 16.11.2021
5446 Drizzle 7 1022 90 8000 2.06 360 13:46 16.11.2021
5447 Drizzle 7 1023 91 8000 1.54 50 10:27 16.11.2021
5448 Drizzle 7 1023 92 8000 1.54 40 09:41 16.11.2021
5449 Clouds 6 1022 91 9000 2.06 20 07:53 16.11.2021
5450 Clouds 6 1022 91 10000 3.09 20 07:28 16.11.2021
5451 Clouds 7 1023 86 10000 4.63 20 23:53 15.11.2021
5452 Clouds 7 1023 86 10000 4.12 20 22:41 15.11.2021
5453 Clouds 7 1023 86 10000 4.63 20 22:20 15.11.2021
5454 Clouds 7 1023 83 10000 4.12 20 21:32 15.11.2021
5455 Clouds 7 1023 86 10000 4.12 20 20:59 15.11.2021
5456 Clouds 8 1023 81 10000 3.09 20 19:26 15.11.2021
5457 Clouds 8 1023 81 10000 4.63 30 17:36 15.11.2021
5458 Clouds 8 1023 80 10000 5.14 20 15:56 15.11.2021
5459 Clouds 8 1023 79 10000 4.63 20 15:36 15.11.2021
5460 Clouds 8 1023 79 10000 5.66 20 14:39 15.11.2021
5461 Clouds 8 1024 80 10000 5.14 20 12:39 15.11.2021
5462 Clouds 8 1022 82 10000 6.17 20 10:33 15.11.2021
5463 Clouds 8 1024 85 10000 6.17 10 09:23 15.11.2021
5464 Clouds 8 1023 84 10000 5.14 20 07:26 15.11.2021
5465 Clouds 8 1024 83 10000 5.66 20 02:34 15.11.2021
5466 Clouds 8 1024 83 10000 6.69 20 22:47 14.11.2021
5467 Clouds 8 1024 85 10000 6.69 20 22:28 14.11.2021
5468 Clouds 9 1023 86 10000 4.12 30 19:51 14.11.2021
5469 Clouds 9 1023 87 10000 5.14 20 19:18 14.11.2021
5470 Clouds 9 1023 88 10000 4.63 20 18:54 14.11.2021
5471 Clouds 8 1023 88 10000 4.63 20 18:36 14.11.2021
5472 Clouds 9 1022 87 10000 5.14 20 18:18 14.11.2021
5473 Clouds 9 1022 87 10000 4.12 20 17:54 14.11.2021
5474 Clouds 9 1022 87 10000 4.12 20 17:36 14.11.2021
5475 Clouds 9 1022 87 10000 3.6 20 17:18 14.11.2021
5476 Clouds 10 1022 86 10000 3.6 20 16:45 14.11.2021
5477 Clouds 10 1022 85 10000 5.14 20 16:19 14.11.2021
5478 Clouds 10 1021 85 10000 3.6 20 15:22 14.11.2021
5479 Clouds 10 1021 85 10000 4.63 30 14:45 14.11.2021
5480 Clouds 10 1021 85 10000 5.14 40 14:26 14.11.2021
5481 Clouds 10 1021 86 10000 4.12 20 13:53 14.11.2021
5482 Clouds 10 1021 87 10000 4.12 20 13:35 14.11.2021
5483 Clouds 9 1021 90 10000 5.66 40 12:27 14.11.2021
5484 Clouds 9 1021 91 10000 3.6 30 11:40 14.11.2021
5485 Clouds 8 1020 91 10000 3.09 20 10:41 14.11.2021
5486 Clouds 8 1020 93 10000 4.63 20 09:47 14.11.2021
5487 Clouds 7 1019 95 10000 3.6 20 08:53 14.11.2021
5488 Clouds 7 1018 95 10000 2.57 20 06:54 14.11.2021
5489 Mist 7 1016 99 4500 1.54 40 23:34 13.11.2021
5490 Drizzle 7 1016 99 4000 0.51 0 22:25 13.11.2021
5491 Mist 6 1015 99 4500 1.03 10 21:50 13.11.2021
5492 Mist 6 1015 99 5000 1.03 0 21:20 13.11.2021
5493 Mist 6 1015 98 3500 2.06 30 19:38 13.11.2021
5494 Drizzle 6 1015 95 3400 2.06 30 18:33 13.11.2021
5495 Drizzle 6 1015 95 3400 2.06 30 18:33 13.11.2021
5496 Mist 6 1013 94 4500 2.06 70 17:55 13.11.2021
5497 Mist 6 1012 94 5000 0.51 360 16:37 13.11.2021
5498 Clouds 6 1012 94 6000 1.54 230 15:29 13.11.2021
5499 Mist 6 1012 96 5000 2.06 220 14:20 13.11.2021
5500 Mist 5 1013 95 3500 2.06 220 13:18 13.11.2021
5501 Clouds 5 1013 94 6000 2.06 210 12:22 13.11.2021
5502 Mist 5 1013 95 4200 2.06 180 11:34 13.11.2021
5503 Mist 4 1013 97 3700 2.06 190 10:45 13.11.2021
5504 Mist 4 1014 97 1600 2.06 170 10:20 13.11.2021
5505 Drizzle 3 1014 98 500 2.57 170 09:37 13.11.2021
5506 Fog 3 1016 96 500 1.54 170 08:56 13.11.2021
5507 Fog 3 1016 99 600 2.06 180 08:23 13.11.2021
5508 Mist 2 1016 99 1300 2.57 180 04:48 13.11.2021
5509 Mist 2 1013 98 1100 1.79 29 04:30 13.11.2021
5510 Mist 2 1017 96 2900 3.09 210 01:35 13.11.2021
5511 Mist 2 1018 99 1800 2.57 170 22:58 12.11.2021
5512 Mist 2 1018 99 1800 2.06 200 21:46 12.11.2021
5513 Drizzle 3 1016 98 1600 2.57 180 19:55 12.11.2021
5514 Drizzle 3 1016 98 2000 2.57 220 19:28 12.11.2021
5515 Mist 3 1016 94 1300 1.79 18 18:46 12.11.2021
5516 Mist 3 1016 91 1100 2.06 190 16:35 12.11.2021
5517 Mist 1 1019 100 1400 1.03 0 15:33 12.11.2021
5518 Fog 4 1018 91 800 2.06 160 11:58 12.11.2021
5519 Fog 3 1019 91 700 1.54 180 10:51 12.11.2021
5520 Fog 3 1021 93 700 1.54 200 09:45 12.11.2021
5521 Fog 2 1022 97 600 1.54 130 08:39 12.11.2021
5522 Fog 2 1023 99 200 0.51 260 03:18 12.11.2021
5523 Fog 2 1024 100 250 1.54 110 23:42 11.11.2021
5524 Fog 2 1025 100 400 1.54 80 22:39 11.11.2021
5525 Fog 3 1025 100 250 1.03 0 21:28 11.11.2021
5526 Clear 3 1025 100 10000 1.03 0 20:43 11.11.2021
5527 Fog 3 1023 96 150 2.06 260 19:24 11.11.2021
5528 Fog 4 1023 96 150 2.06 170 17:58 11.11.2021
5529 Fog 4 1022 96 150 2.06 170 17:36 11.11.2021
5530 Fog 5 1024 93 500 1.54 250 15:19 11.11.2021
5531 Mist 5 1025 93 1000 1.03 0 14:30 11.11.2021
5532 Clouds 8 1021 83 10000 0.59 35 13:40 11.11.2021
5533 Fog 5 1023 91 600 0.45 59 12:52 11.11.2021
5534 Fog 4 1023 87 900 1.54 160 11:30 11.11.2021
5535 Fog 3 1023 88 1000 1.03 0 09:49 11.11.2021
5536 Fog 1 1022 96 300 0.51 0 08:21 11.11.2021
5537 Clouds 1 1022 91 9000 1.54 40 06:18 11.11.2021
5538 Clear 2 1022 92 10000 1.03 60 00:36 11.11.2021
5539 Clear 2 1025 96 10000 0.51 0 22:38 10.11.2021
5540 Clear 2 1025 96 10000 1.03 0 21:46 10.11.2021
5541 Clear 3 1024 96 10000 0.51 0 20:53 10.11.2021
5542 Clear 3 1025 93 10000 1.03 0 19:50 10.11.2021
5543 Clear 3 1025 93 10000 1.54 250 19:32 10.11.2021
5544 Clouds 7 1024 81 10000 1.54 200 16:50 10.11.2021
5545 Clouds 8 1024 77 10000 1.03 0 15:46 10.11.2021
5546 Clear 8 1024 72 10000 1.03 0 14:24 10.11.2021
5547 Clear 7 1025 76 10000 1.03 0 13:31 10.11.2021
5548 Clouds 7 1025 74 10000 2.06 100 12:23 10.11.2021
5549 Clear 3 1025 91 10000 1.03 0 09:18 10.11.2021
5550 Clear 3 1023 91 10000 2.57 40 08:41 10.11.2021
5551 Clear 1 1025 94 10000 3.09 70 06:45 10.11.2021
5552 Clear 2 1023 89 10000 1.54 70 05:58 10.11.2021
5553 Clear 3 1024 90 10000 3.09 70 01:56 10.11.2021
5554 Clear 4 1027 88 10000 2.06 70 22:29 09.11.2021
5555 Clear 5 1026 87 10000 2.57 70 20:42 09.11.2021
5556 Clear 6 1027 80 10000 2.57 80 19:33 09.11.2021
5557 Clear 6 1026 77 10000 3.09 60 18:49 09.11.2021
5558 Clear 9 1027 60 10000 2.57 80 16:53 09.11.2021
5559 Clouds 11 1027 53 10000 4.12 90 15:20 09.11.2021
5560 Clouds 11 1028 51 10000 4.12 110 13:50 09.11.2021
5561 Clouds 11 1028 67 10000 3.6 90 12:47 09.11.2021
5562 Clouds 8 1027 84 10000 2.57 60 10:58 09.11.2021
5563 Clouds 6 1026 89 10000 3.6 60 09:59 09.11.2021
5564 Clouds 5 1026 92 10000 2.06 70 09:21 09.11.2021
5565 Clouds 3 1027 100 10000 2.57 60 07:52 09.11.2021
5566 Fog 6 1026 95 10000 2.06 90 02:37 09.11.2021
5567 Clouds 7 1026 95 10000 0.51 0 01:55 09.11.2021
5568 Clouds 7 1026 95 10000 0.51 0 01:36 09.11.2021
5569 Clouds 7 1026 95 10000 0.51 0 23:31 08.11.2021
5570 Clouds 7 1026 94 10000 0.51 0 22:47 08.11.2021
5571 Clouds 8 1025 93 10000 1.03 0 21:45 08.11.2021
5572 Clouds 8 1025 93 10000 1.54 210 20:36 08.11.2021
5573 Clouds 8 1025 92 10000 1.03 190 19:40 08.11.2021
5574 Clouds 9 1024 84 10000 0.51 0 17:44 08.11.2021
5575 Clouds 10 1023 73 10000 1.54 170 15:56 08.11.2021
5576 Clouds 10 1023 73 10000 2.06 190 14:57 08.11.2021
5577 Clouds 10 1021 73 10000 2.06 190 14:33 08.11.2021
5578 Clouds 11 1021 76 10000 1.54 0 13:20 08.11.2021
5579 Clouds 9 1022 82 10000 2.06 170 11:55 08.11.2021
5580 Clouds 8 1024 90 10000 1.54 190 10:50 08.11.2021
5581 Clouds 6 1023 96 10000 1.54 190 09:31 08.11.2021
5582 Clouds 6 1023 96 10000 2.06 200 08:52 08.11.2021
5583 Clouds 5 1022 97 10000 1.54 210 06:56 08.11.2021
5584 Clouds 5 1022 97 10000 1.54 210 06:56 08.11.2021
5585 Clouds 5 1019 92 10000 1.54 210 03:38 08.11.2021
5586 Clouds 5 1019 95 10000 0.51 0 03:19 08.11.2021
5587 Clouds 6 1020 88 10000 2.57 270 23:33 07.11.2021
5588 Clouds 7 1017 89 10000 5.14 220 21:31 07.11.2021
5589 Clouds 8 1016 90 10000 3.09 220 20:36 07.11.2021
5590 Clouds 8 1018 91 10000 5.14 230 19:22 07.11.2021
5591 Clouds 8 1017 88 10000 6.17 220 17:47 07.11.2021
5592 Clouds 9 1017 85 10000 6.69 220 16:44 07.11.2021
5593 Clouds 9 1015 85 10000 0.89 350 15:44 07.11.2021
5594 Clouds 9 1016 85 10000 7.72 220 14:28 07.11.2021
5595 Clouds 8 1016 86 10000 0.89 292 12:57 07.11.2021
5596 Clouds 8 1016 89 10000 0.89 0 11:42 07.11.2021
5597 Mist 6 1017 91 4800 6.17 200 09:26 07.11.2021
5598 Clouds 6 1017 92 10000 7.2 210 06:46 07.11.2021
5599 Clouds 5 1021 94 8000 0.45 350 02:32 07.11.2021
5600 Clouds 6 1023 96 6000 1.79 358 22:57 06.11.2021
5601 Clouds 6 1023 96 6000 5.14 200 22:32 06.11.2021
5602 Mist 6 1024 94 4500 4.12 200 21:32 06.11.2021
5603 Mist 6 1024 94 4000 0.89 22 20:50 06.11.2021
5604 Mist 6 1027 96 4000 2.57 200 18:56 06.11.2021
5605 Clouds 8 1025 88 8000 1.54 240 16:44 06.11.2021
5606 Clouds 10 1027 86 6000 3.6 220 14:37 06.11.2021
5607 Clouds 10 1027 88 6000 0.45 97 13:38 06.11.2021
5608 Clouds 10 1027 88 6000 3.09 170 13:38 06.11.2021
5609 Clouds 9 1027 91 10000 2.03 227 11:25 06.11.2021
5610 Fog 6 1029 96 100 1.03 0 09:23 06.11.2021
5611 Clouds 6 1029 95 9000 1.54 190 04:57 06.11.2021
5612 Clouds 7 1029 95 10000 1.54 210 01:47 06.11.2021
5613 Clear 7 1028 95 10000 2.06 200 23:35 05.11.2021
5614 Clouds 7 1028 95 10000 1.03 0 22:34 05.11.2021
5615 Clouds 7 1027 94 10000 1.03 170 20:51 05.11.2021
5616 Clear 7 1027 95 10000 1.03 0 20:20 05.11.2021
5617 Clear 8 1027 94 10000 1.54 210 19:40 05.11.2021
5618 Clear 8 1026 88 10000 2.57 290 18:39 05.11.2021
5619 Clouds 9 1025 80 10000 1.03 0 17:26 05.11.2021
5620 Clouds 11 1024 72 10000 2.06 270 15:34 05.11.2021
5621 Clouds 11 1023 74 10000 1.54 0 13:37 05.11.2021
5622 Clouds 9 1022 86 10000 3.09 220 11:22 05.11.2021
5623 Clouds 7 1020 95 10000 1.54 200 08:40 05.11.2021
5624 Clouds 6 1019 97 10000 2.57 200 07:39 05.11.2021
5625 Clouds 6 1017 96 10000 2.57 190 05:32 05.11.2021
5626 Clouds 7 1015 92 10000 1.54 230 02:26 05.11.2021
5627 Clouds 7 1014 93 10000 2.57 190 00:51 05.11.2021
5628 Clouds 7 1013 91 10000 3.6 200 23:23 04.11.2021
5629 Clouds 7 1012 91 10000 4.12 200 22:19 04.11.2021
5630 Clouds 7 1012 91 10000 5.14 210 21:35 04.11.2021
5631 Clouds 7 1011 91 10000 4.63 210 20:41 04.11.2021
5632 Rain 7 1011 92 10000 4.12 210 20:21 04.11.2021
5633 Clouds 8 1011 92 10000 4.12 210 19:44 04.11.2021
5634 Clouds 8 1010 90 10000 2.57 190 18:44 04.11.2021
5635 Clouds 8 1009 87 10000 3.09 250 17:54 04.11.2021
5636 Clouds 8 1008 83 7000 2.57 270 16:47 04.11.2021
5637 Clouds 9 1005 80 10000 0.45 160 14:42 04.11.2021
5638 Clouds 8 1003 84 10000 5.14 270 12:32 04.11.2021
5639 Clouds 8 1003 91 10000 3.6 300 09:37 04.11.2021
5640 Clouds 7 1002 94 10000 2.06 260 08:31 04.11.2021
5641 Clouds 7 1001 96 10000 2.57 280 07:34 04.11.2021
5642 Mist 7 1001 99 2500 2.06 230 04:47 04.11.2021
5643 Clouds 8 1001 96 10000 0 0 22:53 03.11.2021
5644 Clouds 8 1001 96 10000 1.03 0 21:49 03.11.2021
5645 Clouds 8 1001 96 10000 2.57 150 21:30 03.11.2021
5646 Clouds 8 1001 96 10000 1.54 140 20:36 03.11.2021
5647 Clouds 8 1001 97 10000 1.54 130 19:58 03.11.2021
5648 Clouds 8 1000 99 10000 2.06 160 18:57 03.11.2021
5649 Clouds 8 1000 97 10000 1.03 0 18:23 03.11.2021
5650 Clouds 9 1000 97 10000 2.06 140 17:36 03.11.2021
5651 Rain 9 1000 93 10000 1.54 140 16:26 03.11.2021
5652 Rain 9 1000 94 10000 2.57 170 15:44 03.11.2021
5653 Clouds 9 1000 93 10000 1.03 0 13:57 03.11.2021
5654 Rain 9 1000 95 10000 1.54 110 12:33 03.11.2021
5655 Rain 8 1000 93 10000 3.09 70 11:27 03.11.2021
5656 Rain 8 1000 95 10000 4.12 70 10:49 03.11.2021
5657 Rain 7 1000 95 10000 4.63 60 09:31 03.11.2021
5658 Rain 7 1000 96 9000 4.12 50 08:23 03.11.2021
5659 Clouds 7 1000 97 9000 3.6 40 07:39 03.11.2021
5660 Rain 7 1001 96 10000 2.57 60 05:35 03.11.2021
5661 Clouds 6 1002 99 10000 1.03 40 02:50 03.11.2021
5662 Clouds 7 1003 95 10000 2.57 190 23:56 02.11.2021
5663 Clouds 7 1003 95 10000 3.6 190 22:47 02.11.2021
5664 Clouds 8 1003 95 10000 2.06 200 21:39 02.11.2021
5665 Clouds 8 1002 95 10000 3.6 200 20:34 02.11.2021
5666 Clouds 8 1002 95 10000 3.6 190 19:54 02.11.2021
5667 Clouds 8 1002 95 10000 2.57 180 19:18 02.11.2021
5668 Clouds 8 1002 95 10000 2.06 200 18:26 02.11.2021
5669 Clouds 8 1002 95 10000 2.06 190 17:43 02.11.2021
5670 Rain 8 1001 94 10000 3.09 200 16:31 02.11.2021
5671 Rain 9 1001 94 10000 4.63 210 15:48 02.11.2021
5672 Rain 9 1001 93 10000 4.12 200 14:31 02.11.2021
5673 Rain 10 999 92 10000 0.89 46 13:28 02.11.2021
5674 Rain 10 1001 88 10000 5.14 200 12:45 02.11.2021
5675 Clouds 10 1002 90 10000 1.54 190 11:38 02.11.2021
5676 Clouds 10 1000 87 10000 2.06 210 10:54 02.11.2021
5677 Clouds 9 1000 90 10000 2.57 210 10:30 02.11.2021
5678 Clouds 8 1002 96 7000 1.54 210 08:45 02.11.2021
5679 Clouds 7 1001 97 8000 2.06 200 07:36 02.11.2021
5680 Clouds 8 1002 99 6000 1.54 220 04:39 02.11.2021
5681 Clouds 8 1002 98 6000 1.03 310 02:35 02.11.2021
5682 Fog 7 1003 97 10000 0.51 0 23:32 01.11.2021
5683 Fog 8 1001 95 10000 0.51 0 21:28 01.11.2021
5684 Clouds 8 999 95 10000 2.41 191 20:40 01.11.2021
5685 Clear 8 1001 94 10000 1.03 0 19:58 01.11.2021
5686 Clear 8 1003 95 10000 2.57 170 19:35 01.11.2021
5687 Clouds 9 1003 95 10000 2.06 130 18:23 01.11.2021
5688 Clouds 10 1003 93 10000 3.6 160 17:35 01.11.2021
5689 Clouds 11 1001 89 10000 3.6 150 16:50 01.11.2021
5690 Clouds 12 1001 87 6000 0.45 19 15:56 01.11.2021
5691 Rain 12 1000 87 7000 0.89 9 15:27 01.11.2021
5692 Clouds 13 1001 82 10000 0.45 244 14:44 01.11.2021
5693 Clouds 13 1001 80 8000 1.34 28 14:23 01.11.2021
5694 Clouds 13 1001 81 10000 2.24 2 13:50 01.11.2021
5695 Clouds 12 1001 86 10000 1.34 351 12:34 01.11.2021
5696 Clouds 12 1002 90 10000 0.45 4 11:26 01.11.2021
5697 Rain 11 1004 94 10000 4.12 190 09:43 01.11.2021
5698 Rain 11 1003 95 10000 4.63 180 08:18 01.11.2021
5699 Rain 11 1003 95 10000 4.12 180 07:40 01.11.2021
5700 Rain 12 1000 91 10000 2.57 180 03:48 01.11.2021
5701 Clouds 14 999 87 10000 4.63 170 01:37 01.11.2021
5702 Clouds 14 999 85 10000 2.57 180 22:42 31.10.2021
5703 Clear 13 999 94 10000 2.57 170 20:50 31.10.2021
5704 Clouds 15 998 89 10000 3.39 155 19:22 31.10.2021
5705 Clouds 14 998 90 10000 2.5 152 19:22 31.10.2021
5706 Clear 15 1000 88 10000 1.54 290 18:40 31.10.2021
5707 Clouds 16 1000 87 10000 3.09 70 17:32 31.10.2021
5708 Clouds 17 1002 80 10000 1.54 90 15:50 31.10.2021
5709 Clouds 17 1003 74 10000 2.06 160 14:24 31.10.2021
5710 Clouds 17 1004 77 10000 1.03 0 12:50 31.10.2021
5711 Clouds 16 1005 76 10000 1.54 230 11:41 31.10.2021
5712 Clouds 14 1006 84 10000 1.03 0 10:44 31.10.2021
5713 Clouds 11 1006 94 7000 1.54 80 09:22 31.10.2021
5714 Fog 10 1007 96 6000 0.51 0 08:37 31.10.2021
5715 Clouds 9 1007 95 10000 1.03 240 01:57 31.10.2021
5716 Clouds 9 1006 94 9000 3.09 190 22:47 30.10.2021
5717 Clouds 9 1006 94 7000 0.89 8 21:35 30.10.2021
5718 Clouds 9 1005 94 7000 1.03 230 20:52 30.10.2021
5719 Clouds 8 1005 92 6000 1.54 270 19:19 30.10.2021
5720 Rain 8 1007 95 7000 2.06 70 17:27 30.10.2021
5721 Rain 8 1007 91 8000 1.03 0 15:26 30.10.2021
5722 Rain 8 1007 90 8000 2.06 70 13:40 30.10.2021
5723 Rain 8 1007 94 6000 4.12 80 13:21 30.10.2021
5724 Rain 9 1005 81 10000 1.54 70 12:57 30.10.2021
5725 Rain 8 1006 85 10000 2.57 60 11:46 30.10.2021
5726 Clouds 8 1006 85 10000 2.57 40 10:32 30.10.2021
5727 Clear 6 1006 90 10000 5.14 50 08:53 30.10.2021
5728 Clear 6 1006 90 10000 4.63 40 07:42 30.10.2021
5729 Clear 5 1009 94 10000 4.12 30 05:44 30.10.2021
5730 Clouds 6 1009 91 9000 1.54 70 01:37 30.10.2021
5731 Clouds 8 1008 88 10000 1.75 153 22:54 29.10.2021
5732 Clouds 8 1008 88 10000 1.63 167 22:32 29.10.2021
5733 Clouds 8 1007 86 10000 1.68 155 20:46 29.10.2021
5734 Clouds 9 1007 86 10000 1.55 148 20:26 29.10.2021
5735 Clear 10 1009 86 10000 1.03 170 18:38 29.10.2021
5736 Clouds 12 1007 77 10000 1.5 167 17:24 29.10.2021
5737 Clouds 14 1008 71 10000 0.45 61 15:22 29.10.2021
5738 Clouds 9 1012 87 9000 1.03 0 12:29 29.10.2021
5739 Fog 8 1015 98 1000 1.03 0 10:46 29.10.2021
5740 Fog 6 1015 100 600 2.06 170 08:47 29.10.2021
5741 Clouds 7 1015 93 6000 2.57 50 00:46 29.10.2021
5742 Clouds 8 1017 93 8000 2.06 30 23:46 28.10.2021
5743 Clouds 8 1017 96 10000 2.57 20 22:20 28.10.2021
5744 Clouds 9 1018 91 10000 1.54 360 20:57 28.10.2021
5745 Clouds 8 1018 91 10000 1.03 320 19:52 28.10.2021
5746 Clouds 9 1018 89 10000 1.03 0 18:30 28.10.2021
5747 Clouds 10 1017 84 10000 1.03 0 17:20 28.10.2021
5748 Clouds 11 1017 84 10000 1.03 0 16:37 28.10.2021
5749 Clouds 9 1020 93 8000 1.03 0 14:40 28.10.2021
5750 Clouds 10 1019 88 7000 1.54 230 13:32 28.10.2021
5751 Mist 10 1019 92 4200 2.06 160 12:49 28.10.2021
5752 Clear 10 1017 83 10000 1.62 164 11:26 28.10.2021
5753 Clouds 8 1019 92 9000 1.54 60 10:23 28.10.2021
5754 Clouds 7 1019 90 9000 2.06 70 09:37 28.10.2021
5755 Clouds 6 1019 93 9000 2.57 60 08:36 28.10.2021
5756 Clear 6 1019 93 10000 3.09 40 07:41 28.10.2021
5757 Clear 7 1023 94 10000 1.54 10 01:37 28.10.2021
5758 Clear 9 1023 93 10000 0.51 0 22:48 27.10.2021
5759 Clear 10 1024 93 10000 0.51 0 21:53 27.10.2021
5760 Clear 10 1024 92 10000 1.03 0 21:20 27.10.2021
5761 Clouds 10 1024 93 10000 0 0 20:43 27.10.2021
5762 Clouds 11 1024 90 10000 1.03 130 19:46 27.10.2021
5763 Clouds 13 1024 83 10000 1.03 180 18:56 27.10.2021
5764 Clouds 15 1024 72 10000 1.54 190 17:39 27.10.2021
5765 Clouds 16 1025 70 10000 2.57 190 16:25 27.10.2021
5766 Clouds 16 1025 72 10000 2.57 190 15:24 27.10.2021
5767 Clouds 15 1026 74 10000 2.57 190 14:24 27.10.2021
5768 Clouds 11 1025 87 10000 2.06 190 11:18 27.10.2021
5769 Clouds 11 1025 90 10000 2.06 210 10:37 27.10.2021
5770 Clouds 9 1024 94 10000 1.03 0 09:23 27.10.2021
5771 Clouds 9 1024 93 10000 1.03 210 07:46 27.10.2021
5772 Clouds 8 1023 93 10000 1.03 270 05:49 27.10.2021
5773 Clear 8 1025 94 10000 2.06 180 01:26 27.10.2021
5774 Clear 8 1025 94 10000 2.57 200 00:54 27.10.2021
5775 Clear 8 1025 91 10000 1.54 190 23:55 26.10.2021
5776 Clouds 9 1025 90 10000 2.57 210 22:47 26.10.2021
5777 Clear 9 1025 88 10000 3.09 210 22:27 26.10.2021
5778 Clear 9 1025 89 10000 3.09 210 21:51 26.10.2021
5779 Clouds 11 1024 80 10000 3.09 190 19:59 26.10.2021
5780 Clouds 12 1023 75 10000 3.6 210 19:22 26.10.2021
5781 Clouds 13 1023 69 10000 3.09 200 18:25 26.10.2021
5782 Clouds 15 1020 67 10000 6.69 230 15:51 26.10.2021
5783 Clouds 15 1023 76 10000 3.09 190 13:45 26.10.2021
5784 Clouds 12 1021 91 10000 0.89 338 11:18 26.10.2021
5785 Clouds 10 1020 93 10000 1.03 0 09:27 26.10.2021
5786 Rain 9 1019 94 10000 1.03 270 07:23 26.10.2021
5787 Clouds 8 1019 90 10000 0.51 0 00:30 26.10.2021
5788 Clouds 8 1019 89 10000 1.03 200 23:48 25.10.2021
5789 Clouds 8 1018 91 10000 1.03 200 22:35 25.10.2021
5790 Clear 8 1017 89 10000 1.03 220 21:47 25.10.2021
5791 Clear 8 1018 89 10000 1.03 140 21:23 25.10.2021
5792 Clear 9 1018 85 10000 1.03 220 19:44 25.10.2021
5793 Clouds 9 1018 82 10000 0.51 0 19:24 25.10.2021
5794 Clouds 10 1018 77 10000 1.54 290 18:42 25.10.2021
5795 Clear 12 1018 74 10000 1.03 0 17:42 25.10.2021
5796 Clear 13 1019 62 10000 1.54 0 15:31 25.10.2021
5797 Clouds 10 1018 77 10000 2.64 210 13:29 25.10.2021
5798 Clouds 8 1018 87 10000 2.21 198 11:25 25.10.2021
5799 Fog 4 1020 93 50 1.03 0 09:23 25.10.2021
5800 Fog 3 1019 92 300 0.51 0 07:26 25.10.2021
5801 Fog 4 1020 89 700 0.51 0 05:24 25.10.2021
5802 Clear 5 1021 88 10000 0.51 360 00:52 25.10.2021
5803 Clear 4 1021 89 10000 1.54 150 00:34 25.10.2021
5804 Clear 4 1021 89 10000 1.54 150 00:34 25.10.2021
5805 Clear 4 1023 89 10000 0.51 0 23:44 24.10.2021
5806 Clear 5 1023 92 10000 1.03 0 22:40 24.10.2021
5807 Clear 5 1023 92 10000 1.03 0 22:20 24.10.2021
5808 Clear 6 1024 90 10000 0.51 230 21:37 24.10.2021
5809 Clear 7 1024 86 10000 0.51 0 20:42 24.10.2021
5810 Clear 8 1024 81 10000 0.51 0 19:49 24.10.2021
5811 Clear 11 1024 64 10000 1.54 110 18:30 24.10.2021
5812 Clear 11 1024 63 10000 1.54 110 18:30 24.10.2021
5813 Clear 12 1023 63 10000 2.06 120 17:48 24.10.2021
5814 Clear 13 1025 56 10000 3.6 100 15:57 24.10.2021
5815 Clear 13 1026 56 10000 4.12 90 15:20 24.10.2021
5816 Clear 11 1027 59 10000 3.6 80 13:23 24.10.2021
5817 Clear 10 1026 65 10000 0.45 215 12:26 24.10.2021
5818 Clear 9 1025 70 10000 3.6 70 11:36 24.10.2021
5819 Clear 7 1025 77 10000 4.63 60 10:40 24.10.2021
5820 Clear 3 1025 91 10000 3.6 50 08:43 24.10.2021
5821 Clear 4 1030 94 10000 2.06 50 02:58 24.10.2021
5822 Clouds 5 1030 93 10000 1.54 40 23:51 23.10.2021
5823 Clouds 6 1030 92 10000 0.51 0 22:54 23.10.2021
5824 Clouds 7 1030 83 10000 1.54 80 20:59 23.10.2021
5825 Clear 9 1030 77 10000 1.03 0 19:36 23.10.2021
5826 Clouds 10 1030 69 10000 1.03 0 18:44 23.10.2021
5827 Clouds 11 1029 71 10000 2.06 260 17:46 23.10.2021
5828 Clouds 12 1030 64 10000 2.06 230 17:18 23.10.2021
5829 Clouds 12 1030 70 10000 2.06 310 15:56 23.10.2021
5830 Clouds 12 1028 70 10000 2.06 270 13:35 23.10.2021
5831 Clouds 9 1022 77 10000 4.12 270 00:45 23.10.2021
5832 Clouds 10 1022 73 10000 5.14 240 23:36 22.10.2021
5833 Clouds 10 1022 67 10000 7.2 230 21:37 22.10.2021
5834 Clouds 10 1021 64 10000 6.69 230 19:33 22.10.2021
5835 Clouds 11 1020 61 10000 6.69 220 18:25 22.10.2021
5836 Clouds 11 1019 61 10000 9.77 240 16:30 22.10.2021
5837 Clouds 11 1019 60 10000 9.26 250 14:45 22.10.2021
5838 Clouds 10 1020 61 10000 8.23 240 12:41 22.10.2021
5839 Clouds 8 1017 80 10000 1.79 50 10:56 22.10.2021
5840 Clouds 7 1017 85 10000 5.66 190 10:33 22.10.2021
5841 Clouds 6 1016 88 10000 0.45 81 09:34 22.10.2021
5842 Clouds 4 1017 95 10000 1.54 180 07:40 22.10.2021
5843 Clouds 4 1018 95 10000 3.32 242 07:21 22.10.2021
5844 Clouds 4 1018 95 10000 3.32 242 07:21 22.10.2021
5845 Clouds 6 1017 90 10000 3.09 200 01:41 22.10.2021
5846 Clouds 7 1015 91 10000 3.09 250 23:50 21.10.2021
5847 Clouds 8 1014 89 10000 1.54 240 22:43 21.10.2021
5848 Clouds 8 1013 87 10000 3.6 230 21:28 21.10.2021
5849 Rain 8 1011 88 10000 4.12 210 20:23 21.10.2021
5850 Clouds 9 1009 86 10000 0.89 11 19:55 21.10.2021
5851 Rain 9 1008 84 6000 8.23 300 19:25 21.10.2021
5852 Rain 13 1007 58 10000 3.58 102 18:33 21.10.2021
5853 Clouds 14 1008 53 10000 7.72 220 17:51 21.10.2021
5854 Clouds 14 1006 51 10000 1.34 50 16:50 21.10.2021
5855 Clouds 15 1006 57 10000 0.89 109 15:33 21.10.2021
5856 Clouds 14 1009 54 10000 10.8 230 14:56 21.10.2021
5857 Clouds 14 1008 54 10000 13.89 230 14:37 21.10.2021
5858 Clouds 14 1008 54 10000 13.89 230 14:37 21.10.2021
5859 Clouds 13 1005 60 10000 2.24 42 11:56 21.10.2021
5860 Clouds 13 998 70 10000 1.79 358 09:42 21.10.2021
5861 Clouds 13 994 64 10000 4.92 16 07:54 21.10.2021
5862 Clouds 14 996 68 10000 3.13 21 06:46 21.10.2021
5863 Rain 16 1001 91 10000 4.02 33 00:51 21.10.2021
5864 Rain 16 1003 93 10000 2.24 53 22:36 20.10.2021
5865 Rain 16 1004 91 10000 0.45 236 21:48 20.10.2021
5866 Rain 16 1005 88 10000 0.89 37 20:59 20.10.2021
5867 Rain 16 1005 87 10000 6.69 190 20:39 20.10.2021
5868 Rain 16 1005 85 10000 4.63 200 20:19 20.10.2021
5869 Clouds 16 1006 85 10000 5.14 210 19:23 20.10.2021
5870 Clouds 17 1006 83 10000 0.45 146 18:45 20.10.2021
5871 Clouds 18 1007 77 10000 1.34 80 17:36 20.10.2021
5872 Clouds 18 1009 79 10000 6.21 220 14:56 20.10.2021
5873 Clear 12 1011 87 10000 0.89 133 09:57 20.10.2021
5874 Clear 10 1013 94 10000 1.54 240 06:57 20.10.2021
5875 Clear 10 1016 94 10000 3.09 190 02:38 20.10.2021
5876 Fog 10 1018 96 500 0.51 260 00:34 20.10.2021
5877 Fog 10 1018 96 9000 1.54 180 22:58 19.10.2021
5878 Fog 11 1019 95 9000 1.03 270 21:38 19.10.2021
5879 Clouds 12 1019 93 9000 1.03 0 20:36 19.10.2021
5880 Fog 12 1019 93 6000 1.54 260 20:18 19.10.2021
5881 Clouds 13 1019 92 8000 0.51 0 19:37 19.10.2021
5882 Clear 13 1018 92 10000 1.03 330 18:45 19.10.2021
5883 Clouds 14 1019 90 10000 1.54 340 17:56 19.10.2021
5884 Clouds 13 1020 92 8000 1.54 230 15:31 19.10.2021
5885 Clouds 12 1020 94 8000 1.54 230 14:46 19.10.2021
5886 Clouds 12 1020 94 8000 1.54 230 14:46 19.10.2021
5887 Rain 11 1021 95 4000 2.57 200 13:56 19.10.2021
5888 Drizzle 10 1022 95 4400 2.57 220 12:24 19.10.2021
5889 Clouds 10 1022 97 7000 2.57 210 11:31 19.10.2021
5890 Drizzle 9 1021 96 2800 2.06 210 09:55 19.10.2021
5891 Mist 8 1021 96 4000 2.06 210 08:57 19.10.2021
5892 Clouds 7 1023 90 10000 0.51 230 04:25 19.10.2021
5893 Fog 7 1024 96 10000 0.51 250 00:22 19.10.2021
5894 Clear 7 1026 94 10000 1.03 200 23:49 18.10.2021
5895 Clear 7 1026 94 10000 0.51 0 23:18 18.10.2021
5896 Clear 8 1025 94 10000 1.03 0 22:31 18.10.2021
5897 Clear 8 1025 94 10000 1.03 0 22:31 18.10.2021
5898 Clear 9 1026 90 10000 2.57 10 20:57 18.10.2021
5899 Clear 9 1026 91 10000 2.57 10 20:33 18.10.2021
5900 Clouds 9 1025 88 10000 1.54 360 19:50 18.10.2021
5901 Clouds 10 1025 87 10000 1.54 10 19:28 18.10.2021
5902 Clouds 10 1025 84 10000 1.03 0 18:50 18.10.2021
5903 Clouds 12 1023 78 10000 1.54 190 15:25 18.10.2021
5904 Clouds 11 1024 83 10000 1.54 200 12:55 18.10.2021
5905 Clouds 9 1027 94 6000 1.03 0 10:36 18.10.2021
5906 Mist 8 1026 96 5000 1.03 200 09:27 18.10.2021
5907 Mist 6 1024 94 2000 1.03 180 02:30 18.10.2021
5908 Clouds 8 1024 92 8000 1.03 180 23:30 17.10.2021
5909 Clear 9 1023 88 10000 1.54 200 21:52 17.10.2021
5910 Clear 10 1023 85 10000 1.54 210 21:00 17.10.2021
5911 Clear 10 1023 84 10000 3.09 230 20:38 17.10.2021
5912 Clear 11 1022 78 10000 1.54 160 19:39 17.10.2021
5913 Clouds 11 1022 76 10000 0.2 131 18:58 17.10.2021
5914 Clouds 13 1021 61 10000 2.57 90 17:34 17.10.2021
5915 Clouds 14 1021 56 10000 3.09 60 15:42 17.10.2021
5916 Clouds 14 1022 59 10000 3.09 50 14:24 17.10.2021
5917 Clouds 13 1022 63 10000 3.6 50 13:42 17.10.2021
5918 Clouds 11 1019 73 10000 2.57 360 11:57 17.10.2021
5919 Clouds 10 1019 81 10000 2.57 50 10:43 17.10.2021
5920 Clouds 8 1022 91 10000 1.03 0 09:41 17.10.2021
5921 Clouds 7 1021 91 10000 1.54 60 07:19 17.10.2021
5922 Clouds 8 1022 87 10000 2.57 20 00:53 17.10.2021
5923 Clouds 8 1022 89 10000 2.57 360 00:22 17.10.2021
5924 Clouds 8 1020 83 10000 1.03 0 21:52 16.10.2021
5925 Clouds 9 1022 86 10000 2.06 10 20:32 16.10.2021
5926 Clouds 9 1022 82 10000 2.57 70 19:46 16.10.2021
5927 Clouds 10 1022 77 10000 2.57 70 19:23 16.10.2021
5928 Clouds 11 1022 72 10000 2.06 70 18:56 16.10.2021
5929 Clouds 12 1022 65 10000 2.57 70 18:38 16.10.2021
5930 Clouds 12 1022 70 10000 2.57 70 18:18 16.10.2021
5931 Clouds 14 1020 59 10000 2.06 50 17:27 16.10.2021
5932 Clouds 14 1022 59 10000 2.06 80 15:38 16.10.2021
5933 Clear 11 1019 80 10000 1.53 59 12:30 16.10.2021
5934 Clouds 8 1021 82 10000 2.06 10 10:49 16.10.2021
5935 Fog 5 1020 93 6000 2.57 70 08:32 16.10.2021
5936 Clear 7 1020 92 10000 1.03 0 01:27 16.10.2021
5937 Clear 8 1020 92 10000 0.51 0 23:57 15.10.2021
5938 Clear 9 1020 89 10000 2.06 330 23:25 15.10.2021
5939 Clear 10 1019 88 10000 3.09 340 22:20 15.10.2021
5940 Clear 10 1019 86 10000 3.09 310 21:32 15.10.2021
5941 Clouds 11 1019 85 10000 2.06 310 20:52 15.10.2021
5942 Clouds 11 1018 84 10000 3.6 300 20:18 15.10.2021
5943 Clouds 13 1019 79 10000 3.09 0 18:45 15.10.2021
5944 Clouds 13 1017 76 10000 3.6 320 17:59 15.10.2021
5945 Clouds 15 1017 68 10000 3.6 220 15:45 15.10.2021
5946 Clouds 14 1017 73 10000 0.45 101 13:39 15.10.2021
5947 Clouds 11 1016 81 10000 3.6 210 11:46 15.10.2021
5948 Clouds 10 1017 86 7000 2.57 210 10:58 15.10.2021
5949 Clouds 9 1017 92 6000 3.09 190 10:19 15.10.2021
5950 Fog 6 1020 93 6000 2.06 200 06:57 15.10.2021
5951 Clear 8 1021 90 10000 2.57 190 02:31 15.10.2021
5952 Clouds 10 1021 86 10000 3.09 190 00:22 15.10.2021
5953 Clouds 11 1023 82 10000 3.6 180 22:52 14.10.2021
5954 Clouds 12 1024 78 10000 3.6 180 21:46 14.10.2021
5955 Clouds 12 1024 78 10000 3.6 180 21:19 14.10.2021
5956 Clouds 13 1024 79 10000 3.6 180 20:20 14.10.2021
5957 Clouds 13 1024 79 10000 3.09 170 19:42 14.10.2021
5958 Clouds 14 1022 72 10000 2.57 220 18:26 14.10.2021
5959 Clouds 15 1023 74 10000 2.57 200 16:57 14.10.2021
5960 Clouds 15 1023 75 10000 2.57 190 16:21 14.10.2021
5961 Clouds 13 1024 76 10000 3.09 190 14:44 14.10.2021
5962 Clouds 13 1024 77 10000 0.45 261 14:24 14.10.2021
5963 Clouds 11 1025 84 10000 0.45 8 12:35 14.10.2021
5964 Clouds 10 1025 87 10000 0.89 158 11:26 14.10.2021
5965 Clouds 9 1022 93 10000 2.24 53 07:45 14.10.2021
5966 Clouds 8 1027 94 10000 1.5 223 04:23 14.10.2021
5967 Clouds 8 1028 90 10000 1.46 229 00:36 14.10.2021
5968 Clouds 8 1028 90 10000 2.06 210 22:39 13.10.2021
5969 Clouds 9 1027 87 10000 1.54 260 21:36 13.10.2021
5970 Clouds 9 1027 84 10000 1.54 190 20:41 13.10.2021
5971 Clouds 10 1027 77 10000 2.06 290 19:20 13.10.2021
5972 Clouds 11 1026 69 10000 3.6 300 18:37 13.10.2021
5973 Clouds 12 1026 73 10000 4.12 310 16:35 13.10.2021
5974 Clouds 12 1026 70 10000 3.6 290 14:46 13.10.2021
5975 Clouds 12 1026 71 10000 4.12 290 14:23 13.10.2021
5976 Clouds 11 1026 78 10000 2.06 250 12:42 13.10.2021
5977 Clouds 10 1026 90 10000 2.06 240 11:36 13.10.2021
5978 Clouds 8 1025 95 10000 1.03 0 09:56 13.10.2021
5979 Clouds 6 1023 99 9000 2.06 240 07:53 13.10.2021
5980 Clear 5 1023 95 10000 1.54 230 03:37 13.10.2021
5981 Clear 6 1022 94 10000 2.57 260 02:21 13.10.2021
5982 Clear 7 1021 95 10000 1.54 230 23:33 12.10.2021
5983 Clear 7 1020 93 10000 1.54 0 22:50 12.10.2021
5984 Clouds 8 1020 93 10000 2.57 300 22:26 12.10.2021
5985 Clouds 9 1019 92 10000 2.06 290 20:54 12.10.2021
5986 Clouds 9 1019 91 10000 3.09 260 20:31 12.10.2021
5987 Clouds 10 1018 92 10000 3.6 300 19:36 12.10.2021
5988 Rain 11 1018 94 10000 4.12 190 18:25 12.10.2021
5989 Clouds 11 1018 93 10000 2.06 220 17:21 12.10.2021
5990 Rain 11 1018 92 10000 4.12 210 16:22 12.10.2021
5991 Rain 12 1018 88 10000 5.14 240 15:31 12.10.2021
5992 Rain 12 1018 88 10000 5.14 240 15:30 12.10.2021
5993 Rain 12 1020 87 10000 4.12 210 13:46 12.10.2021
5994 Clouds 12 1020 87 10000 4.63 230 13:18 12.10.2021
5995 Clouds 11 1019 93 10000 3.09 190 11:30 12.10.2021
5996 Clouds 10 1022 96 10000 3.09 190 09:34 12.10.2021
5997 Mist 9 1021 99 5000 2.06 180 08:26 12.10.2021
5998 Rain 9 1023 95 6000 1.54 210 06:45 12.10.2021
5999 Rain 9 1024 94 10000 2.06 190 04:39 12.10.2021
6000 Clouds 9 1025 94 10000 2.06 200 02:55 12.10.2021
6001 Clouds 9 1026 95 10000 2.57 190 23:49 11.10.2021
6002 Clouds 9 1026 95 10000 1.54 200 23:28 11.10.2021
6003 Clouds 9 1026 95 10000 1.54 200 23:28 11.10.2021
6004 Clear 9 1026 96 10000 2.06 190 22:51 11.10.2021
6005 Clear 9 1026 93 10000 2.06 180 21:25 11.10.2021
6006 Clouds 10 1026 88 10000 1.54 170 19:53 11.10.2021
6007 Clouds 10 1026 89 10000 1.54 170 19:34 11.10.2021
6008 Clouds 12 1024 82 10000 1.54 190 18:23 11.10.2021
6009 Clouds 12 1024 82 10000 1.54 190 18:23 11.10.2021
6010 Clouds 13 1024 77 10000 2.06 180 16:40 11.10.2021
6011 Clouds 13 1024 78 10000 2.06 160 16:20 11.10.2021
6012 Clouds 13 1024 78 10000 2.57 180 15:44 11.10.2021
6013 Clouds 12 1025 79 10000 2.06 200 14:53 11.10.2021
6014 Clouds 11 1025 82 9000 1.54 160 14:19 11.10.2021
6015 Clouds 11 1024 85 9000 2.06 210 13:35 11.10.2021
6016 Clouds 8 1024 90 10000 3.09 220 11:18 11.10.2021
6017 Clouds 8 1022 83 10000 0.87 218 09:47 11.10.2021
6018 Clouds 5 1023 91 9000 1.54 170 08:31 11.10.2021
6019 Clear 5 1026 96 10000 1.03 230 01:45 11.10.2021
6020 Clear 5 1027 94 10000 2.06 240 00:58 11.10.2021
6021 Clear 6 1027 94 10000 2.06 240 00:39 11.10.2021
6022 Clear 7 1027 94 10000 1.03 0 22:41 10.10.2021
6023 Clear 7 1027 92 10000 1.03 0 21:49 10.10.2021
6024 Clear 7 1027 92 10000 0.51 0 21:19 10.10.2021
6025 Clear 8 1027 84 10000 0.51 0 20:39 10.10.2021
6026 Clear 9 1027 87 10000 0.51 0 20:19 10.10.2021
6027 Clear 10 1027 79 10000 1.03 230 19:44 10.10.2021
6028 Clear 11 1027 73 10000 1.03 190 19:26 10.10.2021
6029 Clear 14 1027 63 10000 1.54 210 18:20 10.10.2021
6030 Clear 16 1027 53 10000 2.06 90 15:49 10.10.2021
6031 Clear 15 1028 59 10000 1.54 100 14:57 10.10.2021
6032 Clear 14 1028 61 10000 1.54 0 13:41 10.10.2021
6033 Clear 13 1028 64 10000 2.06 100 12:43 10.10.2021
6034 Clear 11 1027 66 10000 3.09 50 11:31 10.10.2021
6035 Clear 8 1027 77 10000 4.12 60 10:30 10.10.2021
6036 Clear 6 1027 85 10000 3.09 80 09:19 10.10.2021
6037 Clear 5 1025 87 10000 2.06 70 08:51 10.10.2021
6038 Clear 5 1028 90 10000 3.6 60 04:57 10.10.2021
6039 Clear 7 1029 87 10000 2.06 10 02:20 10.10.2021
6040 Clear 8 1029 85 10000 1.54 80 00:50 10.10.2021
6041 Clear 8 1029 83 10000 3.6 30 23:46 09.10.2021
6042 Clear 10 1029 78 10000 3.09 70 22:20 09.10.2021
6043 Clear 11 1029 74 10000 2.57 60 21:30 09.10.2021
6044 Clear 11 1028 72 10000 2.57 70 20:42 09.10.2021
6045 Clear 12 1028 64 10000 4.12 60 19:41 09.10.2021
6046 Clear 15 1028 52 10000 3.6 20 18:48 09.10.2021
6047 Clear 16 1028 55 10000 4.12 30 18:27 09.10.2021
6048 Clear 18 1026 48 10000 0.89 139 16:26 09.10.2021
6049 Clear 17 1029 53 10000 5.14 50 14:48 09.10.2021
6050 Clear 16 1029 54 10000 4.63 40 13:40 09.10.2021
6051 Clear 15 1028 57 10000 4.63 50 12:35 09.10.2021
6052 Clear 13 1028 74 10000 0.45 331 11:26 09.10.2021
6053 Clear 11 1028 76 10000 4.12 40 10:22 09.10.2021
6054 Clear 9 1026 84 10000 4.63 30 09:29 09.10.2021
6055 Clear 7 1026 91 10000 2.06 70 08:28 09.10.2021
6056 Clear 7 1027 90 10000 3.09 30 06:54 09.10.2021
6057 Clear 7 1028 92 10000 2.57 10 05:27 09.10.2021
6058 Clear 8 1029 88 10000 4.12 20 02:49 09.10.2021
6059 Clear 10 1029 86 10000 2.57 360 00:45 09.10.2021
6060 Clouds 10 1030 83 10000 3.6 20 23:36 08.10.2021
6061 Clouds 11 1030 81 10000 4.63 30 22:53 08.10.2021
6062 Clouds 12 1029 79 10000 5.14 40 21:48 08.10.2021
6063 Clouds 13 1029 75 10000 5.66 20 20:31 08.10.2021
6064 Clouds 15 1028 69 10000 5.14 20 18:50 08.10.2021
6065 Clouds 17 1029 64 10000 5.14 10 17:27 08.10.2021
6066 Clouds 17 1029 62 10000 5.14 20 16:48 08.10.2021
6067 Clouds 17 1029 62 10000 4.63 20 16:22 08.10.2021
6068 Clouds 17 1028 64 10000 6.17 60 13:50 08.10.2021
6069 Clouds 16 1030 67 10000 4.63 20 12:41 08.10.2021
6070 Clear 14 1028 69 10000 0.45 2 11:31 08.10.2021
6071 Clear 12 1028 76 10000 3.6 40 10:32 08.10.2021
6072 Clear 8 1029 95 10000 2.06 70 06:53 08.10.2021
6073 Clear 9 1030 90 10000 2.06 20 23:31 07.10.2021
6074 Clear 10 1030 89 10000 3.09 20 22:58 07.10.2021
6075 Clear 10 1030 89 10000 3.09 20 21:33 07.10.2021
6076 Clouds 11 1030 86 10000 2.57 10 20:56 07.10.2021
6077 Clouds 12 1029 82 10000 3.09 50 19:40 07.10.2021
6078 Clouds 13 1029 80 10000 2.06 20 19:22 07.10.2021
6079 Clouds 15 1028 67 10000 2.57 60 17:38 07.10.2021
6080 Clouds 16 1028 63 10000 2.06 80 16:42 07.10.2021
6081 Clouds 16 1029 60 10000 3.6 70 15:23 07.10.2021
6082 Clouds 15 1029 67 10000 2.57 50 13:45 07.10.2021
6083 Clouds 15 1029 76 10000 3.09 50 13:20 07.10.2021
6084 Clouds 14 1028 73 10000 2.57 350 12:36 07.10.2021
6085 Clouds 12 1028 91 10000 1.03 0 10:48 07.10.2021
6086 Clouds 12 1028 95 9000 2.06 120 10:19 07.10.2021
6087 Clouds 11 1026 99 6000 1.03 0 08:56 07.10.2021
6088 Clouds 10 1026 98 9000 1.54 150 08:25 07.10.2021
6089 Clouds 10 1026 97 10000 1.54 190 07:41 07.10.2021
6090 Clouds 10 1026 95 10000 1.54 180 06:54 07.10.2021
6091 Clouds 11 1024 94 10000 2.57 190 02:22 07.10.2021
6092 Clouds 11 1023 89 10000 2.57 190 23:37 06.10.2021
6093 Rain 11 1023 84 10000 3.6 190 22:45 06.10.2021
6094 Clouds 11 1023 80 10000 4.12 190 21:46 06.10.2021
6095 Clouds 12 1022 76 10000 3.6 190 20:34 06.10.2021
6096 Clouds 12 1021 74 10000 3.6 190 19:46 06.10.2021
6097 Clouds 13 1021 69 10000 3.6 210 18:33 06.10.2021
6098 Clouds 13 1020 74 10000 4.63 220 16:52 06.10.2021
6099 Clouds 13 1017 79 10000 4.63 200 15:26 06.10.2021
6100 Clouds 13 1017 77 10000 1.79 53 13:51 06.10.2021
6101 Rain 14 1017 71 10000 6.69 200 12:57 06.10.2021
6102 Rain 14 1016 73 10000 0.45 25 12:39 06.10.2021
6103 Clouds 14 1016 68 10000 0.45 108 12:20 06.10.2021
6104 Clouds 12 1016 83 10000 4.12 190 09:58 06.10.2021
6105 Clouds 11 1017 84 10000 4.12 190 09:38 06.10.2021
6106 Clouds 11 1017 86 10000 4.63 190 08:42 06.10.2021
6107 Clouds 10 1016 87 10000 3.6 180 07:20 06.10.2021
6108 Clouds 11 1015 89 10000 5.14 210 05:26 06.10.2021
6109 Clouds 11 1013 90 10000 3.6 210 00:26 06.10.2021
6110 Clear 11 1012 88 10000 4.12 200 23:57 05.10.2021
6111 Clear 11 1012 87 10000 4.12 200 23:38 05.10.2021
6112 Clear 11 1012 85 10000 5.66 210 23:19 05.10.2021
6113 Clouds 13 1010 88 10000 6.17 210 22:27 05.10.2021
6114 Clouds 13 1008 92 10000 0.45 21 21:44 05.10.2021
6115 Rain 14 1009 91 10000 4.12 180 20:41 05.10.2021
6116 Rain 14 1007 85 10000 0.45 23 20:22 05.10.2021
6117 Rain 14 1007 84 10000 0.89 324 19:42 05.10.2021
6118 Rain 15 1009 72 10000 5.14 170 18:49 05.10.2021
6119 Clouds 17 1007 67 10000 1.79 57 16:36 05.10.2021
6120 Clouds 16 1008 79 10000 3.6 160 14:36 05.10.2021
6121 Clouds 15 1009 84 10000 3.6 200 13:34 05.10.2021
6122 Clouds 14 1009 86 10000 2.57 180 12:46 05.10.2021
6123 Clouds 13 1010 88 10000 2.06 170 11:59 05.10.2021
6124 Clouds 13 1012 94 10000 2.06 0 10:59 05.10.2021
6125 Clouds 12 1012 98 7000 1.54 140 09:25 05.10.2021
6126 Rain 12 1015 97 10000 0.51 30 03:57 05.10.2021
6127 Clouds 12 1018 93 10000 1.03 30 23:53 04.10.2021
6128 Clouds 12 1019 93 10000 1.54 110 22:38 04.10.2021
6129 Clouds 13 1019 84 10000 2.06 150 19:59 04.10.2021
6130 Clouds 15 1019 77 10000 2.57 170 18:34 04.10.2021
6131 Clouds 16 1018 75 10000 0.89 85 16:24 04.10.2021
6132 Clouds 16 1018 75 10000 0.89 46 15:31 04.10.2021
6133 Clouds 15 1018 77 10000 0.89 11 14:42 04.10.2021
6134 Clouds 15 1018 82 10000 1.34 343 13:57 04.10.2021
6135 Rain 14 1018 87 10000 2.57 190 13:24 04.10.2021
6136 Rain 14 1018 90 10000 0.89 40 12:27 04.10.2021
6137 Rain 14 1018 92 10000 0.45 21 11:31 04.10.2021
6138 Rain 13 1020 97 10000 3.09 220 10:18 04.10.2021
6139 Rain 12 1018 97 10000 3.6 190 08:41 04.10.2021
6140 Rain 12 1018 93 10000 2.06 170 07:26 04.10.2021
6141 Rain 14 1013 84 10000 1.34 21 00:40 04.10.2021
6142 Rain 16 1013 89 10000 3.6 180 22:37 03.10.2021
6143 Rain 17 1010 83 10000 2.57 180 21:41 03.10.2021
6144 Rain 17 1010 80 10000 4.12 210 21:22 03.10.2021
6145 Rain 18 1008 76 10000 1.34 37 19:59 03.10.2021
6146 Rain 18 1008 74 10000 0.89 78 19:30 03.10.2021
6147 Clouds 19 1006 70 10000 2.68 14 18:28 03.10.2021
6148 Clouds 19 1005 68 10000 0.89 25 17:28 03.10.2021
6149 Rain 20 1002 71 10000 2.57 90 14:48 03.10.2021
6150 Rain 19 1003 68 10000 2.06 120 14:24 03.10.2021
6151 Rain 19 1003 73 10000 1.03 0 13:34 03.10.2021
6152 Clouds 18 1003 78 10000 0.51 0 12:41 03.10.2021
6153 Clouds 17 1003 78 10000 1.54 80 10:52 03.10.2021
6154 Rain 17 1001 73 10000 1.03 260 08:53 03.10.2021
6155 Clear 18 1002 65 10000 5.14 170 03:29 03.10.2021
6156 Clear 17 1005 68 10000 3.09 150 22:46 02.10.2021
6157 Clear 17 1006 68 10000 2.57 130 21:30 02.10.2021
6158 Clouds 17 1005 63 10000 2.91 149 19:54 02.10.2021
6159 Clear 18 1009 57 10000 2.06 150 18:56 02.10.2021
6160 Clear 20 1007 51 10000 3.09 180 18:18 02.10.2021
6161 Clouds 20 1008 53 10000 5.14 170 17:36 02.10.2021
6162 Clouds 21 1010 51 10000 5.66 180 15:53 02.10.2021
6163 Clear 7 1022 93 10000 1.03 0 06:59 01.10.2021
6164 Clouds 16 1027 44 10000 5.14 220 15:37 30.09.2021
6165 Clouds 15 1026 57 10000 3.13 14 13:51 30.09.2021
6166 Clouds 13 1027 70 10000 0.89 70 11:38 30.09.2021
6167 Clouds 11 1027 77 10000 4.63 210 10:44 30.09.2021
6168 Clouds 10 1027 83 10000 3.6 200 09:44 30.09.2021
6169 Clouds 7 1028 93 10000 1.54 190 08:30 30.09.2021
6170 Clear 7 1029 92 10000 1.03 0 07:34 30.09.2021
6171 Clear 7 1028 89 10000 3.6 170 05:18 30.09.2021
6172 Clear 9 1027 82 10000 3.09 210 01:20 30.09.2021
6173 Clouds 10 1026 77 10000 1.54 200 00:18 30.09.2021
6174 Clouds 11 1025 72 10000 3.09 220 22:31 29.09.2021
6175 Clouds 12 1024 65 10000 2.57 330 21:24 29.09.2021
6176 Clouds 13 1023 65 10000 2.57 230 20:27 29.09.2021
6177 Clouds 13 1022 60 10000 3.6 250 19:51 29.09.2021
6178 Clouds 14 1022 51 10000 7.72 270 18:45 29.09.2021
6179 Clouds 16 1021 59 10000 7.2 260 17:38 29.09.2021
6180 Clouds 16 1018 63 10000 0.89 208 16:47 29.09.2021
6181 Clouds 16 1016 76 10000 0.89 22 15:55 29.09.2021
6182 Rain 15 1017 74 3000 9.26 240 14:39 29.09.2021
6183 Rain 17 1016 67 10000 2.68 36 13:42 29.09.2021
6184 Clouds 17 1016 66 10000 3.58 37 13:18 29.09.2021
6185 Clouds 16 1016 70 10000 0.89 104 12:19 29.09.2021
6186 Clouds 14 1017 77 10000 3.6 210 10:49 29.09.2021
6187 Clouds 13 1017 82 10000 3.6 200 09:51 29.09.2021
6188 Clouds 13 1018 88 10000 1.54 210 09:24 29.09.2021
6189 Clear 11 1016 92 10000 2.57 220 07:32 29.09.2021
6190 Clouds 12 1016 91 10000 1.03 0 03:58 29.09.2021
6191 Clouds 12 1020 90 10000 2.06 70 23:27 28.09.2021
6192 Clouds 12 1020 89 10000 1.54 30 22:23 28.09.2021
6193 Clouds 13 1021 84 10000 1.54 350 21:44 28.09.2021
6194 Clear 14 1021 73 10000 2.06 80 20:39 28.09.2021
6195 Clear 15 1021 71 10000 2.57 80 19:46 28.09.2021
6196 Clouds 17 1021 58 10000 4.12 90 18:50 28.09.2021
6197 Clouds 17 1021 53 10000 3.09 80 18:18 28.09.2021
6198 Clouds 19 1022 53 10000 1.54 160 16:38 28.09.2021
6199 Clouds 18 1021 57 10000 2.06 120 14:30 28.09.2021
6200 Clouds 17 1022 62 10000 1.54 0 12:50 28.09.2021
6201 Clouds 16 1024 75 10000 1.54 90 12:21 28.09.2021
6202 Clouds 16 1025 79 10000 1.03 0 11:46 28.09.2021
6203 Clouds 15 1023 79 10000 1.03 0 11:19 28.09.2021
6204 Clouds 14 1023 83 10000 2.06 180 10:21 28.09.2021
6205 Clouds 12 1023 92 10000 1.03 0 09:18 28.09.2021
6206 Clouds 12 1025 96 10000 0.51 0 08:39 28.09.2021
6207 Clouds 11 1025 94 10000 1.54 160 07:48 28.09.2021
6208 Clear 11 1025 92 10000 1.54 190 05:31 28.09.2021
6209 Clouds 14 1023 86 10000 2.06 260 01:25 28.09.2021
6210 Rain 14 1019 80 10000 3.6 290 00:26 28.09.2021
6211 Clouds 15 1018 80 10000 4.63 300 23:42 27.09.2021
6212 Clouds 15 1018 80 10000 8.23 310 23:22 27.09.2021
6213 Clouds 19 1017 78 10000 3.09 190 21:55 27.09.2021
6214 Clouds 19 1018 80 10000 2.06 190 20:45 27.09.2021
6215 Clouds 20 1016 73 10000 3.09 210 19:57 27.09.2021
6216 Clouds 20 1016 72 10000 3.09 210 19:29 27.09.2021
6217 Clouds 20 1016 73 10000 3.09 220 18:52 27.09.2021
6218 Rain 21 1016 70 10000 2.57 180 17:33 27.09.2021
6219 Clouds 21 1016 70 10000 2.57 190 16:51 27.09.2021
6220 Clouds 21 1015 71 10000 2.06 200 15:46 27.09.2021
6221 Clouds 21 1016 71 10000 0.45 77 15:27 27.09.2021
6222 Clouds 20 1016 76 10000 3.6 220 13:35 27.09.2021
6223 Clouds 19 1016 78 10000 1.34 130 12:20 27.09.2021
6224 Clouds 17 1016 94 7000 1.34 25 10:42 27.09.2021
6225 Fog 16 1016 95 3200 2.06 210 09:38 27.09.2021
6226 Fog 15 1018 98 700 1.54 170 06:37 27.09.2021
6227 Fog 16 1018 97 3000 1.03 0 03:31 27.09.2021
6228 Fog 17 1018 95 1600 1.54 220 23:42 26.09.2021
6229 Clouds 17 1018 95 9000 1.03 0 21:55 26.09.2021
6230 Clouds 17 1019 96 9000 1.03 250 21:27 26.09.2021
6231 Clouds 18 1016 92 10000 1.03 0 20:25 26.09.2021
6232 Clouds 18 1016 92 10000 1.54 200 19:54 26.09.2021
6233 Clouds 18 1016 91 10000 1.54 220 19:25 26.09.2021
6234 Clouds 18 1016 91 10000 1.54 220 19:25 26.09.2021
6235 Clouds 18 1016 91 10000 1.54 220 19:25 26.09.2021
6236 Clouds 18 1016 91 10000 1.54 220 19:25 26.09.2021
6237 Clouds 18 1016 91 10000 1.54 220 19:25 26.09.2021
6238 Clouds 19 1018 89 10000 1.54 210 18:41 26.09.2021
6239 Clouds 20 1017 87 10000 3.09 250 17:38 26.09.2021
6240 Clouds 20 1017 84 10000 2.06 250 17:20 26.09.2021
6241 Clouds 20 1017 84 10000 1.54 250 16:22 26.09.2021
6242 Clouds 20 1016 88 10000 1.54 200 15:27 26.09.2021
6243 Rain 21 1017 81 10000 2.71 220 14:22 26.09.2021
6244 Clouds 21 1017 77 8000 2.57 210 13:42 26.09.2021
6245 Clouds 21 1017 71 10000 3.6 180 12:31 26.09.2021
6246 Clouds 21 1017 70 10000 0.45 329 11:56 26.09.2021
6247 Clouds 21 1017 72 10000 2.57 170 11:23 26.09.2021
6248 Clear 18 1016 78 10000 1.54 150 09:50 26.09.2021
6249 Clear 15 1015 85 10000 1.03 0 08:41 26.09.2021
6250 Clear 17 1016 70 10000 1.54 20 00:30 26.09.2021
6251 Clear 17 1016 70 10000 2.57 20 23:46 25.09.2021
6252 Clear 17 1016 72 10000 2.57 10 22:39 25.09.2021
6253 Clear 17 1016 72 10000 2.57 360 22:19 25.09.2021
6254 Clear 17 1016 72 10000 2.57 360 22:19 25.09.2021
6255 Clear 17 1016 72 10000 2.06 360 21:46 25.09.2021
6256 Clear 17 1017 71 10000 0.51 0 20:52 25.09.2021
6257 Clear 19 1017 55 10000 1.03 150 19:41 25.09.2021
6258 Clear 23 1016 43 10000 1.54 110 18:28 25.09.2021
6259 Clear 23 1017 41 10000 1.54 0 17:45 25.09.2021
6260 Clouds 23 1017 53 10000 1.54 0 14:46 25.09.2021
6261 Clouds 22 1017 62 10000 1.03 0 13:55 25.09.2021
6262 Clouds 21 1017 57 10000 1.54 0 12:46 25.09.2021
6263 Clouds 18 1017 70 10000 1.54 200 11:29 25.09.2021
6264 Clouds 16 1017 77 10000 1.03 0 10:20 25.09.2021
6265 Fog 14 1017 81 10000 1.03 0 09:24 25.09.2021
6266 Clear 12 1016 88 10000 1.2 180 07:50 25.09.2021
6267 Clear 13 1018 89 10000 1.13 243 00:59 25.09.2021
6268 Clouds 14 1018 90 10000 1.03 0 23:33 24.09.2021
6269 Clouds 16 1018 78 10000 1.54 230 21:39 24.09.2021
6270 Clouds 17 1018 73 10000 1.54 220 20:32 24.09.2021
6271 Clouds 19 1017 68 10000 1.54 200 19:43 24.09.2021
6272 Clouds 20 1016 60 10000 0.45 292 18:30 24.09.2021
6273 Clouds 21 1017 65 10000 3.6 240 17:53 24.09.2021
6274 Clouds 21 1017 65 10000 3.6 240 17:35 24.09.2021
6275 Clouds 21 1015 61 10000 2.24 39 16:35 24.09.2021
6276 Clouds 21 1018 59 10000 4.12 250 13:41 24.09.2021
6277 Clouds 20 1017 59 10000 0.45 271 12:44 24.09.2021
6278 Clouds 20 1017 59 10000 0.45 109 12:26 24.09.2021
6279 Clouds 18 1018 74 10000 4.12 190 11:28 24.09.2021
6280 Clouds 16 1018 83 10000 2.8 228 10:00 24.09.2021
6281 Clear 13 1018 89 10000 2.57 200 08:24 24.09.2021
6282 Clear 13 1019 88 10000 2.57 180 07:32 24.09.2021
6283 Clouds 13 1019 86 10000 2.06 170 06:32 24.09.2021
6284 Clouds 13 1018 84 10000 2.06 200 04:53 24.09.2021
6285 Clouds 16 1018 72 10000 3.09 230 22:46 23.09.2021
6286 Clear 16 1018 71 10000 4.12 260 22:19 23.09.2021
6287 Clear 17 1017 68 10000 3.09 280 21:44 23.09.2021
6288 Clear 18 1017 61 10000 3.6 230 20:33 23.09.2021
6289 Clear 21 1017 52 10000 5.14 260 19:18 23.09.2021
6290 Clear 21 1017 52 10000 5.14 260 19:18 23.09.2021
6291 Clear 20 1017 52 10000 5.14 260 19:18 23.09.2021
6292 Clear 23 1017 48 10000 5.66 230 17:45 23.09.2021
6293 Clear 23 1018 54 10000 4.12 170 15:21 23.09.2021
6294 Clear 22 1019 56 10000 4.12 170 14:59 23.09.2021
6295 Clear 21 1020 58 10000 4.12 210 13:45 23.09.2021
6296 Clear 20 1020 59 10000 3.6 180 13:19 23.09.2021
6297 Clear 19 1020 63 10000 2.57 200 12:47 23.09.2021
6298 Clear 18 1021 64 10000 3.09 220 12:22 23.09.2021
6299 Clear 16 1022 73 10000 3.6 210 11:23 23.09.2021
6300 Clear 14 1022 83 10000 2.06 170 10:20 23.09.2021
6301 Clear 12 1022 86 10000 1.54 190 09:51 23.09.2021
6302 Clouds 9 1022 98 10000 1.56 200 07:44 23.09.2021
6303 Clear 10 1025 92 10000 0.51 230 01:43 23.09.2021
6304 Clear 11 1027 89 10000 0.51 0 22:58 22.09.2021
6305 Clear 12 1027 88 10000 0.51 0 22:24 22.09.2021
6306 Clear 13 1027 87 10000 0.51 0 21:51 22.09.2021
6307 Clear 13 1027 87 10000 0.51 0 21:32 22.09.2021
6308 Clear 14 1026 81 10000 0.51 0 20:39 22.09.2021
6309 Clear 17 1027 64 10000 2.06 190 19:29 22.09.2021
6310 Clear 19 1027 60 10000 3.09 170 18:37 22.09.2021
6311 Clouds 21 1027 57 10000 0.88 103 17:43 22.09.2021
6312 Clouds 21 1028 58 10000 0.94 84 16:37 22.09.2021
6313 Clouds 20 1028 58 10000 1.54 0 14:55 22.09.2021
6314 Clouds 18 1029 61 10000 1.03 0 13:48 22.09.2021
6315 Clouds 15 1030 70 10000 1.54 80 11:41 22.09.2021
6316 Clouds 13 1030 76 10000 1.54 60 10:44 22.09.2021
6317 Clear 9 1030 88 10000 2.06 70 09:21 22.09.2021
6318 Clear 7 1030 94 10000 1.54 60 08:22 22.09.2021
6319 Clear 7 1031 92 10000 1.03 50 06:57 22.09.2021
6320 Clear 7 1030 92 10000 1.03 250 05:51 22.09.2021
6321 Clear 7 1030 94 10000 1.54 280 05:31 22.09.2021
6322 Clear 8 1030 91 10000 1.03 230 03:44 22.09.2021
6323 Clear 9 1030 87 10000 1.03 0 00:21 22.09.2021
6324 Clear 10 1031 83 10000 2.06 340 22:49 21.09.2021
6325 Clear 11 1031 80 10000 2.57 340 21:33 21.09.2021
6326 Clouds 13 1031 77 10000 1.01 13 20:24 21.09.2021
6327 Clouds 15 1031 67 10000 1.48 20 19:20 21.09.2021
6328 Clouds 17 1030 54 10000 4.12 10 17:20 21.09.2021
6329 Clouds 17 1030 53 10000 4.12 10 16:34 21.09.2021
6330 Clouds 17 1029 52 10000 4.12 30 15:38 21.09.2021
6331 Clouds 17 1029 54 10000 4.63 30 14:57 21.09.2021
6332 Clouds 17 1029 52 10000 3.6 30 13:56 21.09.2021
6333 Clouds 17 1029 55 10000 3.6 30 13:36 21.09.2021
6334 Clouds 15 1029 60 10000 3.6 40 11:45 21.09.2021
6335 Clear 12 1028 62 10000 4.12 40 09:58 21.09.2021
6336 Clouds 10 1027 66 10000 4.63 20 08:27 21.09.2021
6337 Clouds 12 1026 62 10000 4.63 20 06:41 21.09.2021
6338 Clouds 14 1024 67 10000 4.12 20 23:58 20.09.2021
6339 Clouds 14 1023 62 10000 3.6 20 22:25 20.09.2021
6340 Clouds 15 1023 58 10000 3.6 20 21:38 20.09.2021
6341 Clouds 15 1022 58 10000 4.12 30 20:31 20.09.2021
6342 Clouds 15 1022 65 10000 4.12 20 19:30 20.09.2021
6343 Clouds 16 1022 63 10000 4.63 20 17:46 20.09.2021
6344 Clouds 17 1020 62 10000 2.57 90 16:43 20.09.2021
6345 Clouds 17 1020 62 10000 2.57 90 16:43 20.09.2021
6346 Clouds 16 1020 61 10000 2.57 60 15:50 20.09.2021
6347 Clouds 16 1020 60 10000 3.09 90 15:25 20.09.2021
6348 Clouds 16 1020 61 10000 3.09 80 14:24 20.09.2021
6349 Clouds 15 1020 63 10000 3.6 70 12:35 20.09.2021
6350 Clouds 14 1019 70 10000 3.6 50 11:26 20.09.2021
6351 Clouds 13 1019 75 10000 3.09 50 10:18 20.09.2021
6352 Clouds 12 1019 78 10000 3.6 20 09:37 20.09.2021
6353 Clouds 12 1019 79 10000 3.6 20 09:18 20.09.2021
6354 Clouds 12 1019 81 10000 3.6 20 07:50 20.09.2021
6355 Clouds 13 1018 79 10000 3.09 30 00:36 20.09.2021
6356 Clouds 14 1017 76 10000 4.12 20 22:26 19.09.2021
6357 Clouds 14 1017 76 10000 5.14 20 21:43 19.09.2021
6358 Clear 14 1016 74 10000 5.66 30 20:51 19.09.2021
6359 Clouds 16 1016 73 10000 5.66 20 19:32 19.09.2021
6360 Clouds 17 1016 72 10000 6.17 10 18:30 19.09.2021
6361 Clouds 18 1015 69 10000 7.2 30 17:23 19.09.2021
6362 Clouds 18 1015 66 10000 3.09 50 15:59 19.09.2021
6363 Clouds 18 1015 66 10000 3.09 30 15:31 19.09.2021
6364 Clouds 19 1015 66 10000 4.63 50 14:48 19.09.2021
6365 Clouds 18 1016 66 10000 4.63 50 13:29 19.09.2021
6366 Clouds 18 1016 67 10000 4.63 70 12:52 19.09.2021
6367 Clouds 17 1016 70 10000 6.17 70 11:29 19.09.2021
6368 Clouds 16 1016 73 10000 5.66 70 10:56 19.09.2021
6369 Clouds 14 1016 79 10000 5.14 50 09:49 19.09.2021
6370 Clouds 13 1016 90 10000 2.57 60 08:41 19.09.2021
6371 Clear 11 1015 92 10000 2.57 10 06:43 19.09.2021
6372 Clear 14 1017 84 10000 4.12 20 23:57 18.09.2021
6373 Clear 15 1017 80 10000 4.63 40 22:54 18.09.2021
6374 Clear 16 1016 74 10000 3.09 70 21:25 18.09.2021
6375 Clear 17 1016 73 10000 4.12 60 20:45 18.09.2021
6376 Clear 19 1016 68 10000 4.12 60 19:41 18.09.2021
6377 Clear 20 1016 64 10000 3.6 60 19:21 18.09.2021
6378 Clouds 20 1016 62 10000 4.12 60 18:37 18.09.2021
6379 Clouds 21 1016 58 10000 3.6 60 17:46 18.09.2021
6380 Clouds 22 1016 58 10000 3.6 60 16:34 18.09.2021
6381 Clouds 21 1018 65 10000 3.09 30 13:51 18.09.2021
6382 Clouds 21 1018 71 10000 3.09 30 13:31 18.09.2021
6383 Clouds 20 1018 73 10000 2.57 50 12:51 18.09.2021
6384 Clouds 18 1017 80 8000 2.06 350 11:42 18.09.2021
6385 Fog 15 1018 90 3000 1.54 20 10:37 18.09.2021
6386 Fog 14 1017 94 800 1.54 70 09:52 18.09.2021
6387 Fog 13 1017 92 800 1.54 80 09:20 18.09.2021
6388 Fog 10 1017 96 6000 1.03 230 07:36 18.09.2021
6389 Clouds 13 1017 91 10000 0.96 13 00:42 18.09.2021
6390 Clouds 14 1017 90 10000 0.96 13 23:53 17.09.2021
6391 Clouds 14 1017 88 10000 1.04 360 22:42 17.09.2021
6392 Clouds 15 1017 88 10000 1.09 347 22:21 17.09.2021
6393 Clear 15 1016 86 10000 1.03 0 21:27 17.09.2021
6394 Clouds 19 1016 77 10000 1.54 260 19:29 17.09.2021
6395 Clouds 20 1015 70 10000 1.54 260 17:55 17.09.2021
6396 Clouds 20 1016 66 10000 1.54 280 16:33 17.09.2021
6397 Clouds 20 1017 66 10000 2.57 290 14:32 17.09.2021
6398 Clouds 17 1018 82 10000 1.54 210 11:30 17.09.2021
6399 Clouds 14 1018 92 10000 1.54 220 09:24 17.09.2021
6400 Clear 11 1018 96 10000 1.03 200 07:35 17.09.2021
6401 Clear 12 1018 93 10000 1.03 190 04:25 17.09.2021
6402 Clear 15 1018 88 10000 1.54 230 23:41 16.09.2021
6403 Clear 16 1019 85 10000 1.54 180 22:33 16.09.2021
6404 Clear 16 1018 82 10000 2.06 250 21:52 16.09.2021
6405 Clear 17 1018 79 10000 2.57 260 21:27 16.09.2021
6406 Clouds 17 1018 76 10000 3.09 300 20:28 16.09.2021
6407 Clouds 19 1017 70 10000 3.6 0 18:28 16.09.2021
6408 Clouds 19 1017 70 10000 3.6 300 17:58 16.09.2021
6409 Clouds 18 1018 69 10000 3.6 300 15:31 16.09.2021
6410 Clouds 18 1018 71 10000 4.12 310 14:35 16.09.2021
6411 Clouds 17 1018 72 10000 5.66 310 12:59 16.09.2021
6412 Clouds 17 1018 71 10000 5.66 310 12:36 16.09.2021
6413 Clouds 17 1018 72 10000 4.63 300 11:46 16.09.2021
6414 Clouds 17 1018 76 10000 5.66 310 10:40 16.09.2021
6415 Clouds 16 1017 77 10000 5.14 310 10:18 16.09.2021
6416 Clouds 16 1016 87 10000 4.63 320 08:43 16.09.2021
6417 Clouds 16 1015 90 10000 2.57 300 07:46 16.09.2021
6418 Clouds 16 1015 92 10000 2.57 320 06:55 16.09.2021
6419 Clouds 16 1014 95 10000 3.6 300 06:31 16.09.2021
6420 Clouds 17 1014 93 10000 2.06 280 02:58 16.09.2021
6421 Clouds 18 1013 92 9000 2.57 280 00:46 16.09.2021
6422 Clouds 19 1013 94 10000 2.57 200 22:52 15.09.2021
6423 Clouds 19 1012 94 10000 2.57 200 21:56 15.09.2021
6424 Clouds 19 1012 93 10000 2.57 210 21:30 15.09.2021
6425 Rain 20 1012 91 8000 3.6 200 20:24 15.09.2021
6426 Rain 21 1011 87 10000 3.6 190 19:29 15.09.2021
6427 Rain 21 1011 84 10000 4.12 190 18:25 15.09.2021
6428 Clouds 22 1011 83 10000 5.14 190 17:27 15.09.2021
6429 Clouds 22 1011 89 10000 4.63 180 16:28 15.09.2021
6430 Rain 21 1012 89 10000 4.12 180 14:53 15.09.2021
6431 Rain 21 1012 89 10000 4.12 180 14:33 15.09.2021
6432 Rain 20 1012 93 10000 3.6 180 13:42 15.09.2021
6433 Rain 20 1013 93 10000 3.6 190 13:23 15.09.2021
6434 Drizzle 20 1013 94 10000 3.09 180 12:23 15.09.2021
6435 Drizzle 20 1013 95 9000 3.09 180 11:49 15.09.2021
6436 Rain 19 1013 97 7000 2.57 180 10:57 15.09.2021
6437 Rain 19 1013 96 7000 2.57 180 09:44 15.09.2021
6438 Rain 18 1013 93 10000 2.06 210 08:46 15.09.2021
6439 Clouds 18 1013 92 10000 0.51 0 06:28 15.09.2021
6440 Clear 19 1014 89 10000 0.51 0 00:37 15.09.2021
6441 Clear 20 1014 86 10000 1.03 0 22:22 14.09.2021
6442 Clear 21 1015 83 10000 1.54 80 21:19 14.09.2021
6443 Clouds 22 1014 82 10000 1.03 160 19:58 14.09.2021
6444 Clear 24 1014 69 10000 0.51 0 18:44 14.09.2021
6445 Clouds 25 1015 62 10000 2.06 230 17:32 14.09.2021
6446 Clouds 25 1014 59 10000 2.06 180 15:59 14.09.2021
6447 Clouds 25 1016 60 10000 2.57 180 14:32 14.09.2021
6448 Clouds 24 1016 63 10000 1.03 0 13:33 14.09.2021
6449 Clear 21 1016 70 10000 1.03 0 11:41 14.09.2021
6450 Clear 19 1016 75 10000 2.57 50 10:20 14.09.2021
6451 Clear 18 1015 78 10000 2.57 30 09:45 14.09.2021
6452 Clear 13 1016 90 10000 2.06 60 07:28 14.09.2021
6453 Clear 16 1018 84 10000 3.6 30 00:57 14.09.2021
6454 Clear 16 1018 83 10000 3.6 20 23:27 13.09.2021
6455 Clear 16 1018 83 10000 3.09 10 22:27 13.09.2021
6456 Clear 17 1018 79 10000 2.06 360 21:55 13.09.2021
6457 Clear 17 1017 77 10000 2.57 10 21:23 13.09.2021
6458 Clear 21 1017 64 10000 3.09 20 19:34 13.09.2021
6459 Clear 22 1017 58 10000 3.09 10 18:44 13.09.2021
6460 Clouds 23 1018 53 10000 3.6 0 17:27 13.09.2021
6461 Clouds 24 1018 53 10000 2.57 40 16:23 13.09.2021
6462 Clouds 23 1019 52 10000 3.09 0 14:43 13.09.2021
6463 Clouds 20 1019 71 10000 2.57 60 11:43 13.09.2021
6464 Clear 17 1020 81 10000 2.06 20 10:26 13.09.2021
6465 Clear 11 1019 92 10000 0.51 0 07:58 13.09.2021
6466 Clear 14 1019 89 10000 1.03 0 00:29 13.09.2021
6467 Clear 16 1019 82 10000 1.54 360 22:43 12.09.2021
6468 Clear 16 1018 83 10000 1.03 0 22:21 12.09.2021
6469 Clear 17 1018 78 10000 2.06 330 20:47 12.09.2021
6470 Clear 20 1017 70 10000 2.57 320 19:58 12.09.2021
6471 Clear 21 1017 62 10000 2.57 280 19:29 12.09.2021
6472 Clear 22 1017 55 10000 3.09 270 18:53 12.09.2021
6473 Clear 23 1018 53 10000 1.54 220 17:18 12.09.2021
6474 Clouds 24 1018 53 10000 3.09 0 15:41 12.09.2021
6475 Clouds 23 1019 55 10000 2.06 0 14:38 12.09.2021
6476 Clouds 22 1020 63 10000 3.09 190 12:39 12.09.2021
6477 Clouds 18 1020 80 10000 2.06 190 10:21 12.09.2021
6478 Clouds 15 1020 94 10000 2.06 220 08:39 12.09.2021
6479 Clouds 14 1019 95 10000 1.03 0 04:59 12.09.2021
6480 Clear 15 1019 95 10000 1.54 240 00:47 12.09.2021
6481 Clear 17 1019 93 10000 0.51 0 22:35 11.09.2021
6482 Clear 18 1019 90 10000 1.03 0 21:38 11.09.2021
6483 Clouds 21 1018 85 10000 2.06 160 19:39 11.09.2021
6484 Clouds 22 1018 81 10000 2.57 160 17:56 11.09.2021
6485 Clouds 22 1018 81 10000 2.06 170 17:27 11.09.2021
6486 Clouds 22 1017 84 10000 1.54 200 15:35 11.09.2021
6487 Clouds 22 1018 71 10000 5.14 200 13:22 11.09.2021
6488 Clouds 21 1018 76 10000 4.12 200 11:42 11.09.2021
6489 Clouds 19 1018 87 10000 3.09 190 10:27 11.09.2021
6490 Clouds 18 1017 89 10000 3.09 180 08:51 11.09.2021
6491 Clouds 17 1018 93 10000 2.57 190 07:43 11.09.2021
6492 Clouds 17 1018 93 10000 2.06 190 04:23 11.09.2021
6493 Clouds 19 1017 90 10000 1.03 0 22:37 10.09.2021
6494 Rain 19 1017 93 10000 1.03 240 21:57 10.09.2021
6495 Clouds 19 1017 92 10000 1.03 240 21:38 10.09.2021
6496 Thunderstorm 20 1016 82 10000 3.09 330 19:31 10.09.2021
6497 Clouds 23 1015 67 10000 4.63 180 17:56 10.09.2021
6498 Clouds 24 1015 69 10000 4.63 220 16:27 10.09.2021
6499 Clouds 23 1016 66 10000 4.63 190 13:29 10.09.2021
6500 Clouds 22 1016 72 10000 3.6 210 10:52 10.09.2021
6501 Clouds 18 1015 85 10000 2.57 200 07:52 10.09.2021
6502 Clouds 18 1014 85 10000 2.57 200 07:21 10.09.2021
6503 Clear 20 1014 77 10000 1.54 250 00:24 10.09.2021
6504 Clouds 22 1014 72 10000 3.09 170 21:54 09.09.2021
6505 Clear 23 1013 71 10000 2.57 180 20:48 09.09.2021
6506 Clear 23 1013 71 10000 2.57 180 20:27 09.09.2021
6507 Clouds 25 1012 64 10000 4.12 210 18:46 09.09.2021
6508 Clouds 26 1012 63 10000 4.63 230 17:51 09.09.2021
6509 Clouds 27 1012 57 10000 6.69 230 16:39 09.09.2021
6510 Clouds 27 1012 53 10000 3.6 220 15:25 09.09.2021
6511 Clouds 25 1013 56 10000 4.63 210 12:33 09.09.2021
6512 Clear 23 1013 63 10000 2.57 180 11:22 09.09.2021
6513 Clear 20 1012 67 10000 1.03 0 09:36 09.09.2021
6514 Clear 16 1012 82 10000 2.06 60 07:56 09.09.2021
6515 Clear 14 1013 84 10000 2.57 360 05:51 09.09.2021
6516 Clear 17 1014 78 10000 2.57 360 00:33 09.09.2021
6517 Clear 20 1014 65 10000 3.09 70 21:49 08.09.2021
6518 Clear 21 1015 63 10000 3.09 60 20:54 08.09.2021
6519 Clear 24 1013 51 10000 3.09 80 19:46 08.09.2021
6520 Clear 26 1014 45 10000 4.12 110 18:49 08.09.2021
6521 Clear 27 1015 44 10000 4.63 80 18:25 08.09.2021
6522 Clear 27 1015 43 10000 4.12 110 17:40 08.09.2021
6523 Clear 27 1016 44 10000 5.66 70 15:49 08.09.2021
6524 Clear 25 1018 53 10000 5.14 70 13:46 08.09.2021
6525 Clouds 24 1019 55 10000 3.09 70 12:42 08.09.2021
6526 Clouds 24 1019 57 10000 3.09 80 12:23 08.09.2021
6527 Clear 22 1020 63 10000 3.6 70 11:26 08.09.2021
6528 Clear 21 1019 62 10000 4.12 60 10:31 08.09.2021
6529 Clear 19 1019 70 10000 3.6 50 09:57 08.09.2021
6530 Clear 15 1020 85 10000 4.12 30 07:47 08.09.2021
6531 Clear 14 1020 88 10000 3.6 30 07:19 08.09.2021
6532 Clear 18 1022 73 10000 3.6 20 23:41 07.09.2021
6533 Clear 19 1022 70 10000 3.09 10 22:19 07.09.2021
6534 Clear 21 1022 61 10000 3.09 10 20:45 07.09.2021
6535 Clear 23 1021 56 10000 2.57 30 19:40 07.09.2021
6536 Clear 25 1022 49 10000 3.6 10 18:37 07.09.2021
6537 Clear 26 1023 47 10000 3.09 360 17:38 07.09.2021
6538 Clear 26 1023 44 10000 2.06 0 15:57 07.09.2021
6539 Clear 26 1024 45 10000 2.57 0 14:54 07.09.2021
6540 Clear 25 1024 50 10000 2.57 90 13:52 07.09.2021
6541 Clear 23 1024 59 10000 2.57 360 12:20 07.09.2021
6542 Clear 20 1025 69 10000 2.57 30 10:59 07.09.2021
6543 Clear 20 1025 69 10000 2.57 30 10:59 07.09.2021
6544 Clear 19 1025 72 10000 1.54 30 10:20 07.09.2021
6545 Clear 15 1024 85 10000 0.51 0 07:48 07.09.2021
6546 Clear 14 1024 87 10000 1.54 10 06:31 07.09.2021
6547 Clear 15 1024 87 10000 2.06 80 02:39 07.09.2021
6548 Clear 16 1024 88 10000 2.06 70 02:20 07.09.2021
6549 Clear 18 1024 78 10000 1.54 360 00:21 07.09.2021
6550 Clear 18 1024 78 10000 1.54 30 23:31 06.09.2021
6551 Clear 19 1024 76 10000 1.54 340 22:53 06.09.2021
6552 Clear 19 1024 76 10000 1.54 350 22:24 06.09.2021
6553 Clear 22 1023 64 10000 2.06 90 20:37 06.09.2021
6554 Clear 25 1023 54 10000 1.54 160 19:22 06.09.2021
6555 Clear 26 1022 50 10000 1.54 190 18:36 06.09.2021
6556 Clear 27 1023 42 10000 1.03 0 17:54 06.09.2021
6557 Clear 28 1024 42 10000 2.57 130 16:35 06.09.2021
6558 Clear 28 1024 41 10000 2.57 360 15:34 06.09.2021
6559 Clear 26 1024 51 10000 1.54 0 13:45 06.09.2021
6560 Clouds 25 1025 57 10000 1.54 0 12:45 06.09.2021
6561 Clouds 21 1024 66 10000 2.57 80 10:37 06.09.2021
6562 Clear 14 1023 84 10000 3.09 80 07:54 06.09.2021
6563 Clear 15 1023 80 10000 2.57 80 04:38 06.09.2021
6564 Clear 18 1022 74 10000 2.57 20 23:24 05.09.2021
6565 Clear 20 1022 70 10000 3.09 40 22:33 05.09.2021
6566 Clear 20 1022 69 10000 3.6 60 21:56 05.09.2021
6567 Clear 21 1022 66 10000 3.09 30 21:21 05.09.2021
6568 Clear 24 1021 57 10000 2.06 50 19:48 05.09.2021
6569 Clear 26 1020 44 10000 3.09 50 18:32 05.09.2021
6570 Clear 27 1021 41 10000 2.57 50 17:22 05.09.2021
6571 Clear 27 1021 43 10000 2.06 0 15:24 05.09.2021
6572 Clouds 25 1021 57 10000 2.57 80 13:40 05.09.2021
6573 Clouds 22 1021 67 10000 3.6 70 11:45 05.09.2021
6574 Clear 20 1020 70 10000 3.6 70 10:47 05.09.2021
6575 Clear 19 1021 74 10000 3.09 50 10:22 05.09.2021
6576 Clear 15 1020 83 10000 3.6 40 08:37 05.09.2021
6577 Clear 13 1020 90 10000 2.57 70 07:31 05.09.2021
6578 Clear 17 1019 80 10000 3.09 30 00:46 05.09.2021
6579 Clear 17 1019 79 10000 3.6 30 00:21 05.09.2021
6580 Clear 18 1018 78 10000 6.17 20 23:29 04.09.2021
6581 Clear 19 1018 75 10000 4.63 10 22:35 04.09.2021
6582 Clear 20 1018 73 10000 4.12 10 21:44 04.09.2021
6583 Clear 24 1016 53 10000 2.06 70 19:40 04.09.2021
6584 Clear 26 1017 47 10000 1.54 0 18:19 04.09.2021
6585 Clear 26 1017 45 10000 2.57 120 15:53 04.09.2021
6586 Clouds 23 1018 61 10000 2.06 80 12:22 04.09.2021
6587 Clouds 22 1019 67 10000 3.6 70 11:18 04.09.2021
6588 Clear 15 1018 84 10000 2.06 70 08:46 04.09.2021
6589 Clear 14 1019 88 10000 1.54 60 02:32 04.09.2021
6590 Clear 15 1019 84 10000 2.57 10 00:23 04.09.2021
6591 Clear 17 1019 82 10000 2.57 350 23:23 03.09.2021
6592 Clear 18 1019 73 10000 1.03 0 21:53 03.09.2021
6593 Clear 19 1019 71 10000 0.51 110 21:31 03.09.2021
6594 Clear 20 1017 66 10000 1.54 130 20:41 03.09.2021
6595 Clear 23 1017 53 10000 2.57 50 19:46 03.09.2021
6596 Clear 25 1018 45 10000 2.57 0 18:55 03.09.2021
6597 Clear 26 1018 41 10000 2.57 0 17:40 03.09.2021
6598 Clear 26 1020 42 10000 3.6 110 16:23 03.09.2021
6599 Clear 25 1021 49 10000 3.6 100 14:47 03.09.2021
6600 Clouds 22 1023 62 10000 2.57 70 11:56 03.09.2021
6601 Clear 19 1023 73 10000 3.09 50 10:26 03.09.2021
6602 Clear 14 1023 89 10000 3.09 60 08:39 03.09.2021
6603 Clear 12 1022 90 10000 3.09 70 07:39 03.09.2021
6604 Clear 15 1024 87 10000 2.06 70 00:44 03.09.2021
6605 Clear 16 1024 81 10000 2.57 10 22:54 02.09.2021
6606 Clear 18 1024 75 10000 4.12 60 21:25 02.09.2021
6607 Clear 22 1024 55 10000 5.14 90 19:27 02.09.2021
6608 Clear 24 1025 51 10000 4.63 70 17:31 02.09.2021
6609 Clouds 23 1026 52 10000 6.17 70 15:49 02.09.2021
6610 Clouds 22 1027 57 10000 4.63 90 13:57 02.09.2021
6611 Clouds 22 1027 63 10000 4.12 90 12:42 02.09.2021
6612 Clouds 20 1028 69 10000 4.63 90 11:34 02.09.2021
6613 Clouds 16 1027 78 10000 3.09 30 09:40 02.09.2021
6614 Clear 11 1027 91 10000 2.57 80 07:47 02.09.2021
6615 Clear 11 1027 91 10000 3.09 30 06:58 02.09.2021
6616 Clear 12 1027 88 10000 2.57 40 02:54 02.09.2021
6617 Clear 12 1028 88 10000 2.57 10 01:55 02.09.2021
6618 Clear 12 1028 87 10000 3.09 10 01:23 02.09.2021
6619 Clear 14 1028 83 10000 4.12 10 23:37 01.09.2021
6620 Clear 15 1028 77 10000 3.09 20 22:39 01.09.2021
6621 Clear 16 1027 75 10000 3.6 10 21:35 01.09.2021
6622 Clear 18 1027 67 10000 4.63 20 20:28 01.09.2021
6623 Clouds 21 1027 57 10000 2.06 20 18:33 01.09.2021
6624 Clouds 21 1027 58 10000 3.09 360 17:38 01.09.2021
6625 Clouds 21 1027 57 10000 4.12 40 16:47 01.09.2021
6626 Clouds 21 1028 59 10000 3.6 340 15:27 01.09.2021
6627 Clouds 18 1027 72 10000 4.63 50 11:50 01.09.2021
6628 Clouds 17 1028 78 10000 4.12 30 10:59 01.09.2021
6629 Clouds 14 1028 88 10000 1.03 0 08:46 01.09.2021
6630 Clear 12 1027 91 10000 1.54 280 07:51 01.09.2021
6631 Clear 12 1026 91 10000 1.54 50 01:48 01.09.2021
6632 Clear 15 1025 86 10000 2.57 320 22:38 31.08.2021
6633 Clouds 16 1025 81 10000 2.57 330 21:23 31.08.2021
6634 Clouds 19 1023 66 10000 3.6 320 19:45 31.08.2021
6635 Clouds 21 1024 62 10000 5.14 320 18:28 31.08.2021
6636 Clouds 21 1024 61 10000 3.09 290 17:36 31.08.2021
6637 Clouds 21 1024 57 10000 3.09 20 16:53 31.08.2021
6638 Clouds 21 1024 60 10000 3.09 20 16:24 31.08.2021
6639 Clouds 20 1024 67 10000 4.12 30 13:20 31.08.2021
6640 Clouds 18 1024 70 10000 4.12 20 11:27 31.08.2021
6641 Clouds 18 1024 73 10000 3.6 10 10:52 31.08.2021
6642 Clouds 16 1023 78 10000 5.14 10 09:44 31.08.2021
6643 Clouds 15 1023 84 10000 3.09 10 08:38 31.08.2021
6644 Clouds 13 1021 88 10000 3.6 340 05:59 31.08.2021
6645 Clear 14 1021 88 10000 2.06 330 02:40 31.08.2021
6646 Clear 16 1020 86 10000 3.6 350 23:35 30.08.2021
6647 Clouds 17 1020 83 10000 3.09 360 21:45 30.08.2021
6648 Clear 17 1019 86 10000 2.06 10 21:27 30.08.2021
6649 Clouds 18 1019 79 10000 3.09 30 20:20 30.08.2021
6650 Clouds 19 1019 76 10000 4.63 30 19:29 30.08.2021
6651 Clouds 19 1018 74 10000 4.63 20 18:30 30.08.2021
6652 Clouds 19 1017 75 10000 4.12 20 17:45 30.08.2021
6653 Clouds 18 1018 79 10000 2.57 360 16:22 30.08.2021
6654 Clouds 18 1018 82 10000 2.57 20 15:38 30.08.2021
6655 Clouds 18 1018 75 10000 4.12 360 13:35 30.08.2021
6656 Clouds 18 1018 77 10000 5.66 350 12:24 30.08.2021
6657 Clouds 16 1017 83 10000 2.06 310 09:30 30.08.2021
6658 Clouds 15 1017 91 10000 2.06 310 22:28 29.08.2021
6659 Clouds 16 1017 90 10000 2.57 290 21:33 29.08.2021
6660 Clouds 16 1017 89 10000 1.03 0 19:59 29.08.2021
6661 Clouds 16 1016 89 10000 2.06 250 19:19 29.08.2021
6662 Clouds 16 1017 88 10000 4.12 270 17:50 29.08.2021
6663 Clouds 16 1017 90 10000 3.6 280 15:48 29.08.2021
6664 Rain 16 1017 90 10000 3.6 300 14:19 29.08.2021
6665 Clouds 16 1017 91 10000 3.09 300 13:43 29.08.2021
6666 Clouds 15 1017 91 10000 3.09 290 12:32 29.08.2021